<?xml version='1.0' encoding='UTF-8'?><gpx version="1.1" creator="JPX - https://github.com/jenetics/jpx" xmlns="http://www.topografix.com/GPX/1/1"><trk><trkseg><trkpt lat="44.79668518896681" lon="10.343424476067867"><ele>59.0</ele><time>2026-03-28T16:09:56Z</time></trkpt><trkpt lat="44.796747498689484" lon="10.343512956083353"><ele>59.00000000000001</ele><time>2026-03-28T16:10:19Z</time></trkpt><trkpt lat="44.79677058076549" lon="10.343601325559593"><ele>59.00000000000001</ele><time>2026-03-28T16:10:21Z</time></trkpt><trkpt lat="44.79679295751893" lon="10.343700551657209"><ele>59.0</ele><time>2026-03-28T16:10:22Z</time></trkpt><trkpt lat="44.79681575334737" lon="10.34385206348072"><ele>59.0</ele><time>2026-03-28T16:10:24Z</time></trkpt><trkpt lat="44.79684645832855" lon="10.3440189220148"><ele>58.400000000000006</ele><time>2026-03-28T16:10:26Z</time></trkpt><trkpt lat="44.79686402837394" lon="10.344163893839557"><ele>57.800000000000004</ele><time>2026-03-28T16:10:28Z</time></trkpt><trkpt lat="44.796884463579666" lon="10.34428428648526"><ele>57.199999999999996</ele><time>2026-03-28T16:10:30Z</time></trkpt><trkpt lat="44.796888960920306" lon="10.344425458739265"><ele>56.599999999999994</ele><time>2026-03-28T16:10:32Z</time></trkpt><trkpt lat="44.796869517245206" lon="10.344539442526303"><ele>56.0</ele><time>2026-03-28T16:10:34Z</time></trkpt><trkpt lat="44.796847519023515" lon="10.344670304879015"><ele>55.8</ele><time>2026-03-28T16:10:37Z</time></trkpt><trkpt lat="44.79688214518393" lon="10.344799191131028"><ele>55.599999999999994</ele><time>2026-03-28T16:10:39Z</time></trkpt><trkpt lat="44.79697694533252" lon="10.344904902499637"><ele>55.4</ele><time>2026-03-28T16:10:41Z</time></trkpt><trkpt lat="44.79702783050994" lon="10.344966208828936"><ele>55.2</ele><time>2026-03-28T16:10:42Z</time></trkpt><trkpt lat="44.79709016105989" lon="10.34503101855557"><ele>55.0</ele><time>2026-03-28T16:10:43Z</time></trkpt><trkpt lat="44.79715649191565" lon="10.345110496225006"><ele>55.0</ele><time>2026-03-28T16:10:44Z</time></trkpt><trkpt lat="44.79722382302492" lon="10.345199412755436"><ele>55.0</ele><time>2026-03-28T16:10:45Z</time></trkpt><trkpt lat="44.79729866087558" lon="10.345292567989905"><ele>55.0</ele><time>2026-03-28T16:10:46Z</time></trkpt><trkpt lat="44.797375434342236" lon="10.345388493095976"><ele>55.0</ele><time>2026-03-28T16:10:47Z</time></trkpt><trkpt lat="44.797452008821736" lon="10.345495631411934"><ele>55.0</ele><time>2026-03-28T16:10:48Z</time></trkpt><trkpt lat="44.79753678152877" lon="10.345599135044916"><ele>54.75</ele><time>2026-03-28T16:10:49Z</time></trkpt><trkpt lat="44.79762119642819" lon="10.345703216732941"><ele>54.5</ele><time>2026-03-28T16:10:50Z</time></trkpt><trkpt lat="44.79770710869319" lon="10.34580981245622"><ele>54.25</ele><time>2026-03-28T16:10:51Z</time></trkpt><trkpt lat="44.79778828503678" lon="10.345927421634109"><ele>54.0</ele><time>2026-03-28T16:10:52Z</time></trkpt><trkpt lat="44.79787294097494" lon="10.34604194028487"><ele>53.25</ele><time>2026-03-28T16:10:53Z</time></trkpt><trkpt lat="44.79796048769843" lon="10.34615655098898"><ele>52.5</ele><time>2026-03-28T16:10:54Z</time></trkpt><trkpt lat="44.7980510019076" lon="10.346270715075326"><ele>51.75</ele><time>2026-03-28T16:10:55Z</time></trkpt><trkpt lat="44.79813943373965" lon="10.346388090604691"><ele>51.0</ele><time>2026-03-28T16:10:56Z</time></trkpt><trkpt lat="44.79822728472909" lon="10.34650582455297"><ele>51.0</ele><time>2026-03-28T16:10:57Z</time></trkpt><trkpt lat="44.7983165620163" lon="10.346624680586691"><ele>51.0</ele><time>2026-03-28T16:10:58Z</time></trkpt><trkpt lat="44.79840581920281" lon="10.346741145974203"><ele>51.0</ele><time>2026-03-28T16:10:59Z</time></trkpt><trkpt lat="44.79849486228664" lon="10.346857666461084"><ele>51.0</ele><time>2026-03-28T16:11:00Z</time></trkpt><trkpt lat="44.798585173592635" lon="10.346971106236964"><ele>51.0</ele><time>2026-03-28T16:11:01Z</time></trkpt><trkpt lat="44.79867536333748" lon="10.347085830543264"><ele>51.0</ele><time>2026-03-28T16:11:02Z</time></trkpt><trkpt lat="44.79876458511472" lon="10.347201927861185"><ele>51.0</ele><time>2026-03-28T16:11:03Z</time></trkpt><trkpt lat="44.798854480438166" lon="10.347317339498373"><ele>51.0</ele><time>2026-03-28T16:11:04Z</time></trkpt><trkpt lat="44.79894306201157" lon="10.347434832634782"><ele>51.5</ele><time>2026-03-28T16:11:05Z</time></trkpt><trkpt lat="44.799030772980245" lon="10.347552847762236"><ele>52.0</ele><time>2026-03-28T16:11:06Z</time></trkpt><trkpt lat="44.79912282808799" lon="10.34766905115827"><ele>52.5</ele><time>2026-03-28T16:11:07Z</time></trkpt><trkpt lat="44.79921018012034" lon="10.34778306974694"><ele>53.0</ele><time>2026-03-28T16:11:08Z</time></trkpt><trkpt lat="44.799294666986874" lon="10.347892949337542"><ele>52.599999999999994</ele><time>2026-03-28T16:11:09Z</time></trkpt><trkpt lat="44.79937768668974" lon="10.348001195862226"><ele>52.199999999999996</ele><time>2026-03-28T16:11:10Z</time></trkpt><trkpt lat="44.7994576742432" lon="10.348104169227199"><ele>51.8</ele><time>2026-03-28T16:11:11Z</time></trkpt><trkpt lat="44.79954129781733" lon="10.348206928927421"><ele>51.4</ele><time>2026-03-28T16:11:12Z</time></trkpt><trkpt lat="44.79962018860901" lon="10.348307636897456"><ele>51.0</ele><time>2026-03-28T16:11:13Z</time></trkpt><trkpt lat="44.79969499375227" lon="10.348402540123258"><ele>50.833333333333336</ele><time>2026-03-28T16:11:14Z</time></trkpt><trkpt lat="44.79975914624025" lon="10.34848245827087"><ele>50.66666666666667</ele><time>2026-03-28T16:11:15Z</time></trkpt><trkpt lat="44.799814015247534" lon="10.348550761456675"><ele>50.5</ele><time>2026-03-28T16:11:16Z</time></trkpt><trkpt lat="44.799910747446795" lon="10.348643427085252"><ele>50.333333333333336</ele><time>2026-03-28T16:11:18Z</time></trkpt><trkpt lat="44.799975325202645" lon="10.348657311682055"><ele>50.16666666666667</ele><time>2026-03-28T16:11:19Z</time></trkpt><trkpt lat="44.800046351664044" lon="10.348654133605091"><ele>50.0</ele><time>2026-03-28T16:11:20Z</time></trkpt><trkpt lat="44.80011554176374" lon="10.348652655336561"><ele>50.16666666666667</ele><time>2026-03-28T16:11:21Z</time></trkpt><trkpt lat="44.80019707908883" lon="10.348717007405654"><ele>50.333333333333336</ele><time>2026-03-28T16:11:23Z</time></trkpt><trkpt lat="44.80022451648591" lon="10.348799535263908"><ele>50.5</ele><time>2026-03-28T16:11:25Z</time></trkpt><trkpt lat="44.80022464071071" lon="10.348901764414487"><ele>50.66666666666667</ele><time>2026-03-28T16:11:26Z</time></trkpt><trkpt lat="44.80022953712949" lon="10.349013006343023"><ele>50.833333333333336</ele><time>2026-03-28T16:11:27Z</time></trkpt><trkpt lat="44.800263498307935" lon="10.349099317222006"><ele>51.0</ele><time>2026-03-28T16:11:28Z</time></trkpt><trkpt lat="44.8003291988401" lon="10.349155313824056"><ele>50.599999999999994</ele><time>2026-03-28T16:11:29Z</time></trkpt><trkpt lat="44.80038417217992" lon="10.349290588800617"><ele>50.2</ele><time>2026-03-28T16:11:30Z</time></trkpt><trkpt lat="44.80045694780964" lon="10.349386013563326"><ele>49.8</ele><time>2026-03-28T16:11:31Z</time></trkpt><trkpt lat="44.80054394345887" lon="10.349482466758001"><ele>49.400000000000006</ele><time>2026-03-28T16:11:32Z</time></trkpt><trkpt lat="44.80063742705305" lon="10.349585598879393"><ele>49.0</ele><time>2026-03-28T16:11:33Z</time></trkpt><trkpt lat="44.80073588582008" lon="10.349688210179945"><ele>49.0</ele><time>2026-03-28T16:11:34Z</time></trkpt><trkpt lat="44.80084120234666" lon="10.349791844948488"><ele>49.0</ele><time>2026-03-28T16:11:35Z</time></trkpt><trkpt lat="44.800953993104656" lon="10.349895926675867"><ele>49.0</ele><time>2026-03-28T16:11:36Z</time></trkpt><trkpt lat="44.80107477151533" lon="10.350006338035303"><ele>49.0</ele><time>2026-03-28T16:11:37Z</time></trkpt><trkpt lat="44.80120255624989" lon="10.350111888830535"><ele>49.0</ele><time>2026-03-28T16:11:38Z</time></trkpt><trkpt lat="44.80133620880227" lon="10.35021239905736"><ele>49.0</ele><time>2026-03-28T16:11:39Z</time></trkpt><trkpt lat="44.80147322765777" lon="10.35030110030144"><ele>49.0</ele><time>2026-03-28T16:11:40Z</time></trkpt><trkpt lat="44.80161410221946" lon="10.350379443037609"><ele>49.0</ele><time>2026-03-28T16:11:41Z</time></trkpt><trkpt lat="44.80175450753466" lon="10.350458755355243"><ele>49.0</ele><time>2026-03-28T16:11:42Z</time></trkpt><trkpt lat="44.80189117951703" lon="10.350536083043243"><ele>49.0</ele><time>2026-03-28T16:11:43Z</time></trkpt><trkpt lat="44.80202162365212" lon="10.350612023734154"><ele>49.0</ele><time>2026-03-28T16:11:44Z</time></trkpt><trkpt lat="44.802146765091805" lon="10.350685737333846"><ele>49.25</ele><time>2026-03-28T16:11:45Z</time></trkpt><trkpt lat="44.80227107579514" lon="10.350758815156288"><ele>49.5</ele><time>2026-03-28T16:11:46Z</time></trkpt><trkpt lat="44.8023963092982" lon="10.350833489402543"><ele>49.75</ele><time>2026-03-28T16:11:47Z</time></trkpt><trkpt lat="44.80251613200127" lon="10.35090646910039"><ele>50.0</ele><time>2026-03-28T16:11:48Z</time></trkpt><trkpt lat="44.802634652315994" lon="10.350975385258572"><ele>49.5</ele><time>2026-03-28T16:11:49Z</time></trkpt><trkpt lat="44.8027556386526" lon="10.351045120464367"><ele>49.0</ele><time>2026-03-28T16:11:50Z</time></trkpt><trkpt lat="44.80288222147538" lon="10.351117692764678"><ele>48.5</ele><time>2026-03-28T16:11:51Z</time></trkpt><trkpt lat="44.80301124217403" lon="10.351193659422247"><ele>48.0</ele><time>2026-03-28T16:11:52Z</time></trkpt><trkpt lat="44.80314470399187" lon="10.351274446100746"><ele>48.0</ele><time>2026-03-28T16:11:53Z</time></trkpt><trkpt lat="44.80327885194788" lon="10.351361973618765"><ele>48.0</ele><time>2026-03-28T16:11:54Z</time></trkpt><trkpt lat="44.803410669102426" lon="10.351457630866243"><ele>48.0</ele><time>2026-03-28T16:11:55Z</time></trkpt><trkpt lat="44.803529768666074" lon="10.351559323995529"><ele>48.0</ele><time>2026-03-28T16:11:56Z</time></trkpt><trkpt lat="44.803646572180895" lon="10.351670283398587"><ele>48.0</ele><time>2026-03-28T16:11:57Z</time></trkpt><trkpt lat="44.803758888616066" lon="10.351796950681464"><ele>48.0</ele><time>2026-03-28T16:11:58Z</time></trkpt><trkpt lat="44.80386492379396" lon="10.35194615343818"><ele>48.0</ele><time>2026-03-28T16:11:59Z</time></trkpt><trkpt lat="44.80396551002793" lon="10.352108502671648"><ele>48.0</ele><time>2026-03-28T16:12:00Z</time></trkpt><trkpt lat="44.80405489680887" lon="10.352291827429637"><ele>48.33333333333333</ele><time>2026-03-28T16:12:01Z</time></trkpt><trkpt lat="44.804139491514285" lon="10.352485339358932"><ele>48.666666666666664</ele><time>2026-03-28T16:12:02Z</time></trkpt><trkpt lat="44.80420887001916" lon="10.352696889462871"><ele>49.0</ele><time>2026-03-28T16:12:03Z</time></trkpt><trkpt lat="44.80426395407153" lon="10.35291369023305"><ele>49.25</ele><time>2026-03-28T16:12:04Z</time></trkpt><trkpt lat="44.804301577703875" lon="10.353118546291062"><ele>49.5</ele><time>2026-03-28T16:12:05Z</time></trkpt><trkpt lat="44.80432350715254" lon="10.353296398113372"><ele>49.75</ele><time>2026-03-28T16:12:06Z</time></trkpt><trkpt lat="44.80434030251735" lon="10.353452032262261"><ele>50.0</ele><time>2026-03-28T16:12:07Z</time></trkpt><trkpt lat="44.804346045524916" lon="10.353575452283119"><ele>50.00000000000001</ele><time>2026-03-28T16:12:08Z</time></trkpt><trkpt lat="44.804337981524476" lon="10.353691157477298"><ele>50.0</ele><time>2026-03-28T16:12:09Z</time></trkpt><trkpt lat="44.80430872568326" lon="10.353790617685016"><ele>50.0</ele><time>2026-03-28T16:12:10Z</time></trkpt><trkpt lat="44.80426426661092" lon="10.353870083632332"><ele>50.0</ele><time>2026-03-28T16:12:11Z</time></trkpt><trkpt lat="44.80421970940022" lon="10.353941455179912"><ele>50.00000000000001</ele><time>2026-03-28T16:12:12Z</time></trkpt><trkpt lat="44.80415276415522" lon="10.354050685627682"><ele>50.0</ele><time>2026-03-28T16:12:14Z</time></trkpt><trkpt lat="44.804188948987516" lon="10.354177653676118"><ele>50.00000000000001</ele><time>2026-03-28T16:12:15Z</time></trkpt><trkpt lat="44.80422334163996" lon="10.354260781558754"><ele>50.0</ele><time>2026-03-28T16:12:16Z</time></trkpt><trkpt lat="44.80426911118474" lon="10.354336896305039"><ele>50.0</ele><time>2026-03-28T16:12:17Z</time></trkpt><trkpt lat="44.804322051372665" lon="10.35441025523982"><ele>50.0</ele><time>2026-03-28T16:12:18Z</time></trkpt><trkpt lat="44.80437897161258" lon="10.354489273197164"><ele>50.00000000000001</ele><time>2026-03-28T16:12:19Z</time></trkpt><trkpt lat="44.8044400777341" lon="10.354569528674949"><ele>50.0</ele><time>2026-03-28T16:12:20Z</time></trkpt><trkpt lat="44.80450429974585" lon="10.354653121011781"><ele>49.66666666666667</ele><time>2026-03-28T16:12:21Z</time></trkpt><trkpt lat="44.80457055205701" lon="10.354740200184349"><ele>49.333333333333336</ele><time>2026-03-28T16:12:22Z</time></trkpt><trkpt lat="44.80463192696186" lon="10.354823944865691"><ele>49.0</ele><time>2026-03-28T16:12:23Z</time></trkpt><trkpt lat="44.80468921037573" lon="10.35490495085866"><ele>48.66666666666667</ele><time>2026-03-28T16:12:24Z</time></trkpt><trkpt lat="44.804748894137084" lon="10.354998899494209"><ele>48.333333333333336</ele><time>2026-03-28T16:12:25Z</time></trkpt><trkpt lat="44.804809159334965" lon="10.355093631803516"><ele>48.0</ele><time>2026-03-28T16:12:26Z</time></trkpt><trkpt lat="44.8048643402046" lon="10.355181947835256"><ele>48.0</ele><time>2026-03-28T16:12:27Z</time></trkpt><trkpt lat="44.80491248369816" lon="10.355265887090214"><ele>48.0</ele><time>2026-03-28T16:12:28Z</time></trkpt><trkpt lat="44.80495447662176" lon="10.355349211589402"><ele>48.0</ele><time>2026-03-28T16:12:29Z</time></trkpt><trkpt lat="44.80499159002622" lon="10.35542815195636"><ele>48.0</ele><time>2026-03-28T16:12:30Z</time></trkpt><trkpt lat="44.8050634713829" lon="10.355573388666965"><ele>48.0</ele><time>2026-03-28T16:12:32Z</time></trkpt><trkpt lat="44.8051139598327" lon="10.355628366162641"><ele>48.0</ele><time>2026-03-28T16:12:33Z</time></trkpt><trkpt lat="44.80522326606302" lon="10.355623354349207"><ele>48.333333333333336</ele><time>2026-03-28T16:12:35Z</time></trkpt><trkpt lat="44.80528178370801" lon="10.355476196048144"><ele>48.66666666666667</ele><time>2026-03-28T16:12:37Z</time></trkpt><trkpt lat="44.80530162846901" lon="10.355379007069788"><ele>49.0</ele><time>2026-03-28T16:12:38Z</time></trkpt><trkpt lat="44.805332457214206" lon="10.355283128173987"><ele>49.333333333333336</ele><time>2026-03-28T16:12:39Z</time></trkpt><trkpt lat="44.80537868056344" lon="10.35519147092417"><ele>49.66666666666667</ele><time>2026-03-28T16:12:40Z</time></trkpt><trkpt lat="44.80543891835337" lon="10.35509706939429"><ele>50.0</ele><time>2026-03-28T16:12:41Z</time></trkpt><trkpt lat="44.805507521760916" lon="10.354994423967959"><ele>50.0</ele><time>2026-03-28T16:12:42Z</time></trkpt><trkpt lat="44.805576215274606" lon="10.354884827169862"><ele>50.0</ele><time>2026-03-28T16:12:43Z</time></trkpt><trkpt lat="44.80565062425745" lon="10.354766111280078"><ele>50.0</ele><time>2026-03-28T16:12:44Z</time></trkpt><trkpt lat="44.80573176967727" lon="10.35464068318407"><ele>50.0</ele><time>2026-03-28T16:12:45Z</time></trkpt><trkpt lat="44.80581910649261" lon="10.354516178676516"><ele>49.5</ele><time>2026-03-28T16:12:46Z</time></trkpt><trkpt lat="44.80591521630277" lon="10.354400925788374"><ele>49.0</ele><time>2026-03-28T16:12:47Z</time></trkpt><trkpt lat="44.806012086303" lon="10.354316110373356"><ele>48.5</ele><time>2026-03-28T16:12:48Z</time></trkpt><trkpt lat="44.80611115236853" lon="10.354249414554122"><ele>48.0</ele><time>2026-03-28T16:12:49Z</time></trkpt><trkpt lat="44.80620653985537" lon="10.354194945624847"><ele>47.833333333333336</ele><time>2026-03-28T16:12:50Z</time></trkpt><trkpt lat="44.80629642610684" lon="10.35415048044504"><ele>47.666666666666664</ele><time>2026-03-28T16:12:51Z</time></trkpt><trkpt lat="44.8063779579817" lon="10.35411029652527"><ele>47.5</ele><time>2026-03-28T16:12:52Z</time></trkpt><trkpt lat="44.806444784392255" lon="10.354077176205063"><ele>47.33333333333333</ele><time>2026-03-28T16:12:53Z</time></trkpt><trkpt lat="44.8065145108692" lon="10.354049860962792"><ele>47.166666666666664</ele><time>2026-03-28T16:12:55Z</time></trkpt><trkpt lat="44.806580006458674" lon="10.354020571302206"><ele>47.0</ele><time>2026-03-28T16:12:57Z</time></trkpt><trkpt lat="44.806688262551056" lon="10.353964077168209"><ele>47.0</ele><time>2026-03-28T16:12:59Z</time></trkpt><trkpt lat="44.80674321814191" lon="10.353908857552252"><ele>47.0</ele><time>2026-03-28T16:13:00Z</time></trkpt><trkpt lat="44.806817680417595" lon="10.35386216296719"><ele>47.0</ele><time>2026-03-28T16:13:01Z</time></trkpt><trkpt lat="44.80690790308968" lon="10.353813588798971"><ele>47.0</ele><time>2026-03-28T16:13:02Z</time></trkpt><trkpt lat="44.807027766914594" lon="10.353884080876341"><ele>47.0</ele><time>2026-03-28T16:13:03Z</time></trkpt><trkpt lat="44.80713293937256" lon="10.353962139943167"><ele>47.25</ele><time>2026-03-28T16:13:04Z</time></trkpt><trkpt lat="44.807227057783514" lon="10.354095518716848"><ele>47.5</ele><time>2026-03-28T16:13:05Z</time></trkpt><trkpt lat="44.807310075548536" lon="10.354271589361376"><ele>47.75</ele><time>2026-03-28T16:13:06Z</time></trkpt><trkpt lat="44.807397609673494" lon="10.354448409975108"><ele>48.0</ele><time>2026-03-28T16:13:07Z</time></trkpt><trkpt lat="44.807491978816536" lon="10.35460825135923"><ele>48.0</ele><time>2026-03-28T16:13:08Z</time></trkpt><trkpt lat="44.80759690643482" lon="10.354762101406688"><ele>48.0</ele><time>2026-03-28T16:13:09Z</time></trkpt><trkpt lat="44.80771789389834" lon="10.354904737645542"><ele>48.0</ele><time>2026-03-28T16:13:10Z</time></trkpt><trkpt lat="44.80785186712817" lon="10.355032013830582"><ele>47.666666666666664</ele><time>2026-03-28T16:13:11Z</time></trkpt><trkpt lat="44.80799610067647" lon="10.355143614587654"><ele>47.33333333333333</ele><time>2026-03-28T16:13:12Z</time></trkpt><trkpt lat="44.80814395289473" lon="10.355249424139851"><ele>47.0</ele><time>2026-03-28T16:13:13Z</time></trkpt><trkpt lat="44.80828774809339" lon="10.355360780008676"><ele>47.0</ele><time>2026-03-28T16:13:14Z</time></trkpt><trkpt lat="44.8084345865881" lon="10.35547553950847"><ele>47.0</ele><time>2026-03-28T16:13:15Z</time></trkpt><trkpt lat="44.80858009629944" lon="10.355592964001971"><ele>47.0</ele><time>2026-03-28T16:13:16Z</time></trkpt><trkpt lat="44.80872727826519" lon="10.355708731262403"><ele>47.33333333333333</ele><time>2026-03-28T16:13:17Z</time></trkpt><trkpt lat="44.80887617593826" lon="10.35582561284887"><ele>47.666666666666664</ele><time>2026-03-28T16:13:18Z</time></trkpt><trkpt lat="44.80902004861711" lon="10.35593888567531"><ele>48.0</ele><time>2026-03-28T16:13:19Z</time></trkpt><trkpt lat="44.809155152434755" lon="10.356043765373531"><ele>48.0</ele><time>2026-03-28T16:13:20Z</time></trkpt><trkpt lat="44.80928074050325" lon="10.356140423640918"><ele>48.0</ele><time>2026-03-28T16:13:21Z</time></trkpt><trkpt lat="44.80940273466041" lon="10.356235671813549"><ele>48.0</ele><time>2026-03-28T16:13:22Z</time></trkpt><trkpt lat="44.80952552019202" lon="10.356330152836682"><ele>48.0</ele><time>2026-03-28T16:13:23Z</time></trkpt><trkpt lat="44.809648632366226" lon="10.356424756613388"><ele>47.5</ele><time>2026-03-28T16:13:24Z</time></trkpt><trkpt lat="44.8097724198068" lon="10.3565193643586"><ele>47.0</ele><time>2026-03-28T16:13:25Z</time></trkpt><trkpt lat="44.809898529381385" lon="10.356614534192547"><ele>46.5</ele><time>2026-03-28T16:13:26Z</time></trkpt><trkpt lat="44.810027287107424" lon="10.356712031547012"><ele>46.0</ele><time>2026-03-28T16:13:27Z</time></trkpt><trkpt lat="44.81015989340485" lon="10.356811629774088"><ele>46.0</ele><time>2026-03-28T16:13:28Z</time></trkpt><trkpt lat="44.81029283599133" lon="10.356911885765648"><ele>46.0</ele><time>2026-03-28T16:13:29Z</time></trkpt><trkpt lat="44.81041460668628" lon="10.357007341706634"><ele>46.0</ele><time>2026-03-28T16:13:30Z</time></trkpt><trkpt lat="44.81052840065945" lon="10.357096572816905"><ele>46.0</ele><time>2026-03-28T16:13:31Z</time></trkpt><trkpt lat="44.8106284667905" lon="10.357182113512057"><ele>46.0</ele><time>2026-03-28T16:13:32Z</time></trkpt><trkpt lat="44.81071206259443" lon="10.357271441148232"><ele>46.0</ele><time>2026-03-28T16:13:33Z</time></trkpt><trkpt lat="44.81078455235452" lon="10.357375467018757"><ele>46.0</ele><time>2026-03-28T16:13:34Z</time></trkpt><trkpt lat="44.81084157385614" lon="10.357510346149262"><ele>46.0</ele><time>2026-03-28T16:13:35Z</time></trkpt><trkpt lat="44.810893582061404" lon="10.35765315557607"><ele>46.0</ele><time>2026-03-28T16:13:36Z</time></trkpt><trkpt lat="44.81096517952724" lon="10.357762211398029"><ele>44.25</ele><time>2026-03-28T16:13:37Z</time></trkpt><trkpt lat="44.81106483578429" lon="10.357821407249157"><ele>42.5</ele><time>2026-03-28T16:13:38Z</time></trkpt><trkpt lat="44.81118041981697" lon="10.357835661727746"><ele>40.75</ele><time>2026-03-28T16:13:39Z</time></trkpt><trkpt lat="44.81130045319279" lon="10.357830907672582"><ele>39.0</ele><time>2026-03-28T16:13:40Z</time></trkpt><trkpt lat="44.81142530788587" lon="10.35785415892272"><ele>39.0</ele><time>2026-03-28T16:13:41Z</time></trkpt><trkpt lat="44.811558371725084" lon="10.357924604397848"><ele>39.0</ele><time>2026-03-28T16:13:42Z</time></trkpt><trkpt lat="44.81169834403993" lon="10.358029183632851"><ele>39.0</ele><time>2026-03-28T16:13:43Z</time></trkpt><trkpt lat="44.81184182594863" lon="10.35814048166475"><ele>40.0</ele><time>2026-03-28T16:13:44Z</time></trkpt><trkpt lat="44.811994129353515" lon="10.358265000441628"><ele>41.0</ele><time>2026-03-28T16:13:45Z</time></trkpt><trkpt lat="44.81215060905682" lon="10.358387467134301"><ele>42.0</ele><time>2026-03-28T16:13:46Z</time></trkpt><trkpt lat="44.81248467448825" lon="10.35864289597446"><ele>42.0</ele><time>2026-03-28T16:13:48Z</time></trkpt><trkpt lat="44.81265832758539" lon="10.358776576800047"><ele>42.0</ele><time>2026-03-28T16:13:49Z</time></trkpt><trkpt lat="44.812831685490636" lon="10.358913821622899"><ele>42.0</ele><time>2026-03-28T16:13:50Z</time></trkpt><trkpt lat="44.8130097142079" lon="10.359053980398098"><ele>42.0</ele><time>2026-03-28T16:13:51Z</time></trkpt><trkpt lat="44.81319068917941" lon="10.3591942084462"><ele>42.0</ele><time>2026-03-28T16:13:52Z</time></trkpt><trkpt lat="44.81337327093493" lon="10.359337458645157"><ele>42.0</ele><time>2026-03-28T16:13:53Z</time></trkpt><trkpt lat="44.81355663357953" lon="10.359483032743327"><ele>42.666666666666664</ele><time>2026-03-28T16:13:54Z</time></trkpt><trkpt lat="44.8137387870859" lon="10.359626608615907"><ele>43.33333333333333</ele><time>2026-03-28T16:13:55Z</time></trkpt><trkpt lat="44.81391924467274" lon="10.35976337542729"><ele>44.0</ele><time>2026-03-28T16:13:56Z</time></trkpt><trkpt lat="44.81410283024827" lon="10.359903375925793"><ele>44.0</ele><time>2026-03-28T16:13:57Z</time></trkpt><trkpt lat="44.81429763400303" lon="10.360055467657498"><ele>44.0</ele><time>2026-03-28T16:13:58Z</time></trkpt><trkpt lat="44.814480853305426" lon="10.360199076143424"><ele>44.0</ele><time>2026-03-28T16:13:59Z</time></trkpt><trkpt lat="44.81464821073322" lon="10.360332158563057"><ele>44.0</ele><time>2026-03-28T16:14:00Z</time></trkpt><trkpt lat="44.81480093388966" lon="10.360453193402362"><ele>44.0</ele><time>2026-03-28T16:14:01Z</time></trkpt><trkpt lat="44.814935745898886" lon="10.360563597472497"><ele>44.0</ele><time>2026-03-28T16:14:02Z</time></trkpt><trkpt lat="44.815052813742014" lon="10.360661069056011"><ele>44.0</ele><time>2026-03-28T16:14:03Z</time></trkpt><trkpt lat="44.8151507735969" lon="10.360755784618803"><ele>44.0</ele><time>2026-03-28T16:14:04Z</time></trkpt><trkpt lat="44.81522263961819" lon="10.360853289104542"><ele>44.0</ele><time>2026-03-28T16:14:05Z</time></trkpt><trkpt lat="44.81525670903833" lon="10.361002458937035"><ele>44.0</ele><time>2026-03-28T16:14:06Z</time></trkpt><trkpt lat="44.81532092524872" lon="10.36110000879952"><ele>44.0</ele><time>2026-03-28T16:14:07Z</time></trkpt><trkpt lat="44.81541441550493" lon="10.361169814664416"><ele>43.25</ele><time>2026-03-28T16:14:08Z</time></trkpt><trkpt lat="44.81552284247099" lon="10.361172798654673"><ele>42.5</ele><time>2026-03-28T16:14:09Z</time></trkpt><trkpt lat="44.81563528787182" lon="10.361176841261585"><ele>41.75</ele><time>2026-03-28T16:14:10Z</time></trkpt><trkpt lat="44.81575274820322" lon="10.361235395954049"><ele>41.0</ele><time>2026-03-28T16:14:11Z</time></trkpt><trkpt lat="44.81588616386515" lon="10.361329361745833"><ele>40.666666666666664</ele><time>2026-03-28T16:14:12Z</time></trkpt><trkpt lat="44.816025792806784" lon="10.361433328142631"><ele>40.333333333333336</ele><time>2026-03-28T16:14:13Z</time></trkpt><trkpt lat="44.81617721380891" lon="10.361545431348606"><ele>40.0</ele><time>2026-03-28T16:14:14Z</time></trkpt><trkpt lat="44.81634204009852" lon="10.361672062002814"><ele>40.0</ele><time>2026-03-28T16:14:15Z</time></trkpt><trkpt lat="44.81652077835643" lon="10.361811142423976"><ele>40.0</ele><time>2026-03-28T16:14:16Z</time></trkpt><trkpt lat="44.81670675073592" lon="10.361958082629544"><ele>40.0</ele><time>2026-03-28T16:14:17Z</time></trkpt><trkpt lat="44.81690901499131" lon="10.362120879020727"><ele>40.0</ele><time>2026-03-28T16:14:18Z</time></trkpt><trkpt lat="44.8171177901547" lon="10.362272462956103"><ele>40.0</ele><time>2026-03-28T16:14:19Z</time></trkpt><trkpt lat="44.817338848179226" lon="10.362418282465045"><ele>40.0</ele><time>2026-03-28T16:14:20Z</time></trkpt><trkpt lat="44.81756802750356" lon="10.362559662862415"><ele>40.0</ele><time>2026-03-28T16:14:21Z</time></trkpt><trkpt lat="44.81779715358835" lon="10.362681421698918"><ele>40.5</ele><time>2026-03-28T16:14:22Z</time></trkpt><trkpt lat="44.818029399542766" lon="10.362792747168982"><ele>41.0</ele><time>2026-03-28T16:14:23Z</time></trkpt><trkpt lat="44.81825452143522" lon="10.362894094727874"><ele>41.0</ele><time>2026-03-28T16:14:24Z</time></trkpt><trkpt lat="44.81847744812173" lon="10.362989032041284"><ele>41.0</ele><time>2026-03-28T16:14:25Z</time></trkpt><trkpt lat="44.81869493344122" lon="10.36307465700037"><ele>41.0</ele><time>2026-03-28T16:14:26Z</time></trkpt><trkpt lat="44.81890287680826" lon="10.363157856611238"><ele>41.0</ele><time>2026-03-28T16:14:27Z</time></trkpt><trkpt lat="44.81911870769845" lon="10.363241244350066"><ele>41.0</ele><time>2026-03-28T16:14:28Z</time></trkpt><trkpt lat="44.81933559405616" lon="10.363329792198352"><ele>40.5</ele><time>2026-03-28T16:14:29Z</time></trkpt><trkpt lat="44.819554789281696" lon="10.36342286959998"><ele>40.0</ele><time>2026-03-28T16:14:30Z</time></trkpt><trkpt lat="44.81977250633324" lon="10.363515564704299"><ele>40.0</ele><time>2026-03-28T16:14:31Z</time></trkpt><trkpt lat="44.819992381738494" lon="10.36360636317424"><ele>40.0</ele><time>2026-03-28T16:14:32Z</time></trkpt><trkpt lat="44.82021133588281" lon="10.363692327593165"><ele>39.333333333333336</ele><time>2026-03-28T16:14:33Z</time></trkpt><trkpt lat="44.82042539605984" lon="10.363773797465395"><ele>38.666666666666664</ele><time>2026-03-28T16:14:34Z</time></trkpt><trkpt lat="44.82063442199389" lon="10.363858469776863"><ele>38.0</ele><time>2026-03-28T16:14:35Z</time></trkpt><trkpt lat="44.820842618555595" lon="10.363946904827229"><ele>38.0</ele><time>2026-03-28T16:14:36Z</time></trkpt><trkpt lat="44.82104852841648" lon="10.36403390385025"><ele>38.0</ele><time>2026-03-28T16:14:37Z</time></trkpt><trkpt lat="44.82125640575773" lon="10.364118742167717"><ele>38.0</ele><time>2026-03-28T16:14:38Z</time></trkpt><trkpt lat="44.82146460059244" lon="10.364201446700282"><ele>38.0</ele><time>2026-03-28T16:14:39Z</time></trkpt><trkpt lat="44.821672804873444" lon="10.364285266123566"><ele>38.0</ele><time>2026-03-28T16:14:40Z</time></trkpt><trkpt lat="44.82187830493654" lon="10.364370568938034"><ele>38.0</ele><time>2026-03-28T16:14:41Z</time></trkpt><trkpt lat="44.82208351812717" lon="10.364452983568299"><ele>37.666666666666664</ele><time>2026-03-28T16:14:42Z</time></trkpt><trkpt lat="44.82228776876975" lon="10.364536595238793"><ele>37.333333333333336</ele><time>2026-03-28T16:14:43Z</time></trkpt><trkpt lat="44.822489059810415" lon="10.364619387483877"><ele>37.0</ele><time>2026-03-28T16:14:44Z</time></trkpt><trkpt lat="44.82268839388826" lon="10.364701800473227"><ele>37.0</ele><time>2026-03-28T16:14:45Z</time></trkpt><trkpt lat="44.82288822134078" lon="10.364784115515901"><ele>37.0</ele><time>2026-03-28T16:14:46Z</time></trkpt><trkpt lat="44.82308763958839" lon="10.364867139696836"><ele>37.0</ele><time>2026-03-28T16:14:47Z</time></trkpt><trkpt lat="44.82328935832751" lon="10.36494851007568"><ele>37.0</ele><time>2026-03-28T16:14:48Z</time></trkpt><trkpt lat="44.823489271763094" lon="10.365024439670503"><ele>37.0</ele><time>2026-03-28T16:14:49Z</time></trkpt><trkpt lat="44.82368746784868" lon="10.365103292698608"><ele>37.0</ele><time>2026-03-28T16:14:50Z</time></trkpt><trkpt lat="44.82388278932926" lon="10.365183321764052"><ele>37.0</ele><time>2026-03-28T16:14:51Z</time></trkpt><trkpt lat="44.82407639281134" lon="10.365262965588785"><ele>37.0</ele><time>2026-03-28T16:14:52Z</time></trkpt><trkpt lat="44.82425881048029" lon="10.365342952774016"><ele>37.0</ele><time>2026-03-28T16:14:53Z</time></trkpt><trkpt lat="44.82442489915432" lon="10.365410870567228"><ele>37.25</ele><time>2026-03-28T16:14:54Z</time></trkpt><trkpt lat="44.824582497720826" lon="10.365476848378854"><ele>37.5</ele><time>2026-03-28T16:14:55Z</time></trkpt><trkpt lat="44.82472313924992" lon="10.365533825497275"><ele>37.75</ele><time>2026-03-28T16:14:56Z</time></trkpt><trkpt lat="44.824849864583406" lon="10.365585660373915"><ele>38.0</ele><time>2026-03-28T16:14:57Z</time></trkpt><trkpt lat="44.824958208178906" lon="10.365631451009005"><ele>37.6</ele><time>2026-03-28T16:14:58Z</time></trkpt><trkpt lat="44.82505630796273" lon="10.365676453431494"><ele>37.199999999999996</ele><time>2026-03-28T16:14:59Z</time></trkpt><trkpt lat="44.82513690741533" lon="10.365726186843323"><ele>36.8</ele><time>2026-03-28T16:15:00Z</time></trkpt><trkpt lat="44.8251990923301" lon="10.365775213313942"><ele>36.4</ele><time>2026-03-28T16:15:01Z</time></trkpt><trkpt lat="44.82526904516773" lon="10.365858097816384"><ele>36.0</ele><time>2026-03-28T16:15:02Z</time></trkpt><trkpt lat="44.82533004823918" lon="10.365973478678425"><ele>35.6</ele><time>2026-03-28T16:15:03Z</time></trkpt><trkpt lat="44.82540138110309" lon="10.366082283212311"><ele>35.2</ele><time>2026-03-28T16:15:04Z</time></trkpt><trkpt lat="44.82548971559524" lon="10.366146432642156"><ele>34.8</ele><time>2026-03-28T16:15:05Z</time></trkpt><trkpt lat="44.825579897201536" lon="10.366174933524775"><ele>34.4</ele><time>2026-03-28T16:15:06Z</time></trkpt><trkpt lat="44.82566906880045" lon="10.366156795706713"><ele>34.0</ele><time>2026-03-28T16:15:07Z</time></trkpt><trkpt lat="44.82575852658373" lon="10.366117126926524"><ele>34.0</ele><time>2026-03-28T16:15:08Z</time></trkpt><trkpt lat="44.82585754935321" lon="10.366074964689206"><ele>34.0</ele><time>2026-03-28T16:15:09Z</time></trkpt><trkpt lat="44.82596687635298" lon="10.366074083443886"><ele>34.0</ele><time>2026-03-28T16:15:10Z</time></trkpt><trkpt lat="44.82607141162463" lon="10.366122644850778"><ele>34.0</ele><time>2026-03-28T16:15:11Z</time></trkpt><trkpt lat="44.82616565290695" lon="10.366184159772988"><ele>34.0</ele><time>2026-03-28T16:15:12Z</time></trkpt><trkpt lat="44.82625189045312" lon="10.366235262329338"><ele>34.66666666666667</ele><time>2026-03-28T16:15:13Z</time></trkpt><trkpt lat="44.82633140243901" lon="10.366271163457291"><ele>35.333333333333336</ele><time>2026-03-28T16:15:14Z</time></trkpt><trkpt lat="44.82639756308768" lon="10.366296104389699"><ele>36.0</ele><time>2026-03-28T16:15:15Z</time></trkpt><trkpt lat="44.82646783597701" lon="10.366319924011062"><ele>36.666666666666664</ele><time>2026-03-28T16:15:17Z</time></trkpt><trkpt lat="44.82654294943662" lon="10.366341982573084"><ele>37.33333333333333</ele><time>2026-03-28T16:16:53Z</time></trkpt><trkpt lat="44.82665414129113" lon="10.3662715148859"><ele>38.0</ele><time>2026-03-28T16:16:55Z</time></trkpt><trkpt lat="44.826734337671866" lon="10.366281963951845"><ele>37.5</ele><time>2026-03-28T16:16:56Z</time></trkpt><trkpt lat="44.82682347399417" lon="10.366378495777045"><ele>37.0</ele><time>2026-03-28T16:16:57Z</time></trkpt><trkpt lat="44.82693350569586" lon="10.366396902225016"><ele>36.5</ele><time>2026-03-28T16:16:58Z</time></trkpt><trkpt lat="44.827064036971194" lon="10.36642430623318"><ele>36.0</ele><time>2026-03-28T16:16:59Z</time></trkpt><trkpt lat="44.82721375052799" lon="10.366467789237943"><ele>36.0</ele><time>2026-03-28T16:17:00Z</time></trkpt><trkpt lat="44.827373678078054" lon="10.366520875742323"><ele>36.0</ele><time>2026-03-28T16:17:01Z</time></trkpt><trkpt lat="44.8275452131601" lon="10.366575607077586"><ele>36.0</ele><time>2026-03-28T16:17:02Z</time></trkpt><trkpt lat="44.82772652598717" lon="10.366631065398781"><ele>34.666666666666664</ele><time>2026-03-28T16:17:03Z</time></trkpt><trkpt lat="44.8279081006967" lon="10.366688737333723"><ele>33.33333333333333</ele><time>2026-03-28T16:17:04Z</time></trkpt><trkpt lat="44.82808565255755" lon="10.366746000316127"><ele>32.0</ele><time>2026-03-28T16:17:05Z</time></trkpt><trkpt lat="44.82825938938785" lon="10.366802372003777"><ele>32.0</ele><time>2026-03-28T16:17:06Z</time></trkpt><trkpt lat="44.82842976239524" lon="10.366859619225647"><ele>32.0</ele><time>2026-03-28T16:17:07Z</time></trkpt><trkpt lat="44.828594864572324" lon="10.366918404864363"><ele>32.0</ele><time>2026-03-28T16:17:08Z</time></trkpt><trkpt lat="44.82876185358863" lon="10.366979125364159"><ele>32.0</ele><time>2026-03-28T16:17:09Z</time></trkpt><trkpt lat="44.82892271373568" lon="10.367035380326826"><ele>32.0</ele><time>2026-03-28T16:17:10Z</time></trkpt><trkpt lat="44.82908094721429" lon="10.367096967362269"><ele>32.0</ele><time>2026-03-28T16:17:11Z</time></trkpt><trkpt lat="44.82923795500642" lon="10.367165666204281"><ele>32.666666666666664</ele><time>2026-03-28T16:17:12Z</time></trkpt><trkpt lat="44.82939311788314" lon="10.367244307639842"><ele>33.333333333333336</ele><time>2026-03-28T16:17:13Z</time></trkpt><trkpt lat="44.829543883198056" lon="10.367342181459453"><ele>34.0</ele><time>2026-03-28T16:17:14Z</time></trkpt><trkpt lat="44.82969998742729" lon="10.367455827740637"><ele>34.0</ele><time>2026-03-28T16:17:15Z</time></trkpt><trkpt lat="44.82985725865901" lon="10.36757085529618"><ele>34.0</ele><time>2026-03-28T16:17:16Z</time></trkpt><trkpt lat="44.83001647401908" lon="10.367687779150824"><ele>34.0</ele><time>2026-03-28T16:17:17Z</time></trkpt><trkpt lat="44.83017636443987" lon="10.367803553307725"><ele>34.66666666666667</ele><time>2026-03-28T16:17:18Z</time></trkpt><trkpt lat="44.830332752287845" lon="10.36791784454806"><ele>35.333333333333336</ele><time>2026-03-28T16:17:19Z</time></trkpt><trkpt lat="44.83048402911186" lon="10.36803307290016"><ele>36.0</ele><time>2026-03-28T16:17:20Z</time></trkpt><trkpt lat="44.83063693862371" lon="10.368149284954807"><ele>36.666666666666664</ele><time>2026-03-28T16:17:21Z</time></trkpt><trkpt lat="44.830790245307014" lon="10.36826117042451"><ele>37.33333333333333</ele><time>2026-03-28T16:17:22Z</time></trkpt><trkpt lat="44.830946649391066" lon="10.368373016925695"><ele>38.0</ele><time>2026-03-28T16:17:23Z</time></trkpt><trkpt lat="44.83110426433643" lon="10.368489513593879"><ele>36.33333333333333</ele><time>2026-03-28T16:17:24Z</time></trkpt><trkpt lat="44.83126153677226" lon="10.368604154867322"><ele>34.666666666666664</ele><time>2026-03-28T16:17:25.001Z</time></trkpt><trkpt lat="44.83142136859707" lon="10.368712571509956"><ele>33.0</ele><time>2026-03-28T16:17:26.001Z</time></trkpt><trkpt lat="44.83158683214666" lon="10.368814721043288"><ele>33.666666666666664</ele><time>2026-03-28T16:17:27.001Z</time></trkpt><trkpt lat="44.8317548665999" lon="10.368905285253211"><ele>34.33333333333333</ele><time>2026-03-28T16:17:28.001Z</time></trkpt><trkpt lat="44.83193429312738" lon="10.368984587622643"><ele>35.0</ele><time>2026-03-28T16:17:29.001Z</time></trkpt><trkpt lat="44.83212473757245" lon="10.369042720228439"><ele>35.33333333333333</ele><time>2026-03-28T16:17:30.001Z</time></trkpt><trkpt lat="44.83232030353131" lon="10.36907962625143"><ele>35.666666666666664</ele><time>2026-03-28T16:17:31.001Z</time></trkpt><trkpt lat="44.83251607202518" lon="10.369098456607569"><ele>36.0</ele><time>2026-03-28T16:17:32.001Z</time></trkpt><trkpt lat="44.832715345162654" lon="10.369096839375876"><ele>36.0</ele><time>2026-03-28T16:17:33.001Z</time></trkpt><trkpt lat="44.83291967266921" lon="10.369077678055909"><ele>36.0</ele><time>2026-03-28T16:17:34.001Z</time></trkpt><trkpt lat="44.833123781965604" lon="10.369060386336562"><ele>36.0</ele><time>2026-03-28T16:17:35.001Z</time></trkpt><trkpt lat="44.833325500269844" lon="10.369040883064486"><ele>36.0</ele><time>2026-03-28T16:17:36.001Z</time></trkpt><trkpt lat="44.83351565806698" lon="10.369026429511818"><ele>36.0</ele><time>2026-03-28T16:17:37.001Z</time></trkpt><trkpt lat="44.833684397534164" lon="10.369018313485046"><ele>36.0</ele><time>2026-03-28T16:17:38.001Z</time></trkpt><trkpt lat="44.83383917758712" lon="10.369020614879382"><ele>36.0</ele><time>2026-03-28T16:17:39.001Z</time></trkpt><trkpt lat="44.833979021592256" lon="10.369034996436014"><ele>36.0</ele><time>2026-03-28T16:17:40.001Z</time></trkpt><trkpt lat="44.834097437650954" lon="10.369053181796135"><ele>36.0</ele><time>2026-03-28T16:17:41.001Z</time></trkpt><trkpt lat="44.83420790166485" lon="10.36906493578584"><ele>36.0</ele><time>2026-03-28T16:17:42.001Z</time></trkpt><trkpt lat="44.83429984863165" lon="10.369072900427911"><ele>36.0</ele><time>2026-03-28T16:17:43.001Z</time></trkpt><trkpt lat="44.83438035386384" lon="10.369086898400107"><ele>36.0</ele><time>2026-03-28T16:17:44.001Z</time></trkpt><trkpt lat="44.83448365359191" lon="10.369126337745053"><ele>36.0</ele><time>2026-03-28T16:17:45.001Z</time></trkpt><trkpt lat="44.834592097233504" lon="10.369182571180247"><ele>36.0</ele><time>2026-03-28T16:17:46.001Z</time></trkpt><trkpt lat="44.83471763281848" lon="10.369249333955135"><ele>36.0</ele><time>2026-03-28T16:17:47.001Z</time></trkpt><trkpt lat="44.83484697997329" lon="10.369330169937435"><ele>36.0</ele><time>2026-03-28T16:17:48.001Z</time></trkpt><trkpt lat="44.83498912364893" lon="10.369420322495618"><ele>36.0</ele><time>2026-03-28T16:17:49.001Z</time></trkpt><trkpt lat="44.83513908717574" lon="10.369511875807785"><ele>36.0</ele><time>2026-03-28T16:17:50.001Z</time></trkpt><trkpt lat="44.835303644629406" lon="10.369599881959171"><ele>35.333333333333336</ele><time>2026-03-28T16:17:51.001Z</time></trkpt><trkpt lat="44.83547560952889" lon="10.369685027372867"><ele>34.66666666666667</ele><time>2026-03-28T16:17:52.001Z</time></trkpt><trkpt lat="44.83565434067819" lon="10.369767603761954"><ele>34.0</ele><time>2026-03-28T16:17:53.001Z</time></trkpt><trkpt lat="44.83582535890797" lon="10.369847254093957"><ele>34.333333333333336</ele><time>2026-03-28T16:17:54.001Z</time></trkpt><trkpt lat="44.835998086254286" lon="10.369930926720329"><ele>34.666666666666664</ele><time>2026-03-28T16:17:55.001Z</time></trkpt><trkpt lat="44.836169949810035" lon="10.370013332179322"><ele>35.0</ele><time>2026-03-28T16:17:56.001Z</time></trkpt><trkpt lat="44.83633818250153" lon="10.37009125539046"><ele>35.0</ele><time>2026-03-28T16:17:57.001Z</time></trkpt><trkpt lat="44.836499446160914" lon="10.370165602747374"><ele>35.0</ele><time>2026-03-28T16:17:58.001Z</time></trkpt><trkpt lat="44.836659891583416" lon="10.370240901613595"><ele>35.0</ele><time>2026-03-28T16:17:59.001Z</time></trkpt><trkpt lat="44.83682290090251" lon="10.37031892925983"><ele>35.33333333333333</ele><time>2026-03-28T16:18:00.001Z</time></trkpt><trkpt lat="44.83698678356446" lon="10.370395954838164"><ele>35.666666666666664</ele><time>2026-03-28T16:18:01.001Z</time></trkpt><trkpt lat="44.8371526252877" lon="10.37046890799752"><ele>36.0</ele><time>2026-03-28T16:18:02.001Z</time></trkpt><trkpt lat="44.83732218886903" lon="10.370541849071497"><ele>35.333333333333336</ele><time>2026-03-28T16:18:03.001Z</time></trkpt><trkpt lat="44.837500118535104" lon="10.370619950056206"><ele>34.66666666666667</ele><time>2026-03-28T16:18:04.001Z</time></trkpt><trkpt lat="44.83768846995832" lon="10.37070508234825"><ele>34.0</ele><time>2026-03-28T16:18:05.001Z</time></trkpt><trkpt lat="44.83787826861811" lon="10.370790245049875"><ele>34.0</ele><time>2026-03-28T16:18:06.001Z</time></trkpt><trkpt lat="44.83806572218626" lon="10.370866888178664"><ele>34.0</ele><time>2026-03-28T16:18:07.001Z</time></trkpt><trkpt lat="44.83825294120826" lon="10.370941618438284"><ele>34.0</ele><time>2026-03-28T16:18:08.001Z</time></trkpt><trkpt lat="44.838445081564636" lon="10.371021658773326"><ele>33.66666666666667</ele><time>2026-03-28T16:18:09.001Z</time></trkpt><trkpt lat="44.838640545745484" lon="10.371104066019747"><ele>33.333333333333336</ele><time>2026-03-28T16:18:10.001Z</time></trkpt><trkpt lat="44.83883716471104" lon="10.371186830531226"><ele>33.0</ele><time>2026-03-28T16:18:11.001Z</time></trkpt><trkpt lat="44.83903460905434" lon="10.371269198106205"><ele>33.0</ele><time>2026-03-28T16:18:12.001Z</time></trkpt><trkpt lat="44.83923322953986" lon="10.371350225937427"><ele>33.0</ele><time>2026-03-28T16:18:13.001Z</time></trkpt><trkpt lat="44.83943346840021" lon="10.371430406676764"><ele>33.0</ele><time>2026-03-28T16:18:14.001Z</time></trkpt><trkpt lat="44.83962860659693" lon="10.371506906487097"><ele>33.666666666666664</ele><time>2026-03-28T16:18:15.001Z</time></trkpt><trkpt lat="44.83981824854939" lon="10.371580088695083"><ele>34.33333333333333</ele><time>2026-03-28T16:18:16.001Z</time></trkpt><trkpt lat="44.84000373045328" lon="10.371654126950421"><ele>35.0</ele><time>2026-03-28T16:18:17.001Z</time></trkpt><trkpt lat="44.84018751548547" lon="10.371728828350415"><ele>35.0</ele><time>2026-03-28T16:18:18.001Z</time></trkpt><trkpt lat="44.84037089511577" lon="10.371802872893912"><ele>35.0</ele><time>2026-03-28T16:18:19Z</time></trkpt><trkpt lat="44.8405496002637" lon="10.37187442031108"><ele>35.0</ele><time>2026-03-28T16:18:20Z</time></trkpt><trkpt lat="44.84071691330876" lon="10.371939665015864"><ele>35.0</ele><time>2026-03-28T16:18:21Z</time></trkpt><trkpt lat="44.84087554082874" lon="10.372001935399902"><ele>35.0</ele><time>2026-03-28T16:18:22Z</time></trkpt><trkpt lat="44.841024328521286" lon="10.372061597875314"><ele>35.0</ele><time>2026-03-28T16:18:23Z</time></trkpt><trkpt lat="44.84116478300402" lon="10.372119829183658"><ele>35.0</ele><time>2026-03-28T16:18:24Z</time></trkpt><trkpt lat="44.84129623043599" lon="10.372172420023643"><ele>35.0</ele><time>2026-03-28T16:18:25Z</time></trkpt><trkpt lat="44.841419479561125" lon="10.372226417695732"><ele>35.0</ele><time>2026-03-28T16:18:26Z</time></trkpt><trkpt lat="44.84153181213854" lon="10.37228568297133"><ele>35.0</ele><time>2026-03-28T16:18:27Z</time></trkpt><trkpt lat="44.84163111907562" lon="10.37235524112786"><ele>35.0</ele><time>2026-03-28T16:18:28Z</time></trkpt><trkpt lat="44.84171935037769" lon="10.372441938607524"><ele>35.0</ele><time>2026-03-28T16:18:29Z</time></trkpt><trkpt lat="44.84176655149003" lon="10.372566086195347"><ele>35.0</ele><time>2026-03-28T16:18:30Z</time></trkpt><trkpt lat="44.84181394646637" lon="10.372683630228408"><ele>35.0</ele><time>2026-03-28T16:18:31Z</time></trkpt><trkpt lat="44.841884407972046" lon="10.37276958062188"><ele>35.0</ele><time>2026-03-28T16:18:32Z</time></trkpt><trkpt lat="44.841962314148326" lon="10.372814511621113"><ele>35.0</ele><time>2026-03-28T16:18:33Z</time></trkpt><trkpt lat="44.84204518524161" lon="10.372812111053921"><ele>35.0</ele><time>2026-03-28T16:18:34Z</time></trkpt><trkpt lat="44.84211894382747" lon="10.372753970816676"><ele>35.0</ele><time>2026-03-28T16:18:35Z</time></trkpt><trkpt lat="44.84219287214261" lon="10.372694967842634"><ele>35.0</ele><time>2026-03-28T16:18:36Z</time></trkpt><trkpt lat="44.84228478918473" lon="10.3726584289974"><ele>35.0</ele><time>2026-03-28T16:18:37Z</time></trkpt><trkpt lat="44.84239048264139" lon="10.372648637286813"><ele>35.0</ele><time>2026-03-28T16:18:38Z</time></trkpt><trkpt lat="44.842514081793105" lon="10.372668974886407"><ele>35.0</ele><time>2026-03-28T16:18:39Z</time></trkpt><trkpt lat="44.84266677894511" lon="10.372754523226572"><ele>35.0</ele><time>2026-03-28T16:18:40Z</time></trkpt><trkpt lat="44.84286724378629" lon="10.3728344861614"><ele>35.0</ele><time>2026-03-28T16:18:41Z</time></trkpt><trkpt lat="44.843111568053054" lon="10.372930748706047"><ele>35.0</ele><time>2026-03-28T16:18:42Z</time></trkpt><trkpt lat="44.84337132060382" lon="10.373033089917637"><ele>35.0</ele><time>2026-03-28T16:18:43Z</time></trkpt><trkpt lat="44.84365154256281" lon="10.373136728667404"><ele>35.0</ele><time>2026-03-28T16:18:44Z</time></trkpt><trkpt lat="44.84394362232573" lon="10.37324939870867"><ele>35.0</ele><time>2026-03-28T16:18:45Z</time></trkpt><trkpt lat="44.84421542576782" lon="10.373361952028999"><ele>35.0</ele><time>2026-03-28T16:18:46Z</time></trkpt><trkpt lat="44.84447005702423" lon="10.373466932305439"><ele>34.0</ele><time>2026-03-28T16:18:47Z</time></trkpt><trkpt lat="44.844719264915796" lon="10.373572018515915"><ele>33.0</ele><time>2026-03-28T16:18:48Z</time></trkpt><trkpt lat="44.844966271081105" lon="10.373670558026868"><ele>33.0</ele><time>2026-03-28T16:18:49Z</time></trkpt><trkpt lat="44.84521110404955" lon="10.373772916199476"><ele>33.0</ele><time>2026-03-28T16:18:50Z</time></trkpt><trkpt lat="44.84545427542309" lon="10.373873131349928"><ele>33.5</ele><time>2026-03-28T16:18:51Z</time></trkpt><trkpt lat="44.845696940665995" lon="10.3739713438426"><ele>34.0</ele><time>2026-03-28T16:18:52Z</time></trkpt><trkpt lat="44.84593977509651" lon="10.374070111771314"><ele>33.5</ele><time>2026-03-28T16:18:53Z</time></trkpt><trkpt lat="44.84617973609828" lon="10.374162168841352"><ele>33.0</ele><time>2026-03-28T16:18:54Z</time></trkpt><trkpt lat="44.84641899138139" lon="10.374254829987963"><ele>33.0</ele><time>2026-03-28T16:18:55Z</time></trkpt><trkpt lat="44.84665426875661" lon="10.37434804899987"><ele>33.0</ele><time>2026-03-28T16:18:56Z</time></trkpt><trkpt lat="44.84688433939563" lon="10.374442821481646"><ele>33.5</ele><time>2026-03-28T16:18:57Z</time></trkpt><trkpt lat="44.847113149510655" lon="10.374538199218685"><ele>34.0</ele><time>2026-03-28T16:18:58Z</time></trkpt><trkpt lat="44.847348011067254" lon="10.374634380211138"><ele>33.5</ele><time>2026-03-28T16:18:59Z</time></trkpt><trkpt lat="44.84758585213844" lon="10.374728218705432"><ele>33.0</ele><time>2026-03-28T16:19:00Z</time></trkpt><trkpt lat="44.84782451968123" lon="10.374824588550046"><ele>32.5</ele><time>2026-03-28T16:19:01Z</time></trkpt><trkpt lat="44.84806473785038" lon="10.37492193523443"><ele>32.0</ele><time>2026-03-28T16:19:02Z</time></trkpt><trkpt lat="44.84830672094685" lon="10.375021059224116"><ele>32.5</ele><time>2026-03-28T16:19:03Z</time></trkpt><trkpt lat="44.84854800656031" lon="10.375119556416031"><ele>33.0</ele><time>2026-03-28T16:19:03.999Z</time></trkpt><trkpt lat="44.84879053358578" lon="10.375218565222898"><ele>33.0</ele><time>2026-03-28T16:19:04.999Z</time></trkpt><trkpt lat="44.84903595123554" lon="10.375315867395129"><ele>33.0</ele><time>2026-03-28T16:19:05.999Z</time></trkpt><trkpt lat="44.84928047120432" lon="10.37541473293177"><ele>32.5</ele><time>2026-03-28T16:19:06.999Z</time></trkpt><trkpt lat="44.84952441860487" lon="10.375512309087869"><ele>32.0</ele><time>2026-03-28T16:19:07.999Z</time></trkpt><trkpt lat="44.84976767287044" lon="10.37561065627763"><ele>32.0</ele><time>2026-03-28T16:19:08.999Z</time></trkpt><trkpt lat="44.85001311554223" lon="10.375708367238731"><ele>32.0</ele><time>2026-03-28T16:19:09.999Z</time></trkpt><trkpt lat="44.850257514805165" lon="10.375806852495792"><ele>31.5</ele><time>2026-03-28T16:19:10.999Z</time></trkpt><trkpt lat="44.85050083584555" lon="10.375907235350727"><ele>31.0</ele><time>2026-03-28T16:19:11.999Z</time></trkpt><trkpt lat="44.8507456604486" lon="10.37600459695039"><ele>31.5</ele><time>2026-03-28T16:19:12.999Z</time></trkpt><trkpt lat="44.85098776536447" lon="10.376101060504164"><ele>32.0</ele><time>2026-03-28T16:19:13.999Z</time></trkpt><trkpt lat="44.85122947696941" lon="10.376199039024112"><ele>32.0</ele><time>2026-03-28T16:19:14.999Z</time></trkpt><trkpt lat="44.85146975511263" lon="10.376298746234326"><ele>32.0</ele><time>2026-03-28T16:19:15.999Z</time></trkpt><trkpt lat="44.85171060698626" lon="10.376396851655945"><ele>32.0</ele><time>2026-03-28T16:19:16.999Z</time></trkpt><trkpt lat="44.85195013210263" lon="10.37649461175925"><ele>32.0</ele><time>2026-03-28T16:19:17.999Z</time></trkpt><trkpt lat="44.852190380647215" lon="10.37659243303089"><ele>32.0</ele><time>2026-03-28T16:19:18.999Z</time></trkpt><trkpt lat="44.85243144125027" lon="10.37668989218997"><ele>32.0</ele><time>2026-03-28T16:19:19.999Z</time></trkpt><trkpt lat="44.85267222485139" lon="10.376786448941358"><ele>30.5</ele><time>2026-03-28T16:19:20.999Z</time></trkpt><trkpt lat="44.85291043958381" lon="10.376880374552796"><ele>29.0</ele><time>2026-03-28T16:19:22Z</time></trkpt><trkpt lat="44.85314844419633" lon="10.376975252984549"><ele>29.0</ele><time>2026-03-28T16:19:23Z</time></trkpt><trkpt lat="44.85338274732257" lon="10.377067456844884"><ele>29.0</ele><time>2026-03-28T16:19:24Z</time></trkpt><trkpt lat="44.853610637880806" lon="10.377158983396548"><ele>29.5</ele><time>2026-03-28T16:19:25Z</time></trkpt><trkpt lat="44.85383445899741" lon="10.377250051759509"><ele>30.0</ele><time>2026-03-28T16:19:26Z</time></trkpt><trkpt lat="44.85405132550545" lon="10.377336096155798"><ele>30.0</ele><time>2026-03-28T16:19:27Z</time></trkpt><trkpt lat="44.854255404094054" lon="10.377417579597344"><ele>30.0</ele><time>2026-03-28T16:19:28Z</time></trkpt><trkpt lat="44.854451223365906" lon="10.377497951975135"><ele>30.0</ele><time>2026-03-28T16:19:29Z</time></trkpt><trkpt lat="44.854646476439726" lon="10.377579390022433"><ele>30.0</ele><time>2026-03-28T16:19:30Z</time></trkpt><trkpt lat="44.85484320855259" lon="10.37766226040096"><ele>30.0</ele><time>2026-03-28T16:19:31Z</time></trkpt><trkpt lat="44.85504062040232" lon="10.377747398651705"><ele>30.0</ele><time>2026-03-28T16:19:32Z</time></trkpt><trkpt lat="44.855230807887956" lon="10.377829352602301"><ele>30.0</ele><time>2026-03-28T16:19:33Z</time></trkpt><trkpt lat="44.855409512377314" lon="10.3779132698683"><ele>30.0</ele><time>2026-03-28T16:19:34Z</time></trkpt><trkpt lat="44.855583016167806" lon="10.378001566297273"><ele>30.0</ele><time>2026-03-28T16:19:35Z</time></trkpt><trkpt lat="44.855754275278805" lon="10.378089453083103"><ele>30.0</ele><time>2026-03-28T16:19:36Z</time></trkpt><trkpt lat="44.855927437937886" lon="10.378177414100762"><ele>30.0</ele><time>2026-03-28T16:19:37Z</time></trkpt><trkpt lat="44.856088602004746" lon="10.37825824034646"><ele>30.0</ele><time>2026-03-28T16:19:38Z</time></trkpt><trkpt lat="44.85624332306197" lon="10.378332367523424"><ele>30.0</ele><time>2026-03-28T16:19:39Z</time></trkpt><trkpt lat="44.85638629486086" lon="10.378399371239869"><ele>30.0</ele><time>2026-03-28T16:19:40Z</time></trkpt><trkpt lat="44.856520331442695" lon="10.378458933766487"><ele>30.0</ele><time>2026-03-28T16:19:41Z</time></trkpt><trkpt lat="44.85664549409277" lon="10.37851208886346"><ele>30.0</ele><time>2026-03-28T16:19:42Z</time></trkpt><trkpt lat="44.85675800344125" lon="10.378559409313299"><ele>30.0</ele><time>2026-03-28T16:19:43Z</time></trkpt><trkpt lat="44.856867443035284" lon="10.37860298777698"><ele>30.0</ele><time>2026-03-28T16:19:44Z</time></trkpt><trkpt lat="44.856981546730125" lon="10.378642138579796"><ele>30.0</ele><time>2026-03-28T16:19:45Z</time></trkpt><trkpt lat="44.857098049095306" lon="10.378677978607664"><ele>30.0</ele><time>2026-03-28T16:19:46Z</time></trkpt><trkpt lat="44.85721009193107" lon="10.37871016888904"><ele>30.0</ele><time>2026-03-28T16:19:47Z</time></trkpt><trkpt lat="44.85732403036712" lon="10.378746651209616"><ele>30.0</ele><time>2026-03-28T16:19:48Z</time></trkpt><trkpt lat="44.85744775423145" lon="10.378801454381755"><ele>30.0</ele><time>2026-03-28T16:19:49Z</time></trkpt><trkpt lat="44.85757962232223" lon="10.378875703805772"><ele>30.0</ele><time>2026-03-28T16:19:50Z</time></trkpt><trkpt lat="44.857873524659446" lon="10.37905044972344"><ele>30.666666666666664</ele><time>2026-03-28T16:19:52Z</time></trkpt><trkpt lat="44.85803833365865" lon="10.37912883089352"><ele>31.333333333333332</ele><time>2026-03-28T16:19:53Z</time></trkpt><trkpt lat="44.85821170608298" lon="10.379199790410595"><ele>32.0</ele><time>2026-03-28T16:19:54Z</time></trkpt><trkpt lat="44.858390464302545" lon="10.379273511669885"><ele>31.333333333333332</ele><time>2026-03-28T16:19:55Z</time></trkpt><trkpt lat="44.85857153746748" lon="10.379353130548612"><ele>30.666666666666664</ele><time>2026-03-28T16:19:56Z</time></trkpt><trkpt lat="44.858756499003896" lon="10.379434949695362"><ele>30.0</ele><time>2026-03-28T16:19:57Z</time></trkpt><trkpt lat="44.858937710724895" lon="10.37951164219735"><ele>30.0</ele><time>2026-03-28T16:19:58Z</time></trkpt><trkpt lat="44.85911675119082" lon="10.379584777161009"><ele>30.0</ele><time>2026-03-28T16:19:59Z</time></trkpt><trkpt lat="44.85929252568042" lon="10.379655827135364"><ele>30.0</ele><time>2026-03-28T16:20:00Z</time></trkpt><trkpt lat="44.85946106993781" lon="10.379724490391355"><ele>30.333333333333336</ele><time>2026-03-28T16:20:01Z</time></trkpt><trkpt lat="44.85962040570959" lon="10.379790202196277"><ele>30.666666666666668</ele><time>2026-03-28T16:20:02Z</time></trkpt><trkpt lat="44.859773241722145" lon="10.379854438940058"><ele>31.0</ele><time>2026-03-28T16:20:03Z</time></trkpt><trkpt lat="44.85991722547315" lon="10.379913979420747"><ele>31.0</ele><time>2026-03-28T16:20:04Z</time></trkpt><trkpt lat="44.860050950232726" lon="10.379966949400915"><ele>31.0</ele><time>2026-03-28T16:20:05Z</time></trkpt><trkpt lat="44.86017281194511" lon="10.380016399998325"><ele>31.0</ele><time>2026-03-28T16:20:06Z</time></trkpt><trkpt lat="44.8602757489162" lon="10.380079335215457"><ele>31.0</ele><time>2026-03-28T16:20:07Z</time></trkpt><trkpt lat="44.86038470069071" lon="10.380145519703975"><ele>31.000000000000004</ele><time>2026-03-28T16:20:08Z</time></trkpt><trkpt lat="44.86045547483685" lon="10.380235227615431"><ele>31.0</ele><time>2026-03-28T16:20:09Z</time></trkpt><trkpt lat="44.86050123296681" lon="10.380335224733779"><ele>31.0</ele><time>2026-03-28T16:20:10Z</time></trkpt><trkpt lat="44.86053155490045" lon="10.380435688046546"><ele>31.0</ele><time>2026-03-28T16:20:11Z</time></trkpt><trkpt lat="44.86056845530594" lon="10.380523422494548"><ele>31.000000000000004</ele><time>2026-03-28T16:20:12Z</time></trkpt><trkpt lat="44.860630849631775" lon="10.380571095385681"><ele>31.0</ele><time>2026-03-28T16:20:13Z</time></trkpt><trkpt lat="44.860711341188015" lon="10.380562389809862"><ele>31.0</ele><time>2026-03-28T16:20:14Z</time></trkpt><trkpt lat="44.86078408509524" lon="10.38048991397143"><ele>31.0</ele><time>2026-03-28T16:20:15Z</time></trkpt><trkpt lat="44.860871213319804" lon="10.380395185178385"><ele>31.0</ele><time>2026-03-28T16:20:16Z</time></trkpt><trkpt lat="44.86099350166988" lon="10.38036353643272"><ele>31.0</ele><time>2026-03-28T16:20:17Z</time></trkpt><trkpt lat="44.86112692278307" lon="10.380373548522297"><ele>30.666666666666668</ele><time>2026-03-28T16:20:18Z</time></trkpt><trkpt lat="44.86126800566587" lon="10.380433096218292"><ele>30.333333333333336</ele><time>2026-03-28T16:20:19Z</time></trkpt><trkpt lat="44.86141569470443" lon="10.38050801814111"><ele>30.0</ele><time>2026-03-28T16:20:19.999Z</time></trkpt><trkpt lat="44.86156640152231" lon="10.380579213400273"><ele>30.0</ele><time>2026-03-28T16:20:20.999Z</time></trkpt><trkpt lat="44.8617263560077" lon="10.380642478146472"><ele>30.0</ele><time>2026-03-28T16:20:21.999Z</time></trkpt><trkpt lat="44.86188956805963" lon="10.380704811325234"><ele>30.0</ele><time>2026-03-28T16:20:22.999Z</time></trkpt><trkpt lat="44.86206143202432" lon="10.38077969275457"><ele>30.0</ele><time>2026-03-28T16:20:23.999Z</time></trkpt><trkpt lat="44.86223583611179" lon="10.3808539976568"><ele>30.0</ele><time>2026-03-28T16:20:24.999Z</time></trkpt><trkpt lat="44.86241095718806" lon="10.380928796142653"><ele>30.0</ele><time>2026-03-28T16:20:25.999Z</time></trkpt><trkpt lat="44.86258718822406" lon="10.38100303660252"><ele>30.333333333333336</ele><time>2026-03-28T16:20:26.999Z</time></trkpt><trkpt lat="44.862767799044526" lon="10.381073025209174"><ele>30.666666666666668</ele><time>2026-03-28T16:20:27.999Z</time></trkpt><trkpt lat="44.86295124038767" lon="10.381146836578681"><ele>31.0</ele><time>2026-03-28T16:20:28.999Z</time></trkpt><trkpt lat="44.863144015958376" lon="10.381225807384592"><ele>31.0</ele><time>2026-03-28T16:20:29.999Z</time></trkpt><trkpt lat="44.86334633390568" lon="10.381303073155774"><ele>31.0</ele><time>2026-03-28T16:20:30.999Z</time></trkpt><trkpt lat="44.86354715748831" lon="10.381383140462743"><ele>31.0</ele><time>2026-03-28T16:20:31.999Z</time></trkpt><trkpt lat="44.863751449657" lon="10.38146693353447"><ele>31.0</ele><time>2026-03-28T16:20:32.999Z</time></trkpt><trkpt lat="44.86395944213243" lon="10.381555274727639"><ele>31.0</ele><time>2026-03-28T16:20:33.999Z</time></trkpt><trkpt lat="44.86417280893974" lon="10.381643928477443"><ele>31.0</ele><time>2026-03-28T16:20:34.999Z</time></trkpt><trkpt lat="44.86439073883218" lon="10.381731538392833"><ele>29.5</ele><time>2026-03-28T16:20:35.999Z</time></trkpt><trkpt lat="44.8646124248608" lon="10.381819588721054"><ele>28.0</ele><time>2026-03-28T16:20:36.999Z</time></trkpt><trkpt lat="44.864834357136296" lon="10.381909495424484"><ele>28.0</ele><time>2026-03-28T16:20:37.999Z</time></trkpt><trkpt lat="44.865054645077976" lon="10.382003327802577"><ele>28.0</ele><time>2026-03-28T16:20:38.999Z</time></trkpt><trkpt lat="44.86527486395477" lon="10.382097236274278"><ele>28.0</ele><time>2026-03-28T16:20:39.999Z</time></trkpt><trkpt lat="44.86549255864785" lon="10.382180010767737"><ele>28.0</ele><time>2026-03-28T16:20:40.999Z</time></trkpt><trkpt lat="44.8657128654167" lon="10.382253956754768"><ele>28.0</ele><time>2026-03-28T16:20:41.999Z</time></trkpt><trkpt lat="44.865933891829755" lon="10.38231374683009"><ele>28.0</ele><time>2026-03-28T16:20:42.999Z</time></trkpt><trkpt lat="44.86615526363412" lon="10.382377019247173"><ele>27.5</ele><time>2026-03-28T16:20:43.999Z</time></trkpt><trkpt lat="44.866378104949" lon="10.382448907087536"><ele>27.0</ele><time>2026-03-28T16:20:44.999Z</time></trkpt><trkpt lat="44.866599849361435" lon="10.382526187107135"><ele>27.0</ele><time>2026-03-28T16:20:45.999Z</time></trkpt><trkpt lat="44.8668237480429" lon="10.382609913328935"><ele>27.0</ele><time>2026-03-28T16:20:46.999Z</time></trkpt><trkpt lat="44.86704913716381" lon="10.382698728071368"><ele>27.0</ele><time>2026-03-28T16:20:47.999Z</time></trkpt><trkpt lat="44.86727306571204" lon="10.38279072752429"><ele>27.0</ele><time>2026-03-28T16:20:48.999Z</time></trkpt><trkpt lat="44.867493513700225" lon="10.382886438309054"><ele>27.666666666666664</ele><time>2026-03-28T16:20:49.999Z</time></trkpt><trkpt lat="44.867706354191846" lon="10.382982744398259"><ele>28.333333333333332</ele><time>2026-03-28T16:20:50.999Z</time></trkpt><trkpt lat="44.86791199237098" lon="10.383076512351487"><ele>29.0</ele><time>2026-03-28T16:20:51.999Z</time></trkpt><trkpt lat="44.868112554684366" lon="10.38316892522125"><ele>29.333333333333332</ele><time>2026-03-28T16:20:52.999Z</time></trkpt><trkpt lat="44.86831167330998" lon="10.383263848132923"><ele>29.666666666666664</ele><time>2026-03-28T16:20:53.999Z</time></trkpt><trkpt lat="44.86850671364172" lon="10.38334979885918"><ele>30.0</ele><time>2026-03-28T16:20:54.999Z</time></trkpt><trkpt lat="44.86869283988957" lon="10.38344284658127"><ele>30.333333333333336</ele><time>2026-03-28T16:20:55.999Z</time></trkpt><trkpt lat="44.86887373057073" lon="10.383540125368588"><ele>30.666666666666668</ele><time>2026-03-28T16:20:56.999Z</time></trkpt><trkpt lat="44.86900643189028" lon="10.383687241268877"><ele>31.0</ele><time>2026-03-28T16:20:57.999Z</time></trkpt><trkpt lat="44.8691346013481" lon="10.383848419686016"><ele>31.0</ele><time>2026-03-28T16:20:58.999Z</time></trkpt><trkpt lat="44.86922442338625" lon="10.384058444290758"><ele>31.0</ele><time>2026-03-28T16:20:59.999Z</time></trkpt><trkpt lat="44.869292748142534" lon="10.38430162655004"><ele>31.0</ele><time>2026-03-28T16:21:00.999Z</time></trkpt><trkpt lat="44.8693153556076" lon="10.384564148197853"><ele>29.666666666666668</ele><time>2026-03-28T16:21:01.999Z</time></trkpt><trkpt lat="44.869335984844525" lon="10.38483319628998"><ele>28.333333333333336</ele><time>2026-03-28T16:21:02.999Z</time></trkpt><trkpt lat="44.86933043690729" lon="10.385109922141526"><ele>27.0</ele><time>2026-03-28T16:21:03.999Z</time></trkpt><trkpt lat="44.86932628879897" lon="10.38539063792486"><ele>28.0</ele><time>2026-03-28T16:21:04.999Z</time></trkpt><trkpt lat="44.869332260303956" lon="10.38566484975801"><ele>29.0</ele><time>2026-03-28T16:21:05.999Z</time></trkpt><trkpt lat="44.86934847185049" lon="10.385924061101283"><ele>30.0</ele><time>2026-03-28T16:21:06.999Z</time></trkpt><trkpt lat="44.86939130281967" lon="10.386166492855804"><ele>30.333333333333336</ele><time>2026-03-28T16:21:07.999Z</time></trkpt><trkpt lat="44.86947182398231" lon="10.386395204785606"><ele>30.666666666666668</ele><time>2026-03-28T16:21:08.999Z</time></trkpt><trkpt lat="44.869579855938" lon="10.386606267899463"><ele>31.0</ele><time>2026-03-28T16:21:09.999Z</time></trkpt><trkpt lat="44.86972021715864" lon="10.38677517657395"><ele>31.0</ele><time>2026-03-28T16:21:10.999Z</time></trkpt><trkpt lat="44.86989074644947" lon="10.386901241227735"><ele>31.0</ele><time>2026-03-28T16:21:11.999Z</time></trkpt><trkpt lat="44.870083568385205" lon="10.387020822045036"><ele>31.0</ele><time>2026-03-28T16:21:12.999Z</time></trkpt><trkpt lat="44.87028381891993" lon="10.387137372206114"><ele>30.0</ele><time>2026-03-28T16:21:13.999Z</time></trkpt><trkpt lat="44.87051591523566" lon="10.387266901018998"><ele>29.0</ele><time>2026-03-28T16:21:14.999Z</time></trkpt><trkpt lat="44.87077043595231" lon="10.38742264979523"><ele>28.0</ele><time>2026-03-28T16:21:15.999Z</time></trkpt><trkpt lat="44.87104344703313" lon="10.387585135900952"><ele>27.0</ele><time>2026-03-28T16:21:16.999Z</time></trkpt><trkpt lat="44.87133841961367" lon="10.387794316506525"><ele>27.0</ele><time>2026-03-28T16:21:17.999Z</time></trkpt><trkpt lat="44.87165593640983" lon="10.387992870943515"><ele>27.0</ele><time>2026-03-28T16:21:18.999Z</time></trkpt><trkpt lat="44.87197187600998" lon="10.388190250139361"><ele>28.0</ele><time>2026-03-28T16:21:19.999Z</time></trkpt><trkpt lat="44.87226730178908" lon="10.388372923010252"><ele>29.0</ele><time>2026-03-28T16:21:20.999Z</time></trkpt><trkpt lat="44.87254730770545" lon="10.388544341622143"><ele>29.0</ele><time>2026-03-28T16:21:21.999Z</time></trkpt><trkpt lat="44.872811379192186" lon="10.388716848434726"><ele>29.0</ele><time>2026-03-28T16:21:22.999Z</time></trkpt><trkpt lat="44.87306360388081" lon="10.388872562523797"><ele>29.0</ele><time>2026-03-28T16:21:23.999Z</time></trkpt><trkpt lat="44.87331849760051" lon="10.389025968193058"><ele>29.0</ele><time>2026-03-28T16:21:24.999Z</time></trkpt><trkpt lat="44.87356735114542" lon="10.389182282886562"><ele>29.0</ele><time>2026-03-28T16:21:25.999Z</time></trkpt><trkpt lat="44.873814072323476" lon="10.38933633101393"><ele>29.0</ele><time>2026-03-28T16:21:26.999Z</time></trkpt><trkpt lat="44.874059830412385" lon="10.389493775402844"><ele>29.0</ele><time>2026-03-28T16:21:28Z</time></trkpt><trkpt lat="44.874310107959026" lon="10.389650194632585"><ele>29.0</ele><time>2026-03-28T16:21:29Z</time></trkpt><trkpt lat="44.87456073626158" lon="10.389803491887234"><ele>28.5</ele><time>2026-03-28T16:21:30Z</time></trkpt><trkpt lat="44.874813026478755" lon="10.389958565580203"><ele>28.0</ele><time>2026-03-28T16:21:31Z</time></trkpt><trkpt lat="44.87506259116594" lon="10.39011071092246"><ele>27.5</ele><time>2026-03-28T16:21:32Z</time></trkpt><trkpt lat="44.8753125271945" lon="10.390266316526084"><ele>27.0</ele><time>2026-03-28T16:21:33Z</time></trkpt><trkpt lat="44.875561071330196" lon="10.39042437526886"><ele>27.5</ele><time>2026-03-28T16:21:34Z</time></trkpt><trkpt lat="44.875812313258486" lon="10.390583075215178"><ele>28.0</ele><time>2026-03-28T16:21:35Z</time></trkpt><trkpt lat="44.876065109990094" lon="10.390736229622114"><ele>27.0</ele><time>2026-03-28T16:21:36Z</time></trkpt><trkpt lat="44.876325453988365" lon="10.390891393013113"><ele>26.0</ele><time>2026-03-28T16:21:37Z</time></trkpt><trkpt lat="44.87658316227699" lon="10.39105466005275"><ele>26.0</ele><time>2026-03-28T16:21:38Z</time></trkpt><trkpt lat="44.876843959351014" lon="10.391220441897028"><ele>26.0</ele><time>2026-03-28T16:21:39Z</time></trkpt><trkpt lat="44.87709919304078" lon="10.391380141207858"><ele>26.0</ele><time>2026-03-28T16:21:40Z</time></trkpt><trkpt lat="44.87735571460995" lon="10.391542258147423"><ele>26.0</ele><time>2026-03-28T16:21:41Z</time></trkpt><trkpt lat="44.877610100144445" lon="10.391703728139062"><ele>26.0</ele><time>2026-03-28T16:21:42Z</time></trkpt><trkpt lat="44.87786837416731" lon="10.391862332701187"><ele>26.0</ele><time>2026-03-28T16:21:43Z</time></trkpt><trkpt lat="44.8781264413228" lon="10.392017583298294"><ele>27.0</ele><time>2026-03-28T16:21:44Z</time></trkpt><trkpt lat="44.878376980899304" lon="10.392178362715613"><ele>28.0</ele><time>2026-03-28T16:21:45Z</time></trkpt><trkpt lat="44.87862704779149" lon="10.392337094124029"><ele>28.5</ele><time>2026-03-28T16:21:46Z</time></trkpt><trkpt lat="44.87887568118961" lon="10.392488638833095"><ele>29.0</ele><time>2026-03-28T16:21:47Z</time></trkpt><trkpt lat="44.879119045969496" lon="10.392635328640717"><ele>27.5</ele><time>2026-03-28T16:21:48Z</time></trkpt><trkpt lat="44.87934379615546" lon="10.39277301802297"><ele>26.0</ele><time>2026-03-28T16:21:49Z</time></trkpt><trkpt lat="44.87955006360582" lon="10.392913306054403"><ele>26.666666666666664</ele><time>2026-03-28T16:21:50Z</time></trkpt><trkpt lat="44.87973997545366" lon="10.39307945825735"><ele>27.333333333333336</ele><time>2026-03-28T16:21:51Z</time></trkpt><trkpt lat="44.879915552548724" lon="10.393278104789404"><ele>28.0</ele><time>2026-03-28T16:21:52Z</time></trkpt><trkpt lat="44.88006858763924" lon="10.393529661691892"><ele>27.0</ele><time>2026-03-28T16:21:53Z</time></trkpt><trkpt lat="44.880202747401746" lon="10.393820807160111"><ele>26.0</ele><time>2026-03-28T16:21:54Z</time></trkpt><trkpt lat="44.88032469325559" lon="10.394119776646862"><ele>26.0</ele><time>2026-03-28T16:21:55Z</time></trkpt><trkpt lat="44.88045723157195" lon="10.394388309897867"><ele>26.0</ele><time>2026-03-28T16:21:56Z</time></trkpt><trkpt lat="44.880612345932285" lon="10.394615680595576"><ele>26.0</ele><time>2026-03-28T16:21:57Z</time></trkpt><trkpt lat="44.880801277771134" lon="10.394794739282199"><ele>26.0</ele><time>2026-03-28T16:21:58Z</time></trkpt><trkpt lat="44.881016678280126" lon="10.394940107491909"><ele>26.0</ele><time>2026-03-28T16:21:59Z</time></trkpt><trkpt lat="44.88125997657403" lon="10.395045384339015"><ele>26.0</ele><time>2026-03-28T16:22:00Z</time></trkpt><trkpt lat="44.88151022610273" lon="10.395145873934105"><ele>26.0</ele><time>2026-03-28T16:22:01Z</time></trkpt><trkpt lat="44.88176431340874" lon="10.395270666115955"><ele>26.0</ele><time>2026-03-28T16:22:02Z</time></trkpt><trkpt lat="44.882019754990154" lon="10.395401222817584"><ele>25.0</ele><time>2026-03-28T16:22:03Z</time></trkpt><trkpt lat="44.88227546876056" lon="10.395529927469768"><ele>24.0</ele><time>2026-03-28T16:22:04Z</time></trkpt><trkpt lat="44.88253213184925" lon="10.395659521369431"><ele>25.0</ele><time>2026-03-28T16:22:05Z</time></trkpt><trkpt lat="44.882788362517864" lon="10.395792572259262"><ele>26.0</ele><time>2026-03-28T16:22:06Z</time></trkpt><trkpt lat="44.88304728155864" lon="10.395915581667087"><ele>26.0</ele><time>2026-03-28T16:22:07Z</time></trkpt><trkpt lat="44.883306989566115" lon="10.396042042177895"><ele>26.0</ele><time>2026-03-28T16:22:08Z</time></trkpt><trkpt lat="44.88356460797629" lon="10.396168643181422"><ele>26.0</ele><time>2026-03-28T16:22:09Z</time></trkpt><trkpt lat="44.88382624147087" lon="10.396298421000068"><ele>26.0</ele><time>2026-03-28T16:22:10Z</time></trkpt><trkpt lat="44.884086129752156" lon="10.396429381614912"><ele>26.0</ele><time>2026-03-28T16:22:11Z</time></trkpt><trkpt lat="44.88434800140987" lon="10.396564736501874"><ele>26.0</ele><time>2026-03-28T16:22:12Z</time></trkpt><trkpt lat="44.88461205794854" lon="10.39669286000717"><ele>26.0</ele><time>2026-03-28T16:22:13Z</time></trkpt><trkpt lat="44.88488051593892" lon="10.3968244551335"><ele>26.0</ele><time>2026-03-28T16:22:14Z</time></trkpt><trkpt lat="44.88514783908945" lon="10.396961302248544"><ele>25.5</ele><time>2026-03-28T16:22:15Z</time></trkpt><trkpt lat="44.88541568459404" lon="10.397097005676152"><ele>25.0</ele><time>2026-03-28T16:22:16Z</time></trkpt><trkpt lat="44.885687060641814" lon="10.39722850300153"><ele>25.0</ele><time>2026-03-28T16:22:17Z</time></trkpt><trkpt lat="44.885957542104514" lon="10.397363588444312"><ele>25.0</ele><time>2026-03-28T16:22:18Z</time></trkpt><trkpt lat="44.88622563350005" lon="10.397498400737533"><ele>25.0</ele><time>2026-03-28T16:22:19Z</time></trkpt><trkpt lat="44.88649256334376" lon="10.397632347236101"><ele>25.0</ele><time>2026-03-28T16:22:20Z</time></trkpt><trkpt lat="44.88675748038862" lon="10.397769422245107"><ele>25.0</ele><time>2026-03-28T16:22:21Z</time></trkpt><trkpt lat="44.88701896610091" lon="10.397900495288965"><ele>25.0</ele><time>2026-03-28T16:22:22Z</time></trkpt><trkpt lat="44.88727521307174" lon="10.398028227641714"><ele>25.0</ele><time>2026-03-28T16:22:23Z</time></trkpt><trkpt lat="44.88753157850031" lon="10.39815364377236"><ele>25.0</ele><time>2026-03-28T16:22:24Z</time></trkpt><trkpt lat="44.88778443674722" lon="10.398276726997418"><ele>25.0</ele><time>2026-03-28T16:22:25Z</time></trkpt><trkpt lat="44.8880393497047" lon="10.398399223413026"><ele>25.0</ele><time>2026-03-28T16:22:26Z</time></trkpt><trkpt lat="44.88828986216805" lon="10.398521065382983"><ele>25.5</ele><time>2026-03-28T16:22:27Z</time></trkpt><trkpt lat="44.88853849089621" lon="10.398642847530834"><ele>26.0</ele><time>2026-03-28T16:22:28Z</time></trkpt><trkpt lat="44.88878586544964" lon="10.398770975433786"><ele>25.5</ele><time>2026-03-28T16:22:29Z</time></trkpt><trkpt lat="44.88903167560023" lon="10.398906317766992"><ele>25.0</ele><time>2026-03-28T16:22:30Z</time></trkpt><trkpt lat="44.889276798510316" lon="10.39903726567515"><ele>24.0</ele><time>2026-03-28T16:22:31Z</time></trkpt><trkpt lat="44.88952141824197" lon="10.399163510783945"><ele>23.0</ele><time>2026-03-28T16:22:32Z</time></trkpt><trkpt lat="44.88976341786687" lon="10.399284323697659"><ele>23.0</ele><time>2026-03-28T16:22:33Z</time></trkpt><trkpt lat="44.889998951099365" lon="10.39939993312831"><ele>23.0</ele><time>2026-03-28T16:22:34Z</time></trkpt><trkpt lat="44.89022938222304" lon="10.399508133254876"><ele>23.5</ele><time>2026-03-28T16:22:35Z</time></trkpt><trkpt lat="44.89045170693517" lon="10.399608202109011"><ele>24.0</ele><time>2026-03-28T16:22:36Z</time></trkpt><trkpt lat="44.89066339739524" lon="10.399701436819164"><ele>24.0</ele><time>2026-03-28T16:22:37Z</time></trkpt><trkpt lat="44.890859552302" lon="10.399792457537162"><ele>24.0</ele><time>2026-03-28T16:22:38Z</time></trkpt><trkpt lat="44.89104251893288" lon="10.39988584300811"><ele>24.0</ele><time>2026-03-28T16:22:39Z</time></trkpt><trkpt lat="44.891213364912986" lon="10.400013383071524"><ele>24.0</ele><time>2026-03-28T16:22:40Z</time></trkpt><trkpt lat="44.891351626972174" lon="10.400193374314297"><ele>24.0</ele><time>2026-03-28T16:22:41Z</time></trkpt><trkpt lat="44.89146072330805" lon="10.400412601239957"><ele>24.0</ele><time>2026-03-28T16:22:42Z</time></trkpt><trkpt lat="44.89152749625086" lon="10.400659364419159"><ele>24.0</ele><time>2026-03-28T16:22:43Z</time></trkpt><trkpt lat="44.89156500728406" lon="10.400924289293696"><ele>24.0</ele><time>2026-03-28T16:22:43.999Z</time></trkpt><trkpt lat="44.891564939870484" lon="10.40120303066671"><ele>24.0</ele><time>2026-03-28T16:22:44.999Z</time></trkpt><trkpt lat="44.89153992065762" lon="10.401494506108813"><ele>24.333333333333336</ele><time>2026-03-28T16:22:45.999Z</time></trkpt><trkpt lat="44.891506968942714" lon="10.401797323990444"><ele>24.666666666666668</ele><time>2026-03-28T16:22:46.999Z</time></trkpt><trkpt lat="44.891474651044774" lon="10.40211060238286"><ele>25.0</ele><time>2026-03-28T16:22:47.999Z</time></trkpt><trkpt lat="44.89144163198104" lon="10.402432442830031"><ele>25.0</ele><time>2026-03-28T16:22:48.999Z</time></trkpt><trkpt lat="44.89140951846614" lon="10.402749002246583"><ele>25.0</ele><time>2026-03-28T16:22:49.999Z</time></trkpt><trkpt lat="44.89137684369125" lon="10.403047802571015"><ele>25.0</ele><time>2026-03-28T16:22:50.999Z</time></trkpt><trkpt lat="44.891347082355146" lon="10.403341142790792"><ele>25.0</ele><time>2026-03-28T16:22:51.999Z</time></trkpt><trkpt lat="44.891309496959515" lon="10.403616761875229"><ele>25.0</ele><time>2026-03-28T16:22:52.999Z</time></trkpt><trkpt lat="44.89128316152745" lon="10.40387084535297"><ele>25.0</ele><time>2026-03-28T16:22:53.999Z</time></trkpt><trkpt lat="44.891257668428985" lon="10.404126187893665"><ele>25.0</ele><time>2026-03-28T16:22:54.999Z</time></trkpt><trkpt lat="44.89123397377613" lon="10.404371863649384"><ele>25.0</ele><time>2026-03-28T16:22:55.999Z</time></trkpt><trkpt lat="44.8912259987902" lon="10.40459979944112"><ele>25.0</ele><time>2026-03-28T16:22:56.999Z</time></trkpt><trkpt lat="44.89118014174623" lon="10.404810449738834"><ele>25.0</ele><time>2026-03-28T16:22:57.999Z</time></trkpt><trkpt lat="44.891333868270486" lon="10.405057356503876"><ele>25.0</ele><time>2026-03-28T16:22:58.999Z</time></trkpt><trkpt lat="44.891437599397435" lon="10.405269590981725"><ele>25.0</ele><time>2026-03-28T16:22:59.999Z</time></trkpt><trkpt lat="44.89158128768548" lon="10.405449800984956"><ele>25.0</ele><time>2026-03-28T16:23:00.999Z</time></trkpt><trkpt lat="44.89176020406148" lon="10.405598737355653"><ele>25.0</ele><time>2026-03-28T16:23:01.999Z</time></trkpt><trkpt lat="44.89196488564508" lon="10.405724571751175"><ele>25.0</ele><time>2026-03-28T16:23:02.999Z</time></trkpt><trkpt lat="44.89218233645231" lon="10.405847193423993"><ele>25.0</ele><time>2026-03-28T16:23:03.999Z</time></trkpt><trkpt lat="44.892406727689526" lon="10.405981290670308"><ele>25.0</ele><time>2026-03-28T16:23:04.999Z</time></trkpt><trkpt lat="44.89262990931131" lon="10.406120206776778"><ele>25.0</ele><time>2026-03-28T16:23:05.999Z</time></trkpt><trkpt lat="44.892857276121354" lon="10.406260811728943"><ele>25.0</ele><time>2026-03-28T16:23:06.999Z</time></trkpt><trkpt lat="44.893086524164765" lon="10.406404805652667"><ele>25.0</ele><time>2026-03-28T16:23:07.999Z</time></trkpt><trkpt lat="44.89331927537035" lon="10.40655485279112"><ele>25.0</ele><time>2026-03-28T16:23:08.999Z</time></trkpt><trkpt lat="44.89354970566681" lon="10.406709564557465"><ele>25.0</ele><time>2026-03-28T16:23:09.999Z</time></trkpt><trkpt lat="44.89378450638129" lon="10.406864124951387"><ele>25.0</ele><time>2026-03-28T16:23:10.999Z</time></trkpt><trkpt lat="44.894020191536356" lon="10.407015757805155"><ele>25.0</ele><time>2026-03-28T16:23:11.999Z</time></trkpt><trkpt lat="44.894253207712524" lon="10.407172263366034"><ele>25.0</ele><time>2026-03-28T16:23:12.999Z</time></trkpt><trkpt lat="44.894487217157035" lon="10.407324894396696"><ele>25.0</ele><time>2026-03-28T16:23:13.999Z</time></trkpt><trkpt lat="44.894713932955604" lon="10.407477132393927"><ele>25.0</ele><time>2026-03-28T16:23:14.999Z</time></trkpt><trkpt lat="44.894940446645045" lon="10.407627681251768"><ele>25.5</ele><time>2026-03-28T16:23:15.999Z</time></trkpt><trkpt lat="44.895160620933346" lon="10.4077759130371"><ele>26.0</ele><time>2026-03-28T16:23:16.999Z</time></trkpt><trkpt lat="44.89537383606598" lon="10.40791818364683"><ele>26.0</ele><time>2026-03-28T16:23:17.999Z</time></trkpt><trkpt lat="44.89558481336834" lon="10.408057236306211"><ele>26.0</ele><time>2026-03-28T16:23:18.999Z</time></trkpt><trkpt lat="44.89579074764714" lon="10.408192177976016"><ele>26.333333333333332</ele><time>2026-03-28T16:23:19.999Z</time></trkpt><trkpt lat="44.89598808527103" lon="10.408322861514115"><ele>26.666666666666664</ele><time>2026-03-28T16:23:20.999Z</time></trkpt><trkpt lat="44.89617588351886" lon="10.408447403003136"><ele>27.0</ele><time>2026-03-28T16:23:21.999Z</time></trkpt><trkpt lat="44.896351523247816" lon="10.408565026013212"><ele>27.0</ele><time>2026-03-28T16:23:22.999Z</time></trkpt><trkpt lat="44.896520904201594" lon="10.408678529952121"><ele>27.0</ele><time>2026-03-28T16:23:23.999Z</time></trkpt><trkpt lat="44.89668017443946" lon="10.408785199422223"><ele>27.0</ele><time>2026-03-28T16:23:24.999Z</time></trkpt><trkpt lat="44.89683695670552" lon="10.408890315374501"><ele>26.666666666666664</ele><time>2026-03-28T16:23:25.999Z</time></trkpt><trkpt lat="44.89699038615172" lon="10.408992637193569"><ele>26.333333333333332</ele><time>2026-03-28T16:23:26.999Z</time></trkpt><trkpt lat="44.8971313712716" lon="10.409088612089116"><ele>26.0</ele><time>2026-03-28T16:23:27.999Z</time></trkpt><trkpt lat="44.897259798394614" lon="10.409181780153201"><ele>26.0</ele><time>2026-03-28T16:23:28.999Z</time></trkpt><trkpt lat="44.89737721877994" lon="10.409280383611792"><ele>26.0</ele><time>2026-03-28T16:23:29.999Z</time></trkpt><trkpt lat="44.897470071859495" lon="10.409398955189616"><ele>26.0</ele><time>2026-03-28T16:23:30.999Z</time></trkpt><trkpt lat="44.89753465462074" lon="10.409533916880244"><ele>26.0</ele><time>2026-03-28T16:23:31.999Z</time></trkpt><trkpt lat="44.8975793832969" lon="10.409689675462879"><ele>26.0</ele><time>2026-03-28T16:23:32.999Z</time></trkpt><trkpt lat="44.897616846344235" lon="10.409854781252472"><ele>26.0</ele><time>2026-03-28T16:23:34Z</time></trkpt><trkpt lat="44.89763052521116" lon="10.410023625756203"><ele>26.0</ele><time>2026-03-28T16:23:35Z</time></trkpt><trkpt lat="44.897616185788806" lon="10.410208228009449"><ele>26.0</ele><time>2026-03-28T16:23:36Z</time></trkpt><trkpt lat="44.89757037162939" lon="10.41040620651452"><ele>25.333333333333332</ele><time>2026-03-28T16:23:37Z</time></trkpt><trkpt lat="44.89750952538529" lon="10.410619849776428"><ele>24.666666666666664</ele><time>2026-03-28T16:23:38Z</time></trkpt><trkpt lat="44.89745370523427" lon="10.41084816636635"><ele>24.0</ele><time>2026-03-28T16:23:39Z</time></trkpt><trkpt lat="44.89740092638471" lon="10.411084412538866"><ele>23.666666666666668</ele><time>2026-03-28T16:23:40Z</time></trkpt><trkpt lat="44.897348871167935" lon="10.411328257336576"><ele>23.333333333333336</ele><time>2026-03-28T16:23:41Z</time></trkpt><trkpt lat="44.89729290255275" lon="10.41157682421874"><ele>23.0</ele><time>2026-03-28T16:23:42Z</time></trkpt><trkpt lat="44.897235920537206" lon="10.411835481154956"><ele>23.0</ele><time>2026-03-28T16:23:43Z</time></trkpt><trkpt lat="44.897179112242526" lon="10.412103996285774"><ele>23.0</ele><time>2026-03-28T16:23:44Z</time></trkpt><trkpt lat="44.89711747372791" lon="10.412381256890242"><ele>23.0</ele><time>2026-03-28T16:23:45Z</time></trkpt><trkpt lat="44.8970496920532" lon="10.412666406922183"><ele>23.0</ele><time>2026-03-28T16:23:46Z</time></trkpt><trkpt lat="44.896978261532794" lon="10.412963020543591"><ele>23.0</ele><time>2026-03-28T16:23:47Z</time></trkpt><trkpt lat="44.89690017455804" lon="10.413261031762142"><ele>23.0</ele><time>2026-03-28T16:23:48Z</time></trkpt><trkpt lat="44.89680418970362" lon="10.41355739710898"><ele>24.5</ele><time>2026-03-28T16:23:49Z</time></trkpt><trkpt lat="44.89669728973588" lon="10.41384220557588"><ele>26.0</ele><time>2026-03-28T16:23:50Z</time></trkpt><trkpt lat="44.89657953986279" lon="10.414123218414236"><ele>26.0</ele><time>2026-03-28T16:23:51Z</time></trkpt><trkpt lat="44.89645192985827" lon="10.414400578029975"><ele>26.0</ele><time>2026-03-28T16:23:52Z</time></trkpt><trkpt lat="44.89631447639545" lon="10.414670206010216"><ele>25.5</ele><time>2026-03-28T16:23:53Z</time></trkpt><trkpt lat="44.89617347372585" lon="10.414941863322595"><ele>25.0</ele><time>2026-03-28T16:23:54Z</time></trkpt><trkpt lat="44.89603551698188" lon="10.415219741727752"><ele>25.0</ele><time>2026-03-28T16:23:55Z</time></trkpt><trkpt lat="44.8957795929257" lon="10.41537886080845"><ele>25.0</ele><time>2026-03-28T16:23:56Z</time></trkpt><trkpt lat="44.89563532109306" lon="10.415654947457007"><ele>25.5</ele><time>2026-03-28T16:23:57Z</time></trkpt><trkpt lat="44.89549751742096" lon="10.41594177594088"><ele>26.0</ele><time>2026-03-28T16:23:58Z</time></trkpt><trkpt lat="44.89552819286661" lon="10.416403555590872"><ele>26.5</ele><time>2026-03-28T16:23:59Z</time></trkpt><trkpt lat="44.89541842974673" lon="10.416718162812419"><ele>27.0</ele><time>2026-03-28T16:24:00Z</time></trkpt><trkpt lat="44.89532945018413" lon="10.41704524083248"><ele>27.5</ele><time>2026-03-28T16:24:01Z</time></trkpt><trkpt lat="44.89525079200396" lon="10.41738025314723"><ele>28.0</ele><time>2026-03-28T16:24:02Z</time></trkpt><trkpt lat="44.895182894434335" lon="10.41771564769407"><ele>28.0</ele><time>2026-03-28T16:24:03Z</time></trkpt><trkpt lat="44.89511070017962" lon="10.418054091552023"><ele>28.0</ele><time>2026-03-28T16:24:04Z</time></trkpt><trkpt lat="44.89503700093766" lon="10.418386812986359"><ele>26.0</ele><time>2026-03-28T16:24:05Z</time></trkpt><trkpt lat="44.89496257173421" lon="10.418718300849036"><ele>24.0</ele><time>2026-03-28T16:24:06Z</time></trkpt><trkpt lat="44.89489173003737" lon="10.419047958035279"><ele>23.5</ele><time>2026-03-28T16:24:07Z</time></trkpt><trkpt lat="44.89482200238059" lon="10.419382629069583"><ele>23.0</ele><time>2026-03-28T16:24:08Z</time></trkpt><trkpt lat="44.89475106881906" lon="10.419709288251692"><ele>24.0</ele><time>2026-03-28T16:24:09Z</time></trkpt><trkpt lat="44.894677786049364" lon="10.42003989414809"><ele>25.0</ele><time>2026-03-28T16:24:10Z</time></trkpt><trkpt lat="44.8946063180011" lon="10.420363043482155"><ele>24.5</ele><time>2026-03-28T16:24:11Z</time></trkpt><trkpt lat="44.89454449737288" lon="10.420694062825312"><ele>24.0</ele><time>2026-03-28T16:24:12Z</time></trkpt><trkpt lat="44.8944973820023" lon="10.421029266780895"><ele>24.5</ele><time>2026-03-28T16:24:13Z</time></trkpt><trkpt lat="44.89446251236625" lon="10.421370265065518"><ele>25.0</ele><time>2026-03-28T16:24:14Z</time></trkpt><trkpt lat="44.8944422977909" lon="10.421710157441542"><ele>25.0</ele><time>2026-03-28T16:24:15Z</time></trkpt><trkpt lat="44.89442940066201" lon="10.422042408211473"><ele>25.0</ele><time>2026-03-28T16:24:16Z</time></trkpt><trkpt lat="44.894420805088345" lon="10.42237897436426"><ele>25.0</ele><time>2026-03-28T16:24:17Z</time></trkpt><trkpt lat="44.89441637027541" lon="10.422713829535564"><ele>25.0</ele><time>2026-03-28T16:24:18Z</time></trkpt><trkpt lat="44.89442053067137" lon="10.423050115906685"><ele>25.0</ele><time>2026-03-28T16:24:19Z</time></trkpt><trkpt lat="44.8944217200047" lon="10.423388755662094"><ele>25.0</ele><time>2026-03-28T16:24:20Z</time></trkpt><trkpt lat="44.894420386453795" lon="10.423720540835703"><ele>24.5</ele><time>2026-03-28T16:24:21Z</time></trkpt><trkpt lat="44.894418629362015" lon="10.42405089253267"><ele>24.0</ele><time>2026-03-28T16:24:22Z</time></trkpt><trkpt lat="44.894416561148454" lon="10.424380696798869"><ele>24.0</ele><time>2026-03-28T16:24:23Z</time></trkpt><trkpt lat="44.89441249593838" lon="10.42471116664813"><ele>24.0</ele><time>2026-03-28T16:24:24Z</time></trkpt><trkpt lat="44.89440847374392" lon="10.425039741537583"><ele>24.0</ele><time>2026-03-28T16:24:25Z</time></trkpt><trkpt lat="44.894400131659985" lon="10.425372881692534"><ele>24.0</ele><time>2026-03-28T16:24:26Z</time></trkpt><trkpt lat="44.89438609128321" lon="10.425703564342708"><ele>24.0</ele><time>2026-03-28T16:24:27Z</time></trkpt><trkpt lat="44.89436001335007" lon="10.426031017580605"><ele>24.0</ele><time>2026-03-28T16:24:28Z</time></trkpt><trkpt lat="44.89432302771273" lon="10.426360571701144"><ele>24.0</ele><time>2026-03-28T16:24:29Z</time></trkpt><trkpt lat="44.8942774708571" lon="10.426685823894116"><ele>24.0</ele><time>2026-03-28T16:24:30Z</time></trkpt><trkpt lat="44.89422114661868" lon="10.427006806992438"><ele>23.0</ele><time>2026-03-28T16:24:31Z</time></trkpt><trkpt lat="44.89415602696711" lon="10.427323628272074"><ele>22.0</ele><time>2026-03-28T16:24:32Z</time></trkpt><trkpt lat="44.894084790127664" lon="10.427642240227952"><ele>22.0</ele><time>2026-03-28T16:24:33Z</time></trkpt><trkpt lat="44.89401514278264" lon="10.427958842075515"><ele>22.0</ele><time>2026-03-28T16:24:34Z</time></trkpt><trkpt lat="44.893948447354845" lon="10.428276990688325"><ele>22.0</ele><time>2026-03-28T16:24:35Z</time></trkpt><trkpt lat="44.89388210716407" lon="10.428592527180582"><ele>22.0</ele><time>2026-03-28T16:24:36Z</time></trkpt><trkpt lat="44.893817198227715" lon="10.428909441311866"><ele>23.0</ele><time>2026-03-28T16:24:37Z</time></trkpt><trkpt lat="44.8937510419142" lon="10.429227800041815"><ele>24.0</ele><time>2026-03-28T16:24:38Z</time></trkpt><trkpt lat="44.89368373007953" lon="10.429547124418999"><ele>23.0</ele><time>2026-03-28T16:24:39Z</time></trkpt><trkpt lat="44.893617867297294" lon="10.429857727564071"><ele>22.0</ele><time>2026-03-28T16:24:40Z</time></trkpt><trkpt lat="44.89354992266985" lon="10.430181119273897"><ele>22.0</ele><time>2026-03-28T16:24:41Z</time></trkpt><trkpt lat="44.89348525484248" lon="10.430498894918182"><ele>22.0</ele><time>2026-03-28T16:24:42Z</time></trkpt><trkpt lat="44.89342564670759" lon="10.430799584468824"><ele>22.333333333333332</ele><time>2026-03-28T16:24:43Z</time></trkpt><trkpt lat="44.8933741828049" lon="10.431065742576534"><ele>22.666666666666668</ele><time>2026-03-28T16:24:44Z</time></trkpt><trkpt lat="44.893331376354745" lon="10.43130265524748"><ele>23.0</ele><time>2026-03-28T16:24:45Z</time></trkpt><trkpt lat="44.89329317839339" lon="10.43151633605711"><ele>23.25</ele><time>2026-03-28T16:24:46Z</time></trkpt><trkpt lat="44.893263720870195" lon="10.431701261765316"><ele>23.5</ele><time>2026-03-28T16:24:47Z</time></trkpt><trkpt lat="44.893236981396676" lon="10.431872513876169"><ele>23.75</ele><time>2026-03-28T16:24:48Z</time></trkpt><trkpt lat="44.89321079053405" lon="10.432025014841479"><ele>24.0</ele><time>2026-03-28T16:24:49Z</time></trkpt><trkpt lat="44.89317763146158" lon="10.43215360523965"><ele>24.0</ele><time>2026-03-28T16:24:50Z</time></trkpt><trkpt lat="44.89313141299317" lon="10.432271310079981"><ele>24.0</ele><time>2026-03-28T16:24:50.999Z</time></trkpt><trkpt lat="44.89307430371984" lon="10.432369521521217"><ele>24.0</ele><time>2026-03-28T16:24:51.999Z</time></trkpt><trkpt lat="44.89301150016712" lon="10.432457537302854"><ele>24.0</ele><time>2026-03-28T16:24:52.999Z</time></trkpt><trkpt lat="44.89295408088012" lon="10.432553309067455"><ele>24.0</ele><time>2026-03-28T16:24:53.999Z</time></trkpt><trkpt lat="44.89292395134786" lon="10.432677917828316"><ele>24.0</ele><time>2026-03-28T16:24:54.999Z</time></trkpt><trkpt lat="44.89292789785974" lon="10.432814954372624"><ele>24.0</ele><time>2026-03-28T16:24:55.999Z</time></trkpt><trkpt lat="44.89296352546988" lon="10.43295023474982"><ele>24.0</ele><time>2026-03-28T16:24:56.999Z</time></trkpt><trkpt lat="44.893008471496096" lon="10.433087053774198"><ele>24.0</ele><time>2026-03-28T16:24:57.999Z</time></trkpt><trkpt lat="44.893043751572066" lon="10.4332362851297"><ele>24.0</ele><time>2026-03-28T16:24:58.999Z</time></trkpt><trkpt lat="44.89308412411262" lon="10.43339758565971"><ele>24.0</ele><time>2026-03-28T16:24:59.999Z</time></trkpt><trkpt lat="44.89303370437586" lon="10.433618610002277"><ele>24.0</ele><time>2026-03-28T16:25:00.999Z</time></trkpt><trkpt lat="44.89300575191063" lon="10.433851178796404"><ele>24.0</ele><time>2026-03-28T16:25:01.999Z</time></trkpt><trkpt lat="44.89298641807558" lon="10.43410735160265"><ele>24.0</ele><time>2026-03-28T16:25:02.999Z</time></trkpt><trkpt lat="44.892968778728225" lon="10.434371332302355"><ele>24.0</ele><time>2026-03-28T16:25:03.999Z</time></trkpt><trkpt lat="44.89295474697953" lon="10.434631766143792"><ele>24.0</ele><time>2026-03-28T16:25:04.999Z</time></trkpt><trkpt lat="44.89294597788194" lon="10.434885891687053"><ele>23.666666666666668</ele><time>2026-03-28T16:25:05.999Z</time></trkpt><trkpt lat="44.89292845105818" lon="10.435142716222636"><ele>23.333333333333336</ele><time>2026-03-28T16:25:06.999Z</time></trkpt><trkpt lat="44.89291718121968" lon="10.435415461960972"><ele>23.0</ele><time>2026-03-28T16:25:07.999Z</time></trkpt><trkpt lat="44.89290482682002" lon="10.435714455635454"><ele>23.0</ele><time>2026-03-28T16:25:08.999Z</time></trkpt><trkpt lat="44.89290323046684" lon="10.436034724869495"><ele>23.0</ele><time>2026-03-28T16:25:09.999Z</time></trkpt><trkpt lat="44.892880287870334" lon="10.436371275046074"><ele>23.0</ele><time>2026-03-28T16:25:10.999Z</time></trkpt><trkpt lat="44.89286437629167" lon="10.43671671881072"><ele>23.0</ele><time>2026-03-28T16:25:11.999Z</time></trkpt><trkpt lat="44.8928505197666" lon="10.437073232349565"><ele>23.0</ele><time>2026-03-28T16:25:12.999Z</time></trkpt><trkpt lat="44.89283633919218" lon="10.437428547492738"><ele>23.0</ele><time>2026-03-28T16:25:13.999Z</time></trkpt><trkpt lat="44.89282148885302" lon="10.437783171557092"><ele>24.5</ele><time>2026-03-28T16:25:14.999Z</time></trkpt><trkpt lat="44.892807633423516" lon="10.438133454332121"><ele>26.0</ele><time>2026-03-28T16:25:15.999Z</time></trkpt><trkpt lat="44.89279337678415" lon="10.438481278538001"><ele>25.0</ele><time>2026-03-28T16:25:16.999Z</time></trkpt><trkpt lat="44.892780763933516" lon="10.438819759929638"><ele>24.0</ele><time>2026-03-28T16:25:17.999Z</time></trkpt><trkpt lat="44.892766585732595" lon="10.439154123831402"><ele>24.0</ele><time>2026-03-28T16:25:18.999Z</time></trkpt><trkpt lat="44.89275204405743" lon="10.439486784751695"><ele>24.0</ele><time>2026-03-28T16:25:19.999Z</time></trkpt><trkpt lat="44.892739822265725" lon="10.439823255834263"><ele>25.0</ele><time>2026-03-28T16:25:20.999Z</time></trkpt><trkpt lat="44.892724582434944" lon="10.440159834632686"><ele>26.0</ele><time>2026-03-28T16:25:21.999Z</time></trkpt><trkpt lat="44.89270544044556" lon="10.44049769892141"><ele>26.0</ele><time>2026-03-28T16:25:22.999Z</time></trkpt><trkpt lat="44.892688031286056" lon="10.440835280052545"><ele>26.0</ele><time>2026-03-28T16:25:23.999Z</time></trkpt><trkpt lat="44.89267155291608" lon="10.441173708266328"><ele>25.5</ele><time>2026-03-28T16:25:24.999Z</time></trkpt><trkpt lat="44.89265808711061" lon="10.441503732247224"><ele>25.0</ele><time>2026-03-28T16:25:25.999Z</time></trkpt><trkpt lat="44.892640935092516" lon="10.44183491507712"><ele>25.0</ele><time>2026-03-28T16:25:26.999Z</time></trkpt><trkpt lat="44.892622553873366" lon="10.442163707811032"><ele>25.0</ele><time>2026-03-28T16:25:27.999Z</time></trkpt><trkpt lat="44.89260339156312" lon="10.442492616123952"><ele>24.5</ele><time>2026-03-28T16:25:28.999Z</time></trkpt><trkpt lat="44.89258145646365" lon="10.44282291729325"><ele>24.0</ele><time>2026-03-28T16:25:29.999Z</time></trkpt><trkpt lat="44.892560371751095" lon="10.443158537831225"><ele>24.0</ele><time>2026-03-28T16:25:30.999Z</time></trkpt><trkpt lat="44.89253725416602" lon="10.443493979272594"><ele>24.0</ele><time>2026-03-28T16:25:31.999Z</time></trkpt><trkpt lat="44.89251016706666" lon="10.443830952287078"><ele>24.0</ele><time>2026-03-28T16:25:32.999Z</time></trkpt><trkpt lat="44.89248225060457" lon="10.44416276264172"><ele>24.0</ele><time>2026-03-28T16:25:33.999Z</time></trkpt><trkpt lat="44.89245237429222" lon="10.444495028344877"><ele>24.5</ele><time>2026-03-28T16:25:34.999Z</time></trkpt><trkpt lat="44.89242139551208" lon="10.444825760375862"><ele>25.0</ele><time>2026-03-28T16:25:35.999Z</time></trkpt><trkpt lat="44.892388846491826" lon="10.445154760410874"><ele>26.0</ele><time>2026-03-28T16:25:36.999Z</time></trkpt><trkpt lat="44.892357642953236" lon="10.445491136053043"><ele>27.0</ele><time>2026-03-28T16:25:37.999Z</time></trkpt><trkpt lat="44.89232450082232" lon="10.445829175172644"><ele>27.0</ele><time>2026-03-28T16:25:38.999Z</time></trkpt><trkpt lat="44.89228801019637" lon="10.44615607891071"><ele>27.0</ele><time>2026-03-28T16:25:40Z</time></trkpt><trkpt lat="44.89224779196909" lon="10.446503050838668"><ele>26.5</ele><time>2026-03-28T16:25:41Z</time></trkpt><trkpt lat="44.892204760493186" lon="10.446846620897201"><ele>26.0</ele><time>2026-03-28T16:25:42Z</time></trkpt><trkpt lat="44.892158198336915" lon="10.44719482228172"><ele>26.0</ele><time>2026-03-28T16:25:43Z</time></trkpt><trkpt lat="44.89211127586717" lon="10.447543338904103"><ele>26.0</ele><time>2026-03-28T16:25:44Z</time></trkpt><trkpt lat="44.89206338007414" lon="10.447890187360565"><ele>26.5</ele><time>2026-03-28T16:25:45Z</time></trkpt><trkpt lat="44.89201429770504" lon="10.448233446735061"><ele>27.0</ele><time>2026-03-28T16:25:46Z</time></trkpt><trkpt lat="44.89196421202698" lon="10.448575981941978"><ele>27.5</ele><time>2026-03-28T16:25:47Z</time></trkpt><trkpt lat="44.891914440677496" lon="10.448916699780415"><ele>28.0</ele><time>2026-03-28T16:25:48Z</time></trkpt><trkpt lat="44.891866689619924" lon="10.449253611793708"><ele>28.0</ele><time>2026-03-28T16:25:49Z</time></trkpt><trkpt lat="44.891815401670684" lon="10.449600160658782"><ele>28.0</ele><time>2026-03-28T16:25:50Z</time></trkpt><trkpt lat="44.89176525820555" lon="10.449941007218259"><ele>27.0</ele><time>2026-03-28T16:25:51Z</time></trkpt><trkpt lat="44.89171327477521" lon="10.450274898734905"><ele>26.0</ele><time>2026-03-28T16:25:52Z</time></trkpt><trkpt lat="44.89166432562587" lon="10.45058542893739"><ele>26.0</ele><time>2026-03-28T16:25:53Z</time></trkpt><trkpt lat="44.89161895650574" lon="10.450874668837585"><ele>26.0</ele><time>2026-03-28T16:25:54Z</time></trkpt><trkpt lat="44.89157627792399" lon="10.451146446918543"><ele>26.0</ele><time>2026-03-28T16:25:55Z</time></trkpt><trkpt lat="44.89153916923424" lon="10.451393596496647"><ele>25.25</ele><time>2026-03-28T16:25:56Z</time></trkpt><trkpt lat="44.89150765550673" lon="10.451609791225273"><ele>24.5</ele><time>2026-03-28T16:25:57Z</time></trkpt><trkpt lat="44.89147703512278" lon="10.451806307082599"><ele>23.75</ele><time>2026-03-28T16:25:58Z</time></trkpt><trkpt lat="44.89144432276097" lon="10.45195484686544"><ele>23.0</ele><time>2026-03-28T16:25:59Z</time></trkpt><trkpt lat="44.89140182557648" lon="10.452095928051037"><ele>23.2</ele><time>2026-03-28T16:26:00Z</time></trkpt><trkpt lat="44.89134836271306" lon="10.452210179377792"><ele>23.4</ele><time>2026-03-28T16:26:01Z</time></trkpt><trkpt lat="44.89127367843551" lon="10.452312933817236"><ele>23.599999999999998</ele><time>2026-03-28T16:26:02Z</time></trkpt><trkpt lat="44.8912053491416" lon="10.452421540344844"><ele>23.799999999999997</ele><time>2026-03-28T16:26:03Z</time></trkpt><trkpt lat="44.89115436391705" lon="10.452550787113873"><ele>24.0</ele><time>2026-03-28T16:26:04Z</time></trkpt><trkpt lat="44.891156615764075" lon="10.452697527869503"><ele>24.0</ele><time>2026-03-28T16:26:05Z</time></trkpt><trkpt lat="44.89121323123911" lon="10.452829677261107"><ele>24.0</ele><time>2026-03-28T16:26:06Z</time></trkpt><trkpt lat="44.89129078729709" lon="10.452915240694294"><ele>24.0</ele><time>2026-03-28T16:26:07Z</time></trkpt><trkpt lat="44.8913858918963" lon="10.452932791578617"><ele>24.0</ele><time>2026-03-28T16:26:08Z</time></trkpt><trkpt lat="44.891481315859856" lon="10.452878095578631"><ele>24.0</ele><time>2026-03-28T16:26:09Z</time></trkpt><trkpt lat="44.89157926585718" lon="10.45281604018614"><ele>24.0</ele><time>2026-03-28T16:26:10Z</time></trkpt><trkpt lat="44.89170652777819" lon="10.45280368514498"><ele>24.0</ele><time>2026-03-28T16:26:11Z</time></trkpt><trkpt lat="44.891845198879324" lon="10.452835040970443"><ele>24.0</ele><time>2026-03-28T16:26:12Z</time></trkpt><trkpt lat="44.89198023494837" lon="10.452883027955982"><ele>24.0</ele><time>2026-03-28T16:26:13Z</time></trkpt><trkpt lat="44.8921224970195" lon="10.4529362023872"><ele>24.0</ele><time>2026-03-28T16:26:14Z</time></trkpt><trkpt lat="44.8922722359988" lon="10.452985309453323"><ele>24.0</ele><time>2026-03-28T16:26:15Z</time></trkpt><trkpt lat="44.892432410911915" lon="10.453034372432608"><ele>24.0</ele><time>2026-03-28T16:26:16Z</time></trkpt><trkpt lat="44.892601944461944" lon="10.453087533074088"><ele>24.666666666666664</ele><time>2026-03-28T16:26:17Z</time></trkpt><trkpt lat="44.89278357160663" lon="10.453151329709778"><ele>25.333333333333332</ele><time>2026-03-28T16:26:18Z</time></trkpt><trkpt lat="44.892975360092706" lon="10.453222133757793"><ele>26.0</ele><time>2026-03-28T16:26:19Z</time></trkpt><trkpt lat="44.893171538659374" lon="10.453293542917224"><ele>26.0</ele><time>2026-03-28T16:26:20Z</time></trkpt><trkpt lat="44.893369604570566" lon="10.453363300415528"><ele>26.0</ele><time>2026-03-28T16:26:21Z</time></trkpt><trkpt lat="44.89356222395043" lon="10.453431741231713"><ele>26.0</ele><time>2026-03-28T16:26:22Z</time></trkpt><trkpt lat="44.893743107001825" lon="10.453497079724253"><ele>25.666666666666664</ele><time>2026-03-28T16:26:23Z</time></trkpt><trkpt lat="44.89391001656088" lon="10.453553834558221"><ele>25.333333333333336</ele><time>2026-03-28T16:26:24Z</time></trkpt><trkpt lat="44.89407476819445" lon="10.453612846464965"><ele>25.0</ele><time>2026-03-28T16:26:25Z</time></trkpt><trkpt lat="44.894236870286456" lon="10.453670286186407"><ele>25.0</ele><time>2026-03-28T16:26:26Z</time></trkpt><trkpt lat="44.89439809469756" lon="10.453725356626876"><ele>25.0</ele><time>2026-03-28T16:26:27Z</time></trkpt><trkpt lat="44.89456225538717" lon="10.453781471890634"><ele>25.0</ele><time>2026-03-28T16:26:28Z</time></trkpt><trkpt lat="44.89472641070848" lon="10.453839331743726"><ele>25.0</ele><time>2026-03-28T16:26:29Z</time></trkpt><trkpt lat="44.89489234389116" lon="10.453901108493639"><ele>25.0</ele><time>2026-03-28T16:26:30Z</time></trkpt><trkpt lat="44.89506096040789" lon="10.453967050201223"><ele>25.0</ele><time>2026-03-28T16:26:31Z</time></trkpt><trkpt lat="44.895222105338455" lon="10.45403114470027"><ele>25.0</ele><time>2026-03-28T16:26:32Z</time></trkpt><trkpt lat="44.89537099084929" lon="10.454090989867355"><ele>25.0</ele><time>2026-03-28T16:26:33Z</time></trkpt><trkpt lat="44.89550794756328" lon="10.454150502996333"><ele>25.0</ele><time>2026-03-28T16:26:34Z</time></trkpt><trkpt lat="44.89563120974204" lon="10.454220501184155"><ele>25.0</ele><time>2026-03-28T16:26:35Z</time></trkpt><trkpt lat="44.89573239434466" lon="10.454316008449755"><ele>25.0</ele><time>2026-03-28T16:26:36Z</time></trkpt><trkpt lat="44.89580617515698" lon="10.454437836127742"><ele>25.0</ele><time>2026-03-28T16:26:37Z</time></trkpt><trkpt lat="44.8958433737553" lon="10.454585752656758"><ele>25.0</ele><time>2026-03-28T16:26:38Z</time></trkpt><trkpt lat="44.8958529270565" lon="10.454747670856463"><ele>25.0</ele><time>2026-03-28T16:26:39Z</time></trkpt><trkpt lat="44.8958440639073" lon="10.45491774757754"><ele>24.75</ele><time>2026-03-28T16:26:40Z</time></trkpt><trkpt lat="44.89582272025689" lon="10.455100969283407"><ele>24.5</ele><time>2026-03-28T16:26:41Z</time></trkpt><trkpt lat="44.895792149198115" lon="10.455297619228611"><ele>24.25</ele><time>2026-03-28T16:26:42Z</time></trkpt><trkpt lat="44.895759894932425" lon="10.455503477267472"><ele>24.0</ele><time>2026-03-28T16:26:43Z</time></trkpt><trkpt lat="44.89572773127846" lon="10.455710922480394"><ele>23.75</ele><time>2026-03-28T16:26:44Z</time></trkpt><trkpt lat="44.89569592898839" lon="10.455917946838582"><ele>23.5</ele><time>2026-03-28T16:26:45Z</time></trkpt><trkpt lat="44.895662630739075" lon="10.456123587524228"><ele>23.25</ele><time>2026-03-28T16:26:46Z</time></trkpt><trkpt lat="44.89562493566301" lon="10.456328505046287"><ele>23.0</ele><time>2026-03-28T16:26:47Z</time></trkpt><trkpt lat="44.89558698306809" lon="10.456533026387199"><ele>23.0</ele><time>2026-03-28T16:26:48Z</time></trkpt><trkpt lat="44.89555165587017" lon="10.456738457403453"><ele>23.0</ele><time>2026-03-28T16:26:49Z</time></trkpt><trkpt lat="44.895516231976664" lon="10.456944386255916"><ele>23.0</ele><time>2026-03-28T16:26:50Z</time></trkpt><trkpt lat="44.89547871885289" lon="10.457149288162414"><ele>23.666666666666668</ele><time>2026-03-28T16:26:51Z</time></trkpt><trkpt lat="44.89543981648013" lon="10.457357124424565"><ele>24.333333333333336</ele><time>2026-03-28T16:26:52Z</time></trkpt><trkpt lat="44.89540205059475" lon="10.45756746672953"><ele>25.0</ele><time>2026-03-28T16:26:53Z</time></trkpt><trkpt lat="44.895366362288804" lon="10.45777865415449"><ele>24.666666666666668</ele><time>2026-03-28T16:26:54Z</time></trkpt><trkpt lat="44.89532978658932" lon="10.45799370581844"><ele>24.333333333333336</ele><time>2026-03-28T16:26:55Z</time></trkpt><trkpt lat="44.89529160207735" lon="10.458207073177567"><ele>24.0</ele><time>2026-03-28T16:26:56Z</time></trkpt><trkpt lat="44.89525290758913" lon="10.45842385955083"><ele>24.0</ele><time>2026-03-28T16:26:57Z</time></trkpt><trkpt lat="44.8952140243678" lon="10.458644429597873"><ele>24.0</ele><time>2026-03-28T16:26:57.999Z</time></trkpt><trkpt lat="44.89517627078555" lon="10.458870596377155"><ele>24.0</ele><time>2026-03-28T16:26:58.999Z</time></trkpt><trkpt lat="44.895141442805105" lon="10.459094084781693"><ele>23.75</ele><time>2026-03-28T16:26:59.999Z</time></trkpt><trkpt lat="44.89511042134544" lon="10.459302832666863"><ele>23.5</ele><time>2026-03-28T16:27:00.999Z</time></trkpt><trkpt lat="44.89508192501205" lon="10.45950549396246"><ele>23.25</ele><time>2026-03-28T16:27:01.999Z</time></trkpt><trkpt lat="44.895060134904675" lon="10.459705451297877"><ele>23.0</ele><time>2026-03-28T16:27:02.999Z</time></trkpt><trkpt lat="44.89504074461314" lon="10.459895006026636"><ele>23.2</ele><time>2026-03-28T16:27:03.999Z</time></trkpt><trkpt lat="44.89502331497845" lon="10.46007014896906"><ele>23.4</ele><time>2026-03-28T16:27:04.999Z</time></trkpt><trkpt lat="44.89500825889021" lon="10.460233062424104"><ele>23.599999999999998</ele><time>2026-03-28T16:27:05.999Z</time></trkpt><trkpt lat="44.8949963568355" lon="10.460383321738519"><ele>23.799999999999997</ele><time>2026-03-28T16:27:06.999Z</time></trkpt><trkpt lat="44.89498495681903" lon="10.460520142582618"><ele>24.0</ele><time>2026-03-28T16:27:07.999Z</time></trkpt><trkpt lat="44.89497122380505" lon="10.460648034504908"><ele>24.0</ele><time>2026-03-28T16:27:08.999Z</time></trkpt><trkpt lat="44.89494597401435" lon="10.460766314778333"><ele>24.0</ele><time>2026-03-28T16:27:09.999Z</time></trkpt><trkpt lat="44.89490696632153" lon="10.460875729355063"><ele>24.0</ele><time>2026-03-28T16:27:10.999Z</time></trkpt><trkpt lat="44.89484722410286" lon="10.460971324860036"><ele>24.0</ele><time>2026-03-28T16:27:11.999Z</time></trkpt><trkpt lat="44.894787916784864" lon="10.46107158810525"><ele>24.0</ele><time>2026-03-28T16:27:12.999Z</time></trkpt><trkpt lat="44.8947570743834" lon="10.461189420699924"><ele>24.0</ele><time>2026-03-28T16:27:13.999Z</time></trkpt><trkpt lat="44.89477749761102" lon="10.461312078432286"><ele>24.0</ele><time>2026-03-28T16:27:14.999Z</time></trkpt><trkpt lat="44.89483599069875" lon="10.4614048017313"><ele>24.0</ele><time>2026-03-28T16:27:15.999Z</time></trkpt><trkpt lat="44.89491812171817" lon="10.461458955599765"><ele>24.0</ele><time>2026-03-28T16:27:16.999Z</time></trkpt><trkpt lat="44.89500929074986" lon="10.461476093263846"><ele>24.0</ele><time>2026-03-28T16:27:17.999Z</time></trkpt><trkpt lat="44.89510693591962" lon="10.461506260877623"><ele>24.0</ele><time>2026-03-28T16:27:18.999Z</time></trkpt><trkpt lat="44.89520143789226" lon="10.461565522389122"><ele>24.25</ele><time>2026-03-28T16:27:19.999Z</time></trkpt><trkpt lat="44.895298658740735" lon="10.461641715114983"><ele>24.5</ele><time>2026-03-28T16:27:20.999Z</time></trkpt><trkpt lat="44.895402699977915" lon="10.46171374203909"><ele>24.75</ele><time>2026-03-28T16:27:21.999Z</time></trkpt><trkpt lat="44.89551969649314" lon="10.46177556896607"><ele>25.0</ele><time>2026-03-28T16:27:22.999Z</time></trkpt><trkpt lat="44.895644411878344" lon="10.461830930842064"><ele>25.0</ele><time>2026-03-28T16:27:23.999Z</time></trkpt><trkpt lat="44.89577410163544" lon="10.461886781398134"><ele>25.0</ele><time>2026-03-28T16:27:24.999Z</time></trkpt><trkpt lat="44.89590569527" lon="10.461947692206985"><ele>25.0</ele><time>2026-03-28T16:27:25.999Z</time></trkpt><trkpt lat="44.89603836217337" lon="10.46200763791835"><ele>25.0</ele><time>2026-03-28T16:27:26.999Z</time></trkpt><trkpt lat="44.89617274570237" lon="10.462066550188108"><ele>25.0</ele><time>2026-03-28T16:27:27.999Z</time></trkpt><trkpt lat="44.89630657699148" lon="10.462126615440113"><ele>25.0</ele><time>2026-03-28T16:27:28.999Z</time></trkpt><trkpt lat="44.8964401049559" lon="10.462189266957544"><ele>25.0</ele><time>2026-03-28T16:27:29.999Z</time></trkpt><trkpt lat="44.896573447982206" lon="10.462251546764975"><ele>25.0</ele><time>2026-03-28T16:27:30.999Z</time></trkpt><trkpt lat="44.89670970770229" lon="10.46230751011229"><ele>25.5</ele><time>2026-03-28T16:27:31.999Z</time></trkpt><trkpt lat="44.8968454421676" lon="10.462359996070742"><ele>26.0</ele><time>2026-03-28T16:27:32.999Z</time></trkpt><trkpt lat="44.896980607478476" lon="10.462420533814141"><ele>26.5</ele><time>2026-03-28T16:27:33.999Z</time></trkpt><trkpt lat="44.89711583434041" lon="10.462485203413705"><ele>27.0</ele><time>2026-03-28T16:27:34.999Z</time></trkpt><trkpt lat="44.89725222105527" lon="10.46254552302846"><ele>27.0</ele><time>2026-03-28T16:27:35.999Z</time></trkpt><trkpt lat="44.89738686206688" lon="10.462600031895708"><ele>27.0</ele><time>2026-03-28T16:27:36.999Z</time></trkpt><trkpt lat="44.89751750275674" lon="10.462654139478676"><ele>27.0</ele><time>2026-03-28T16:27:37.999Z</time></trkpt><trkpt lat="44.897646873639324" lon="10.462708812898645"><ele>27.0</ele><time>2026-03-28T16:27:38.999Z</time></trkpt><trkpt lat="44.897772747206396" lon="10.46276306752979"><ele>27.0</ele><time>2026-03-28T16:27:39.999Z</time></trkpt><trkpt lat="44.897898631977185" lon="10.462818829145244"><ele>27.0</ele><time>2026-03-28T16:27:40.999Z</time></trkpt><trkpt lat="44.89802473401374" lon="10.462874276452192"><ele>27.0</ele><time>2026-03-28T16:27:41.999Z</time></trkpt><trkpt lat="44.89815114143999" lon="10.46293280979749"><ele>27.0</ele><time>2026-03-28T16:27:42.999Z</time></trkpt><trkpt lat="44.89828003632739" lon="10.462991555198819"><ele>27.0</ele><time>2026-03-28T16:27:43.999Z</time></trkpt><trkpt lat="44.89840827223606" lon="10.463048060986337"><ele>27.0</ele><time>2026-03-28T16:27:44.999Z</time></trkpt><trkpt lat="44.898537135624046" lon="10.46310630898768"><ele>27.0</ele><time>2026-03-28T16:27:46Z</time></trkpt><trkpt lat="44.89866677103328" lon="10.463164605071272"><ele>27.0</ele><time>2026-03-28T16:27:47Z</time></trkpt><trkpt lat="44.89879566196725" lon="10.463225887809232"><ele>27.0</ele><time>2026-03-28T16:27:48Z</time></trkpt><trkpt lat="44.898923986380176" lon="10.463292795464916"><ele>27.0</ele><time>2026-03-28T16:27:49Z</time></trkpt><trkpt lat="44.89904583476505" lon="10.463370202740045"><ele>27.0</ele><time>2026-03-28T16:27:50Z</time></trkpt><trkpt lat="44.899162348886335" lon="10.463456306458184"><ele>27.0</ele><time>2026-03-28T16:27:51Z</time></trkpt><trkpt lat="44.899272028459116" lon="10.463559120675836"><ele>27.0</ele><time>2026-03-28T16:27:52Z</time></trkpt><trkpt lat="44.89938160925546" lon="10.463667234267279"><ele>27.0</ele><time>2026-03-28T16:27:53Z</time></trkpt><trkpt lat="44.89949152124947" lon="10.463775404291177"><ele>27.0</ele><time>2026-03-28T16:27:54Z</time></trkpt><trkpt lat="44.89960316682684" lon="10.463880600718833"><ele>27.0</ele><time>2026-03-28T16:27:55Z</time></trkpt><trkpt lat="44.899713742197534" lon="10.463984403278955"><ele>27.25</ele><time>2026-03-28T16:27:56Z</time></trkpt><trkpt lat="44.899820631903104" lon="10.464089696386663"><ele>27.5</ele><time>2026-03-28T16:27:57Z</time></trkpt><trkpt lat="44.8999151597186" lon="10.464202863699171"><ele>27.75</ele><time>2026-03-28T16:27:58Z</time></trkpt><trkpt lat="44.899992600543825" lon="10.464340809482527"><ele>28.0</ele><time>2026-03-28T16:27:59Z</time></trkpt><trkpt lat="44.900035474096505" lon="10.464504560569356"><ele>28.0</ele><time>2026-03-28T16:28:00Z</time></trkpt><trkpt lat="44.900062869093965" lon="10.464666333668701"><ele>28.0</ele><time>2026-03-28T16:28:01Z</time></trkpt><trkpt lat="44.90009191097017" lon="10.464824898828958"><ele>28.0</ele><time>2026-03-28T16:28:02Z</time></trkpt><trkpt lat="44.90012314928216" lon="10.464986419674863"><ele>28.0</ele><time>2026-03-28T16:28:03Z</time></trkpt><trkpt lat="44.90015670573412" lon="10.465148723460825"><ele>28.0</ele><time>2026-03-28T16:28:04Z</time></trkpt><trkpt lat="44.90018991711774" lon="10.465311196652742"><ele>28.0</ele><time>2026-03-28T16:28:05Z</time></trkpt><trkpt lat="44.90022239831324" lon="10.465473816458688"><ele>28.0</ele><time>2026-03-28T16:28:06Z</time></trkpt><trkpt lat="44.90025279426642" lon="10.46563823620201"><ele>28.0</ele><time>2026-03-28T16:28:07Z</time></trkpt><trkpt lat="44.900282342543186" lon="10.465799727084237"><ele>28.0</ele><time>2026-03-28T16:28:08Z</time></trkpt><trkpt lat="44.900313404771644" lon="10.465949406510333"><ele>27.999999999999996</ele><time>2026-03-28T16:28:09Z</time></trkpt><trkpt lat="44.90034327820351" lon="10.46609389012054"><ele>27.999999999999996</ele><time>2026-03-28T16:28:10Z</time></trkpt><trkpt lat="44.90037092932137" lon="10.46623279403365"><ele>28.0</ele><time>2026-03-28T16:28:11Z</time></trkpt><trkpt lat="44.90039623177127" lon="10.466364338693552"><ele>28.0</ele><time>2026-03-28T16:28:12Z</time></trkpt><trkpt lat="44.900415044481065" lon="10.466481546442006"><ele>27.833333333333336</ele><time>2026-03-28T16:28:13Z</time></trkpt><trkpt lat="44.900421221810845" lon="10.466584489085653"><ele>27.666666666666668</ele><time>2026-03-28T16:28:14Z</time></trkpt><trkpt lat="44.90041073102253" lon="10.466686749168725"><ele>27.5</ele><time>2026-03-28T16:28:15Z</time></trkpt><trkpt lat="44.90038707442915" lon="10.466793334355248"><ele>27.333333333333336</ele><time>2026-03-28T16:28:16Z</time></trkpt><trkpt lat="44.90033777602849" lon="10.46689863899329"><ele>27.166666666666668</ele><time>2026-03-28T16:28:17Z</time></trkpt><trkpt lat="44.900274924750605" lon="10.467006651378817"><ele>27.0</ele><time>2026-03-28T16:28:18Z</time></trkpt><trkpt lat="44.90021827224127" lon="10.467119366250547"><ele>27.0</ele><time>2026-03-28T16:28:19Z</time></trkpt><trkpt lat="44.900175031069146" lon="10.467230798799658"><ele>27.0</ele><time>2026-03-28T16:28:20Z</time></trkpt><trkpt lat="44.90014813634676" lon="10.467316903356409"><ele>27.0</ele><time>2026-03-28T16:28:21Z</time></trkpt><trkpt lat="44.90009352659608" lon="10.467458965005836"><ele>27.0</ele><time>2026-03-28T16:28:23Z</time></trkpt><trkpt lat="44.900056712538074" lon="10.467559748411079"><ele>27.0</ele><time>2026-03-28T16:28:25Z</time></trkpt><trkpt lat="44.90001602024098" lon="10.467664536875972"><ele>27.0</ele><time>2026-03-28T16:28:27Z</time></trkpt><trkpt lat="44.899980402924996" lon="10.467780499416428"><ele>27.0</ele><time>2026-03-28T16:28:29Z</time></trkpt><trkpt lat="44.89994375427027" lon="10.467861629613413"><ele>27.0</ele><time>2026-03-28T16:28:31Z</time></trkpt><trkpt lat="44.899881628097454" lon="10.467903286971147"><ele>27.0</ele><time>2026-03-28T16:28:32Z</time></trkpt><trkpt lat="44.8998020133185" lon="10.467929611982179"><ele>27.0</ele><time>2026-03-28T16:28:33Z</time></trkpt><trkpt lat="44.89971087871235" lon="10.467965640171052"><ele>27.0</ele><time>2026-03-28T16:28:34Z</time></trkpt><trkpt lat="44.899610871920416" lon="10.468003372368383"><ele>27.0</ele><time>2026-03-28T16:28:35Z</time></trkpt><trkpt lat="44.89951926845224" lon="10.468040726378256"><ele>27.0</ele><time>2026-03-28T16:28:36Z</time></trkpt><trkpt lat="44.89943734652318" lon="10.4680759443413"><ele>27.0</ele><time>2026-03-28T16:28:37Z</time></trkpt><trkpt lat="44.899364863024616" lon="10.468107728876863"><ele>27.0</ele><time>2026-03-28T16:28:38Z</time></trkpt><trkpt lat="44.89929893172388" lon="10.468134989976559"><ele>27.0</ele><time>2026-03-28T16:28:39Z</time></trkpt><trkpt lat="44.89923620617665" lon="10.468160548685079"><ele>27.0</ele><time>2026-03-28T16:28:40Z</time></trkpt><trkpt lat="44.899122780366284" lon="10.468239838589733"><ele>27.0</ele><time>2026-03-28T16:28:42Z</time></trkpt><trkpt lat="44.89908398653506" lon="10.46832367237103"><ele>27.0</ele><time>2026-03-28T16:28:43Z</time></trkpt><trkpt lat="44.89907734928968" lon="10.46843568274303"><ele>27.000000000000004</ele><time>2026-03-28T16:28:44Z</time></trkpt><trkpt lat="44.89910153919036" lon="10.468568853054775"><ele>27.000000000000004</ele><time>2026-03-28T16:28:45Z</time></trkpt><trkpt lat="44.899131023310595" lon="10.468718684700011"><ele>27.0</ele><time>2026-03-28T16:28:46Z</time></trkpt><trkpt lat="44.8991547839645" lon="10.468879567725093"><ele>27.0</ele><time>2026-03-28T16:28:47Z</time></trkpt><trkpt lat="44.89918012067232" lon="10.469059667591315"><ele>27.0</ele><time>2026-03-28T16:28:48Z</time></trkpt><trkpt lat="44.89920906539408" lon="10.469254021121625"><ele>27.0</ele><time>2026-03-28T16:28:49Z</time></trkpt><trkpt lat="44.899245101150406" lon="10.46945907154018"><ele>27.0</ele><time>2026-03-28T16:28:50Z</time></trkpt><trkpt lat="44.89928981857093" lon="10.469676179485901"><ele>27.333333333333336</ele><time>2026-03-28T16:28:51Z</time></trkpt><trkpt lat="44.89933860287173" lon="10.469898228201702"><ele>27.666666666666668</ele><time>2026-03-28T16:28:52Z</time></trkpt><trkpt lat="44.89938311694819" lon="10.470127506882877"><ele>28.0</ele><time>2026-03-28T16:28:53Z</time></trkpt><trkpt lat="44.89940435403228" lon="10.470369383148507"><ele>27.666666666666668</ele><time>2026-03-28T16:28:54Z</time></trkpt><trkpt lat="44.89944274294186" lon="10.47064422857702"><ele>27.333333333333336</ele><time>2026-03-28T16:28:55Z</time></trkpt><trkpt lat="44.899479356266305" lon="10.470948612344314"><ele>27.0</ele><time>2026-03-28T16:28:56Z</time></trkpt><trkpt lat="44.89951766470149" lon="10.471283625592546"><ele>26.5</ele><time>2026-03-28T16:28:57Z</time></trkpt><trkpt lat="44.89955700746988" lon="10.471631494607582"><ele>26.0</ele><time>2026-03-28T16:28:58Z</time></trkpt><trkpt lat="44.89959710207855" lon="10.471980358127865"><ele>26.666666666666664</ele><time>2026-03-28T16:28:59Z</time></trkpt><trkpt lat="44.89963659025934" lon="10.472307284952977"><ele>27.333333333333336</ele><time>2026-03-28T16:29:00Z</time></trkpt><trkpt lat="44.899683235164986" lon="10.472602756933268"><ele>28.0</ele><time>2026-03-28T16:29:01Z</time></trkpt><trkpt lat="44.899713884736265" lon="10.472874653052688"><ele>27.666666666666668</ele><time>2026-03-28T16:29:02Z</time></trkpt><trkpt lat="44.899746872560115" lon="10.47312792088631"><ele>27.333333333333336</ele><time>2026-03-28T16:29:03Z</time></trkpt><trkpt lat="44.89978276495218" lon="10.473360860381948"><ele>27.0</ele><time>2026-03-28T16:29:04Z</time></trkpt><trkpt lat="44.89981131473592" lon="10.473569571341537"><ele>27.0</ele><time>2026-03-28T16:29:05Z</time></trkpt><trkpt lat="44.899822404622974" lon="10.473759718017448"><ele>27.0</ele><time>2026-03-28T16:29:05.999Z</time></trkpt><trkpt lat="44.89980780946047" lon="10.473944684312148"><ele>27.0</ele><time>2026-03-28T16:29:06.999Z</time></trkpt><trkpt lat="44.899761184040024" lon="10.474116598894174"><ele>27.0</ele><time>2026-03-28T16:29:07.999Z</time></trkpt><trkpt lat="44.89967229874012" lon="10.474278519825988"><ele>27.0</ele><time>2026-03-28T16:29:08.999Z</time></trkpt><trkpt lat="44.899576128863146" lon="10.474443987771771"><ele>27.0</ele><time>2026-03-28T16:29:09.999Z</time></trkpt><trkpt lat="44.899477925711864" lon="10.47461688914777"><ele>27.0</ele><time>2026-03-28T16:29:10.999Z</time></trkpt><trkpt lat="44.89938409920866" lon="10.474791957951822"><ele>27.0</ele><time>2026-03-28T16:29:11.999Z</time></trkpt><trkpt lat="44.89929887557359" lon="10.474968370645756"><ele>27.0</ele><time>2026-03-28T16:29:13Z</time></trkpt><trkpt lat="44.899223091495806" lon="10.475158831617613"><ele>27.0</ele><time>2026-03-28T16:29:13.999Z</time></trkpt><trkpt lat="44.89913972270254" lon="10.47538558501922"><ele>26.0</ele><time>2026-03-28T16:29:14.999Z</time></trkpt><trkpt lat="44.899029183168544" lon="10.475638757703912"><ele>25.0</ele><time>2026-03-28T16:29:15.999Z</time></trkpt><trkpt lat="44.89892118254405" lon="10.47592378273363"><ele>24.0</ele><time>2026-03-28T16:29:16.999Z</time></trkpt><trkpt lat="44.898811725356495" lon="10.476212745644476"><ele>23.5</ele><time>2026-03-28T16:29:17.999Z</time></trkpt><trkpt lat="44.898701134643765" lon="10.47650469027754"><ele>23.0</ele><time>2026-03-28T16:29:18.999Z</time></trkpt><trkpt lat="44.89860354019824" lon="10.47680121260417"><ele>23.0</ele><time>2026-03-28T16:29:19.999Z</time></trkpt><trkpt lat="44.898494760974444" lon="10.477078140316609"><ele>23.0</ele><time>2026-03-28T16:29:20.999Z</time></trkpt><trkpt lat="44.89839074911431" lon="10.47734485117364"><ele>23.0</ele><time>2026-03-28T16:29:21.999Z</time></trkpt><trkpt lat="44.89830865801389" lon="10.477600208818723"><ele>23.0</ele><time>2026-03-28T16:29:22.999Z</time></trkpt><trkpt lat="44.89824871955107" lon="10.477845625835041"><ele>23.0</ele><time>2026-03-28T16:29:23.999Z</time></trkpt><trkpt lat="44.89821158280393" lon="10.47809358892288"><ele>23.0</ele><time>2026-03-28T16:29:24.999Z</time></trkpt><trkpt lat="44.89819113836813" lon="10.478356893048913"><ele>23.0</ele><time>2026-03-28T16:29:25.999Z</time></trkpt><trkpt lat="44.89818340247934" lon="10.47863410114017"><ele>23.0</ele><time>2026-03-28T16:29:26.999Z</time></trkpt><trkpt lat="44.898182873697536" lon="10.478915885133876"><ele>23.0</ele><time>2026-03-28T16:29:27.999Z</time></trkpt><trkpt lat="44.89818013354722" lon="10.479204105770426"><ele>23.333333333333336</ele><time>2026-03-28T16:29:28.999Z</time></trkpt><trkpt lat="44.89817504664584" lon="10.479498133415367"><ele>23.666666666666668</ele><time>2026-03-28T16:29:29.999Z</time></trkpt><trkpt lat="44.898165669094524" lon="10.479784653977552"><ele>24.0</ele><time>2026-03-28T16:29:30.999Z</time></trkpt><trkpt lat="44.898153142518005" lon="10.480056783084445"><ele>24.333333333333336</ele><time>2026-03-28T16:29:31.999Z</time></trkpt><trkpt lat="44.89813089548545" lon="10.480317756310173"><ele>24.666666666666668</ele><time>2026-03-28T16:29:32.999Z</time></trkpt><trkpt lat="44.898081310858004" lon="10.480563969620457"><ele>25.0</ele><time>2026-03-28T16:29:33.999Z</time></trkpt><trkpt lat="44.89801247293024" lon="10.480813071137934"><ele>25.0</ele><time>2026-03-28T16:29:34.999Z</time></trkpt><trkpt lat="44.8979140169116" lon="10.481050670324562"><ele>25.0</ele><time>2026-03-28T16:29:35.999Z</time></trkpt><trkpt lat="44.8978008772896" lon="10.4812793344572"><ele>25.0</ele><time>2026-03-28T16:29:36.999Z</time></trkpt><trkpt lat="44.89767919821808" lon="10.481502959954874"><ele>25.666666666666668</ele><time>2026-03-28T16:29:37.999Z</time></trkpt><trkpt lat="44.89755817254588" lon="10.48172617539953"><ele>26.333333333333336</ele><time>2026-03-28T16:29:38.999Z</time></trkpt><trkpt lat="44.897442756724644" lon="10.481952584061897"><ele>27.0</ele><time>2026-03-28T16:29:39.999Z</time></trkpt><trkpt lat="44.897328028962065" lon="10.482184972806277"><ele>25.666666666666668</ele><time>2026-03-28T16:29:40.999Z</time></trkpt><trkpt lat="44.89720571458783" lon="10.482410640486293"><ele>24.333333333333336</ele><time>2026-03-28T16:29:41.999Z</time></trkpt><trkpt lat="44.897053250991505" lon="10.482598982808314"><ele>23.0</ele><time>2026-03-28T16:29:42.999Z</time></trkpt><trkpt lat="44.896902063622505" lon="10.482789510801725"><ele>24.0</ele><time>2026-03-28T16:29:43.999Z</time></trkpt><trkpt lat="44.896752333188196" lon="10.482998801641761"><ele>25.0</ele><time>2026-03-28T16:29:44.999Z</time></trkpt><trkpt lat="44.89660456184297" lon="10.483193393689119"><ele>26.0</ele><time>2026-03-28T16:29:45.999Z</time></trkpt><trkpt lat="44.896465831432344" lon="10.483405512275581"><ele>26.0</ele><time>2026-03-28T16:29:46.999Z</time></trkpt><trkpt lat="44.89633154473196" lon="10.483629078932625"><ele>26.0</ele><time>2026-03-28T16:29:47.999Z</time></trkpt><trkpt lat="44.896193940606594" lon="10.483856934257522"><ele>26.0</ele><time>2026-03-28T16:29:48.999Z</time></trkpt><trkpt lat="44.89605791920157" lon="10.484084709409295"><ele>25.0</ele><time>2026-03-28T16:29:49.999Z</time></trkpt><trkpt lat="44.89592070068729" lon="10.484317594301627"><ele>24.0</ele><time>2026-03-28T16:29:50.999Z</time></trkpt><trkpt lat="44.89578113201149" lon="10.484550504678063"><ele>23.0</ele><time>2026-03-28T16:29:52Z</time></trkpt><trkpt lat="44.89564227762341" lon="10.484781015038852"><ele>22.666666666666668</ele><time>2026-03-28T16:29:53Z</time></trkpt><trkpt lat="44.8955062783804" lon="10.485003894902144"><ele>22.333333333333332</ele><time>2026-03-28T16:29:54Z</time></trkpt><trkpt lat="44.89537218956414" lon="10.48522684534407"><ele>22.0</ele><time>2026-03-28T16:29:55Z</time></trkpt><trkpt lat="44.895244332723145" lon="10.48544940210704"><ele>22.0</ele><time>2026-03-28T16:29:56Z</time></trkpt><trkpt lat="44.895125729981515" lon="10.485680392133666"><ele>22.0</ele><time>2026-03-28T16:29:57Z</time></trkpt><trkpt lat="44.89502025312382" lon="10.485936410907838"><ele>22.0</ele><time>2026-03-28T16:29:58Z</time></trkpt><trkpt lat="44.894926699509206" lon="10.486201751758847"><ele>22.0</ele><time>2026-03-28T16:29:59Z</time></trkpt><trkpt lat="44.89484425154965" lon="10.486477726830604"><ele>22.0</ele><time>2026-03-28T16:30:00Z</time></trkpt><trkpt lat="44.89475967907123" lon="10.486759499030903"><ele>22.0</ele><time>2026-03-28T16:30:01Z</time></trkpt><trkpt lat="44.89468165814002" lon="10.4870472916624"><ele>22.333333333333332</ele><time>2026-03-28T16:30:02Z</time></trkpt><trkpt lat="44.89461355764284" lon="10.487338208131968"><ele>22.666666666666668</ele><time>2026-03-28T16:30:03Z</time></trkpt><trkpt lat="44.89454868659874" lon="10.487634410662755"><ele>23.0</ele><time>2026-03-28T16:30:04Z</time></trkpt><trkpt lat="44.894489687406534" lon="10.487938711707082"><ele>23.0</ele><time>2026-03-28T16:30:05Z</time></trkpt><trkpt lat="44.894436117703556" lon="10.48824392011357"><ele>23.0</ele><time>2026-03-28T16:30:06Z</time></trkpt><trkpt lat="44.894382070795594" lon="10.488556102586827"><ele>23.0</ele><time>2026-03-28T16:30:07Z</time></trkpt><trkpt lat="44.894323685384876" lon="10.48886558954468"><ele>23.0</ele><time>2026-03-28T16:30:08Z</time></trkpt><trkpt lat="44.894266289146984" lon="10.489177315429304"><ele>23.666666666666668</ele><time>2026-03-28T16:30:09Z</time></trkpt><trkpt lat="44.894213776753745" lon="10.4894837176844"><ele>24.333333333333336</ele><time>2026-03-28T16:30:10Z</time></trkpt><trkpt lat="44.89416705477359" lon="10.489792046848097"><ele>25.0</ele><time>2026-03-28T16:30:11Z</time></trkpt><trkpt lat="44.89411911339622" lon="10.49009675095368"><ele>25.0</ele><time>2026-03-28T16:30:12Z</time></trkpt><trkpt lat="44.89406878601129" lon="10.490396235303065"><ele>25.0</ele><time>2026-03-28T16:30:13Z</time></trkpt><trkpt lat="44.894021598211616" lon="10.490694068665013"><ele>25.0</ele><time>2026-03-28T16:30:14Z</time></trkpt><trkpt lat="44.89397857200855" lon="10.490992873450056"><ele>24.666666666666668</ele><time>2026-03-28T16:30:15Z</time></trkpt><trkpt lat="44.89395486497436" lon="10.491294629862914"><ele>24.333333333333336</ele><time>2026-03-28T16:30:16Z</time></trkpt><trkpt lat="44.893910755976435" lon="10.491586691599146"><ele>24.0</ele><time>2026-03-28T16:30:17Z</time></trkpt><trkpt lat="44.89398030533222" lon="10.491899810702245"><ele>23.666666666666668</ele><time>2026-03-28T16:30:18Z</time></trkpt><trkpt lat="44.893981933883" lon="10.492194667800048"><ele>23.333333333333336</ele><time>2026-03-28T16:30:19Z</time></trkpt><trkpt lat="44.89396093899281" lon="10.492492994614366"><ele>23.0</ele><time>2026-03-28T16:30:20Z</time></trkpt><trkpt lat="44.893921540073585" lon="10.492787303385997"><ele>22.666666666666668</ele><time>2026-03-28T16:30:21Z</time></trkpt><trkpt lat="44.89387333399742" lon="10.493069554669198"><ele>22.333333333333332</ele><time>2026-03-28T16:30:22Z</time></trkpt><trkpt lat="44.89382436558641" lon="10.493329138933346"><ele>22.0</ele><time>2026-03-28T16:30:23Z</time></trkpt><trkpt lat="44.89378110290692" lon="10.493573746045767"><ele>22.0</ele><time>2026-03-28T16:30:24Z</time></trkpt><trkpt lat="44.89375100552512" lon="10.49381509438435"><ele>22.0</ele><time>2026-03-28T16:30:25Z</time></trkpt><trkpt lat="44.89374068610898" lon="10.494067071946159"><ele>22.0</ele><time>2026-03-28T16:30:26Z</time></trkpt><trkpt lat="44.893754368471626" lon="10.494329261046683"><ele>22.0</ele><time>2026-03-28T16:30:27Z</time></trkpt><trkpt lat="44.89378002201328" lon="10.494596075513885"><ele>22.0</ele><time>2026-03-28T16:30:28Z</time></trkpt><trkpt lat="44.89381324003178" lon="10.49485426693033"><ele>22.0</ele><time>2026-03-28T16:30:29Z</time></trkpt><trkpt lat="44.893856736752454" lon="10.495116463667703"><ele>22.0</ele><time>2026-03-28T16:30:30Z</time></trkpt><trkpt lat="44.8939090380507" lon="10.495377541233069"><ele>22.0</ele><time>2026-03-28T16:30:31Z</time></trkpt><trkpt lat="44.893979773191795" lon="10.4956309616297"><ele>22.0</ele><time>2026-03-28T16:30:32Z</time></trkpt><trkpt lat="44.89406400029534" lon="10.495891446630539"><ele>22.666666666666664</ele><time>2026-03-28T16:30:33Z</time></trkpt><trkpt lat="44.89415733906881" lon="10.496149875555147"><ele>23.333333333333332</ele><time>2026-03-28T16:30:34Z</time></trkpt><trkpt lat="44.894261921378714" lon="10.496407412361938"><ele>24.0</ele><time>2026-03-28T16:30:35Z</time></trkpt><trkpt lat="44.89436644663924" lon="10.496668408358698"><ele>24.0</ele><time>2026-03-28T16:30:36Z</time></trkpt><trkpt lat="44.894466181512435" lon="10.49693611964281"><ele>24.0</ele><time>2026-03-28T16:30:37Z</time></trkpt><trkpt lat="44.89456661490642" lon="10.49720736035014"><ele>24.0</ele><time>2026-03-28T16:30:38Z</time></trkpt><trkpt lat="44.894666547896584" lon="10.497475796494534"><ele>24.0</ele><time>2026-03-28T16:30:39Z</time></trkpt><trkpt lat="44.89476177988076" lon="10.497734648195994"><ele>24.0</ele><time>2026-03-28T16:30:40Z</time></trkpt><trkpt lat="44.89485134483085" lon="10.497982941483068"><ele>24.0</ele><time>2026-03-28T16:30:41Z</time></trkpt><trkpt lat="44.894931008500244" lon="10.498217532047255"><ele>23.666666666666668</ele><time>2026-03-28T16:30:42Z</time></trkpt><trkpt lat="44.89500342447698" lon="10.498436138940342"><ele>23.333333333333336</ele><time>2026-03-28T16:30:43Z</time></trkpt><trkpt lat="44.89507806017908" lon="10.498643859065616"><ele>23.0</ele><time>2026-03-28T16:30:44Z</time></trkpt><trkpt lat="44.89515982764243" lon="10.498841705123112"><ele>23.0</ele><time>2026-03-28T16:30:45Z</time></trkpt><trkpt lat="44.89524813797709" lon="10.499036241977857"><ele>23.0</ele><time>2026-03-28T16:30:46Z</time></trkpt><trkpt lat="44.89533799324089" lon="10.499234227129914"><ele>23.0</ele><time>2026-03-28T16:30:47Z</time></trkpt><trkpt lat="44.89542648551936" lon="10.499437079568954"><ele>23.333333333333336</ele><time>2026-03-28T16:30:48Z</time></trkpt><trkpt lat="44.895507028691014" lon="10.499647568745134"><ele>23.666666666666668</ele><time>2026-03-28T16:30:49Z</time></trkpt><trkpt lat="44.89557615213412" lon="10.499864672093148"><ele>24.0</ele><time>2026-03-28T16:30:50Z</time></trkpt><trkpt lat="44.89563263904573" lon="10.500091234546371"><ele>24.0</ele><time>2026-03-28T16:30:51Z</time></trkpt><trkpt lat="44.89567931759241" lon="10.500322354841067"><ele>24.0</ele><time>2026-03-28T16:30:52Z</time></trkpt><trkpt lat="44.89571960679724" lon="10.50056772838496"><ele>24.0</ele><time>2026-03-28T16:30:53Z</time></trkpt><trkpt lat="44.895760128156894" lon="10.500795616146851"><ele>24.666666666666664</ele><time>2026-03-28T16:30:54Z</time></trkpt><trkpt lat="44.89581513425183" lon="10.500998007949473"><ele>25.333333333333332</ele><time>2026-03-28T16:30:55Z</time></trkpt><trkpt lat="44.89590173170293" lon="10.501185138172174"><ele>26.0</ele><time>2026-03-28T16:30:56Z</time></trkpt><trkpt lat="44.89600671074669" lon="10.501367730088957"><ele>26.0</ele><time>2026-03-28T16:30:57Z</time></trkpt><trkpt lat="44.896120827203895" lon="10.501567682017374"><ele>26.0</ele><time>2026-03-28T16:30:58Z</time></trkpt><trkpt lat="44.89623095707607" lon="10.501785682651134"><ele>26.0</ele><time>2026-03-28T16:30:59Z</time></trkpt><trkpt lat="44.89634322454682" lon="10.502017166808566"><ele>25.333333333333332</ele><time>2026-03-28T16:31:00Z</time></trkpt><trkpt lat="44.89645524387475" lon="10.502251317989334"><ele>24.666666666666664</ele><time>2026-03-28T16:31:01Z</time></trkpt><trkpt lat="44.896566367379265" lon="10.502486936969072"><ele>24.0</ele><time>2026-03-28T16:31:02Z</time></trkpt><trkpt lat="44.896678541862066" lon="10.50272797387851"><ele>24.333333333333336</ele><time>2026-03-28T16:31:03Z</time></trkpt><trkpt lat="44.89678761136156" lon="10.502966723567463"><ele>24.666666666666668</ele><time>2026-03-28T16:31:04Z</time></trkpt><trkpt lat="44.896897080299595" lon="10.503210026536015"><ele>25.0</ele><time>2026-03-28T16:31:05Z</time></trkpt><trkpt lat="44.89699666034269" lon="10.50346123922444"><ele>25.0</ele><time>2026-03-28T16:31:06Z</time></trkpt><trkpt lat="44.897085374722934" lon="10.50372307963783"><ele>25.0</ele><time>2026-03-28T16:31:07Z</time></trkpt><trkpt lat="44.89717480392166" lon="10.503990373693531"><ele>25.0</ele><time>2026-03-28T16:31:08Z</time></trkpt><trkpt lat="44.89726836976569" lon="10.504254886331745"><ele>24.666666666666668</ele><time>2026-03-28T16:31:09Z</time></trkpt><trkpt lat="44.89736380038644" lon="10.50451317272552"><ele>24.333333333333336</ele><time>2026-03-28T16:31:10Z</time></trkpt><trkpt lat="44.89746136776886" lon="10.504777771324958"><ele>24.0</ele><time>2026-03-28T16:31:11Z</time></trkpt><trkpt lat="44.89755611378583" lon="10.50503946844681"><ele>23.666666666666668</ele><time>2026-03-28T16:31:12Z</time></trkpt><trkpt lat="44.89765066955794" lon="10.505301727069156"><ele>23.333333333333336</ele><time>2026-03-28T16:31:13Z</time></trkpt><trkpt lat="44.89774109835771" lon="10.505562108415342"><ele>23.0</ele><time>2026-03-28T16:31:14Z</time></trkpt><trkpt lat="44.89782588529327" lon="10.505824747662544"><ele>22.666666666666668</ele><time>2026-03-28T16:31:15Z</time></trkpt><trkpt lat="44.897901249577664" lon="10.506085755453087"><ele>22.333333333333332</ele><time>2026-03-28T16:31:16Z</time></trkpt><trkpt lat="44.897968267413894" lon="10.506346537376318"><ele>22.0</ele><time>2026-03-28T16:31:17Z</time></trkpt><trkpt lat="44.898029590481265" lon="10.50660857453222"><ele>22.0</ele><time>2026-03-28T16:31:18Z</time></trkpt><trkpt lat="44.89808731024462" lon="10.506873289084236"><ele>22.0</ele><time>2026-03-28T16:31:19Z</time></trkpt><trkpt lat="44.898141522972494" lon="10.50714170013797"><ele>22.0</ele><time>2026-03-28T16:31:20Z</time></trkpt><trkpt lat="44.89819427913087" lon="10.507396835439799"><ele>22.333333333333332</ele><time>2026-03-28T16:31:21Z</time></trkpt><trkpt lat="44.89824948572809" lon="10.507636970975415"><ele>22.666666666666668</ele><time>2026-03-28T16:31:21.999Z</time></trkpt><trkpt lat="44.898308004064994" lon="10.507867831042846"><ele>23.0</ele><time>2026-03-28T16:31:22.999Z</time></trkpt><trkpt lat="44.89835958599463" lon="10.508093852999064"><ele>23.0</ele><time>2026-03-28T16:31:23.999Z</time></trkpt><trkpt lat="44.89838738826753" lon="10.508306798742955"><ele>23.0</ele><time>2026-03-28T16:31:24.999Z</time></trkpt><trkpt lat="44.898402736219985" lon="10.50851266021448"><ele>23.0</ele><time>2026-03-28T16:31:25.999Z</time></trkpt><trkpt lat="44.89843237324589" lon="10.50869780161809"><ele>23.0</ele><time>2026-03-28T16:31:26.999Z</time></trkpt><trkpt lat="44.898481715358464" lon="10.508856821420288"><ele>22.833333333333336</ele><time>2026-03-28T16:31:27.999Z</time></trkpt><trkpt lat="44.89853387714604" lon="10.508995088488806"><ele>22.666666666666668</ele><time>2026-03-28T16:31:28.999Z</time></trkpt><trkpt lat="44.89858034403698" lon="10.509115843951678"><ele>22.5</ele><time>2026-03-28T16:31:29.999Z</time></trkpt><trkpt lat="44.89860768203488" lon="10.509217398581576"><ele>22.333333333333332</ele><time>2026-03-28T16:31:30.999Z</time></trkpt><trkpt lat="44.898600706431154" lon="10.509314522979436"><ele>22.166666666666664</ele><time>2026-03-28T16:31:31.999Z</time></trkpt><trkpt lat="44.89856610107879" lon="10.50940641896313"><ele>22.0</ele><time>2026-03-28T16:31:32.999Z</time></trkpt><trkpt lat="44.898512883822605" lon="10.509484518631218"><ele>22.0</ele><time>2026-03-28T16:31:33.999Z</time></trkpt><trkpt lat="44.89848013923019" lon="10.509569097416552"><ele>22.0</ele><time>2026-03-28T16:31:34.999Z</time></trkpt><trkpt lat="44.8984861333938" lon="10.509667887957157"><ele>22.0</ele><time>2026-03-28T16:31:35.999Z</time></trkpt><trkpt lat="44.89854454188385" lon="10.509747040194815"><ele>22.0</ele><time>2026-03-28T16:31:36.999Z</time></trkpt><trkpt lat="44.8986347987814" lon="10.509783178734937"><ele>22.0</ele><time>2026-03-28T16:31:37.999Z</time></trkpt><trkpt lat="44.89872401333239" lon="10.50982228784641"><ele>22.0</ele><time>2026-03-28T16:31:38.999Z</time></trkpt><trkpt lat="44.89880814241418" lon="10.509923928619356"><ele>22.25</ele><time>2026-03-28T16:31:39.999Z</time></trkpt><trkpt lat="44.898870819703205" lon="10.510067885115593"><ele>22.5</ele><time>2026-03-28T16:31:40.999Z</time></trkpt><trkpt lat="44.89893230246225" lon="10.510226500153477"><ele>22.75</ele><time>2026-03-28T16:31:41.999Z</time></trkpt><trkpt lat="44.89900081602948" lon="10.510386050355306"><ele>23.0</ele><time>2026-03-28T16:31:42.999Z</time></trkpt><trkpt lat="44.89908293923196" lon="10.510541233190873"><ele>23.25</ele><time>2026-03-28T16:31:43.999Z</time></trkpt><trkpt lat="44.89918240749485" lon="10.51068781147576"><ele>23.5</ele><time>2026-03-28T16:31:44.999Z</time></trkpt><trkpt lat="44.89929470871408" lon="10.510826800228157"><ele>23.75</ele><time>2026-03-28T16:31:45.999Z</time></trkpt><trkpt lat="44.89941127520571" lon="10.510967443707015"><ele>24.0</ele><time>2026-03-28T16:31:46.999Z</time></trkpt><trkpt lat="44.89953695923324" lon="10.511108141367359"><ele>24.666666666666664</ele><time>2026-03-28T16:31:47.999Z</time></trkpt><trkpt lat="44.89966256350767" lon="10.51124357483317"><ele>25.333333333333332</ele><time>2026-03-28T16:31:48.999Z</time></trkpt><trkpt lat="44.899791917102334" lon="10.51137819337017"><ele>26.0</ele><time>2026-03-28T16:31:49.999Z</time></trkpt><trkpt lat="44.899916631687" lon="10.511501716787311"><ele>26.0</ele><time>2026-03-28T16:31:50.999Z</time></trkpt><trkpt lat="44.90003854148025" lon="10.511611821720406"><ele>26.0</ele><time>2026-03-28T16:31:51.999Z</time></trkpt><trkpt lat="44.9001622621842" lon="10.511705092957982"><ele>26.0</ele><time>2026-03-28T16:31:52.999Z</time></trkpt><trkpt lat="44.90029375055042" lon="10.511768746484243"><ele>26.0</ele><time>2026-03-28T16:31:53.999Z</time></trkpt><trkpt lat="44.9004300458193" lon="10.511804529114125"><ele>26.0</ele><time>2026-03-28T16:31:54.999Z</time></trkpt><trkpt lat="44.90056946755511" lon="10.511814360914643"><ele>26.0</ele><time>2026-03-28T16:31:55.999Z</time></trkpt><trkpt lat="44.90071255650121" lon="10.511783635386317"><ele>26.0</ele><time>2026-03-28T16:31:57Z</time></trkpt><trkpt lat="44.90086277140636" lon="10.51173356765344"><ele>26.0</ele><time>2026-03-28T16:31:58Z</time></trkpt><trkpt lat="44.901017685642145" lon="10.511668159425"><ele>26.25</ele><time>2026-03-28T16:31:59Z</time></trkpt><trkpt lat="44.90117026672839" lon="10.511605613116703"><ele>26.5</ele><time>2026-03-28T16:32:00Z</time></trkpt><trkpt lat="44.90130775358671" lon="10.511551499105574"><ele>26.75</ele><time>2026-03-28T16:32:01Z</time></trkpt><trkpt lat="44.90144199761019" lon="10.5115227922879"><ele>27.0</ele><time>2026-03-28T16:32:02Z</time></trkpt><trkpt lat="44.901581860625186" lon="10.51153446541667"><ele>27.0</ele><time>2026-03-28T16:32:03Z</time></trkpt><trkpt lat="44.90172271267306" lon="10.511583298135097"><ele>27.0</ele><time>2026-03-28T16:32:04Z</time></trkpt><trkpt lat="44.90185605682986" lon="10.511678366196698"><ele>27.0</ele><time>2026-03-28T16:32:05Z</time></trkpt><trkpt lat="44.90198194756152" lon="10.511807881890121"><ele>26.666666666666664</ele><time>2026-03-28T16:32:06Z</time></trkpt><trkpt lat="44.90208920473082" lon="10.51197386759634"><ele>26.333333333333332</ele><time>2026-03-28T16:32:07Z</time></trkpt><trkpt lat="44.90218121465808" lon="10.512166861835494"><ele>26.0</ele><time>2026-03-28T16:32:08Z</time></trkpt><trkpt lat="44.90224364916778" lon="10.512390998170334"><ele>26.0</ele><time>2026-03-28T16:32:09Z</time></trkpt><trkpt lat="44.902297867911344" lon="10.512624216696372"><ele>26.0</ele><time>2026-03-28T16:32:10Z</time></trkpt><trkpt lat="44.90234818788448" lon="10.512859286061268"><ele>26.0</ele><time>2026-03-28T16:32:11Z</time></trkpt><trkpt lat="44.90240170416957" lon="10.513088821653891"><ele>26.0</ele><time>2026-03-28T16:32:12Z</time></trkpt><trkpt lat="44.902455198847925" lon="10.513307569827324"><ele>26.0</ele><time>2026-03-28T16:32:13Z</time></trkpt><trkpt lat="44.90250262022334" lon="10.513507397960618"><ele>26.0</ele><time>2026-03-28T16:32:14Z</time></trkpt><trkpt lat="44.9025483379139" lon="10.513699394638346"><ele>26.5</ele><time>2026-03-28T16:32:15Z</time></trkpt><trkpt lat="44.90259468973856" lon="10.51389109309291"><ele>27.0</ele><time>2026-03-28T16:32:16Z</time></trkpt><trkpt lat="44.90263856682299" lon="10.514081960826308"><ele>27.5</ele><time>2026-03-28T16:32:17Z</time></trkpt><trkpt lat="44.902677332597214" lon="10.514247562417951"><ele>28.0</ele><time>2026-03-28T16:32:18Z</time></trkpt><trkpt lat="44.90271804038455" lon="10.514412817142485"><ele>28.0</ele><time>2026-03-28T16:32:19Z</time></trkpt><trkpt lat="44.9027550654685" lon="10.514557920197518"><ele>27.999999999999996</ele><time>2026-03-28T16:32:20Z</time></trkpt><trkpt lat="44.90278795043582" lon="10.514695159353696"><ele>27.999999999999996</ele><time>2026-03-28T16:32:21Z</time></trkpt><trkpt lat="44.902820321394856" lon="10.514823340079086"><ele>28.0</ele><time>2026-03-28T16:32:22Z</time></trkpt><trkpt lat="44.90285199074531" lon="10.51495677927822"><ele>28.0</ele><time>2026-03-28T16:32:23Z</time></trkpt><trkpt lat="44.902885344736504" lon="10.515092822828159"><ele>28.0</ele><time>2026-03-28T16:32:24Z</time></trkpt><trkpt lat="44.90292098016267" lon="10.515235255076853"><ele>27.999999999999996</ele><time>2026-03-28T16:32:25Z</time></trkpt><trkpt lat="44.90295938514231" lon="10.51537969479841"><ele>27.999999999999996</ele><time>2026-03-28T16:32:26Z</time></trkpt><trkpt lat="44.90299854473358" lon="10.51552185027003"><ele>28.0</ele><time>2026-03-28T16:32:27Z</time></trkpt><trkpt lat="44.90303120517983" lon="10.515660583069074"><ele>28.0</ele><time>2026-03-28T16:32:28Z</time></trkpt><trkpt lat="44.903058682312846" lon="10.515796917343932"><ele>28.0</ele><time>2026-03-28T16:32:29Z</time></trkpt><trkpt lat="44.90309008206735" lon="10.515936034854155"><ele>27.999999999999996</ele><time>2026-03-28T16:32:30Z</time></trkpt><trkpt lat="44.9031265929236" lon="10.51607977071053"><ele>27.999999999999996</ele><time>2026-03-28T16:32:31Z</time></trkpt><trkpt lat="44.90316442552996" lon="10.516234820447439"><ele>28.0</ele><time>2026-03-28T16:32:32Z</time></trkpt><trkpt lat="44.903194905971155" lon="10.516399177162667"><ele>28.0</ele><time>2026-03-28T16:32:33Z</time></trkpt><trkpt lat="44.90321904230079" lon="10.516580515145517"><ele>27.75</ele><time>2026-03-28T16:32:34Z</time></trkpt><trkpt lat="44.90323457309717" lon="10.516775993539332"><ele>27.5</ele><time>2026-03-28T16:32:35Z</time></trkpt><trkpt lat="44.903238997760816" lon="10.516981516299312"><ele>27.25</ele><time>2026-03-28T16:32:36Z</time></trkpt><trkpt lat="44.903230320442596" lon="10.51716636906814"><ele>27.0</ele><time>2026-03-28T16:32:37Z</time></trkpt><trkpt lat="44.90321462672712" lon="10.51733615655715"><ele>27.0</ele><time>2026-03-28T16:32:38Z</time></trkpt><trkpt lat="44.90319288464919" lon="10.517507846080747"><ele>27.0</ele><time>2026-03-28T16:32:39Z</time></trkpt><trkpt lat="44.9031631492902" lon="10.517680856035376"><ele>27.0</ele><time>2026-03-28T16:32:40Z</time></trkpt><trkpt lat="44.90312703055666" lon="10.517852906051514"><ele>27.0</ele><time>2026-03-28T16:32:41Z</time></trkpt><trkpt lat="44.903078026672645" lon="10.518028244477742"><ele>26.5</ele><time>2026-03-28T16:32:42Z</time></trkpt><trkpt lat="44.903021512899045" lon="10.518204728050446"><ele>26.0</ele><time>2026-03-28T16:32:43Z</time></trkpt><trkpt lat="44.90296010252583" lon="10.51837859994845"><ele>25.5</ele><time>2026-03-28T16:32:44Z</time></trkpt><trkpt lat="44.90289573755489" lon="10.518541100182201"><ele>25.0</ele><time>2026-03-28T16:32:45Z</time></trkpt><trkpt lat="44.902834664339196" lon="10.518692271739734"><ele>24.5</ele><time>2026-03-28T16:32:46Z</time></trkpt><trkpt lat="44.90278125352742" lon="10.51884865669219"><ele>24.0</ele><time>2026-03-28T16:32:47Z</time></trkpt><trkpt lat="44.902732590118504" lon="10.519006951702007"><ele>23.5</ele><time>2026-03-28T16:32:48Z</time></trkpt><trkpt lat="44.9026912051683" lon="10.519169588990847"><ele>23.0</ele><time>2026-03-28T16:32:49Z</time></trkpt><trkpt lat="44.902660724903306" lon="10.519343791412343"><ele>23.0</ele><time>2026-03-28T16:32:50Z</time></trkpt><trkpt lat="44.902640442143586" lon="10.51952470384355"><ele>23.0</ele><time>2026-03-28T16:32:51Z</time></trkpt><trkpt lat="44.90262595360323" lon="10.519704120496634"><ele>23.0</ele><time>2026-03-28T16:32:52Z</time></trkpt><trkpt lat="44.902607496876065" lon="10.51987807805023"><ele>23.0</ele><time>2026-03-28T16:32:53Z</time></trkpt><trkpt lat="44.90258956678231" lon="10.520059858089592"><ele>23.5</ele><time>2026-03-28T16:32:54Z</time></trkpt><trkpt lat="44.90257102240737" lon="10.52024439554612"><ele>24.0</ele><time>2026-03-28T16:32:55Z</time></trkpt><trkpt lat="44.902554656392375" lon="10.520438047851181"><ele>24.5</ele><time>2026-03-28T16:32:56Z</time></trkpt><trkpt lat="44.90253684871566" lon="10.52063861248323"><ele>25.0</ele><time>2026-03-28T16:32:57Z</time></trkpt><trkpt lat="44.90251553768854" lon="10.520848772855985"><ele>25.0</ele><time>2026-03-28T16:32:58Z</time></trkpt><trkpt lat="44.90249329469667" lon="10.521063957453482"><ele>25.0</ele><time>2026-03-28T16:32:59Z</time></trkpt><trkpt lat="44.902473017098984" lon="10.521276057564977"><ele>25.0</ele><time>2026-03-28T16:33:00Z</time></trkpt><trkpt lat="44.90245488353438" lon="10.52148779851513"><ele>25.0</ele><time>2026-03-28T16:33:01Z</time></trkpt><trkpt lat="44.90243892638615" lon="10.521693933011463"><ele>25.0</ele><time>2026-03-28T16:33:02Z</time></trkpt><trkpt lat="44.90242704432691" lon="10.521895544539063"><ele>25.0</ele><time>2026-03-28T16:33:03Z</time></trkpt><trkpt lat="44.902421871480044" lon="10.522097071685709"><ele>25.0</ele><time>2026-03-28T16:33:04Z</time></trkpt><trkpt lat="44.90242008036819" lon="10.522304994093453"><ele>25.0</ele><time>2026-03-28T16:33:05Z</time></trkpt><trkpt lat="44.902417554392265" lon="10.522515106163063"><ele>25.0</ele><time>2026-03-28T16:33:06Z</time></trkpt><trkpt lat="44.90241170843061" lon="10.522722413300706"><ele>25.0</ele><time>2026-03-28T16:33:07Z</time></trkpt><trkpt lat="44.90240769827197" lon="10.522926488866322"><ele>25.0</ele><time>2026-03-28T16:33:08Z</time></trkpt><trkpt lat="44.90240396307285" lon="10.52312668079277"><ele>24.75</ele><time>2026-03-28T16:33:09Z</time></trkpt><trkpt lat="44.902401073087006" lon="10.523324938418641"><ele>24.5</ele><time>2026-03-28T16:33:10Z</time></trkpt><trkpt lat="44.902396924446684" lon="10.52352736976782"><ele>24.25</ele><time>2026-03-28T16:33:11Z</time></trkpt><trkpt lat="44.90239294453544" lon="10.523733050931739"><ele>24.0</ele><time>2026-03-28T16:33:12Z</time></trkpt><trkpt lat="44.90238986949029" lon="10.523943284183604"><ele>24.25</ele><time>2026-03-28T16:33:13Z</time></trkpt><trkpt lat="44.90238596931232" lon="10.524153682596937"><ele>24.5</ele><time>2026-03-28T16:33:14Z</time></trkpt><trkpt lat="44.90238115980704" lon="10.524363627114155"><ele>24.75</ele><time>2026-03-28T16:33:15Z</time></trkpt><trkpt lat="44.90237408211358" lon="10.524576249552105"><ele>25.0</ele><time>2026-03-28T16:33:16Z</time></trkpt><trkpt lat="44.90236427432528" lon="10.52478642451402"><ele>25.0</ele><time>2026-03-28T16:33:17Z</time></trkpt><trkpt lat="44.90235464499753" lon="10.525000020503658"><ele>25.0</ele><time>2026-03-28T16:33:18Z</time></trkpt><trkpt lat="44.90234448304792" lon="10.52521609629218"><ele>25.0</ele><time>2026-03-28T16:33:19Z</time></trkpt><trkpt lat="44.90233406012922" lon="10.525431802642252"><ele>24.25</ele><time>2026-03-28T16:33:20Z</time></trkpt><trkpt lat="44.90232602097961" lon="10.525639222668095"><ele>23.5</ele><time>2026-03-28T16:33:21Z</time></trkpt><trkpt lat="44.90232209469005" lon="10.52583473404648"><ele>22.75</ele><time>2026-03-28T16:33:22Z</time></trkpt><trkpt lat="44.902330944467174" lon="10.526025496220091"><ele>22.0</ele><time>2026-03-28T16:33:23Z</time></trkpt><trkpt lat="44.902347025185875" lon="10.526219056900985"><ele>22.75</ele><time>2026-03-28T16:33:24Z</time></trkpt><trkpt lat="44.90237081861368" lon="10.526409680013325"><ele>23.5</ele><time>2026-03-28T16:33:25Z</time></trkpt><trkpt lat="44.90239794028188" lon="10.526602545210556"><ele>24.25</ele><time>2026-03-28T16:33:26Z</time></trkpt><trkpt lat="44.90242083085475" lon="10.526798622888009"><ele>25.0</ele><time>2026-03-28T16:33:27Z</time></trkpt><trkpt lat="44.90243933705401" lon="10.526985263003583"><ele>25.0</ele><time>2026-03-28T16:33:28Z</time></trkpt><trkpt lat="44.90246246031768" lon="10.527168740182601"><ele>25.0</ele><time>2026-03-28T16:33:29Z</time></trkpt><trkpt lat="44.902487804557076" lon="10.527351628564944"><ele>25.0</ele><time>2026-03-28T16:33:30Z</time></trkpt><trkpt lat="44.90251744933803" lon="10.527531943447494"><ele>25.0</ele><time>2026-03-28T16:33:31Z</time></trkpt><trkpt lat="44.902553122414595" lon="10.5277081495351"><ele>25.0</ele><time>2026-03-28T16:33:32Z</time></trkpt><trkpt lat="44.902599504418326" lon="10.527883613562446"><ele>25.0</ele><time>2026-03-28T16:33:33Z</time></trkpt><trkpt lat="44.90265293227596" lon="10.528053889267829"><ele>25.0</ele><time>2026-03-28T16:33:34Z</time></trkpt><trkpt lat="44.902707195546206" lon="10.528221447487443"><ele>25.0</ele><time>2026-03-28T16:33:35Z</time></trkpt><trkpt lat="44.90276727180377" lon="10.528391102472218"><ele>25.0</ele><time>2026-03-28T16:33:36Z</time></trkpt><trkpt lat="44.90283237175529" lon="10.528556338583469"><ele>25.0</ele><time>2026-03-28T16:33:37Z</time></trkpt><trkpt lat="44.90290267508664" lon="10.528715905624404"><ele>25.0</ele><time>2026-03-28T16:33:38Z</time></trkpt><trkpt lat="44.902972126570624" lon="10.528874120498807"><ele>25.0</ele><time>2026-03-28T16:33:39Z</time></trkpt><trkpt lat="44.90304313085094" lon="10.529034442137927"><ele>25.0</ele><time>2026-03-28T16:33:40Z</time></trkpt><trkpt lat="44.90311512952781" lon="10.529195360821102"><ele>25.0</ele><time>2026-03-28T16:33:40.999Z</time></trkpt><trkpt lat="44.90318655962716" lon="10.529356679391341"><ele>25.0</ele><time>2026-03-28T16:33:41.999Z</time></trkpt><trkpt lat="44.903257501478045" lon="10.529515780051819"><ele>25.0</ele><time>2026-03-28T16:33:42.999Z</time></trkpt><trkpt lat="44.90333124923539" lon="10.529675228233835"><ele>25.0</ele><time>2026-03-28T16:33:43.999Z</time></trkpt><trkpt lat="44.903404178688575" lon="10.52983746413671"><ele>25.0</ele><time>2026-03-28T16:33:44.999Z</time></trkpt><trkpt lat="44.90347852820216" lon="10.530000643711116"><ele>25.0</ele><time>2026-03-28T16:33:45.999Z</time></trkpt><trkpt lat="44.90355630797101" lon="10.530169327850606"><ele>25.0</ele><time>2026-03-28T16:33:46.999Z</time></trkpt><trkpt lat="44.903636555712865" lon="10.530344403853281"><ele>25.333333333333336</ele><time>2026-03-28T16:33:47.999Z</time></trkpt><trkpt lat="44.9037222700261" lon="10.530528340103029"><ele>25.666666666666664</ele><time>2026-03-28T16:33:48.999Z</time></trkpt><trkpt lat="44.9038086764977" lon="10.530710536075373"><ele>26.0</ele><time>2026-03-28T16:33:49.999Z</time></trkpt><trkpt lat="44.9038907647619" lon="10.530885454320101"><ele>26.0</ele><time>2026-03-28T16:33:50.999Z</time></trkpt><trkpt lat="44.90397238296944" lon="10.531054927448999"><ele>26.0</ele><time>2026-03-28T16:33:51.999Z</time></trkpt><trkpt lat="44.904057535949754" lon="10.53122302054718"><ele>26.0</ele><time>2026-03-28T16:33:52.999Z</time></trkpt><trkpt lat="44.90414495875353" lon="10.531385053281006"><ele>26.0</ele><time>2026-03-28T16:33:53.999Z</time></trkpt><trkpt lat="44.90423539291811" lon="10.531543396679162"><ele>26.0</ele><time>2026-03-28T16:33:54.999Z</time></trkpt><trkpt lat="44.90432680732857" lon="10.531698762468752"><ele>26.0</ele><time>2026-03-28T16:33:55.999Z</time></trkpt><trkpt lat="44.904422434972616" lon="10.531847274501223"><ele>26.0</ele><time>2026-03-28T16:33:56.999Z</time></trkpt><trkpt lat="44.90452049304331" lon="10.531993956716201"><ele>26.0</ele><time>2026-03-28T16:33:57.999Z</time></trkpt><trkpt lat="44.904620714767205" lon="10.532142284961928"><ele>26.0</ele><time>2026-03-28T16:33:58.999Z</time></trkpt><trkpt lat="44.9047227753628" lon="10.53229417199639"><ele>26.0</ele><time>2026-03-28T16:33:59.999Z</time></trkpt><trkpt lat="44.90482492269588" lon="10.532450218986991"><ele>26.0</ele><time>2026-03-28T16:34:00.999Z</time></trkpt><trkpt lat="44.90493029381715" lon="10.532609478801115"><ele>26.0</ele><time>2026-03-28T16:34:01.999Z</time></trkpt><trkpt lat="44.905035370598256" lon="10.532767031198679"><ele>26.0</ele><time>2026-03-28T16:34:03Z</time></trkpt><trkpt lat="44.905136765824636" lon="10.532920046519678"><ele>26.0</ele><time>2026-03-28T16:34:04Z</time></trkpt><trkpt lat="44.90523612828442" lon="10.533069092874529"><ele>26.0</ele><time>2026-03-28T16:34:05Z</time></trkpt><trkpt lat="44.90533274615955" lon="10.533213701071032"><ele>26.0</ele><time>2026-03-28T16:34:06Z</time></trkpt><trkpt lat="44.905427792860515" lon="10.533360755577897"><ele>26.0</ele><time>2026-03-28T16:34:07Z</time></trkpt><trkpt lat="44.905518843790276" lon="10.53351746348322"><ele>26.0</ele><time>2026-03-28T16:34:08Z</time></trkpt><trkpt lat="44.905599169364784" lon="10.533693506138471"><ele>26.0</ele><time>2026-03-28T16:34:09Z</time></trkpt><trkpt lat="44.905666844546616" lon="10.533888276855162"><ele>26.0</ele><time>2026-03-28T16:34:10Z</time></trkpt><trkpt lat="44.90571869016062" lon="10.53409941739519"><ele>26.0</ele><time>2026-03-28T16:34:11Z</time></trkpt><trkpt lat="44.90575604146757" lon="10.53432813267378"><ele>26.0</ele><time>2026-03-28T16:34:12Z</time></trkpt><trkpt lat="44.905791897780084" lon="10.534570526341826"><ele>25.666666666666664</ele><time>2026-03-28T16:34:13Z</time></trkpt><trkpt lat="44.905832048941264" lon="10.534816048883036"><ele>25.333333333333336</ele><time>2026-03-28T16:34:14Z</time></trkpt><trkpt lat="44.90588067690575" lon="10.535053496767537"><ele>25.0</ele><time>2026-03-28T16:34:15Z</time></trkpt><trkpt lat="44.90593271348567" lon="10.535271399034647"><ele>27.333333333333336</ele><time>2026-03-28T16:34:16Z</time></trkpt><trkpt lat="44.905986126294366" lon="10.535476143506074"><ele>29.666666666666664</ele><time>2026-03-28T16:34:17Z</time></trkpt><trkpt lat="44.90604626028207" lon="10.535681341425207"><ele>32.0</ele><time>2026-03-28T16:34:18Z</time></trkpt><trkpt lat="44.90611435019403" lon="10.53588598623475"><ele>32.0</ele><time>2026-03-28T16:34:19Z</time></trkpt><trkpt lat="44.90619487640219" lon="10.536073953096839"><ele>32.0</ele><time>2026-03-28T16:34:20Z</time></trkpt><trkpt lat="44.90628865211954" lon="10.536229599375979"><ele>32.0</ele><time>2026-03-28T16:34:21Z</time></trkpt><trkpt lat="44.90637650406047" lon="10.536370297339815"><ele>32.0</ele><time>2026-03-28T16:34:21.999Z</time></trkpt><trkpt lat="44.90645253630768" lon="10.536498963712132"><ele>31.0</ele><time>2026-03-28T16:34:22.999Z</time></trkpt><trkpt lat="44.90652117576707" lon="10.536619910180702"><ele>30.000000000000004</ele><time>2026-03-28T16:34:23.999Z</time></trkpt><trkpt lat="44.90658475361915" lon="10.536733275068146"><ele>29.000000000000004</ele><time>2026-03-28T16:34:24.999Z</time></trkpt><trkpt lat="44.90664634265232" lon="10.536840288036478"><ele>28.0</ele><time>2026-03-28T16:34:25.999Z</time></trkpt><trkpt lat="44.90670772792316" lon="10.536943212836283"><ele>27.0</ele><time>2026-03-28T16:34:26.999Z</time></trkpt><trkpt lat="44.906766772167224" lon="10.53704492572578"><ele>26.5</ele><time>2026-03-28T16:34:27.999Z</time></trkpt><trkpt lat="44.90681716049597" lon="10.537132312905806"><ele>26.0</ele><time>2026-03-28T16:34:28.999Z</time></trkpt><trkpt lat="44.9068603325271" lon="10.537208952955021"><ele>25.5</ele><time>2026-03-28T16:34:29.999Z</time></trkpt><trkpt lat="44.9069018054114" lon="10.537286135868369"><ele>25.0</ele><time>2026-03-28T16:34:30.999Z</time></trkpt><trkpt lat="44.906938146290045" lon="10.537362997510545"><ele>24.5</ele><time>2026-03-28T16:34:31.999Z</time></trkpt><trkpt lat="44.906984124035986" lon="10.537499639325445"><ele>24.0</ele><time>2026-03-28T16:34:33.999Z</time></trkpt><trkpt lat="44.90701151747289" lon="10.537638528417007"><ele>24.0</ele><time>2026-03-28T16:34:35.999Z</time></trkpt><trkpt lat="44.90702999084461" lon="10.53775433712685"><ele>24.0</ele><time>2026-03-28T16:34:37.999Z</time></trkpt><trkpt lat="44.90708026261635" lon="10.537874286466618"><ele>24.0</ele><time>2026-03-28T16:34:39.999Z</time></trkpt><trkpt lat="44.90720680110129" lon="10.537912062761297"><ele>24.0</ele><time>2026-03-28T16:34:41.998Z</time></trkpt><trkpt lat="44.90727185700394" lon="10.537852826503949"><ele>24.0</ele><time>2026-03-28T16:34:42.998Z</time></trkpt><trkpt lat="44.907314880260955" lon="10.537758748486374"><ele>24.0</ele><time>2026-03-28T16:34:43.998Z</time></trkpt><trkpt lat="44.907358447223515" lon="10.537670207840042"><ele>24.0</ele><time>2026-03-28T16:34:44.998Z</time></trkpt><trkpt lat="44.907417985640535" lon="10.537597253066638"><ele>24.0</ele><time>2026-03-28T16:34:45.998Z</time></trkpt><trkpt lat="44.907494763017446" lon="10.537553496291848"><ele>24.0</ele><time>2026-03-28T16:34:46.998Z</time></trkpt><trkpt lat="44.90758058195777" lon="10.537519667834502"><ele>24.0</ele><time>2026-03-28T16:34:47.998Z</time></trkpt><trkpt lat="44.907688190909774" lon="10.537484031411717"><ele>24.0</ele><time>2026-03-28T16:34:48.998Z</time></trkpt><trkpt lat="44.907845260033824" lon="10.537468213859688"><ele>24.333333333333336</ele><time>2026-03-28T16:34:49.998Z</time></trkpt><trkpt lat="44.908021134356154" lon="10.537423329137598"><ele>24.666666666666668</ele><time>2026-03-28T16:34:50.998Z</time></trkpt><trkpt lat="44.908214878318525" lon="10.537373496656413"><ele>25.0</ele><time>2026-03-28T16:34:51.998Z</time></trkpt><trkpt lat="44.90841921797071" lon="10.537320936814345"><ele>25.0</ele><time>2026-03-28T16:34:52.998Z</time></trkpt><trkpt lat="44.90859828879245" lon="10.537256507308163"><ele>25.0</ele><time>2026-03-28T16:34:53.998Z</time></trkpt><trkpt lat="44.90878708431517" lon="10.537209397476325"><ele>25.0</ele><time>2026-03-28T16:34:54.998Z</time></trkpt><trkpt lat="44.90897444679994" lon="10.537158878418222"><ele>25.0</ele><time>2026-03-28T16:34:55.998Z</time></trkpt><trkpt lat="44.90915815444331" lon="10.537109071878284"><ele>25.0</ele><time>2026-03-28T16:34:56.998Z</time></trkpt><trkpt lat="44.909335790588486" lon="10.537064741721197"><ele>25.0</ele><time>2026-03-28T16:34:57.998Z</time></trkpt><trkpt lat="44.90950978797337" lon="10.537017229448544"><ele>24.333333333333336</ele><time>2026-03-28T16:34:58.998Z</time></trkpt><trkpt lat="44.90969375833282" lon="10.536992481816535"><ele>23.666666666666668</ele><time>2026-03-28T16:34:59.998Z</time></trkpt><trkpt lat="44.90988439410328" lon="10.536944048788158"><ele>23.0</ele><time>2026-03-28T16:35:00.998Z</time></trkpt><trkpt lat="44.910090915204364" lon="10.53688975821109"><ele>21.666666666666668</ele><time>2026-03-28T16:35:01.998Z</time></trkpt><trkpt lat="44.910316570660974" lon="10.536830437618201"><ele>20.333333333333332</ele><time>2026-03-28T16:35:02.998Z</time></trkpt><trkpt lat="44.91052698954314" lon="10.536775022343043"><ele>19.0</ele><time>2026-03-28T16:35:03.998Z</time></trkpt><trkpt lat="44.91071672437994" lon="10.536725029326407"><ele>19.0</ele><time>2026-03-28T16:35:04.998Z</time></trkpt><trkpt lat="44.910886375121386" lon="10.536657962728796"><ele>19.0</ele><time>2026-03-28T16:35:05.998Z</time></trkpt><trkpt lat="44.91104887165403" lon="10.536619827847456"><ele>19.0</ele><time>2026-03-28T16:35:06.998Z</time></trkpt><trkpt lat="44.91120231951992" lon="10.536582322691089"><ele>19.0</ele><time>2026-03-28T16:35:07.998Z</time></trkpt><trkpt lat="44.91134634739981" lon="10.536544737872774"><ele>19.0</ele><time>2026-03-28T16:35:08.998Z</time></trkpt><trkpt lat="44.91149358056183" lon="10.536507134716686"><ele>19.0</ele><time>2026-03-28T16:35:09.998Z</time></trkpt><trkpt lat="44.91164618681936" lon="10.536467417102994"><ele>19.0</ele><time>2026-03-28T16:35:10.998Z</time></trkpt><trkpt lat="44.911797099082875" lon="10.53642826688764"><ele>19.0</ele><time>2026-03-28T16:35:11.998Z</time></trkpt><trkpt lat="44.911946295058854" lon="10.536388791713643"><ele>19.0</ele><time>2026-03-28T16:35:12.998Z</time></trkpt><trkpt lat="44.91209746486661" lon="10.536349351326841"><ele>19.0</ele><time>2026-03-28T16:35:13.998Z</time></trkpt><trkpt lat="44.91224730085933" lon="10.53631033280502"><ele>19.0</ele><time>2026-03-28T16:35:14.998Z</time></trkpt><trkpt lat="44.91239642073351" lon="10.536272240157578"><ele>19.0</ele><time>2026-03-28T16:35:15.998Z</time></trkpt><trkpt lat="44.9125504542861" lon="10.53625624103348"><ele>19.0</ele><time>2026-03-28T16:35:16.998Z</time></trkpt><trkpt lat="44.912702113114726" lon="10.536217947627092"><ele>19.0</ele><time>2026-03-28T16:35:17.998Z</time></trkpt><trkpt lat="44.91285025816623" lon="10.536180935587298"><ele>19.0</ele><time>2026-03-28T16:35:18.998Z</time></trkpt><trkpt lat="44.912999714101794" lon="10.536143214778221"><ele>19.0</ele><time>2026-03-28T16:35:19.998Z</time></trkpt><trkpt lat="44.91315145082671" lon="10.536103554442919"><ele>19.0</ele><time>2026-03-28T16:35:20.998Z</time></trkpt><trkpt lat="44.91330582010418" lon="10.53606320599889"><ele>19.0</ele><time>2026-03-28T16:35:21.998Z</time></trkpt><trkpt lat="44.91346279297074" lon="10.536022177088837"><ele>21.666666666666664</ele><time>2026-03-28T16:35:22.998Z</time></trkpt><trkpt lat="44.913624753590106" lon="10.53597984444673"><ele>24.333333333333332</ele><time>2026-03-28T16:35:23.998Z</time></trkpt><trkpt lat="44.91378912760246" lon="10.53593688103229"><ele>27.0</ele><time>2026-03-28T16:35:24.998Z</time></trkpt><trkpt lat="44.91395898545047" lon="10.53589243949583"><ele>27.0</ele><time>2026-03-28T16:35:25.998Z</time></trkpt><trkpt lat="44.91413177587471" lon="10.535826239698356"><ele>27.0</ele><time>2026-03-28T16:35:26.998Z</time></trkpt><trkpt lat="44.914307082284935" lon="10.535781483631556"><ele>27.0</ele><time>2026-03-28T16:35:27.998Z</time></trkpt><trkpt lat="44.914482820400515" lon="10.535734543126805"><ele>27.333333333333336</ele><time>2026-03-28T16:35:28.998Z</time></trkpt><trkpt lat="44.914660891360114" lon="10.535687928957062"><ele>27.666666666666668</ele><time>2026-03-28T16:35:29.998Z</time></trkpt><trkpt lat="44.91483607167416" lon="10.535640621209895"><ele>28.0</ele><time>2026-03-28T16:35:30.998Z</time></trkpt><trkpt lat="44.91501034542287" lon="10.53559595378398"><ele>28.0</ele><time>2026-03-28T16:35:31.998Z</time></trkpt><trkpt lat="44.91518354516945" lon="10.535551760806674"><ele>28.0</ele><time>2026-03-28T16:35:32.998Z</time></trkpt><trkpt lat="44.915356562784034" lon="10.535508699313224"><ele>28.0</ele><time>2026-03-28T16:35:33.998Z</time></trkpt><trkpt lat="44.91553102348374" lon="10.53546516525577"><ele>28.0</ele><time>2026-03-28T16:35:34.998Z</time></trkpt><trkpt lat="44.91570446001946" lon="10.535419960885498"><ele>28.0</ele><time>2026-03-28T16:35:35.998Z</time></trkpt><trkpt lat="44.91587994172226" lon="10.535373205783321"><ele>28.0</ele><time>2026-03-28T16:35:36.998Z</time></trkpt><trkpt lat="44.91605775852363" lon="10.535326316909122"><ele>27.333333333333336</ele><time>2026-03-28T16:35:37.998Z</time></trkpt><trkpt lat="44.91623887387226" lon="10.535275958491775"><ele>26.666666666666664</ele><time>2026-03-28T16:35:38.998Z</time></trkpt><trkpt lat="44.91642303014066" lon="10.535251249634598"><ele>26.0</ele><time>2026-03-28T16:35:39.998Z</time></trkpt><trkpt lat="44.91660280995711" lon="10.535204863549339"><ele>26.0</ele><time>2026-03-28T16:35:40.998Z</time></trkpt><trkpt lat="44.91678366276495" lon="10.535158605442371"><ele>26.0</ele><time>2026-03-28T16:35:41.998Z</time></trkpt><trkpt lat="44.91695783784804" lon="10.53509159808838"><ele>26.0</ele><time>2026-03-28T16:35:42.998Z</time></trkpt><trkpt lat="44.9171367077574" lon="10.535047110287442"><ele>26.0</ele><time>2026-03-28T16:35:43.998Z</time></trkpt><trkpt lat="44.9173123636103" lon="10.53500553084552"><ele>26.0</ele><time>2026-03-28T16:35:44.998Z</time></trkpt><trkpt lat="44.917492774072734" lon="10.534958731741854"><ele>26.0</ele><time>2026-03-28T16:35:45.998Z</time></trkpt><trkpt lat="44.91766947540725" lon="10.534910563536886"><ele>25.666666666666664</ele><time>2026-03-28T16:35:46.998Z</time></trkpt><trkpt lat="44.91784334800243" lon="10.534866157338607"><ele>25.333333333333336</ele><time>2026-03-28T16:35:47.998Z</time></trkpt><trkpt lat="44.918019550315" lon="10.534820454809996"><ele>25.0</ele><time>2026-03-28T16:35:48.998Z</time></trkpt><trkpt lat="44.918196050873874" lon="10.5347763219701"><ele>25.0</ele><time>2026-03-28T16:35:49.998Z</time></trkpt><trkpt lat="44.91837233230141" lon="10.534730236400602"><ele>25.0</ele><time>2026-03-28T16:35:50.998Z</time></trkpt><trkpt lat="44.91854894926796" lon="10.534684644782445"><ele>25.0</ele><time>2026-03-28T16:35:51.998Z</time></trkpt><trkpt lat="44.91872750917303" lon="10.534639468699122"><ele>25.0</ele><time>2026-03-28T16:35:52.998Z</time></trkpt><trkpt lat="44.91890347405201" lon="10.53459515735101"><ele>25.0</ele><time>2026-03-28T16:35:53.998Z</time></trkpt><trkpt lat="44.919078160720204" lon="10.534548754088355"><ele>25.0</ele><time>2026-03-28T16:35:54.998Z</time></trkpt><trkpt lat="44.919252080342595" lon="10.53450468485337"><ele>25.333333333333336</ele><time>2026-03-28T16:35:55.998Z</time></trkpt><trkpt lat="44.91942786492424" lon="10.534460679755998"><ele>25.666666666666664</ele><time>2026-03-28T16:35:56.998Z</time></trkpt><trkpt lat="44.91960639999517" lon="10.534415451193283"><ele>26.0</ele><time>2026-03-28T16:35:57.998Z</time></trkpt><trkpt lat="44.919788037655145" lon="10.534369825661459"><ele>26.0</ele><time>2026-03-28T16:35:58.998Z</time></trkpt><trkpt lat="44.91997326434245" lon="10.534322434505606"><ele>26.0</ele><time>2026-03-28T16:35:59.998Z</time></trkpt><trkpt lat="44.92016551483986" lon="10.534269599563476"><ele>26.0</ele><time>2026-03-28T16:36:00.998Z</time></trkpt><trkpt lat="44.92035738064369" lon="10.534222949395838"><ele>26.333333333333332</ele><time>2026-03-28T16:36:01.998Z</time></trkpt><trkpt lat="44.92054924372832" lon="10.534169857825738"><ele>26.666666666666664</ele><time>2026-03-28T16:36:02.998Z</time></trkpt><trkpt lat="44.920731816735305" lon="10.53411049301723"><ele>27.0</ele><time>2026-03-28T16:36:03.998Z</time></trkpt><trkpt lat="44.920908347744934" lon="10.534040574494348"><ele>27.0</ele><time>2026-03-28T16:36:04.998Z</time></trkpt><trkpt lat="44.92107918798748" lon="10.53396881361791"><ele>27.0</ele><time>2026-03-28T16:36:05.998Z</time></trkpt><trkpt lat="44.92124240953479" lon="10.533888324663852"><ele>27.0</ele><time>2026-03-28T16:36:06.998Z</time></trkpt><trkpt lat="44.92140090025773" lon="10.53379811663483"><ele>26.666666666666664</ele><time>2026-03-28T16:36:07.998Z</time></trkpt><trkpt lat="44.92155402116081" lon="10.533700425208783"><ele>26.333333333333332</ele><time>2026-03-28T16:36:08.998Z</time></trkpt><trkpt lat="44.921706352815136" lon="10.533594236328812"><ele>26.0</ele><time>2026-03-28T16:36:09.998Z</time></trkpt><trkpt lat="44.92186000690998" lon="10.533477170401602"><ele>26.0</ele><time>2026-03-28T16:36:10.998Z</time></trkpt><trkpt lat="44.92201040880553" lon="10.533351775714669"><ele>26.0</ele><time>2026-03-28T16:36:11.998Z</time></trkpt><trkpt lat="44.92215838653594" lon="10.533217981363286"><ele>26.0</ele><time>2026-03-28T16:36:12.998Z</time></trkpt><trkpt lat="44.92230246826414" lon="10.53307616183734"><ele>26.0</ele><time>2026-03-28T16:36:13.999Z</time></trkpt><trkpt lat="44.922436445738775" lon="10.532927218680973"><ele>26.0</ele><time>2026-03-28T16:36:14.999Z</time></trkpt><trkpt lat="44.922560000122935" lon="10.532782039740205"><ele>26.0</ele><time>2026-03-28T16:36:15.999Z</time></trkpt><trkpt lat="44.92268049340638" lon="10.532631810760599"><ele>26.0</ele><time>2026-03-28T16:36:16.999Z</time></trkpt><trkpt lat="44.92279188542467" lon="10.532481905618457"><ele>26.0</ele><time>2026-03-28T16:36:17.999Z</time></trkpt><trkpt lat="44.92289869459413" lon="10.532328592909465"><ele>26.0</ele><time>2026-03-28T16:36:18.999Z</time></trkpt><trkpt lat="44.92299978091311" lon="10.532177659789305"><ele>26.25</ele><time>2026-03-28T16:36:19.999Z</time></trkpt><trkpt lat="44.92309627417195" lon="10.532023102232325"><ele>26.5</ele><time>2026-03-28T16:36:20.999Z</time></trkpt><trkpt lat="44.92318883669451" lon="10.531857677612205"><ele>26.75</ele><time>2026-03-28T16:36:21.999Z</time></trkpt><trkpt lat="44.92328047995758" lon="10.531688395373775"><ele>27.0</ele><time>2026-03-28T16:36:22.999Z</time></trkpt><trkpt lat="44.923366808266984" lon="10.531520966662013"><ele>27.0</ele><time>2026-03-28T16:36:23.999Z</time></trkpt><trkpt lat="44.92344327491416" lon="10.531359569456665"><ele>27.0</ele><time>2026-03-28T16:36:24.999Z</time></trkpt><trkpt lat="44.92351389903516" lon="10.531193727331875"><ele>27.0</ele><time>2026-03-28T16:36:25.999Z</time></trkpt><trkpt lat="44.923581097832816" lon="10.531023916298553"><ele>27.0</ele><time>2026-03-28T16:36:26.999Z</time></trkpt><trkpt lat="44.9236469256046" lon="10.530851647773353"><ele>27.0</ele><time>2026-03-28T16:36:27.999Z</time></trkpt><trkpt lat="44.92370869329013" lon="10.530677144408923"><ele>27.0</ele><time>2026-03-28T16:36:28.999Z</time></trkpt><trkpt lat="44.923767025748106" lon="10.530501334617774"><ele>27.0</ele><time>2026-03-28T16:36:30Z</time></trkpt><trkpt lat="44.923821170812815" lon="10.530324004666229"><ele>27.0</ele><time>2026-03-28T16:36:31Z</time></trkpt><trkpt lat="44.923871040808024" lon="10.530141379012983"><ele>27.0</ele><time>2026-03-28T16:36:32Z</time></trkpt><trkpt lat="44.923917398614726" lon="10.529957829379818"><ele>27.0</ele><time>2026-03-28T16:36:33Z</time></trkpt><trkpt lat="44.92395911183275" lon="10.52977318790305"><ele>27.0</ele><time>2026-03-28T16:36:34Z</time></trkpt><trkpt lat="44.92399729600364" lon="10.529593732529964"><ele>27.0</ele><time>2026-03-28T16:36:35Z</time></trkpt><trkpt lat="44.924030585991005" lon="10.529419753156569"><ele>27.0</ele><time>2026-03-28T16:36:36Z</time></trkpt><trkpt lat="44.924061080303936" lon="10.529247959968748"><ele>27.0</ele><time>2026-03-28T16:36:37Z</time></trkpt><trkpt lat="44.92408241163731" lon="10.529075395108551"><ele>27.0</ele><time>2026-03-28T16:36:38Z</time></trkpt><trkpt lat="44.924100971119174" lon="10.528901383969435"><ele>27.0</ele><time>2026-03-28T16:36:39Z</time></trkpt><trkpt lat="44.92411729566765" lon="10.528728756229736"><ele>26.25</ele><time>2026-03-28T16:36:40Z</time></trkpt><trkpt lat="44.924131129957004" lon="10.528561495127565"><ele>25.5</ele><time>2026-03-28T16:36:41Z</time></trkpt><trkpt lat="44.92413991237253" lon="10.528402008633996"><ele>24.75</ele><time>2026-03-28T16:36:42Z</time></trkpt><trkpt lat="44.92414525026687" lon="10.528247665849161"><ele>24.0</ele><time>2026-03-28T16:36:43Z</time></trkpt><trkpt lat="44.92414851529559" lon="10.52808221904145"><ele>24.0</ele><time>2026-03-28T16:36:44Z</time></trkpt><trkpt lat="44.92414907362045" lon="10.527911372153294"><ele>24.0</ele><time>2026-03-28T16:36:45Z</time></trkpt><trkpt lat="44.92414615374219" lon="10.527740068564428"><ele>24.0</ele><time>2026-03-28T16:36:46Z</time></trkpt><trkpt lat="44.92414130750541" lon="10.52756897544779"><ele>24.0</ele><time>2026-03-28T16:36:47Z</time></trkpt><trkpt lat="44.92413390665486" lon="10.527397881221306"><ele>24.0</ele><time>2026-03-28T16:36:48Z</time></trkpt><trkpt lat="44.924121458730035" lon="10.527232102717692"><ele>24.0</ele><time>2026-03-28T16:36:49Z</time></trkpt><trkpt lat="44.92410705573504" lon="10.527069651662472"><ele>24.0</ele><time>2026-03-28T16:36:50Z</time></trkpt><trkpt lat="44.92409216067225" lon="10.526918717464095"><ele>24.0</ele><time>2026-03-28T16:36:51Z</time></trkpt><trkpt lat="44.924074058393266" lon="10.52677651629841"><ele>24.0</ele><time>2026-03-28T16:36:52Z</time></trkpt><trkpt lat="44.924060151888916" lon="10.526643977448211"><ele>24.4</ele><time>2026-03-28T16:36:53Z</time></trkpt><trkpt lat="44.92404764023629" lon="10.52651226312293"><ele>24.799999999999997</ele><time>2026-03-28T16:36:54Z</time></trkpt><trkpt lat="44.924034590705325" lon="10.526374372928888"><ele>25.200000000000003</ele><time>2026-03-28T16:36:55Z</time></trkpt><trkpt lat="44.92402008737172" lon="10.526233213250341"><ele>25.6</ele><time>2026-03-28T16:36:56Z</time></trkpt><trkpt lat="44.92399958519678" lon="10.52608831192581"><ele>26.0</ele><time>2026-03-28T16:36:57Z</time></trkpt><trkpt lat="44.92398948106389" lon="10.525943613568064"><ele>26.200000000000003</ele><time>2026-03-28T16:36:58Z</time></trkpt><trkpt lat="44.9239981022776" lon="10.525804733413556"><ele>26.400000000000002</ele><time>2026-03-28T16:36:59Z</time></trkpt><trkpt lat="44.92399692054219" lon="10.525698873782147"><ele>26.6</ele><time>2026-03-28T16:37:00Z</time></trkpt><trkpt lat="44.92412880116244" lon="10.525623944519714"><ele>26.8</ele><time>2026-03-28T16:37:01Z</time></trkpt><trkpt lat="44.92423136072014" lon="10.525605640682567"><ele>27.0</ele><time>2026-03-28T16:37:02Z</time></trkpt><trkpt lat="44.92435196297292" lon="10.525643660015385"><ele>27.0</ele><time>2026-03-28T16:37:03Z</time></trkpt><trkpt lat="44.924482250585555" lon="10.525713445310174"><ele>27.0</ele><time>2026-03-28T16:37:04Z</time></trkpt><trkpt lat="44.92461954030981" lon="10.525793094113816"><ele>27.0</ele><time>2026-03-28T16:37:05Z</time></trkpt><trkpt lat="44.92476300678059" lon="10.52588358280087"><ele>27.0</ele><time>2026-03-28T16:37:06Z</time></trkpt><trkpt lat="44.924913275272395" lon="10.525977130830848"><ele>26.333333333333336</ele><time>2026-03-28T16:37:07Z</time></trkpt><trkpt lat="44.92507087774787" lon="10.526077054836405"><ele>25.666666666666668</ele><time>2026-03-28T16:37:08Z</time></trkpt><trkpt lat="44.925233107488744" lon="10.526190416236796"><ele>25.0</ele><time>2026-03-28T16:37:09Z</time></trkpt><trkpt lat="44.92539363609752" lon="10.526332746740787"><ele>25.0</ele><time>2026-03-28T16:37:10Z</time></trkpt><trkpt lat="44.92555108199083" lon="10.526503039027782"><ele>25.0</ele><time>2026-03-28T16:37:11Z</time></trkpt><trkpt lat="44.925698453409595" lon="10.526690831547056"><ele>25.0</ele><time>2026-03-28T16:37:12Z</time></trkpt><trkpt lat="44.92583571457634" lon="10.526891150269591"><ele>25.0</ele><time>2026-03-28T16:37:13Z</time></trkpt><trkpt lat="44.925970944692246" lon="10.52709219693052"><ele>25.0</ele><time>2026-03-28T16:37:14Z</time></trkpt><trkpt lat="44.926105707822096" lon="10.52729151100665"><ele>25.0</ele><time>2026-03-28T16:37:15Z</time></trkpt><trkpt lat="44.92624068039996" lon="10.527482694023362"><ele>25.0</ele><time>2026-03-28T16:37:16Z</time></trkpt><trkpt lat="44.92636956013892" lon="10.52768731756588"><ele>25.0</ele><time>2026-03-28T16:37:17Z</time></trkpt><trkpt lat="44.92647902802105" lon="10.527906015300367"><ele>25.0</ele><time>2026-03-28T16:37:18Z</time></trkpt><trkpt lat="44.92657101499871" lon="10.528130218167453"><ele>25.0</ele><time>2026-03-28T16:37:19Z</time></trkpt><trkpt lat="44.926649496360874" lon="10.528352852248888"><ele>25.0</ele><time>2026-03-28T16:37:20Z</time></trkpt><trkpt lat="44.9267172844324" lon="10.52857604267572"><ele>25.0</ele><time>2026-03-28T16:37:21Z</time></trkpt><trkpt lat="44.92677843152541" lon="10.528795687108454"><ele>25.333333333333336</ele><time>2026-03-28T16:37:22Z</time></trkpt><trkpt lat="44.92684045366526" lon="10.52900803150899"><ele>25.666666666666664</ele><time>2026-03-28T16:37:23Z</time></trkpt><trkpt lat="44.926899434745806" lon="10.529216930587255"><ele>26.0</ele><time>2026-03-28T16:37:24Z</time></trkpt><trkpt lat="44.92695756334514" lon="10.529424063492684"><ele>25.666666666666664</ele><time>2026-03-28T16:37:25Z</time></trkpt><trkpt lat="44.927017322337434" lon="10.5296299281352"><ele>25.333333333333336</ele><time>2026-03-28T16:37:26Z</time></trkpt><trkpt lat="44.92707660411571" lon="10.529833503319177"><ele>25.0</ele><time>2026-03-28T16:37:27Z</time></trkpt><trkpt lat="44.927135543229795" lon="10.530039744981831"><ele>25.0</ele><time>2026-03-28T16:37:28Z</time></trkpt><trkpt lat="44.927193102896105" lon="10.530247620151147"><ele>25.0</ele><time>2026-03-28T16:37:29Z</time></trkpt><trkpt lat="44.92725172631454" lon="10.530459244708398"><ele>25.0</ele><time>2026-03-28T16:37:30Z</time></trkpt><trkpt lat="44.927309298927746" lon="10.530672011519812"><ele>24.666666666666668</ele><time>2026-03-28T16:37:31Z</time></trkpt><trkpt lat="44.92736656751179" lon="10.530881612047889"><ele>24.333333333333336</ele><time>2026-03-28T16:37:32Z</time></trkpt><trkpt lat="44.927426674114244" lon="10.531092698801883"><ele>24.0</ele><time>2026-03-28T16:37:33Z</time></trkpt><trkpt lat="44.92748543291605" lon="10.531307297879266"><ele>24.0</ele><time>2026-03-28T16:37:34Z</time></trkpt><trkpt lat="44.927541851427506" lon="10.531522694220758"><ele>24.0</ele><time>2026-03-28T16:37:35Z</time></trkpt><trkpt lat="44.92759793168861" lon="10.531735152028308"><ele>24.0</ele><time>2026-03-28T16:37:36Z</time></trkpt><trkpt lat="44.927650025488546" lon="10.531918939409357"><ele>24.166666666666668</ele><time>2026-03-28T16:37:37Z</time></trkpt><trkpt lat="44.92768467810731" lon="10.532037801395463"><ele>24.333333333333336</ele><time>2026-03-28T16:37:38Z</time></trkpt><trkpt lat="44.9277089510835" lon="10.532136888990845"><ele>24.5</ele><time>2026-03-28T16:37:39Z</time></trkpt><trkpt lat="44.9277312711352" lon="10.532229695961066"><ele>24.666666666666668</ele><time>2026-03-28T16:37:40Z</time></trkpt><trkpt lat="44.92776462246282" lon="10.532381015743182"><ele>24.833333333333336</ele><time>2026-03-28T16:37:42Z</time></trkpt><trkpt lat="44.927789818920274" lon="10.532466961008929"><ele>25.0</ele><time>2026-03-28T16:37:43Z</time></trkpt><trkpt lat="44.927829520297976" lon="10.532576360805459"><ele>25.0</ele><time>2026-03-28T16:37:44Z</time></trkpt><trkpt lat="44.92789684840351" lon="10.532722706529166"><ele>25.0</ele><time>2026-03-28T16:37:45Z</time></trkpt><trkpt lat="44.92797333963013" lon="10.532880992288494"><ele>25.0</ele><time>2026-03-28T16:37:46Z</time></trkpt><trkpt lat="44.92807235893009" lon="10.53306058841025"><ele>25.0</ele><time>2026-03-28T16:37:47Z</time></trkpt><trkpt lat="44.92819206352387" lon="10.533239248724923"><ele>25.0</ele><time>2026-03-28T16:37:48Z</time></trkpt><trkpt lat="44.928333586146564" lon="10.533419016092042"><ele>25.0</ele><time>2026-03-28T16:37:49Z</time></trkpt><trkpt lat="44.92849167409579" lon="10.533601703344893"><ele>25.0</ele><time>2026-03-28T16:37:50Z</time></trkpt><trkpt lat="44.9286516538189" lon="10.53379198504212"><ele>25.333333333333336</ele><time>2026-03-28T16:37:51Z</time></trkpt><trkpt lat="44.92881190964687" lon="10.533992140716675"><ele>25.666666666666664</ele><time>2026-03-28T16:37:52Z</time></trkpt><trkpt lat="44.92897240674862" lon="10.53419159822757"><ele>26.0</ele><time>2026-03-28T16:37:53Z</time></trkpt><trkpt lat="44.92913229741033" lon="10.534383869534896"><ele>25.666666666666664</ele><time>2026-03-28T16:37:54Z</time></trkpt><trkpt lat="44.92928214670514" lon="10.534590837181602"><ele>25.333333333333336</ele><time>2026-03-28T16:37:55Z</time></trkpt><trkpt lat="44.9294208118862" lon="10.534817551613116"><ele>25.0</ele><time>2026-03-28T16:37:56Z</time></trkpt><trkpt lat="44.92955264399335" lon="10.53505722846626"><ele>25.0</ele><time>2026-03-28T16:37:57Z</time></trkpt><trkpt lat="44.92968162332096" lon="10.535302057738935"><ele>25.0</ele><time>2026-03-28T16:37:58Z</time></trkpt><trkpt lat="44.929806912475705" lon="10.535550759783998"><ele>25.0</ele><time>2026-03-28T16:37:59Z</time></trkpt><trkpt lat="44.92991944752762" lon="10.535798011072394"><ele>24.666666666666668</ele><time>2026-03-28T16:38:00Z</time></trkpt><trkpt lat="44.93001509395592" lon="10.536053382349655"><ele>24.333333333333336</ele><time>2026-03-28T16:38:01Z</time></trkpt><trkpt lat="44.930100366912434" lon="10.53632427972793"><ele>24.0</ele><time>2026-03-28T16:38:02Z</time></trkpt><trkpt lat="44.930180379472574" lon="10.536604436106813"><ele>24.0</ele><time>2026-03-28T16:38:03Z</time></trkpt><trkpt lat="44.93025382216276" lon="10.536887601631836"><ele>24.0</ele><time>2026-03-28T16:38:04Z</time></trkpt><trkpt lat="44.93032641375598" lon="10.537172889885154"><ele>24.0</ele><time>2026-03-28T16:38:05Z</time></trkpt><trkpt lat="44.930401668236335" lon="10.537458594127694"><ele>24.0</ele><time>2026-03-28T16:38:06Z</time></trkpt><trkpt lat="44.93048042788709" lon="10.537744097994498"><ele>24.0</ele><time>2026-03-28T16:38:07Z</time></trkpt><trkpt lat="44.93056674494712" lon="10.53802655421553"><ele>24.0</ele><time>2026-03-28T16:38:08Z</time></trkpt><trkpt lat="44.93066868008812" lon="10.5382938042453"><ele>24.0</ele><time>2026-03-28T16:38:09Z</time></trkpt><trkpt lat="44.93078972133176" lon="10.538539364174262"><ele>24.0</ele><time>2026-03-28T16:38:10Z</time></trkpt><trkpt lat="44.93093031215374" lon="10.538769508086357"><ele>24.0</ele><time>2026-03-28T16:38:11Z</time></trkpt><trkpt lat="44.93108464470989" lon="10.538977559134912"><ele>24.0</ele><time>2026-03-28T16:38:12Z</time></trkpt><trkpt lat="44.931256453929684" lon="10.539164983710286"><ele>24.0</ele><time>2026-03-28T16:38:13Z</time></trkpt><trkpt lat="44.93144092737785" lon="10.53932803388326"><ele>24.0</ele><time>2026-03-28T16:38:14Z</time></trkpt><trkpt lat="44.93163173072593" lon="10.539461103383973"><ele>23.666666666666668</ele><time>2026-03-28T16:38:15Z</time></trkpt><trkpt lat="44.9318240946832" lon="10.539565695541354"><ele>23.333333333333336</ele><time>2026-03-28T16:38:16Z</time></trkpt><trkpt lat="44.932012494289154" lon="10.539645194555469"><ele>23.0</ele><time>2026-03-28T16:38:17Z</time></trkpt><trkpt lat="44.93219469578513" lon="10.539697188708903"><ele>23.0</ele><time>2026-03-28T16:38:18Z</time></trkpt><trkpt lat="44.93236340515284" lon="10.539720913047665"><ele>23.0</ele><time>2026-03-28T16:38:19Z</time></trkpt><trkpt lat="44.93251688932209" lon="10.539726176216302"><ele>23.0</ele><time>2026-03-28T16:38:20Z</time></trkpt><trkpt lat="44.932651828161" lon="10.539724987336102"><ele>23.2</ele><time>2026-03-28T16:38:21Z</time></trkpt><trkpt lat="44.932767561184875" lon="10.539738135629602"><ele>23.4</ele><time>2026-03-28T16:38:22Z</time></trkpt><trkpt lat="44.93285923680089" lon="10.539774001869826"><ele>23.599999999999998</ele><time>2026-03-28T16:38:23Z</time></trkpt><trkpt lat="44.932919762090314" lon="10.539810324992231"><ele>23.799999999999997</ele><time>2026-03-28T16:38:24Z</time></trkpt><trkpt lat="44.93300567956571" lon="10.539886081485431"><ele>24.0</ele><time>2026-03-28T16:38:26Z</time></trkpt><trkpt lat="44.93306818425268" lon="10.539943096457288"><ele>24.0</ele><time>2026-03-28T16:38:27Z</time></trkpt><trkpt lat="44.9331404331815" lon="10.540009792273151"><ele>24.0</ele><time>2026-03-28T16:38:28Z</time></trkpt><trkpt lat="44.933224973917156" lon="10.540062982598943"><ele>24.0</ele><time>2026-03-28T16:38:29Z</time></trkpt><trkpt lat="44.93331717367344" lon="10.540065706488093"><ele>24.0</ele><time>2026-03-28T16:38:30Z</time></trkpt><trkpt lat="44.9334000376199" lon="10.540006661968665"><ele>24.0</ele><time>2026-03-28T16:38:31Z</time></trkpt><trkpt lat="44.933462696546286" lon="10.539914333900748"><ele>23.6</ele><time>2026-03-28T16:38:32Z</time></trkpt><trkpt lat="44.93352191245098" lon="10.539817295698336"><ele>23.2</ele><time>2026-03-28T16:38:33Z</time></trkpt><trkpt lat="44.93359631040836" lon="10.539753326237658"><ele>22.8</ele><time>2026-03-28T16:38:34Z</time></trkpt><trkpt lat="44.93367910182308" lon="10.539716360457096"><ele>22.400000000000002</ele><time>2026-03-28T16:38:35Z</time></trkpt><trkpt lat="44.93376503050104" lon="10.539694945286158"><ele>22.0</ele><time>2026-03-28T16:38:36Z</time></trkpt><trkpt lat="44.93386306357911" lon="10.539676265766387"><ele>22.0</ele><time>2026-03-28T16:38:37Z</time></trkpt><trkpt lat="44.933982536825866" lon="10.539670718891841"><ele>22.0</ele><time>2026-03-28T16:38:38Z</time></trkpt><trkpt lat="44.9341123346062" lon="10.539667953228095"><ele>22.0</ele><time>2026-03-28T16:38:39Z</time></trkpt><trkpt lat="44.93425661030042" lon="10.539661953590896"><ele>22.0</ele><time>2026-03-28T16:38:40Z</time></trkpt><trkpt lat="44.93440040562674" lon="10.53965350358276"><ele>22.333333333333332</ele><time>2026-03-28T16:38:41Z</time></trkpt><trkpt lat="44.93454028252295" lon="10.539647246576038"><ele>22.666666666666668</ele><time>2026-03-28T16:38:42Z</time></trkpt><trkpt lat="44.93467899764479" lon="10.539640269243781"><ele>23.0</ele><time>2026-03-28T16:38:43Z</time></trkpt><trkpt lat="44.93497485087896" lon="10.539626644289873"><ele>23.25</ele><time>2026-03-28T16:38:45Z</time></trkpt><trkpt lat="44.935121527945135" lon="10.539619510110187"><ele>23.5</ele><time>2026-03-28T16:38:46Z</time></trkpt><trkpt lat="44.93526535637443" lon="10.539613773865288"><ele>23.75</ele><time>2026-03-28T16:38:47Z</time></trkpt><trkpt lat="44.93541149145954" lon="10.539608499254458"><ele>24.0</ele><time>2026-03-28T16:38:48Z</time></trkpt><trkpt lat="44.93555775629698" lon="10.539597350549997"><ele>24.0</ele><time>2026-03-28T16:38:49Z</time></trkpt><trkpt lat="44.935703397333754" lon="10.53958722417599"><ele>24.0</ele><time>2026-03-28T16:38:50Z</time></trkpt><trkpt lat="44.9358491471208" lon="10.539584290407904"><ele>24.0</ele><time>2026-03-28T16:38:51Z</time></trkpt><trkpt lat="44.935995841622486" lon="10.539582135561915"><ele>24.0</ele><time>2026-03-28T16:38:52Z</time></trkpt><trkpt lat="44.93614276994587" lon="10.539576867375942"><ele>23.5</ele><time>2026-03-28T16:38:53Z</time></trkpt><trkpt lat="44.93628512610108" lon="10.539569819747754"><ele>23.0</ele><time>2026-03-28T16:38:54Z</time></trkpt><trkpt lat="44.93642564337348" lon="10.539564330585069"><ele>22.5</ele><time>2026-03-28T16:38:55Z</time></trkpt><trkpt lat="44.93656572151264" lon="10.539560455213792"><ele>22.0</ele><time>2026-03-28T16:38:56Z</time></trkpt><trkpt lat="44.93670317727203" lon="10.53955741142343"><ele>22.75</ele><time>2026-03-28T16:38:57Z</time></trkpt><trkpt lat="44.93684052246735" lon="10.53955171279872"><ele>23.5</ele><time>2026-03-28T16:38:58Z</time></trkpt><trkpt lat="44.936968880325246" lon="10.539545107721823"><ele>24.25</ele><time>2026-03-28T16:38:59Z</time></trkpt><trkpt lat="44.937088931274204" lon="10.539542752544735"><ele>25.0</ele><time>2026-03-28T16:39:00Z</time></trkpt><trkpt lat="44.937198880565816" lon="10.539541955574885"><ele>25.0</ele><time>2026-03-28T16:39:01Z</time></trkpt><trkpt lat="44.93730177532015" lon="10.539542889368278"><ele>25.0</ele><time>2026-03-28T16:39:02Z</time></trkpt><trkpt lat="44.937398514660856" lon="10.539543262180183"><ele>25.0</ele><time>2026-03-28T16:39:03Z</time></trkpt><trkpt lat="44.93749103300844" lon="10.539537068474235"><ele>25.0</ele><time>2026-03-28T16:39:04Z</time></trkpt><trkpt lat="44.93758227421857" lon="10.539531186199856"><ele>25.0</ele><time>2026-03-28T16:39:05Z</time></trkpt><trkpt lat="44.93766226805621" lon="10.53953827590833"><ele>24.8</ele><time>2026-03-28T16:39:06Z</time></trkpt><trkpt lat="44.93773925463018" lon="10.539557671359756"><ele>24.6</ele><time>2026-03-28T16:39:07Z</time></trkpt><trkpt lat="44.937821236412525" lon="10.53960455602291"><ele>24.4</ele><time>2026-03-28T16:39:08Z</time></trkpt><trkpt lat="44.93791874550293" lon="10.539661802920538"><ele>24.2</ele><time>2026-03-28T16:39:09Z</time></trkpt><trkpt lat="44.93803453297123" lon="10.539729319570267"><ele>24.0</ele><time>2026-03-28T16:39:10Z</time></trkpt><trkpt lat="44.93815617128765" lon="10.539811444978975"><ele>24.0</ele><time>2026-03-28T16:39:11Z</time></trkpt><trkpt lat="44.938283710959624" lon="10.539900691407196"><ele>24.0</ele><time>2026-03-28T16:39:12Z</time></trkpt><trkpt lat="44.938400845463455" lon="10.540053627092503"><ele>24.0</ele><time>2026-03-28T16:39:13Z</time></trkpt><trkpt lat="44.93852585335574" lon="10.540205549810663"><ele>23.666666666666668</ele><time>2026-03-28T16:39:14Z</time></trkpt><trkpt lat="44.93865108222936" lon="10.540372835987432"><ele>23.333333333333336</ele><time>2026-03-28T16:39:15Z</time></trkpt><trkpt lat="44.938779207203794" lon="10.540557986890242"><ele>23.0</ele><time>2026-03-28T16:39:16Z</time></trkpt><trkpt lat="44.93891058374121" lon="10.54075210145556"><ele>22.333333333333336</ele><time>2026-03-28T16:39:17Z</time></trkpt><trkpt lat="44.93905144607566" lon="10.54094422799909"><ele>21.666666666666668</ele><time>2026-03-28T16:39:18Z</time></trkpt><trkpt lat="44.93919488938124" lon="10.541144330868496"><ele>21.0</ele><time>2026-03-28T16:39:19Z</time></trkpt><trkpt lat="44.93934380416016" lon="10.541354909647001"><ele>20.666666666666668</ele><time>2026-03-28T16:39:20Z</time></trkpt><trkpt lat="44.939495987988785" lon="10.541572088466964"><ele>20.333333333333336</ele><time>2026-03-28T16:39:21Z</time></trkpt><trkpt lat="44.939652802995276" lon="10.54179249863133"><ele>20.0</ele><time>2026-03-28T16:39:22Z</time></trkpt><trkpt lat="44.93980456002895" lon="10.542031329045582"><ele>20.0</ele><time>2026-03-28T16:39:23Z</time></trkpt><trkpt lat="44.93992513709334" lon="10.542198957794223"><ele>20.0</ele><time>2026-03-28T16:39:24Z</time></trkpt><trkpt lat="44.940079039202125" lon="10.542417412445129"><ele>20.0</ele><time>2026-03-28T16:39:25Z</time></trkpt><trkpt lat="44.94023577408961" lon="10.542628322826202"><ele>20.666666666666668</ele><time>2026-03-28T16:39:26Z</time></trkpt><trkpt lat="44.94039476161058" lon="10.542835275138687"><ele>21.333333333333332</ele><time>2026-03-28T16:39:27Z</time></trkpt><trkpt lat="44.940552619419584" lon="10.543048700077279"><ele>22.0</ele><time>2026-03-28T16:39:28Z</time></trkpt><trkpt lat="44.94071321885953" lon="10.543257172439853"><ele>22.0</ele><time>2026-03-28T16:39:29Z</time></trkpt><trkpt lat="44.94087254640261" lon="10.54346246817425"><ele>22.0</ele><time>2026-03-28T16:39:30Z</time></trkpt><trkpt lat="44.941033467255075" lon="10.54366040319506"><ele>22.0</ele><time>2026-03-28T16:39:31Z</time></trkpt><trkpt lat="44.941194228938" lon="10.543851321919528"><ele>22.0</ele><time>2026-03-28T16:39:32Z</time></trkpt><trkpt lat="44.94135885871788" lon="10.54403839104752"><ele>22.0</ele><time>2026-03-28T16:39:33Z</time></trkpt><trkpt lat="44.941529220553555" lon="10.544225546585107"><ele>22.0</ele><time>2026-03-28T16:39:34Z</time></trkpt><trkpt lat="44.94170381663625" lon="10.544412238357063"><ele>21.666666666666664</ele><time>2026-03-28T16:39:35Z</time></trkpt><trkpt lat="44.94187945460681" lon="10.544605484335985"><ele>21.333333333333332</ele><time>2026-03-28T16:39:36Z</time></trkpt><trkpt lat="44.942058973291566" lon="10.54479669033039"><ele>21.0</ele><time>2026-03-28T16:39:37Z</time></trkpt><trkpt lat="44.94223586223442" lon="10.544995232701071"><ele>21.0</ele><time>2026-03-28T16:39:38Z</time></trkpt><trkpt lat="44.942417819160255" lon="10.545191441050278"><ele>21.0</ele><time>2026-03-28T16:39:39Z</time></trkpt><trkpt lat="44.94260148067381" lon="10.545389873197307"><ele>22.5</ele><time>2026-03-28T16:39:40Z</time></trkpt><trkpt lat="44.94278400889689" lon="10.545596279897088"><ele>24.0</ele><time>2026-03-28T16:39:41Z</time></trkpt><trkpt lat="44.94296618225123" lon="10.545804582685065"><ele>24.0</ele><time>2026-03-28T16:39:42Z</time></trkpt><trkpt lat="44.94314496585279" lon="10.546018599389342"><ele>24.0</ele><time>2026-03-28T16:39:43Z</time></trkpt><trkpt lat="44.9433235323385" lon="10.546236452052499"><ele>23.5</ele><time>2026-03-28T16:39:44Z</time></trkpt><trkpt lat="44.94350148286978" lon="10.54645716135025"><ele>23.0</ele><time>2026-03-28T16:39:45Z</time></trkpt><trkpt lat="44.94367861677837" lon="10.546680245095954"><ele>23.0</ele><time>2026-03-28T16:39:46Z</time></trkpt><trkpt lat="44.94385510056121" lon="10.546906651101565"><ele>23.0</ele><time>2026-03-28T16:39:47Z</time></trkpt><trkpt lat="44.94402685970314" lon="10.547135712064959"><ele>22.5</ele><time>2026-03-28T16:39:48Z</time></trkpt><trkpt lat="44.944196142650064" lon="10.547364090950149"><ele>22.0</ele><time>2026-03-28T16:39:49Z</time></trkpt><trkpt lat="44.94436255507547" lon="10.547584551634488"><ele>21.666666666666664</ele><time>2026-03-28T16:39:50Z</time></trkpt><trkpt lat="44.94453139465207" lon="10.547801414558329"><ele>21.333333333333332</ele><time>2026-03-28T16:39:51Z</time></trkpt><trkpt lat="44.94469481761087" lon="10.54801142080813"><ele>21.0</ele><time>2026-03-28T16:39:52Z</time></trkpt><trkpt lat="44.94485473858847" lon="10.548208638857623"><ele>21.0</ele><time>2026-03-28T16:39:53Z</time></trkpt><trkpt lat="44.94501014086266" lon="10.548398699058799"><ele>21.0</ele><time>2026-03-28T16:39:54Z</time></trkpt><trkpt lat="44.94516095606056" lon="10.548577345790674"><ele>21.0</ele><time>2026-03-28T16:39:55Z</time></trkpt><trkpt lat="44.945309311313736" lon="10.548745737244808"><ele>21.666666666666668</ele><time>2026-03-28T16:39:56Z</time></trkpt><trkpt lat="44.94545907366" lon="10.548885607935311"><ele>22.333333333333336</ele><time>2026-03-28T16:39:57Z</time></trkpt><trkpt lat="44.94560052778835" lon="10.549014909892964"><ele>23.0</ele><time>2026-03-28T16:39:58Z</time></trkpt><trkpt lat="44.94572880200733" lon="10.549122212292776"><ele>23.0</ele><time>2026-03-28T16:39:59Z</time></trkpt><trkpt lat="44.94584117316931" lon="10.549230971768576"><ele>23.0</ele><time>2026-03-28T16:40:00Z</time></trkpt><trkpt lat="44.94594230725214" lon="10.549321961930843"><ele>23.0</ele><time>2026-03-28T16:40:01Z</time></trkpt><trkpt lat="44.94603421957101" lon="10.549403897678488"><ele>23.0</ele><time>2026-03-28T16:40:02Z</time></trkpt><trkpt lat="44.94611760093335" lon="10.549475979496188"><ele>23.166666666666668</ele><time>2026-03-28T16:40:03Z</time></trkpt><trkpt lat="44.946191353288434" lon="10.549537105508243"><ele>23.333333333333336</ele><time>2026-03-28T16:40:04Z</time></trkpt><trkpt lat="44.946250958917076" lon="10.5495866618287"><ele>23.5</ele><time>2026-03-28T16:40:05Z</time></trkpt><trkpt lat="44.94634191570255" lon="10.54966108755209"><ele>23.666666666666668</ele><time>2026-03-28T16:40:07Z</time></trkpt><trkpt lat="44.94639819104007" lon="10.54970968202987"><ele>23.833333333333332</ele><time>2026-03-28T16:40:09Z</time></trkpt><trkpt lat="44.94646772750184" lon="10.549787994803333"><ele>24.0</ele><time>2026-03-28T16:40:25Z</time></trkpt><trkpt lat="44.946526243225605" lon="10.54983132266359"><ele>24.0</ele><time>2026-03-28T16:40:26Z</time></trkpt><trkpt lat="44.946600678969425" lon="10.54989624423315"><ele>24.0</ele><time>2026-03-28T16:40:27Z</time></trkpt><trkpt lat="44.94669494019259" lon="10.549968075667636"><ele>24.0</ele><time>2026-03-28T16:40:28Z</time></trkpt><trkpt lat="44.94680426729691" lon="10.550047778195186"><ele>24.0</ele><time>2026-03-28T16:40:29Z</time></trkpt><trkpt lat="44.94692315360371" lon="10.550143156215883"><ele>24.0</ele><time>2026-03-28T16:40:30Z</time></trkpt><trkpt lat="44.947048787294854" lon="10.550256986378807"><ele>24.0</ele><time>2026-03-28T16:40:31Z</time></trkpt><trkpt lat="44.94718773833245" lon="10.550375603550165"><ele>24.0</ele><time>2026-03-28T16:40:32Z</time></trkpt><trkpt lat="44.94733571549987" lon="10.550496990054997"><ele>24.0</ele><time>2026-03-28T16:40:33Z</time></trkpt><trkpt lat="44.94749209036347" lon="10.550620746308365"><ele>24.0</ele><time>2026-03-28T16:40:34Z</time></trkpt><trkpt lat="44.94765103485019" lon="10.55075121186566"><ele>24.0</ele><time>2026-03-28T16:40:35Z</time></trkpt><trkpt lat="44.94781687043722" lon="10.550892059010689"><ele>23.333333333333332</ele><time>2026-03-28T16:40:36Z</time></trkpt><trkpt lat="44.94798821934883" lon="10.551039822392271"><ele>22.666666666666664</ele><time>2026-03-28T16:40:37Z</time></trkpt><trkpt lat="44.94816135795256" lon="10.551188430291369"><ele>22.0</ele><time>2026-03-28T16:40:38Z</time></trkpt><trkpt lat="44.94833850230489" lon="10.551339220435285"><ele>22.666666666666664</ele><time>2026-03-28T16:40:39Z</time></trkpt><trkpt lat="44.94851951855215" lon="10.551494122071386"><ele>23.333333333333332</ele><time>2026-03-28T16:40:40Z</time></trkpt><trkpt lat="44.94870536878314" lon="10.551651502627353"><ele>24.0</ele><time>2026-03-28T16:40:41Z</time></trkpt><trkpt lat="44.94888210711106" lon="10.551799801146414"><ele>24.0</ele><time>2026-03-28T16:40:42Z</time></trkpt><trkpt lat="44.94906826018762" lon="10.55195956921846"><ele>24.0</ele><time>2026-03-28T16:40:43Z</time></trkpt><trkpt lat="44.949254915555926" lon="10.552117433612697"><ele>24.0</ele><time>2026-03-28T16:40:44Z</time></trkpt><trkpt lat="44.94944138265297" lon="10.552277668268806"><ele>23.0</ele><time>2026-03-28T16:40:45Z</time></trkpt><trkpt lat="44.949632616521136" lon="10.552433675990683"><ele>22.0</ele><time>2026-03-28T16:40:46Z</time></trkpt><trkpt lat="44.94982332407012" lon="10.552589951090987"><ele>21.0</ele><time>2026-03-28T16:40:47Z</time></trkpt><trkpt lat="44.950025365565274" lon="10.552719140731986"><ele>21.5</ele><time>2026-03-28T16:40:48Z</time></trkpt><trkpt lat="44.95024804279473" lon="10.55281548165283"><ele>22.0</ele><time>2026-03-28T16:40:49Z</time></trkpt><trkpt lat="44.95047525863319" lon="10.55290408273919"><ele>22.5</ele><time>2026-03-28T16:40:50Z</time></trkpt><trkpt lat="44.95070662997697" lon="10.552995540156072"><ele>23.0</ele><time>2026-03-28T16:40:51Z</time></trkpt><trkpt lat="44.95094370305265" lon="10.553090074419194"><ele>22.0</ele><time>2026-03-28T16:40:52Z</time></trkpt><trkpt lat="44.95117965694777" lon="10.55318918803266"><ele>21.0</ele><time>2026-03-28T16:40:53Z</time></trkpt><trkpt lat="44.95141838268638" lon="10.553296287957025"><ele>21.0</ele><time>2026-03-28T16:40:54Z</time></trkpt><trkpt lat="44.95165660556648" lon="10.553400654502996"><ele>21.0</ele><time>2026-03-28T16:40:55Z</time></trkpt><trkpt lat="44.951896019141294" lon="10.553499215354751"><ele>20.5</ele><time>2026-03-28T16:40:56Z</time></trkpt><trkpt lat="44.95213374739056" lon="10.553597148705675"><ele>20.0</ele><time>2026-03-28T16:40:57Z</time></trkpt><trkpt lat="44.952368051277716" lon="10.553690321683545"><ele>20.5</ele><time>2026-03-28T16:40:58Z</time></trkpt><trkpt lat="44.95260712041439" lon="10.553784064619933"><ele>21.0</ele><time>2026-03-28T16:40:59Z</time></trkpt><trkpt lat="44.95284507609175" lon="10.553879417860664"><ele>21.0</ele><time>2026-03-28T16:41:00Z</time></trkpt><trkpt lat="44.953083256181635" lon="10.553974749693538"><ele>21.0</ele><time>2026-03-28T16:41:01Z</time></trkpt><trkpt lat="44.95332379798199" lon="10.554069877706164"><ele>21.0</ele><time>2026-03-28T16:41:02Z</time></trkpt><trkpt lat="44.95356849767374" lon="10.55416642473223"><ele>21.0</ele><time>2026-03-28T16:41:03Z</time></trkpt><trkpt lat="44.95381712282731" lon="10.55425671872354"><ele>21.0</ele><time>2026-03-28T16:41:04Z</time></trkpt><trkpt lat="44.95406749960218" lon="10.554352019331082"><ele>21.0</ele><time>2026-03-28T16:41:05Z</time></trkpt><trkpt lat="44.95431448889832" lon="10.554445662195455"><ele>22.0</ele><time>2026-03-28T16:41:06Z</time></trkpt><trkpt lat="44.954566201097165" lon="10.554534631552524"><ele>23.0</ele><time>2026-03-28T16:41:07Z</time></trkpt><trkpt lat="44.95481707691424" lon="10.554627975670895"><ele>22.5</ele><time>2026-03-28T16:41:08Z</time></trkpt><trkpt lat="44.9550667061833" lon="10.554723589032704"><ele>22.0</ele><time>2026-03-28T16:41:09Z</time></trkpt><trkpt lat="44.95531688414041" lon="10.554820383689048"><ele>22.0</ele><time>2026-03-28T16:41:10Z</time></trkpt><trkpt lat="44.95557117180809" lon="10.554915641611707"><ele>22.0</ele><time>2026-03-28T16:41:11Z</time></trkpt><trkpt lat="44.9558230205364" lon="10.555016079786219"><ele>21.5</ele><time>2026-03-28T16:41:12Z</time></trkpt><trkpt lat="44.956075766385375" lon="10.555114415596945"><ele>21.0</ele><time>2026-03-28T16:41:13Z</time></trkpt><trkpt lat="44.956330072075005" lon="10.555206037063456"><ele>21.0</ele><time>2026-03-28T16:41:14Z</time></trkpt><trkpt lat="44.956583007406905" lon="10.555297978363509"><ele>21.0</ele><time>2026-03-28T16:41:15Z</time></trkpt><trkpt lat="44.95683378016032" lon="10.555390758512964"><ele>20.5</ele><time>2026-03-28T16:41:16Z</time></trkpt><trkpt lat="44.95708238106964" lon="10.555481857497579"><ele>20.0</ele><time>2026-03-28T16:41:17Z</time></trkpt><trkpt lat="44.95733213732518" lon="10.555557698740474"><ele>21.5</ele><time>2026-03-28T16:41:18Z</time></trkpt><trkpt lat="44.9575885574583" lon="10.555611291244634"><ele>23.0</ele><time>2026-03-28T16:41:19Z</time></trkpt><trkpt lat="44.95784533445531" lon="10.555655366469368"><ele>23.0</ele><time>2026-03-28T16:41:20Z</time></trkpt><trkpt lat="44.95809435157477" lon="10.55570601921852"><ele>23.0</ele><time>2026-03-28T16:41:21Z</time></trkpt><trkpt lat="44.95834580323734" lon="10.55576056154653"><ele>22.0</ele><time>2026-03-28T16:41:22Z</time></trkpt><trkpt lat="44.95859598828775" lon="10.555810140275657"><ele>21.0</ele><time>2026-03-28T16:41:23Z</time></trkpt><trkpt lat="44.958843464259076" lon="10.555866143695088"><ele>21.0</ele><time>2026-03-28T16:41:24Z</time></trkpt><trkpt lat="44.95908077537018" lon="10.555941264543133"><ele>21.0</ele><time>2026-03-28T16:41:25Z</time></trkpt><trkpt lat="44.95931276936856" lon="10.556038843551766"><ele>21.5</ele><time>2026-03-28T16:41:26Z</time></trkpt><trkpt lat="44.95953446735383" lon="10.556160802375699"><ele>22.0</ele><time>2026-03-28T16:41:27Z</time></trkpt><trkpt lat="44.95974546590794" lon="10.556321243595457"><ele>22.0</ele><time>2026-03-28T16:41:28Z</time></trkpt><trkpt lat="44.9599467443073" lon="10.556507345295705"><ele>22.0</ele><time>2026-03-28T16:41:29Z</time></trkpt><trkpt lat="44.96013445712582" lon="10.556724417205539"><ele>22.0</ele><time>2026-03-28T16:41:30Z</time></trkpt><trkpt lat="44.960311132681575" lon="10.556959697981858"><ele>22.0</ele><time>2026-03-28T16:41:31Z</time></trkpt><trkpt lat="44.96047749335331" lon="10.55721215668445"><ele>22.5</ele><time>2026-03-28T16:41:32Z</time></trkpt><trkpt lat="44.960632453537976" lon="10.557470731846351"><ele>23.0</ele><time>2026-03-28T16:41:33Z</time></trkpt><trkpt lat="44.96078180827975" lon="10.55773221218853"><ele>22.0</ele><time>2026-03-28T16:41:34Z</time></trkpt><trkpt lat="44.96093489204775" lon="10.557987230271708"><ele>21.0</ele><time>2026-03-28T16:41:35Z</time></trkpt><trkpt lat="44.96109073082296" lon="10.558240594315237"><ele>21.0</ele><time>2026-03-28T16:41:36Z</time></trkpt><trkpt lat="44.961248966268734" lon="10.558491774924347"><ele>21.0</ele><time>2026-03-28T16:41:37Z</time></trkpt><trkpt lat="44.96140660351224" lon="10.558743390218073"><ele>21.0</ele><time>2026-03-28T16:41:38Z</time></trkpt><trkpt lat="44.961561170148016" lon="10.558995697449362"><ele>21.0</ele><time>2026-03-28T16:41:39Z</time></trkpt><trkpt lat="44.9617171713951" lon="10.559255500649918"><ele>21.0</ele><time>2026-03-28T16:41:40Z</time></trkpt><trkpt lat="44.96187555258886" lon="10.559515411744146"><ele>21.0</ele><time>2026-03-28T16:41:41Z</time></trkpt><trkpt lat="44.96203684337357" lon="10.559773649555384"><ele>21.0</ele><time>2026-03-28T16:41:42Z</time></trkpt><trkpt lat="44.96220194057005" lon="10.560028348484265"><ele>21.0</ele><time>2026-03-28T16:41:43Z</time></trkpt><trkpt lat="44.96238377098951" lon="10.5602592865427"><ele>22.0</ele><time>2026-03-28T16:41:44Z</time></trkpt><trkpt lat="44.96259465763813" lon="10.560436742123825"><ele>23.0</ele><time>2026-03-28T16:41:45Z</time></trkpt><trkpt lat="44.96282224673423" lon="10.560567379934957"><ele>23.0</ele><time>2026-03-28T16:41:46Z</time></trkpt><trkpt lat="44.963055844969176" lon="10.56065852098107"><ele>23.0</ele><time>2026-03-28T16:41:47Z</time></trkpt><trkpt lat="44.963286690492524" lon="10.56073464450425"><ele>21.0</ele><time>2026-03-28T16:41:48Z</time></trkpt><trkpt lat="44.963513173816935" lon="10.560821991011682"><ele>19.0</ele><time>2026-03-28T16:41:49Z</time></trkpt><trkpt lat="44.96372874449535" lon="10.560915892104974"><ele>19.0</ele><time>2026-03-28T16:41:50Z</time></trkpt><trkpt lat="44.96394198919489" lon="10.561003026496111"><ele>19.0</ele><time>2026-03-28T16:41:51Z</time></trkpt><trkpt lat="44.96415392429267" lon="10.561085906075371"><ele>19.0</ele><time>2026-03-28T16:41:52Z</time></trkpt><trkpt lat="44.964366055606135" lon="10.56117002443965"><ele>19.666666666666664</ele><time>2026-03-28T16:41:53Z</time></trkpt><trkpt lat="44.96457479886338" lon="10.561255612216135"><ele>20.333333333333332</ele><time>2026-03-28T16:41:54Z</time></trkpt><trkpt lat="44.96478352359125" lon="10.561337817435573"><ele>21.0</ele><time>2026-03-28T16:41:55Z</time></trkpt><trkpt lat="44.96498913817047" lon="10.56142335879509"><ele>21.0</ele><time>2026-03-28T16:41:56Z</time></trkpt><trkpt lat="44.965198413194145" lon="10.561504130857701"><ele>21.0</ele><time>2026-03-28T16:41:57Z</time></trkpt><trkpt lat="44.965405576842564" lon="10.561586082504014"><ele>21.0</ele><time>2026-03-28T16:41:58Z</time></trkpt><trkpt lat="44.96561164611895" lon="10.561666273962"><ele>21.0</ele><time>2026-03-28T16:41:59Z</time></trkpt><trkpt lat="44.965816557575835" lon="10.561747987091348"><ele>21.0</ele><time>2026-03-28T16:42:00Z</time></trkpt><trkpt lat="44.9660193704512" lon="10.561830812622407"><ele>21.0</ele><time>2026-03-28T16:42:01Z</time></trkpt><trkpt lat="44.96621786467645" lon="10.5619110129173"><ele>21.0</ele><time>2026-03-28T16:42:02Z</time></trkpt><trkpt lat="44.96640954646117" lon="10.561987920300233"><ele>21.0</ele><time>2026-03-28T16:42:03Z</time></trkpt><trkpt lat="44.96659155679826" lon="10.562061626611541"><ele>21.0</ele><time>2026-03-28T16:42:04Z</time></trkpt><trkpt lat="44.96675885042955" lon="10.562130665168137"><ele>22.0</ele><time>2026-03-28T16:42:05Z</time></trkpt><trkpt lat="44.96691472704855" lon="10.562196116028503"><ele>23.0</ele><time>2026-03-28T16:42:06Z</time></trkpt><trkpt lat="44.96706268752507" lon="10.562255278020851"><ele>24.0</ele><time>2026-03-28T16:42:07Z</time></trkpt><trkpt lat="44.96721046388396" lon="10.562313973076412"><ele>24.0</ele><time>2026-03-28T16:42:08Z</time></trkpt><trkpt lat="44.96735277019356" lon="10.562371185681632"><ele>24.0</ele><time>2026-03-28T16:42:09Z</time></trkpt><trkpt lat="44.96748700447957" lon="10.562424797389106"><ele>24.0</ele><time>2026-03-28T16:42:10Z</time></trkpt><trkpt lat="44.967609353882175" lon="10.562474176649536"><ele>24.0</ele><time>2026-03-28T16:42:11Z</time></trkpt><trkpt lat="44.967723102539374" lon="10.562518674563114"><ele>23.75</ele><time>2026-03-28T16:42:12Z</time></trkpt><trkpt lat="44.96783810150572" lon="10.562558927552244"><ele>23.5</ele><time>2026-03-28T16:42:13Z</time></trkpt><trkpt lat="44.967950430760446" lon="10.562602831994639"><ele>23.25</ele><time>2026-03-28T16:42:14Z</time></trkpt><trkpt lat="44.96806344710132" lon="10.562645233816687"><ele>23.0</ele><time>2026-03-28T16:42:15Z</time></trkpt><trkpt lat="44.968176810209" lon="10.562689095949608"><ele>23.0</ele><time>2026-03-28T16:42:16Z</time></trkpt><trkpt lat="44.968288292610566" lon="10.562734254306976"><ele>23.0</ele><time>2026-03-28T16:42:17Z</time></trkpt><trkpt lat="44.96839983076936" lon="10.562779812232284"><ele>23.0</ele><time>2026-03-28T16:42:18Z</time></trkpt><trkpt lat="44.96851263630624" lon="10.56282807047161"><ele>23.0</ele><time>2026-03-28T16:42:19Z</time></trkpt><trkpt lat="44.9686245236431" lon="10.562878995458338"><ele>22.75</ele><time>2026-03-28T16:42:20Z</time></trkpt><trkpt lat="44.96873736233257" lon="10.56292140603145"><ele>22.5</ele><time>2026-03-28T16:42:21Z</time></trkpt><trkpt lat="44.96885142840251" lon="10.56296494002088"><ele>22.25</ele><time>2026-03-28T16:42:22Z</time></trkpt><trkpt lat="44.968963419523845" lon="10.563015361097445"><ele>22.0</ele><time>2026-03-28T16:42:23Z</time></trkpt><trkpt lat="44.969075770253504" lon="10.563065648018071"><ele>21.75</ele><time>2026-03-28T16:42:24Z</time></trkpt><trkpt lat="44.96919324880587" lon="10.563118012184159"><ele>21.5</ele><time>2026-03-28T16:42:25Z</time></trkpt><trkpt lat="44.96931232843272" lon="10.563168171996123"><ele>21.25</ele><time>2026-03-28T16:42:26Z</time></trkpt><trkpt lat="44.9694350640177" lon="10.563222635926655"><ele>21.0</ele><time>2026-03-28T16:42:27Z</time></trkpt><trkpt lat="44.969554248972905" lon="10.56328284733174"><ele>21.0</ele><time>2026-03-28T16:42:28Z</time></trkpt><trkpt lat="44.96967446521681" lon="10.563350428888432"><ele>21.0</ele><time>2026-03-28T16:42:29Z</time></trkpt><trkpt lat="44.96979490356555" lon="10.563421534551646"><ele>21.0</ele><time>2026-03-28T16:42:30Z</time></trkpt><trkpt lat="44.96992228050202" lon="10.563497912427453"><ele>21.0</ele><time>2026-03-28T16:42:31Z</time></trkpt><trkpt lat="44.97005298531992" lon="10.563581623451448"><ele>21.333333333333332</ele><time>2026-03-28T16:42:32Z</time></trkpt><trkpt lat="44.97019081993624" lon="10.563660564268432"><ele>21.666666666666664</ele><time>2026-03-28T16:42:33Z</time></trkpt><trkpt lat="44.9703329412726" lon="10.563743743575724"><ele>22.0</ele><time>2026-03-28T16:42:34Z</time></trkpt><trkpt lat="44.97048039227342" lon="10.563833107926763"><ele>22.333333333333332</ele><time>2026-03-28T16:42:35Z</time></trkpt><trkpt lat="44.97063297432403" lon="10.56392819517574"><ele>22.666666666666668</ele><time>2026-03-28T16:42:36Z</time></trkpt><trkpt lat="44.9707845092255" lon="10.564020246250907"><ele>23.0</ele><time>2026-03-28T16:42:37Z</time></trkpt><trkpt lat="44.97092770853093" lon="10.56410827747228"><ele>22.5</ele><time>2026-03-28T16:42:38Z</time></trkpt><trkpt lat="44.971067423991805" lon="10.56419253255459"><ele>22.0</ele><time>2026-03-28T16:42:39Z</time></trkpt><trkpt lat="44.971200064046194" lon="10.56427256508136"><ele>21.5</ele><time>2026-03-28T16:42:40Z</time></trkpt><trkpt lat="44.971334253988594" lon="10.56435377352321"><ele>21.0</ele><time>2026-03-28T16:42:41Z</time></trkpt><trkpt lat="44.97146429863452" lon="10.56443411035884"><ele>21.0</ele><time>2026-03-28T16:42:42Z</time></trkpt><trkpt lat="44.971593814540775" lon="10.564513788569107"><ele>21.0</ele><time>2026-03-28T16:42:43Z</time></trkpt><trkpt lat="44.971728515660295" lon="10.564591705491788"><ele>21.0</ele><time>2026-03-28T16:42:44Z</time></trkpt><trkpt lat="44.97187205935225" lon="10.564678711891784"><ele>21.0</ele><time>2026-03-28T16:42:45Z</time></trkpt><trkpt lat="44.972028401950645" lon="10.5647740062212"><ele>20.666666666666668</ele><time>2026-03-28T16:42:46Z</time></trkpt><trkpt lat="44.97219678016293" lon="10.564875052877252"><ele>20.333333333333336</ele><time>2026-03-28T16:42:47Z</time></trkpt><trkpt lat="44.97237602932034" lon="10.564982451325347"><ele>20.0</ele><time>2026-03-28T16:42:48Z</time></trkpt><trkpt lat="44.97256221814927" lon="10.56508994034806"><ele>20.0</ele><time>2026-03-28T16:42:49Z</time></trkpt><trkpt lat="44.9727590203784" lon="10.565213200747456"><ele>20.0</ele><time>2026-03-28T16:42:50Z</time></trkpt><trkpt lat="44.97295836700461" lon="10.565337088214207"><ele>20.0</ele><time>2026-03-28T16:42:51Z</time></trkpt><trkpt lat="44.97316633201668" lon="10.565462352304229"><ele>20.0</ele><time>2026-03-28T16:42:52Z</time></trkpt><trkpt lat="44.97338214570201" lon="10.565588047579434"><ele>20.0</ele><time>2026-03-28T16:42:53Z</time></trkpt><trkpt lat="44.97360009514441" lon="10.565720656977737"><ele>20.0</ele><time>2026-03-28T16:42:54Z</time></trkpt><trkpt lat="44.97382143740924" lon="10.565856426202505"><ele>20.0</ele><time>2026-03-28T16:42:55Z</time></trkpt><trkpt lat="44.97404414468502" lon="10.565992954695655"><ele>21.0</ele><time>2026-03-28T16:42:56Z</time></trkpt><trkpt lat="44.97426672384099" lon="10.566129466214633"><ele>22.0</ele><time>2026-03-28T16:42:57Z</time></trkpt><trkpt lat="44.97449168886174" lon="10.56626644721712"><ele>22.0</ele><time>2026-03-28T16:42:58Z</time></trkpt><trkpt lat="44.974714423760645" lon="10.56640100908118"><ele>22.0</ele><time>2026-03-28T16:42:59Z</time></trkpt><trkpt lat="44.97493691576595" lon="10.566533645901014"><ele>21.0</ele><time>2026-03-28T16:43:00Z</time></trkpt><trkpt lat="44.9751600237158" lon="10.566665201596491"><ele>20.0</ele><time>2026-03-28T16:43:01Z</time></trkpt><trkpt lat="44.97538053281367" lon="10.56679875501252"><ele>20.0</ele><time>2026-03-28T16:43:02Z</time></trkpt><trkpt lat="44.97559726441602" lon="10.566931672601662"><ele>20.0</ele><time>2026-03-28T16:43:03Z</time></trkpt><trkpt lat="44.9758107533926" lon="10.567064457656224"><ele>20.333333333333336</ele><time>2026-03-28T16:43:04Z</time></trkpt><trkpt lat="44.97601653201892" lon="10.567189997571987"><ele>20.666666666666668</ele><time>2026-03-28T16:43:05Z</time></trkpt><trkpt lat="44.97622357945458" lon="10.567309761901972"><ele>21.0</ele><time>2026-03-28T16:43:06Z</time></trkpt><trkpt lat="44.97643684883426" lon="10.567430552833866"><ele>21.0</ele><time>2026-03-28T16:43:07Z</time></trkpt><trkpt lat="44.976648703825255" lon="10.56753646338458"><ele>21.0</ele><time>2026-03-28T16:43:08Z</time></trkpt><trkpt lat="44.97686856919037" lon="10.567622263753517"><ele>21.0</ele><time>2026-03-28T16:43:09Z</time></trkpt><trkpt lat="44.97709593955513" lon="10.56768158184124"><ele>21.0</ele><time>2026-03-28T16:43:10Z</time></trkpt><trkpt lat="44.977326006653946" lon="10.567724522902672"><ele>21.0</ele><time>2026-03-28T16:43:11Z</time></trkpt><trkpt lat="44.97755660004722" lon="10.567760426894875"><ele>21.0</ele><time>2026-03-28T16:43:12Z</time></trkpt><trkpt lat="44.97778971008754" lon="10.5678041279492"><ele>21.0</ele><time>2026-03-28T16:43:13Z</time></trkpt><trkpt lat="44.978021176754375" lon="10.56784754089641"><ele>21.0</ele><time>2026-03-28T16:43:14Z</time></trkpt><trkpt lat="44.978254909898865" lon="10.567888157133467"><ele>20.0</ele><time>2026-03-28T16:43:15Z</time></trkpt><trkpt lat="44.978489026013406" lon="10.567926352158436"><ele>19.0</ele><time>2026-03-28T16:43:16Z</time></trkpt><trkpt lat="44.978728113748105" lon="10.567966074944394"><ele>19.0</ele><time>2026-03-28T16:43:17Z</time></trkpt><trkpt lat="44.97895942783" lon="10.568011580510396"><ele>19.0</ele><time>2026-03-28T16:43:18Z</time></trkpt><trkpt lat="44.97918849048585" lon="10.568061601022412"><ele>19.0</ele><time>2026-03-28T16:43:19Z</time></trkpt><trkpt lat="44.97941978654465" lon="10.568109668051738"><ele>19.0</ele><time>2026-03-28T16:43:20Z</time></trkpt><trkpt lat="44.97965325134518" lon="10.56816153854953"><ele>19.0</ele><time>2026-03-28T16:43:21Z</time></trkpt><trkpt lat="44.97988633722794" lon="10.56821926924861"><ele>19.0</ele><time>2026-03-28T16:43:22Z</time></trkpt><trkpt lat="44.980121459504005" lon="10.56828203285907"><ele>19.5</ele><time>2026-03-28T16:43:23Z</time></trkpt><trkpt lat="44.980356821552974" lon="10.568343083318783"><ele>20.0</ele><time>2026-03-28T16:43:24Z</time></trkpt><trkpt lat="44.98059648653289" lon="10.56839900667859"><ele>20.0</ele><time>2026-03-28T16:43:25Z</time></trkpt><trkpt lat="44.98083540866122" lon="10.568456766159471"><ele>20.0</ele><time>2026-03-28T16:43:26Z</time></trkpt><trkpt lat="44.98107619986676" lon="10.568516102190424"><ele>20.0</ele><time>2026-03-28T16:43:27Z</time></trkpt><trkpt lat="44.98131707772798" lon="10.56857958596573"><ele>20.0</ele><time>2026-03-28T16:43:28Z</time></trkpt><trkpt lat="44.98155959391506" lon="10.568643679749789"><ele>19.5</ele><time>2026-03-28T16:43:29Z</time></trkpt><trkpt lat="44.98180408894467" lon="10.568707716529532"><ele>19.0</ele><time>2026-03-28T16:43:30Z</time></trkpt><trkpt lat="44.98204776757019" lon="10.56876871984381"><ele>19.0</ele><time>2026-03-28T16:43:31Z</time></trkpt><trkpt lat="44.982287928866334" lon="10.568833889476654"><ele>19.0</ele><time>2026-03-28T16:43:32Z</time></trkpt><trkpt lat="44.98252570490887" lon="10.568897251411405"><ele>19.0</ele><time>2026-03-28T16:43:33Z</time></trkpt><trkpt lat="44.98275916208214" lon="10.56896300039861"><ele>19.0</ele><time>2026-03-28T16:43:34Z</time></trkpt><trkpt lat="44.98298410337105" lon="10.569053302262967"><ele>19.0</ele><time>2026-03-28T16:43:35Z</time></trkpt><trkpt lat="44.983205798262325" lon="10.569175704319418"><ele>19.0</ele><time>2026-03-28T16:43:36Z</time></trkpt><trkpt lat="44.98342315791181" lon="10.569318194761625"><ele>19.5</ele><time>2026-03-28T16:43:37Z</time></trkpt><trkpt lat="44.98363966923916" lon="10.569474420912831"><ele>20.0</ele><time>2026-03-28T16:43:38Z</time></trkpt><trkpt lat="44.98385101437406" lon="10.56964615291612"><ele>20.5</ele><time>2026-03-28T16:43:39Z</time></trkpt><trkpt lat="44.984057997228604" lon="10.569835895913478"><ele>21.0</ele><time>2026-03-28T16:43:40Z</time></trkpt><trkpt lat="44.984256674260266" lon="10.57004040024348"><ele>20.5</ele><time>2026-03-28T16:43:41Z</time></trkpt><trkpt lat="44.984451580566976" lon="10.57023792205735"><ele>20.0</ele><time>2026-03-28T16:43:42Z</time></trkpt><trkpt lat="44.984651518882984" lon="10.570452711534953"><ele>20.0</ele><time>2026-03-28T16:43:43Z</time></trkpt><trkpt lat="44.98485304948729" lon="10.57065333757832"><ele>20.0</ele><time>2026-03-28T16:43:44Z</time></trkpt><trkpt lat="44.98505486133585" lon="10.5708575899445"><ele>20.0</ele><time>2026-03-28T16:43:45Z</time></trkpt><trkpt lat="44.985257646720385" lon="10.5710665010924"><ele>20.0</ele><time>2026-03-28T16:43:46Z</time></trkpt><trkpt lat="44.98545683906068" lon="10.571271606863075"><ele>20.0</ele><time>2026-03-28T16:43:47Z</time></trkpt><trkpt lat="44.98565882826453" lon="10.571476987830371"><ele>20.0</ele><time>2026-03-28T16:43:48Z</time></trkpt><trkpt lat="44.985858991726566" lon="10.571679957527037"><ele>20.0</ele><time>2026-03-28T16:43:49Z</time></trkpt><trkpt lat="44.98606191580543" lon="10.57188632343298"><ele>20.0</ele><time>2026-03-28T16:43:50Z</time></trkpt><trkpt lat="44.98626041343858" lon="10.572092262623377"><ele>20.0</ele><time>2026-03-28T16:43:51Z</time></trkpt><trkpt lat="44.986461858144274" lon="10.57229926022792"><ele>20.0</ele><time>2026-03-28T16:43:52Z</time></trkpt><trkpt lat="44.986667838744424" lon="10.57248980304884"><ele>20.0</ele><time>2026-03-28T16:43:53Z</time></trkpt><trkpt lat="44.986863975991426" lon="10.572710300880502"><ele>20.0</ele><time>2026-03-28T16:43:54Z</time></trkpt><trkpt lat="44.98706446698159" lon="10.57291184764572"><ele>20.5</ele><time>2026-03-28T16:43:55Z</time></trkpt><trkpt lat="44.987263788945626" lon="10.573117751736282"><ele>21.0</ele><time>2026-03-28T16:43:56Z</time></trkpt><trkpt lat="44.987460153070245" lon="10.573321401844527"><ele>20.5</ele><time>2026-03-28T16:43:57Z</time></trkpt><trkpt lat="44.98765746359345" lon="10.573525814165892"><ele>20.0</ele><time>2026-03-28T16:43:58Z</time></trkpt><trkpt lat="44.98784790475852" lon="10.57372230910611"><ele>18.5</ele><time>2026-03-28T16:43:59Z</time></trkpt><trkpt lat="44.98803511602526" lon="10.57391443209698"><ele>17.0</ele><time>2026-03-28T16:44:00Z</time></trkpt><trkpt lat="44.988221939949646" lon="10.574101459696626"><ele>17.0</ele><time>2026-03-28T16:44:01Z</time></trkpt><trkpt lat="44.98840300014653" lon="10.57427952229905"><ele>17.0</ele><time>2026-03-28T16:44:02Z</time></trkpt><trkpt lat="44.9885826688046" lon="10.574463073910694"><ele>17.0</ele><time>2026-03-28T16:44:03Z</time></trkpt><trkpt lat="44.988756219159654" lon="10.574645705997114"><ele>17.666666666666668</ele><time>2026-03-28T16:44:04Z</time></trkpt><trkpt lat="44.98892773043134" lon="10.574823153875304"><ele>18.333333333333332</ele><time>2026-03-28T16:44:05Z</time></trkpt><trkpt lat="44.98909084682997" lon="10.574989814554641"><ele>19.0</ele><time>2026-03-28T16:44:06Z</time></trkpt><trkpt lat="44.989255098575825" lon="10.575156467499582"><ele>19.333333333333332</ele><time>2026-03-28T16:44:07Z</time></trkpt><trkpt lat="44.98941407538698" lon="10.575319222098022"><ele>19.666666666666668</ele><time>2026-03-28T16:44:08Z</time></trkpt><trkpt lat="44.98957005895296" lon="10.57547618007727"><ele>20.0</ele><time>2026-03-28T16:44:09Z</time></trkpt><trkpt lat="44.98971883107978" lon="10.575634498591644"><ele>20.0</ele><time>2026-03-28T16:44:10Z</time></trkpt><trkpt lat="44.98986971465641" lon="10.575787505277619"><ele>20.0</ele><time>2026-03-28T16:44:11Z</time></trkpt><trkpt lat="44.990019441703375" lon="10.575938386270105"><ele>20.0</ele><time>2026-03-28T16:44:12Z</time></trkpt><trkpt lat="44.99016827167701" lon="10.576096947128326"><ele>20.0</ele><time>2026-03-28T16:44:13Z</time></trkpt><trkpt lat="44.990321846238935" lon="10.576253114666052"><ele>20.0</ele><time>2026-03-28T16:44:14Z</time></trkpt><trkpt lat="44.99047307961359" lon="10.576408545876001"><ele>20.0</ele><time>2026-03-28T16:44:15Z</time></trkpt><trkpt lat="44.990624902375004" lon="10.576566484423514"><ele>20.0</ele><time>2026-03-28T16:44:16Z</time></trkpt><trkpt lat="44.990767580311264" lon="10.576713332073547"><ele>20.0</ele><time>2026-03-28T16:44:17Z</time></trkpt><trkpt lat="44.99091031359452" lon="10.57685791954479"><ele>20.0</ele><time>2026-03-28T16:44:18Z</time></trkpt><trkpt lat="44.991051945412515" lon="10.577001739287756"><ele>19.666666666666668</ele><time>2026-03-28T16:44:19Z</time></trkpt><trkpt lat="44.991196068489884" lon="10.577146488957252"><ele>19.333333333333332</ele><time>2026-03-28T16:44:20Z</time></trkpt><trkpt lat="44.99133834362532" lon="10.577295538179515"><ele>19.0</ele><time>2026-03-28T16:44:21Z</time></trkpt><trkpt lat="44.9914809013561" lon="10.577440866705611"><ele>19.0</ele><time>2026-03-28T16:44:22Z</time></trkpt><trkpt lat="44.99161861433325" lon="10.57758036350092"><ele>19.0</ele><time>2026-03-28T16:44:23Z</time></trkpt><trkpt lat="44.99175213361705" lon="10.577718138957735"><ele>19.0</ele><time>2026-03-28T16:44:24Z</time></trkpt><trkpt lat="44.991879203245524" lon="10.577848032671143"><ele>19.5</ele><time>2026-03-28T16:44:25Z</time></trkpt><trkpt lat="44.992002263604974" lon="10.57796915106832"><ele>20.0</ele><time>2026-03-28T16:44:26Z</time></trkpt><trkpt lat="44.99212066426279" lon="10.578089908865099"><ele>20.5</ele><time>2026-03-28T16:44:27Z</time></trkpt><trkpt lat="44.99223729745333" lon="10.578207046811091"><ele>21.0</ele><time>2026-03-28T16:44:28Z</time></trkpt><trkpt lat="44.992352459886476" lon="10.578326762490093"><ele>21.0</ele><time>2026-03-28T16:44:29Z</time></trkpt><trkpt lat="44.992463771941324" lon="10.578441424972798"><ele>21.0</ele><time>2026-03-28T16:44:30Z</time></trkpt><trkpt lat="44.99257639480123" lon="10.578555720192014"><ele>21.0</ele><time>2026-03-28T16:44:31Z</time></trkpt><trkpt lat="44.99269210849016" lon="10.578671167945105"><ele>21.0</ele><time>2026-03-28T16:44:32Z</time></trkpt><trkpt lat="44.99281095121614" lon="10.578794421155287"><ele>21.0</ele><time>2026-03-28T16:44:33.001Z</time></trkpt><trkpt lat="44.99293437310351" lon="10.578916477713365"><ele>21.0</ele><time>2026-03-28T16:44:34.001Z</time></trkpt><trkpt lat="44.99305927437766" lon="10.579047119183826"><ele>21.0</ele><time>2026-03-28T16:44:35.001Z</time></trkpt><trkpt lat="44.9931865335798" lon="10.579176437990336"><ele>21.0</ele><time>2026-03-28T16:44:36.001Z</time></trkpt><trkpt lat="44.99331459859109" lon="10.579305261345445"><ele>21.0</ele><time>2026-03-28T16:44:37.001Z</time></trkpt><trkpt lat="44.99344351063316" lon="10.579438680018585"><ele>21.0</ele><time>2026-03-28T16:44:38.001Z</time></trkpt><trkpt lat="44.99357393458932" lon="10.579569296758846"><ele>21.0</ele><time>2026-03-28T16:44:39.001Z</time></trkpt><trkpt lat="44.993703722854704" lon="10.579707121498684"><ele>21.0</ele><time>2026-03-28T16:44:40.001Z</time></trkpt><trkpt lat="44.99383750282659" lon="10.579839608030026"><ele>21.0</ele><time>2026-03-28T16:44:41.001Z</time></trkpt><trkpt lat="44.9939709423231" lon="10.579977640965597"><ele>21.0</ele><time>2026-03-28T16:44:42Z</time></trkpt><trkpt lat="44.99410580418477" lon="10.580111979816571"><ele>21.0</ele><time>2026-03-28T16:44:43Z</time></trkpt><trkpt lat="44.99423492494767" lon="10.580246775868607"><ele>21.0</ele><time>2026-03-28T16:44:44Z</time></trkpt><trkpt lat="44.99435284676077" lon="10.580368371162141"><ele>21.0</ele><time>2026-03-28T16:44:45Z</time></trkpt><trkpt lat="44.99446968507118" lon="10.58049126070637"><ele>21.0</ele><time>2026-03-28T16:44:46Z</time></trkpt><trkpt lat="44.994584948914955" lon="10.580610039751086"><ele>21.0</ele><time>2026-03-28T16:44:47Z</time></trkpt><trkpt lat="44.99470043759518" lon="10.580722019061522"><ele>21.0</ele><time>2026-03-28T16:44:48Z</time></trkpt><trkpt lat="44.994814749388894" lon="10.58083611439432"><ele>21.0</ele><time>2026-03-28T16:44:49Z</time></trkpt><trkpt lat="44.9949250690364" lon="10.580951830834566"><ele>21.0</ele><time>2026-03-28T16:44:50Z</time></trkpt><trkpt lat="44.99502935299086" lon="10.581058315513234"><ele>21.0</ele><time>2026-03-28T16:44:51Z</time></trkpt><trkpt lat="44.99512869890239" lon="10.581157085572151"><ele>21.0</ele><time>2026-03-28T16:44:52Z</time></trkpt><trkpt lat="44.99522100529854" lon="10.58125757540011"><ele>21.25</ele><time>2026-03-28T16:44:53Z</time></trkpt><trkpt lat="44.99531446140633" lon="10.581355078130354"><ele>21.5</ele><time>2026-03-28T16:44:54Z</time></trkpt><trkpt lat="44.99540803360829" lon="10.581452161774655"><ele>21.75</ele><time>2026-03-28T16:44:55Z</time></trkpt><trkpt lat="44.99550395883792" lon="10.581550096835024"><ele>22.0</ele><time>2026-03-28T16:44:56Z</time></trkpt><trkpt lat="44.99560510326239" lon="10.58165555725248"><ele>22.0</ele><time>2026-03-28T16:44:57Z</time></trkpt><trkpt lat="44.995708438347755" lon="10.581763998250949"><ele>22.0</ele><time>2026-03-28T16:44:58Z</time></trkpt><trkpt lat="44.99581845992283" lon="10.581874457941973"><ele>22.0</ele><time>2026-03-28T16:44:59Z</time></trkpt><trkpt lat="44.9959315027763" lon="10.581979708394483"><ele>22.0</ele><time>2026-03-28T16:45:00Z</time></trkpt><trkpt lat="44.99604918062282" lon="10.58206515053179"><ele>21.5</ele><time>2026-03-28T16:45:01Z</time></trkpt><trkpt lat="44.99617924543646" lon="10.582128946825168"><ele>21.0</ele><time>2026-03-28T16:45:02Z</time></trkpt><trkpt lat="44.99631777734891" lon="10.582175409471969"><ele>20.5</ele><time>2026-03-28T16:45:03Z</time></trkpt><trkpt lat="44.99646068178066" lon="10.582201168068359"><ele>20.0</ele><time>2026-03-28T16:45:04Z</time></trkpt><trkpt lat="44.996610339385555" lon="10.582206805041848"><ele>20.0</ele><time>2026-03-28T16:45:05Z</time></trkpt><trkpt lat="44.99676392066796" lon="10.582183256739317"><ele>20.0</ele><time>2026-03-28T16:45:06Z</time></trkpt><trkpt lat="44.996913557591995" lon="10.582147791069245"><ele>20.0</ele><time>2026-03-28T16:45:07Z</time></trkpt><trkpt lat="44.99705941148479" lon="10.582105669101878"><ele>20.0</ele><time>2026-03-28T16:45:08Z</time></trkpt><trkpt lat="44.99720511644438" lon="10.582072116015501"><ele>20.0</ele><time>2026-03-28T16:45:09Z</time></trkpt><trkpt lat="44.99734717799196" lon="10.582065488568048"><ele>20.0</ele><time>2026-03-28T16:45:10Z</time></trkpt><trkpt lat="44.99748558610351" lon="10.582091879541288"><ele>20.0</ele><time>2026-03-28T16:45:11Z</time></trkpt><trkpt lat="44.99761421416465" lon="10.582138203479976"><ele>20.0</ele><time>2026-03-28T16:45:12Z</time></trkpt><trkpt lat="44.99774305229125" lon="10.582202579384097"><ele>20.0</ele><time>2026-03-28T16:45:13Z</time></trkpt><trkpt lat="44.997863676000506" lon="10.58228026556941"><ele>20.0</ele><time>2026-03-28T16:45:14Z</time></trkpt><trkpt lat="44.99798090510639" lon="10.582371587995159"><ele>20.0</ele><time>2026-03-28T16:45:15Z</time></trkpt><trkpt lat="44.99809527627764" lon="10.582473496257661"><ele>20.0</ele><time>2026-03-28T16:45:16Z</time></trkpt><trkpt lat="44.99821080441828" lon="10.58257674291559"><ele>20.0</ele><time>2026-03-28T16:45:17Z</time></trkpt><trkpt lat="44.998328249823466" lon="10.582678221412127"><ele>20.0</ele><time>2026-03-28T16:45:18Z</time></trkpt><trkpt lat="44.9984491886881" lon="10.582781749055934"><ele>20.0</ele><time>2026-03-28T16:45:19Z</time></trkpt><trkpt lat="44.998572247312325" lon="10.58288658787501"><ele>20.5</ele><time>2026-03-28T16:45:20Z</time></trkpt><trkpt lat="44.998694394641134" lon="10.58299527374022"><ele>21.0</ele><time>2026-03-28T16:45:21Z</time></trkpt><trkpt lat="44.99881046776819" lon="10.583111638848225"><ele>21.5</ele><time>2026-03-28T16:45:22Z</time></trkpt><trkpt lat="44.998916987436594" lon="10.583237893467826"><ele>22.0</ele><time>2026-03-28T16:45:23Z</time></trkpt><trkpt lat="44.99900874438751" lon="10.583373867287847"><ele>22.0</ele><time>2026-03-28T16:45:24Z</time></trkpt><trkpt lat="44.99909126482766" lon="10.583512671154637"><ele>22.0</ele><time>2026-03-28T16:45:25Z</time></trkpt><trkpt lat="44.99916024527224" lon="10.583657773762289"><ele>22.0</ele><time>2026-03-28T16:45:26Z</time></trkpt><trkpt lat="44.999222193779744" lon="10.583814803092528"><ele>22.0</ele><time>2026-03-28T16:45:27Z</time></trkpt><trkpt lat="44.99928640080797" lon="10.583979153676042"><ele>21.0</ele><time>2026-03-28T16:45:28Z</time></trkpt><trkpt lat="44.99935767084229" lon="10.584153424544533"><ele>20.0</ele><time>2026-03-28T16:45:29Z</time></trkpt><trkpt lat="44.99943322641695" lon="10.5843424469954"><ele>19.0</ele><time>2026-03-28T16:45:30Z</time></trkpt><trkpt lat="44.999510032503196" lon="10.584537084470655"><ele>18.666666666666664</ele><time>2026-03-28T16:45:31Z</time></trkpt><trkpt lat="44.99958810175276" lon="10.584736426551556"><ele>18.333333333333332</ele><time>2026-03-28T16:45:32Z</time></trkpt><trkpt lat="44.999670586568286" lon="10.584945764564958"><ele>18.0</ele><time>2026-03-28T16:45:33Z</time></trkpt><trkpt lat="44.99975629929108" lon="10.585165628341981"><ele>18.0</ele><time>2026-03-28T16:45:34Z</time></trkpt><trkpt lat="44.99984736749085" lon="10.58538827178508"><ele>18.0</ele><time>2026-03-28T16:45:35Z</time></trkpt><trkpt lat="44.99993984349006" lon="10.585609141355922"><ele>18.0</ele><time>2026-03-28T16:45:36Z</time></trkpt><trkpt lat="45.000035666436816" lon="10.585837168800516"><ele>18.0</ele><time>2026-03-28T16:45:37Z</time></trkpt><trkpt lat="45.000133297689466" lon="10.586078915347635"><ele>18.0</ele><time>2026-03-28T16:45:38Z</time></trkpt><trkpt lat="45.000238207461486" lon="10.586369156783318"><ele>18.0</ele><time>2026-03-28T16:45:39Z</time></trkpt><trkpt lat="45.00036503458435" lon="10.58668213053661"><ele>17.5</ele><time>2026-03-28T16:45:40Z</time></trkpt><trkpt lat="45.00049785195137" lon="10.586975012368693"><ele>17.0</ele><time>2026-03-28T16:45:41Z</time></trkpt><trkpt lat="45.00060361091831" lon="10.587267433425565"><ele>16.666666666666668</ele><time>2026-03-28T16:45:42Z</time></trkpt><trkpt lat="45.00070338362797" lon="10.587539782228843"><ele>16.333333333333332</ele><time>2026-03-28T16:45:43Z</time></trkpt><trkpt lat="45.00079924965921" lon="10.5878060167566"><ele>16.0</ele><time>2026-03-28T16:45:44Z</time></trkpt><trkpt lat="45.00089357744477" lon="10.588077988103064"><ele>16.666666666666664</ele><time>2026-03-28T16:45:45Z</time></trkpt><trkpt lat="45.00098507679143" lon="10.58835109217119"><ele>17.333333333333332</ele><time>2026-03-28T16:45:46Z</time></trkpt><trkpt lat="45.001064381262125" lon="10.588616628282113"><ele>18.0</ele><time>2026-03-28T16:45:47Z</time></trkpt><trkpt lat="45.001144181825765" lon="10.588877169263537"><ele>18.0</ele><time>2026-03-28T16:45:48Z</time></trkpt><trkpt lat="45.00122562751232" lon="10.589130581549103"><ele>18.0</ele><time>2026-03-28T16:45:49Z</time></trkpt><trkpt lat="45.001304375989825" lon="10.58938048396599"><ele>18.0</ele><time>2026-03-28T16:45:50Z</time></trkpt><trkpt lat="45.00138609221638" lon="10.58963045271126"><ele>17.666666666666668</ele><time>2026-03-28T16:45:51Z</time></trkpt><trkpt lat="45.00146394939363" lon="10.589885780416333"><ele>17.333333333333336</ele><time>2026-03-28T16:45:52Z</time></trkpt><trkpt lat="45.001538723109554" lon="10.59013253268064"><ele>17.0</ele><time>2026-03-28T16:45:53Z</time></trkpt><trkpt lat="45.001613870604935" lon="10.59037494167093"><ele>17.333333333333336</ele><time>2026-03-28T16:45:54Z</time></trkpt><trkpt lat="45.00168921833134" lon="10.590616134170295"><ele>17.666666666666668</ele><time>2026-03-28T16:45:55Z</time></trkpt><trkpt lat="45.001768358000554" lon="10.590859208005263"><ele>18.0</ele><time>2026-03-28T16:45:56Z</time></trkpt><trkpt lat="45.001846263987204" lon="10.591101825350915"><ele>18.333333333333332</ele><time>2026-03-28T16:45:57Z</time></trkpt><trkpt lat="45.00192807658636" lon="10.591352591532909"><ele>18.666666666666664</ele><time>2026-03-28T16:45:58Z</time></trkpt><trkpt lat="45.0020179389465" lon="10.591617194517596"><ele>19.0</ele><time>2026-03-28T16:45:59Z</time></trkpt><trkpt lat="45.00209537825848" lon="10.591912436999916"><ele>19.0</ele><time>2026-03-28T16:46:00Z</time></trkpt><trkpt lat="45.00219973621217" lon="10.592242124219167"><ele>19.0</ele><time>2026-03-28T16:46:01Z</time></trkpt><trkpt lat="45.00231651896414" lon="10.592610952872755"><ele>19.0</ele><time>2026-03-28T16:46:02Z</time></trkpt><trkpt lat="45.002435902128006" lon="10.592987994266528"><ele>19.0</ele><time>2026-03-28T16:46:03Z</time></trkpt><trkpt lat="45.002568428060236" lon="10.593363098153143"><ele>19.5</ele><time>2026-03-28T16:46:04Z</time></trkpt><trkpt lat="45.00268003911756" lon="10.59374146621198"><ele>20.0</ele><time>2026-03-28T16:46:05Z</time></trkpt><trkpt lat="45.00279521058583" lon="10.594115564330124"><ele>20.0</ele><time>2026-03-28T16:46:06Z</time></trkpt><trkpt lat="45.002897488623226" lon="10.59448680460396"><ele>20.0</ele><time>2026-03-28T16:46:07Z</time></trkpt><trkpt lat="45.002965658178056" lon="10.59484840793194"><ele>20.0</ele><time>2026-03-28T16:46:08Z</time></trkpt><trkpt lat="45.00300803484213" lon="10.595213023346979"><ele>20.0</ele><time>2026-03-28T16:46:09Z</time></trkpt><trkpt lat="45.00303759704454" lon="10.595578653877896"><ele>20.0</ele><time>2026-03-28T16:46:10Z</time></trkpt><trkpt lat="45.003069082874624" lon="10.595944923722252"><ele>20.0</ele><time>2026-03-28T16:46:11Z</time></trkpt><trkpt lat="45.00310357305321" lon="10.59630882602962"><ele>20.0</ele><time>2026-03-28T16:46:12Z</time></trkpt><trkpt lat="45.00314128893342" lon="10.596667077862106"><ele>20.0</ele><time>2026-03-28T16:46:13Z</time></trkpt><trkpt lat="45.00317773444244" lon="10.597013264000504"><ele>20.0</ele><time>2026-03-28T16:46:14Z</time></trkpt><trkpt lat="45.003213215602585" lon="10.597348025163152"><ele>20.0</ele><time>2026-03-28T16:46:15Z</time></trkpt><trkpt lat="45.003247638514594" lon="10.597668364626447"><ele>19.5</ele><time>2026-03-28T16:46:16Z</time></trkpt><trkpt lat="45.00328912957555" lon="10.597981942904916"><ele>19.0</ele><time>2026-03-28T16:46:17Z</time></trkpt><trkpt lat="45.003346597449564" lon="10.598294757128327"><ele>19.0</ele><time>2026-03-28T16:46:18Z</time></trkpt><trkpt lat="45.0034277688449" lon="10.59860178773111"><ele>19.0</ele><time>2026-03-28T16:46:19Z</time></trkpt><trkpt lat="45.00354303308088" lon="10.598896980759095"><ele>18.5</ele><time>2026-03-28T16:46:20Z</time></trkpt><trkpt lat="45.003675623035356" lon="10.59917752518569"><ele>18.0</ele><time>2026-03-28T16:46:21Z</time></trkpt><trkpt lat="45.00382306313357" lon="10.599452560712919"><ele>18.0</ele><time>2026-03-28T16:46:22Z</time></trkpt><trkpt lat="45.00397202555291" lon="10.599729030292847"><ele>18.0</ele><time>2026-03-28T16:46:23Z</time></trkpt><trkpt lat="45.00411453663931" lon="10.600006944835647"><ele>18.0</ele><time>2026-03-28T16:46:24Z</time></trkpt><trkpt lat="45.00425398894574" lon="10.60028482757194"><ele>18.0</ele><time>2026-03-28T16:46:25Z</time></trkpt><trkpt lat="45.00439160068085" lon="10.600559144660503"><ele>17.5</ele><time>2026-03-28T16:46:26Z</time></trkpt><trkpt lat="45.00453157246318" lon="10.600834926532706"><ele>17.0</ele><time>2026-03-28T16:46:27Z</time></trkpt><trkpt lat="45.004673127558604" lon="10.601108090298583"><ele>17.5</ele><time>2026-03-28T16:46:28Z</time></trkpt><trkpt lat="45.00481206586495" lon="10.60137949210517"><ele>18.0</ele><time>2026-03-28T16:46:29Z</time></trkpt><trkpt lat="45.004948913035825" lon="10.601646958243828"><ele>18.0</ele><time>2026-03-28T16:46:30Z</time></trkpt><trkpt lat="45.00508422382863" lon="10.601915519249408"><ele>18.0</ele><time>2026-03-28T16:46:31Z</time></trkpt><trkpt lat="45.00521785130124" lon="10.602185550446565"><ele>18.0</ele><time>2026-03-28T16:46:32Z</time></trkpt><trkpt lat="45.00535056024493" lon="10.60245206431415"><ele>18.0</ele><time>2026-03-28T16:46:33Z</time></trkpt><trkpt lat="45.00548221291041" lon="10.602715496171912"><ele>18.333333333333332</ele><time>2026-03-28T16:46:34Z</time></trkpt><trkpt lat="45.00561340389566" lon="10.602969491125531"><ele>18.666666666666664</ele><time>2026-03-28T16:46:35Z</time></trkpt><trkpt lat="45.005757857134235" lon="10.603200428873777"><ele>19.0</ele><time>2026-03-28T16:46:36Z</time></trkpt><trkpt lat="45.00592570164612" lon="10.603400042780967"><ele>19.5</ele><time>2026-03-28T16:46:37Z</time></trkpt><trkpt lat="45.00611399856504" lon="10.603583419266744"><ele>20.0</ele><time>2026-03-28T16:46:38Z</time></trkpt><trkpt lat="45.00631395864846" lon="10.60373959088787"><ele>20.5</ele><time>2026-03-28T16:46:39Z</time></trkpt><trkpt lat="45.006531256512076" lon="10.603864714956995"><ele>21.0</ele><time>2026-03-28T16:46:40Z</time></trkpt><trkpt lat="45.00676063145822" lon="10.603959800624745"><ele>20.0</ele><time>2026-03-28T16:46:41Z</time></trkpt><trkpt lat="45.006998090967826" lon="10.604039432440159"><ele>19.0</ele><time>2026-03-28T16:46:42Z</time></trkpt><trkpt lat="45.00723459215082" lon="10.604124870231091"><ele>19.0</ele><time>2026-03-28T16:46:43Z</time></trkpt><trkpt lat="45.007478043724525" lon="10.604212631482458"><ele>19.0</ele><time>2026-03-28T16:46:44Z</time></trkpt><trkpt lat="45.00769165316261" lon="10.604311134074159"><ele>19.5</ele><time>2026-03-28T16:46:45Z</time></trkpt><trkpt lat="45.00792513840995" lon="10.60439538900919"><ele>20.0</ele><time>2026-03-28T16:46:46Z</time></trkpt><trkpt lat="45.00815923373934" lon="10.604482548874083"><ele>19.0</ele><time>2026-03-28T16:46:47Z</time></trkpt><trkpt lat="45.00839171602759" lon="10.604558241355988"><ele>18.0</ele><time>2026-03-28T16:46:48Z</time></trkpt><trkpt lat="45.008620954164606" lon="10.604608463846485"><ele>18.0</ele><time>2026-03-28T16:46:49Z</time></trkpt><trkpt lat="45.00885180769796" lon="10.604606246709709"><ele>18.0</ele><time>2026-03-28T16:46:50Z</time></trkpt><trkpt lat="45.009084075727046" lon="10.604561950827893"><ele>19.0</ele><time>2026-03-28T16:46:51Z</time></trkpt><trkpt lat="45.009312591452286" lon="10.604479475563137"><ele>20.0</ele><time>2026-03-28T16:46:52Z</time></trkpt><trkpt lat="45.00952682784257" lon="10.604351914293913"><ele>20.0</ele><time>2026-03-28T16:46:53Z</time></trkpt><trkpt lat="45.00972840855088" lon="10.604194408593239"><ele>20.0</ele><time>2026-03-28T16:46:54Z</time></trkpt><trkpt lat="45.009918186106106" lon="10.604005088737711"><ele>19.5</ele><time>2026-03-28T16:46:55Z</time></trkpt><trkpt lat="45.01010643665583" lon="10.60380566930438"><ele>19.0</ele><time>2026-03-28T16:46:56Z</time></trkpt><trkpt lat="45.01029063608352" lon="10.603618575684417"><ele>19.0</ele><time>2026-03-28T16:46:57Z</time></trkpt><trkpt lat="45.010471621526" lon="10.603446657111679"><ele>19.0</ele><time>2026-03-28T16:46:58Z</time></trkpt><trkpt lat="45.01065011727313" lon="10.60327378367515"><ele>19.0</ele><time>2026-03-28T16:46:59Z</time></trkpt><trkpt lat="45.01083029853918" lon="10.603103654885397"><ele>19.333333333333332</ele><time>2026-03-28T16:47:00Z</time></trkpt><trkpt lat="45.01101021607016" lon="10.602931032074412"><ele>19.666666666666668</ele><time>2026-03-28T16:47:01Z</time></trkpt><trkpt lat="45.01118518693574" lon="10.602764659932841"><ele>20.0</ele><time>2026-03-28T16:47:02Z</time></trkpt><trkpt lat="45.01135090526696" lon="10.602619132692343"><ele>19.666666666666668</ele><time>2026-03-28T16:47:03Z</time></trkpt><trkpt lat="45.011503571426346" lon="10.602492886605978"><ele>19.333333333333332</ele><time>2026-03-28T16:47:04Z</time></trkpt><trkpt lat="45.01163750994756" lon="10.602389186766782"><ele>19.0</ele><time>2026-03-28T16:47:05Z</time></trkpt><trkpt lat="45.01176059102586" lon="10.602303332099492"><ele>19.0</ele><time>2026-03-28T16:47:06Z</time></trkpt><trkpt lat="45.01186610872499" lon="10.60226024102661"><ele>19.0</ele><time>2026-03-28T16:47:07Z</time></trkpt><trkpt lat="45.01197039779834" lon="10.602212609511389"><ele>19.0</ele><time>2026-03-28T16:47:08Z</time></trkpt><trkpt lat="45.01206535053621" lon="10.602212555345938"><ele>19.0</ele><time>2026-03-28T16:47:09Z</time></trkpt><trkpt lat="45.012144003210906" lon="10.602275115834775"><ele>19.0</ele><time>2026-03-28T16:47:10Z</time></trkpt><trkpt lat="45.0122026336476" lon="10.602386716542215"><ele>19.0</ele><time>2026-03-28T16:47:11Z</time></trkpt><trkpt lat="45.0122230395483" lon="10.602546620716582"><ele>19.0</ele><time>2026-03-28T16:47:12Z</time></trkpt><trkpt lat="45.01223015134598" lon="10.602721815373926"><ele>19.0</ele><time>2026-03-28T16:47:13Z</time></trkpt><trkpt lat="45.012223758470256" lon="10.602925533919757"><ele>19.0</ele><time>2026-03-28T16:47:14Z</time></trkpt><trkpt lat="45.01220698303157" lon="10.603146552494058"><ele>19.333333333333332</ele><time>2026-03-28T16:47:15Z</time></trkpt><trkpt lat="45.01217323153697" lon="10.603386000484605"><ele>19.666666666666668</ele><time>2026-03-28T16:47:16Z</time></trkpt><trkpt lat="45.0121376160409" lon="10.603634152951694"><ele>20.0</ele><time>2026-03-28T16:47:17Z</time></trkpt><trkpt lat="45.01210760215819" lon="10.603891161763366"><ele>20.0</ele><time>2026-03-28T16:47:18Z</time></trkpt><trkpt lat="45.012078840093544" lon="10.604159973901425"><ele>20.0</ele><time>2026-03-28T16:47:19Z</time></trkpt><trkpt lat="45.01205428523751" lon="10.604435698291159"><ele>20.0</ele><time>2026-03-28T16:47:20Z</time></trkpt><trkpt lat="45.01203376620637" lon="10.6047055581229"><ele>19.333333333333336</ele><time>2026-03-28T16:47:21Z</time></trkpt><trkpt lat="45.012028995696014" lon="10.60498517301426"><ele>18.666666666666668</ele><time>2026-03-28T16:47:22Z</time></trkpt><trkpt lat="45.01203571864081" lon="10.605267579647645"><ele>18.0</ele><time>2026-03-28T16:47:23Z</time></trkpt><trkpt lat="45.012054097208555" lon="10.605559769569435"><ele>18.0</ele><time>2026-03-28T16:47:24Z</time></trkpt><trkpt lat="45.012074320573916" lon="10.605856359179436"><ele>18.0</ele><time>2026-03-28T16:47:25Z</time></trkpt><trkpt lat="45.012097325822054" lon="10.606149088601988"><ele>18.0</ele><time>2026-03-28T16:47:26Z</time></trkpt><trkpt lat="45.01212241194765" lon="10.60644166296868"><ele>18.666666666666668</ele><time>2026-03-28T16:47:27Z</time></trkpt><trkpt lat="45.012148166464335" lon="10.606729532335628"><ele>19.333333333333336</ele><time>2026-03-28T16:47:28Z</time></trkpt><trkpt lat="45.012164435159335" lon="10.607024118580767"><ele>20.0</ele><time>2026-03-28T16:47:29Z</time></trkpt><trkpt lat="45.01217148673451" lon="10.607314632861913"><ele>20.0</ele><time>2026-03-28T16:47:30Z</time></trkpt><trkpt lat="45.01219045462297" lon="10.607604571751926"><ele>20.0</ele><time>2026-03-28T16:47:31Z</time></trkpt><trkpt lat="45.01223282407078" lon="10.607889777214455"><ele>20.0</ele><time>2026-03-28T16:47:32Z</time></trkpt><trkpt lat="45.01228142181951" lon="10.60817354053013"><ele>20.0</ele><time>2026-03-28T16:47:33Z</time></trkpt><trkpt lat="45.01233045091413" lon="10.608459310719622"><ele>20.0</ele><time>2026-03-28T16:47:34Z</time></trkpt><trkpt lat="45.012377980939974" lon="10.608743355859708"><ele>20.0</ele><time>2026-03-28T16:47:35Z</time></trkpt><trkpt lat="45.01243270139017" lon="10.60902511668785"><ele>19.666666666666668</ele><time>2026-03-28T16:47:36Z</time></trkpt><trkpt lat="45.012490676866115" lon="10.609304813151892"><ele>19.333333333333332</ele><time>2026-03-28T16:47:37Z</time></trkpt><trkpt lat="45.012553861483475" lon="10.60959246740613"><ele>19.0</ele><time>2026-03-28T16:47:38Z</time></trkpt><trkpt lat="45.01262619321693" lon="10.609880796894945"><ele>19.666666666666664</ele><time>2026-03-28T16:47:39Z</time></trkpt><trkpt lat="45.01271221569913" lon="10.61016396718364"><ele>20.333333333333332</ele><time>2026-03-28T16:47:40Z</time></trkpt><trkpt lat="45.01281886857932" lon="10.610434259624833"><ele>21.0</ele><time>2026-03-28T16:47:41Z</time></trkpt><trkpt lat="45.012935499955574" lon="10.610700327403702"><ele>21.0</ele><time>2026-03-28T16:47:42Z</time></trkpt><trkpt lat="45.013050539619556" lon="10.610972667693863"><ele>21.0</ele><time>2026-03-28T16:47:43Z</time></trkpt><trkpt lat="45.013159517115106" lon="10.611250576541215"><ele>21.0</ele><time>2026-03-28T16:47:44Z</time></trkpt><trkpt lat="45.01326424005109" lon="10.611537280971616"><ele>20.0</ele><time>2026-03-28T16:47:45Z</time></trkpt><trkpt lat="45.01336449028264" lon="10.611827682124211"><ele>19.0</ele><time>2026-03-28T16:47:46Z</time></trkpt><trkpt lat="45.01346877608171" lon="10.612120422967129"><ele>18.5</ele><time>2026-03-28T16:47:47Z</time></trkpt><trkpt lat="45.01357451718392" lon="10.612412228746424"><ele>18.0</ele><time>2026-03-28T16:47:48Z</time></trkpt><trkpt lat="45.013681687988644" lon="10.612698383411246"><ele>18.0</ele><time>2026-03-28T16:47:49Z</time></trkpt><trkpt lat="45.01379140532381" lon="10.612974932111694"><ele>18.0</ele><time>2026-03-28T16:47:50Z</time></trkpt><trkpt lat="45.01386557839927" lon="10.613259123957734"><ele>18.0</ele><time>2026-03-28T16:47:51Z</time></trkpt><trkpt lat="45.01391693374794" lon="10.613537361470666"><ele>18.666666666666668</ele><time>2026-03-28T16:47:52Z</time></trkpt><trkpt lat="45.01395022042098" lon="10.613802792467478"><ele>19.333333333333336</ele><time>2026-03-28T16:47:53Z</time></trkpt><trkpt lat="45.01396584485658" lon="10.614061759468262"><ele>20.0</ele><time>2026-03-28T16:47:54Z</time></trkpt><trkpt lat="45.013975102002384" lon="10.614336271886936"><ele>19.666666666666668</ele><time>2026-03-28T16:47:55Z</time></trkpt><trkpt lat="45.013990053538336" lon="10.614624591616023"><ele>19.333333333333332</ele><time>2026-03-28T16:47:56Z</time></trkpt><trkpt lat="45.01398885963733" lon="10.614913982269805"><ele>19.0</ele><time>2026-03-28T16:47:57Z</time></trkpt><trkpt lat="45.01401337278094" lon="10.615204077977765"><ele>19.0</ele><time>2026-03-28T16:47:58Z</time></trkpt><trkpt lat="45.01408040401158" lon="10.615491990685175"><ele>19.0</ele><time>2026-03-28T16:47:59Z</time></trkpt><trkpt lat="45.014181251642746" lon="10.615771021436462"><ele>19.0</ele><time>2026-03-28T16:48:00Z</time></trkpt><trkpt lat="45.01429240974533" lon="10.616051203898321"><ele>19.5</ele><time>2026-03-28T16:48:01Z</time></trkpt><trkpt lat="45.014392430511485" lon="10.616337705263959"><ele>20.0</ele><time>2026-03-28T16:48:02Z</time></trkpt><trkpt lat="45.01448180451835" lon="10.616636300923176"><ele>20.0</ele><time>2026-03-28T16:48:03Z</time></trkpt><trkpt lat="45.01457840118873" lon="10.616933743947516"><ele>20.0</ele><time>2026-03-28T16:48:04Z</time></trkpt><trkpt lat="45.01467153797529" lon="10.61723296586096"><ele>20.0</ele><time>2026-03-28T16:48:05Z</time></trkpt><trkpt lat="45.01477240689615" lon="10.617526556674681"><ele>20.0</ele><time>2026-03-28T16:48:06Z</time></trkpt><trkpt lat="45.01488897607291" lon="10.617808975601571"><ele>19.5</ele><time>2026-03-28T16:48:07Z</time></trkpt><trkpt lat="45.01501776051197" lon="10.618082109784249"><ele>19.0</ele><time>2026-03-28T16:48:08Z</time></trkpt><trkpt lat="45.01515542822477" lon="10.618342416199637"><ele>19.0</ele><time>2026-03-28T16:48:09Z</time></trkpt><trkpt lat="45.0153072787533" lon="10.618591733804337"><ele>19.0</ele><time>2026-03-28T16:48:10Z</time></trkpt><trkpt lat="45.015465776236404" lon="10.61882568726758"><ele>19.0</ele><time>2026-03-28T16:48:11Z</time></trkpt><trkpt lat="45.01562847735857" lon="10.619045331523674"><ele>19.0</ele><time>2026-03-28T16:48:12Z</time></trkpt><trkpt lat="45.01579758156868" lon="10.619242938921769"><ele>19.0</ele><time>2026-03-28T16:48:13Z</time></trkpt><trkpt lat="45.015967468061696" lon="10.619422759802479"><ele>19.0</ele><time>2026-03-28T16:48:14Z</time></trkpt><trkpt lat="45.01613379019852" lon="10.619590984991687"><ele>19.0</ele><time>2026-03-28T16:48:15Z</time></trkpt><trkpt lat="45.0162919529558" lon="10.619750707665979"><ele>19.0</ele><time>2026-03-28T16:48:16Z</time></trkpt><trkpt lat="45.0164397053721" lon="10.619904389048688"><ele>19.0</ele><time>2026-03-28T16:48:17Z</time></trkpt><trkpt lat="45.01657833791253" lon="10.620053306194281"><ele>19.0</ele><time>2026-03-28T16:48:18Z</time></trkpt><trkpt lat="45.01670793589519" lon="10.620190160996982"><ele>19.0</ele><time>2026-03-28T16:48:19Z</time></trkpt><trkpt lat="45.01680171185424" lon="10.620325098381073"><ele>19.25</ele><time>2026-03-28T16:48:20Z</time></trkpt><trkpt lat="45.01684698441172" lon="10.620470138471457"><ele>19.5</ele><time>2026-03-28T16:48:21Z</time></trkpt><trkpt lat="45.016839620091304" lon="10.620612876106042"><ele>19.75</ele><time>2026-03-28T16:48:22Z</time></trkpt><trkpt lat="45.01687501881916" lon="10.620699853812745"><ele>20.0</ele><time>2026-03-28T16:48:23Z</time></trkpt><trkpt lat="45.01663142141604" lon="10.620974089726609"><ele>20.0</ele><time>2026-03-28T16:48:25Z</time></trkpt><trkpt lat="45.01659088542811" lon="10.621119286961347"><ele>20.0</ele><time>2026-03-28T16:48:26Z</time></trkpt><trkpt lat="45.016575731245126" lon="10.621292709472174"><ele>20.0</ele><time>2026-03-28T16:48:27Z</time></trkpt><trkpt lat="45.01657325363593" lon="10.621483371751266"><ele>20.0</ele><time>2026-03-28T16:48:28Z</time></trkpt><trkpt lat="45.016571849776156" lon="10.621679442176541"><ele>20.0</ele><time>2026-03-28T16:48:29Z</time></trkpt><trkpt lat="45.01657390029267" lon="10.621887167987284"><ele>20.0</ele><time>2026-03-28T16:48:30Z</time></trkpt><trkpt lat="45.01658431058813" lon="10.622102919557411"><ele>20.0</ele><time>2026-03-28T16:48:31Z</time></trkpt><trkpt lat="45.016604253872295" lon="10.622326369732258"><ele>20.0</ele><time>2026-03-28T16:48:32Z</time></trkpt><trkpt lat="45.01663877076617" lon="10.622559269791891"><ele>20.0</ele><time>2026-03-28T16:48:33Z</time></trkpt><trkpt lat="45.01668498589006" lon="10.622790829149091"><ele>20.0</ele><time>2026-03-28T16:48:34Z</time></trkpt><trkpt lat="45.01672887562827" lon="10.623026393673845"><ele>20.0</ele><time>2026-03-28T16:48:35Z</time></trkpt><trkpt lat="45.01676467964383" lon="10.62324867545823"><ele>20.0</ele><time>2026-03-28T16:48:36Z</time></trkpt><trkpt lat="45.01679597343794" lon="10.62346098873051"><ele>20.0</ele><time>2026-03-28T16:48:37Z</time></trkpt><trkpt lat="45.01682946539296" lon="10.623657326791275"><ele>20.0</ele><time>2026-03-28T16:48:38Z</time></trkpt><trkpt lat="45.01686382967307" lon="10.62384969358186"><ele>20.0</ele><time>2026-03-28T16:48:39Z</time></trkpt><trkpt lat="45.01689500809998" lon="10.624038739443245"><ele>20.0</ele><time>2026-03-28T16:48:40Z</time></trkpt><trkpt lat="45.01692691465766" lon="10.62422802745925"><ele>20.0</ele><time>2026-03-28T16:48:41Z</time></trkpt><trkpt lat="45.01695806710528" lon="10.624416572809102"><ele>20.5</ele><time>2026-03-28T16:48:42Z</time></trkpt><trkpt lat="45.016989499325746" lon="10.624605147005312"><ele>21.0</ele><time>2026-03-28T16:48:43Z</time></trkpt><trkpt lat="45.01702124468962" lon="10.624794295130958"><ele>21.5</ele><time>2026-03-28T16:48:44Z</time></trkpt><trkpt lat="45.01705198185524" lon="10.624980021131822"><ele>22.0</ele><time>2026-03-28T16:48:45Z</time></trkpt><trkpt lat="45.017081569693914" lon="10.625160637509882"><ele>22.5</ele><time>2026-03-28T16:48:46Z</time></trkpt><trkpt lat="45.01711126149586" lon="10.625336429578624"><ele>23.0</ele><time>2026-03-28T16:48:47Z</time></trkpt><trkpt lat="45.01713961694458" lon="10.625507326660182"><ele>23.5</ele><time>2026-03-28T16:48:48Z</time></trkpt><trkpt lat="45.017165432683605" lon="10.625675228746116"><ele>24.0</ele><time>2026-03-28T16:48:49Z</time></trkpt><trkpt lat="45.01718569823752" lon="10.625844017004637"><ele>24.0</ele><time>2026-03-28T16:48:50Z</time></trkpt><trkpt lat="45.01721353670097" lon="10.626012632927587"><ele>24.0</ele><time>2026-03-28T16:48:51Z</time></trkpt><trkpt lat="45.01725131821506" lon="10.626183684921372"><ele>24.0</ele><time>2026-03-28T16:48:52Z</time></trkpt><trkpt lat="45.01729323617799" lon="10.626353010875539"><ele>24.0</ele><time>2026-03-28T16:48:53Z</time></trkpt><trkpt lat="45.01733623611058" lon="10.62652085087374"><ele>23.25</ele><time>2026-03-28T16:48:54Z</time></trkpt><trkpt lat="45.017379962400355" lon="10.626686907317467"><ele>22.5</ele><time>2026-03-28T16:48:55Z</time></trkpt><trkpt lat="45.01741547535385" lon="10.626850573736746"><ele>21.75</ele><time>2026-03-28T16:48:56Z</time></trkpt><trkpt lat="45.01744671670127" lon="10.627009942203008"><ele>21.0</ele><time>2026-03-28T16:48:57Z</time></trkpt><trkpt lat="45.017468045242005" lon="10.627167117732432"><ele>21.0</ele><time>2026-03-28T16:48:58Z</time></trkpt><trkpt lat="45.01748394137446" lon="10.627328993277512"><ele>21.0</ele><time>2026-03-28T16:48:59Z</time></trkpt><trkpt lat="45.017494233100344" lon="10.627492081771633"><ele>21.0</ele><time>2026-03-28T16:49:00Z</time></trkpt><trkpt lat="45.01749085304492" lon="10.627657342911046"><ele>21.0</ele><time>2026-03-28T16:49:01Z</time></trkpt><trkpt lat="45.017496577307924" lon="10.627822073296075"><ele>21.0</ele><time>2026-03-28T16:49:02Z</time></trkpt><trkpt lat="45.01752687181842" lon="10.627985686094297"><ele>21.0</ele><time>2026-03-28T16:49:03Z</time></trkpt><trkpt lat="45.01756696749423" lon="10.62815402987388"><ele>21.0</ele><time>2026-03-28T16:49:04Z</time></trkpt><trkpt lat="45.01760667415151" lon="10.628329516312585"><ele>21.0</ele><time>2026-03-28T16:49:05Z</time></trkpt><trkpt lat="45.01764630080077" lon="10.628508866549092"><ele>21.0</ele><time>2026-03-28T16:49:06Z</time></trkpt><trkpt lat="45.01768626738843" lon="10.628690508002732"><ele>21.0</ele><time>2026-03-28T16:49:07Z</time></trkpt><trkpt lat="45.01773624478734" lon="10.62887208719096"><ele>21.0</ele><time>2026-03-28T16:49:08Z</time></trkpt><trkpt lat="45.017775599166164" lon="10.629059410058163"><ele>21.0</ele><time>2026-03-28T16:49:09Z</time></trkpt><trkpt lat="45.0178184895967" lon="10.629246768670267"><ele>21.0</ele><time>2026-03-28T16:49:10Z</time></trkpt><trkpt lat="45.01786823329533" lon="10.629436024465662"><ele>21.0</ele><time>2026-03-28T16:49:11Z</time></trkpt><trkpt lat="45.01791762336208" lon="10.629622172599298"><ele>21.0</ele><time>2026-03-28T16:49:12Z</time></trkpt><trkpt lat="45.017963862844894" lon="10.629805889825723"><ele>21.0</ele><time>2026-03-28T16:49:13Z</time></trkpt><trkpt lat="45.01801369758462" lon="10.629984150846054"><ele>21.0</ele><time>2026-03-28T16:49:14Z</time></trkpt><trkpt lat="45.018067936910185" lon="10.630159865832594"><ele>21.0</ele><time>2026-03-28T16:49:15Z</time></trkpt><trkpt lat="45.01813231982262" lon="10.630329558232301"><ele>21.0</ele><time>2026-03-28T16:49:16Z</time></trkpt><trkpt lat="45.018202823767545" lon="10.630492901107187"><ele>21.0</ele><time>2026-03-28T16:49:17Z</time></trkpt><trkpt lat="45.01826739164911" lon="10.630659688752202"><ele>21.0</ele><time>2026-03-28T16:49:18Z</time></trkpt><trkpt lat="45.01832855981988" lon="10.630825035263339"><ele>21.0</ele><time>2026-03-28T16:49:19Z</time></trkpt><trkpt lat="45.018388962553765" lon="10.630989401380116"><ele>21.0</ele><time>2026-03-28T16:49:20Z</time></trkpt><trkpt lat="45.01845095450779" lon="10.63114926230227"><ele>21.0</ele><time>2026-03-28T16:49:21Z</time></trkpt><trkpt lat="45.01851190179649" lon="10.631309503568927"><ele>21.0</ele><time>2026-03-28T16:49:22Z</time></trkpt><trkpt lat="45.01857320552905" lon="10.63147112496926"><ele>21.0</ele><time>2026-03-28T16:49:23Z</time></trkpt><trkpt lat="45.01863486150543" lon="10.631629241655757"><ele>21.0</ele><time>2026-03-28T16:49:24Z</time></trkpt><trkpt lat="45.01869703168946" lon="10.63178764291334"><ele>21.0</ele><time>2026-03-28T16:49:25Z</time></trkpt><trkpt lat="45.01876650025922" lon="10.631942887564119"><ele>20.75</ele><time>2026-03-28T16:49:26Z</time></trkpt><trkpt lat="45.01884775093966" lon="10.632086583425012"><ele>20.5</ele><time>2026-03-28T16:49:27Z</time></trkpt><trkpt lat="45.018940641677304" lon="10.632223446803728"><ele>20.25</ele><time>2026-03-28T16:49:28Z</time></trkpt><trkpt lat="45.0190420954436" lon="10.632347468805815"><ele>20.0</ele><time>2026-03-28T16:49:29Z</time></trkpt><trkpt lat="45.01914604109213" lon="10.632466889959945"><ele>20.0</ele><time>2026-03-28T16:49:30Z</time></trkpt><trkpt lat="45.01925064858806" lon="10.632591609076684"><ele>20.0</ele><time>2026-03-28T16:49:31Z</time></trkpt><trkpt lat="45.019355847852104" lon="10.632716120453406"><ele>20.0</ele><time>2026-03-28T16:49:32Z</time></trkpt><trkpt lat="45.019458174967355" lon="10.632841225062458"><ele>20.0</ele><time>2026-03-28T16:49:33Z</time></trkpt><trkpt lat="45.019560013748716" lon="10.63297137757094"><ele>20.0</ele><time>2026-03-28T16:49:34Z</time></trkpt><trkpt lat="45.01965976643646" lon="10.63310245780353"><ele>20.0</ele><time>2026-03-28T16:49:35Z</time></trkpt><trkpt lat="45.0197601572124" lon="10.633229384725261"><ele>20.0</ele><time>2026-03-28T16:49:36Z</time></trkpt><trkpt lat="45.01985731468942" lon="10.633353033946296"><ele>20.0</ele><time>2026-03-28T16:49:37Z</time></trkpt><trkpt lat="45.01995388019634" lon="10.633474315578011"><ele>20.25</ele><time>2026-03-28T16:49:38Z</time></trkpt><trkpt lat="45.020050448934455" lon="10.633595451064267"><ele>20.5</ele><time>2026-03-28T16:49:39Z</time></trkpt><trkpt lat="45.02014337042048" lon="10.633722632668054"><ele>20.75</ele><time>2026-03-28T16:49:40Z</time></trkpt><trkpt lat="45.02023110087456" lon="10.633857956988544"><ele>21.0</ele><time>2026-03-28T16:49:41Z</time></trkpt><trkpt lat="45.020315295437975" lon="10.634005830702884"><ele>21.0</ele><time>2026-03-28T16:49:42Z</time></trkpt><trkpt lat="45.02040218408343" lon="10.63416469998195"><ele>21.0</ele><time>2026-03-28T16:49:43Z</time></trkpt><trkpt lat="45.020493937788146" lon="10.634337639796172"><ele>21.0</ele><time>2026-03-28T16:49:44Z</time></trkpt><trkpt lat="45.02058585349607" lon="10.634506239412564"><ele>21.0</ele><time>2026-03-28T16:49:45Z</time></trkpt><trkpt lat="45.02067055492942" lon="10.634671799648924"><ele>21.0</ele><time>2026-03-28T16:49:46Z</time></trkpt><trkpt lat="45.020760680076826" lon="10.634823508283652"><ele>21.0</ele><time>2026-03-28T16:49:47Z</time></trkpt><trkpt lat="45.02086988178589" lon="10.634952466487324"><ele>21.0</ele><time>2026-03-28T16:49:48Z</time></trkpt><trkpt lat="45.020986849487926" lon="10.635055671657673"><ele>21.0</ele><time>2026-03-28T16:49:49Z</time></trkpt><trkpt lat="45.02110897248151" lon="10.635130648920773"><ele>21.200000000000003</ele><time>2026-03-28T16:49:50Z</time></trkpt><trkpt lat="45.0212291722599" lon="10.635186069512667"><ele>21.400000000000002</ele><time>2026-03-28T16:49:51Z</time></trkpt><trkpt lat="45.02133128371313" lon="10.635228841123002"><ele>21.6</ele><time>2026-03-28T16:49:52Z</time></trkpt><trkpt lat="45.02141806719846" lon="10.635270574519692"><ele>21.8</ele><time>2026-03-28T16:49:53Z</time></trkpt><trkpt lat="45.02148018127361" lon="10.635307640945694"><ele>22.0</ele><time>2026-03-28T16:49:54Z</time></trkpt><trkpt lat="45.021535829921206" lon="10.635384674287854"><ele>22.0</ele><time>2026-03-28T16:49:56Z</time></trkpt><trkpt lat="45.02161089727325" lon="10.6354929925904"><ele>22.0</ele><time>2026-03-28T16:49:59Z</time></trkpt><trkpt lat="45.02175880163061" lon="10.635460813898376"><ele>22.0</ele><time>2026-03-28T16:50:00Z</time></trkpt><trkpt lat="45.02187136412044" lon="10.635490495509762"><ele>22.0</ele><time>2026-03-28T16:50:01Z</time></trkpt><trkpt lat="45.0219933322516" lon="10.635543069171083"><ele>22.0</ele><time>2026-03-28T16:50:02Z</time></trkpt><trkpt lat="45.02212168027094" lon="10.635636115641727"><ele>22.0</ele><time>2026-03-28T16:50:03Z</time></trkpt><trkpt lat="45.02225782262001" lon="10.635737211139567"><ele>22.0</ele><time>2026-03-28T16:50:04Z</time></trkpt><trkpt lat="45.02239989509543" lon="10.635833191733102"><ele>21.666666666666664</ele><time>2026-03-28T16:50:05Z</time></trkpt><trkpt lat="45.02254151560089" lon="10.635933920992388"><ele>21.333333333333332</ele><time>2026-03-28T16:50:06Z</time></trkpt><trkpt lat="45.0226764165526" lon="10.636034378592718"><ele>21.0</ele><time>2026-03-28T16:50:07Z</time></trkpt><trkpt lat="45.02280744673777" lon="10.636135807221525"><ele>21.0</ele><time>2026-03-28T16:50:08Z</time></trkpt><trkpt lat="45.022931159634965" lon="10.63624483811889"><ele>21.0</ele><time>2026-03-28T16:50:09Z</time></trkpt><trkpt lat="45.02305153378224" lon="10.636354722150259"><ele>21.0</ele><time>2026-03-28T16:50:10Z</time></trkpt><trkpt lat="45.02318521536647" lon="10.636438217527441"><ele>21.0</ele><time>2026-03-28T16:50:11Z</time></trkpt><trkpt lat="45.023330804079826" lon="10.63648087902829"><ele>21.0</ele><time>2026-03-28T16:50:12Z</time></trkpt><trkpt lat="45.02348874536043" lon="10.636482957734097"><ele>21.0</ele><time>2026-03-28T16:50:13Z</time></trkpt><trkpt lat="45.02365169671906" lon="10.636454765167473"><ele>21.0</ele><time>2026-03-28T16:50:14Z</time></trkpt><trkpt lat="45.02381854215432" lon="10.636404737793258"><ele>21.0</ele><time>2026-03-28T16:50:15Z</time></trkpt><trkpt lat="45.02398440792535" lon="10.636337751777969"><ele>21.0</ele><time>2026-03-28T16:50:16Z</time></trkpt><trkpt lat="45.02415228590877" lon="10.63626373585142"><ele>21.0</ele><time>2026-03-28T16:50:17Z</time></trkpt><trkpt lat="45.024317910293355" lon="10.636191826031338"><ele>21.0</ele><time>2026-03-28T16:50:18Z</time></trkpt><trkpt lat="45.024474798369226" lon="10.636139311069586"><ele>21.0</ele><time>2026-03-28T16:50:19Z</time></trkpt><trkpt lat="45.02462628649971" lon="10.63611111678854"><ele>21.0</ele><time>2026-03-28T16:50:20Z</time></trkpt><trkpt lat="45.02478709926709" lon="10.636100512485365"><ele>21.333333333333332</ele><time>2026-03-28T16:50:21Z</time></trkpt><trkpt lat="45.02495355593496" lon="10.636105462781101"><ele>21.666666666666664</ele><time>2026-03-28T16:50:22Z</time></trkpt><trkpt lat="45.02512655182673" lon="10.636111796283869"><ele>22.0</ele><time>2026-03-28T16:50:23Z</time></trkpt><trkpt lat="45.02529559301536" lon="10.636117835293895"><ele>22.666666666666664</ele><time>2026-03-28T16:50:24Z</time></trkpt><trkpt lat="45.02544326814485" lon="10.636188539906481"><ele>23.333333333333332</ele><time>2026-03-28T16:50:25Z</time></trkpt><trkpt lat="45.02558860058849" lon="10.636274196256673"><ele>24.0</ele><time>2026-03-28T16:50:26Z</time></trkpt><trkpt lat="45.02572185127786" lon="10.636441230846199"><ele>24.666666666666664</ele><time>2026-03-28T16:50:27Z</time></trkpt><trkpt lat="45.02587232827642" lon="10.63660303980272"><ele>25.333333333333332</ele><time>2026-03-28T16:50:28Z</time></trkpt><trkpt lat="45.02601956597481" lon="10.636792140586167"><ele>26.0</ele><time>2026-03-28T16:50:29Z</time></trkpt><trkpt lat="45.026173479017" lon="10.636982226837782"><ele>26.333333333333332</ele><time>2026-03-28T16:50:30Z</time></trkpt><trkpt lat="45.02632937975261" lon="10.63717018512598"><ele>26.666666666666664</ele><time>2026-03-28T16:50:31Z</time></trkpt><trkpt lat="45.0264755349931" lon="10.637347326797885"><ele>27.0</ele><time>2026-03-28T16:50:32Z</time></trkpt><trkpt lat="45.026619276307656" lon="10.637521732056056"><ele>27.333333333333336</ele><time>2026-03-28T16:50:33Z</time></trkpt><trkpt lat="45.02676206853169" lon="10.637695421604512"><ele>27.666666666666668</ele><time>2026-03-28T16:50:34Z</time></trkpt><trkpt lat="45.026901816553334" lon="10.637861900765838"><ele>28.0</ele><time>2026-03-28T16:50:35Z</time></trkpt><trkpt lat="45.027032116437425" lon="10.638017146141243"><ele>28.0</ele><time>2026-03-28T16:50:36Z</time></trkpt><trkpt lat="45.027162606622554" lon="10.638169029401258"><ele>28.0</ele><time>2026-03-28T16:50:37Z</time></trkpt><trkpt lat="45.0272978697388" lon="10.638332735097038"><ele>28.0</ele><time>2026-03-28T16:50:38Z</time></trkpt><trkpt lat="45.02743397647689" lon="10.638503130843093"><ele>27.666666666666668</ele><time>2026-03-28T16:50:39Z</time></trkpt><trkpt lat="45.027575043163175" lon="10.638674962494056"><ele>27.333333333333336</ele><time>2026-03-28T16:50:40Z</time></trkpt><trkpt lat="45.027717780651734" lon="10.638847130890712"><ele>27.0</ele><time>2026-03-28T16:50:41Z</time></trkpt><trkpt lat="45.02785683546645" lon="10.639018250769276"><ele>27.0</ele><time>2026-03-28T16:50:42Z</time></trkpt><trkpt lat="45.0279946477603" lon="10.639189512546581"><ele>27.0</ele><time>2026-03-28T16:50:43Z</time></trkpt><trkpt lat="45.02813819966586" lon="10.63936165085128"><ele>27.0</ele><time>2026-03-28T16:50:44Z</time></trkpt><trkpt lat="45.02828135817295" lon="10.6395355751263"><ele>25.666666666666668</ele><time>2026-03-28T16:50:45Z</time></trkpt><trkpt lat="45.02842740119692" lon="10.63971345197775"><ele>24.333333333333336</ele><time>2026-03-28T16:50:46Z</time></trkpt><trkpt lat="45.02857642155734" lon="10.63989425897892"><ele>23.0</ele><time>2026-03-28T16:50:47Z</time></trkpt><trkpt lat="45.02873441489841" lon="10.64007489571591"><ele>23.0</ele><time>2026-03-28T16:50:48Z</time></trkpt><trkpt lat="45.0288950477583" lon="10.640255323335808"><ele>23.0</ele><time>2026-03-28T16:50:49Z</time></trkpt><trkpt lat="45.029057783813364" lon="10.64041945885428"><ele>23.0</ele><time>2026-03-28T16:50:50Z</time></trkpt><trkpt lat="45.02923323784634" lon="10.640569456650374"><ele>23.0</ele><time>2026-03-28T16:50:51Z</time></trkpt><trkpt lat="45.02941871072108" lon="10.640682543550055"><ele>23.0</ele><time>2026-03-28T16:50:52Z</time></trkpt><trkpt lat="45.02961575220178" lon="10.640762631667465"><ele>23.0</ele><time>2026-03-28T16:50:53Z</time></trkpt><trkpt lat="45.029820487670385" lon="10.64081066409008"><ele>23.333333333333336</ele><time>2026-03-28T16:50:54Z</time></trkpt><trkpt lat="45.03003606552743" lon="10.640847893906976"><ele>23.666666666666668</ele><time>2026-03-28T16:50:55Z</time></trkpt><trkpt lat="45.03024825622915" lon="10.64089666170008"><ele>24.0</ele><time>2026-03-28T16:50:56Z</time></trkpt><trkpt lat="45.03046643375187" lon="10.640941745735123"><ele>24.0</ele><time>2026-03-28T16:50:57Z</time></trkpt><trkpt lat="45.03068846790993" lon="10.640994247017524"><ele>24.0</ele><time>2026-03-28T16:50:58Z</time></trkpt><trkpt lat="45.03090887024333" lon="10.641060529638539"><ele>23.5</ele><time>2026-03-28T16:50:59Z</time></trkpt><trkpt lat="45.03113020268645" lon="10.641143270696984"><ele>23.0</ele><time>2026-03-28T16:51:00Z</time></trkpt><trkpt lat="45.03134954995245" lon="10.641243231943028"><ele>23.0</ele><time>2026-03-28T16:51:01Z</time></trkpt><trkpt lat="45.031566959063426" lon="10.64135361385"><ele>23.0</ele><time>2026-03-28T16:51:02Z</time></trkpt><trkpt lat="45.031784944277916" lon="10.641467450250815"><ele>25.0</ele><time>2026-03-28T16:51:03Z</time></trkpt><trkpt lat="45.03200608291768" lon="10.641582968939918"><ele>27.0</ele><time>2026-03-28T16:51:04Z</time></trkpt><trkpt lat="45.03222216881837" lon="10.64170883829042"><ele>27.0</ele><time>2026-03-28T16:51:05Z</time></trkpt><trkpt lat="45.03243417552059" lon="10.641848392830028"><ele>27.0</ele><time>2026-03-28T16:51:06Z</time></trkpt><trkpt lat="45.032646193134234" lon="10.641990647988687"><ele>26.0</ele><time>2026-03-28T16:51:07Z</time></trkpt><trkpt lat="45.03285276334435" lon="10.642154250467565"><ele>25.0</ele><time>2026-03-28T16:51:08Z</time></trkpt><trkpt lat="45.03305511480016" lon="10.642316124974938"><ele>25.0</ele><time>2026-03-28T16:51:09Z</time></trkpt><trkpt lat="45.03325271005281" lon="10.642479757649486"><ele>25.0</ele><time>2026-03-28T16:51:10Z</time></trkpt><trkpt lat="45.033441730389534" lon="10.642646901463522"><ele>24.666666666666668</ele><time>2026-03-28T16:51:11Z</time></trkpt><trkpt lat="45.033623168408674" lon="10.642816765873217"><ele>24.333333333333336</ele><time>2026-03-28T16:51:12Z</time></trkpt><trkpt lat="45.03379060851485" lon="10.642978843423807"><ele>24.0</ele><time>2026-03-28T16:51:13Z</time></trkpt><trkpt lat="45.03393968674358" lon="10.643125395494154"><ele>24.0</ele><time>2026-03-28T16:51:14Z</time></trkpt><trkpt lat="45.03408133936882" lon="10.643253996562937"><ele>24.0</ele><time>2026-03-28T16:51:15Z</time></trkpt><trkpt lat="45.034215697217356" lon="10.643366651437818"><ele>24.0</ele><time>2026-03-28T16:51:16Z</time></trkpt><trkpt lat="45.03435391047166" lon="10.643427902780854"><ele>24.333333333333336</ele><time>2026-03-28T16:51:17Z</time></trkpt><trkpt lat="45.034504717367625" lon="10.643421259036549"><ele>24.666666666666668</ele><time>2026-03-28T16:51:18Z</time></trkpt><trkpt lat="45.034653470366436" lon="10.643343606101855"><ele>25.0</ele><time>2026-03-28T16:51:19Z</time></trkpt><trkpt lat="45.03480038554635" lon="10.643211353180996"><ele>25.0</ele><time>2026-03-28T16:51:20Z</time></trkpt><trkpt lat="45.03491878547231" lon="10.643062241430428"><ele>25.0</ele><time>2026-03-28T16:51:21Z</time></trkpt><trkpt lat="45.03503311700316" lon="10.642972479987092"><ele>25.0</ele><time>2026-03-28T16:51:22Z</time></trkpt><trkpt lat="45.03513603974472" lon="10.642963526408018"><ele>25.0</ele><time>2026-03-28T16:51:23Z</time></trkpt><trkpt lat="45.03524210592465" lon="10.643004543394023"><ele>24.666666666666668</ele><time>2026-03-28T16:51:24Z</time></trkpt><trkpt lat="45.03532510797603" lon="10.64316074167332"><ele>24.333333333333336</ele><time>2026-03-28T16:51:25Z</time></trkpt><trkpt lat="45.03544890065122" lon="10.643300389492154"><ele>24.0</ele><time>2026-03-28T16:51:26Z</time></trkpt><trkpt lat="45.035585965330846" lon="10.64343226991618"><ele>24.0</ele><time>2026-03-28T16:51:27Z</time></trkpt><trkpt lat="45.03572569975622" lon="10.64358813656622"><ele>24.0</ele><time>2026-03-28T16:51:28Z</time></trkpt><trkpt lat="45.035870480952106" lon="10.643755461392432"><ele>24.0</ele><time>2026-03-28T16:51:29Z</time></trkpt><trkpt lat="45.03601976952467" lon="10.643925441253467"><ele>24.333333333333336</ele><time>2026-03-28T16:51:30Z</time></trkpt><trkpt lat="45.03617328829029" lon="10.644097398875356"><ele>24.666666666666668</ele><time>2026-03-28T16:51:31Z</time></trkpt><trkpt lat="45.03632343073757" lon="10.644272419942654"><ele>25.0</ele><time>2026-03-28T16:51:32Z</time></trkpt><trkpt lat="45.03647568088674" lon="10.644442065593726"><ele>25.0</ele><time>2026-03-28T16:51:33Z</time></trkpt><trkpt lat="45.036630392100406" lon="10.644612453960198"><ele>25.0</ele><time>2026-03-28T16:51:34Z</time></trkpt><trkpt lat="45.03678077914371" lon="10.644771121921773"><ele>25.0</ele><time>2026-03-28T16:51:35Z</time></trkpt><trkpt lat="45.03692635525696" lon="10.644925397219454"><ele>25.0</ele><time>2026-03-28T16:51:36Z</time></trkpt><trkpt lat="45.0370638334731" lon="10.645079561987016"><ele>25.0</ele><time>2026-03-28T16:51:37Z</time></trkpt><trkpt lat="45.037197020473336" lon="10.645232215218282"><ele>25.0</ele><time>2026-03-28T16:51:38Z</time></trkpt><trkpt lat="45.037326744092184" lon="10.645381200799775"><ele>25.333333333333336</ele><time>2026-03-28T16:51:39Z</time></trkpt><trkpt lat="45.03745051599985" lon="10.645520876843852"><ele>25.666666666666664</ele><time>2026-03-28T16:51:40Z</time></trkpt><trkpt lat="45.03755434065681" lon="10.645677267831164"><ele>26.0</ele><time>2026-03-28T16:51:41Z</time></trkpt><trkpt lat="45.0376152859359" lon="10.645859344784009"><ele>23.666666666666664</ele><time>2026-03-28T16:51:42Z</time></trkpt><trkpt lat="45.037625721350004" lon="10.646055222403726"><ele>21.333333333333332</ele><time>2026-03-28T16:51:43Z</time></trkpt><trkpt lat="45.037621755541586" lon="10.646284181117476"><ele>19.0</ele><time>2026-03-28T16:51:44Z</time></trkpt><trkpt lat="45.03760823488617" lon="10.64652738363714"><ele>18.666666666666664</ele><time>2026-03-28T16:51:45Z</time></trkpt><trkpt lat="45.03759135862639" lon="10.64676456288265"><ele>18.333333333333332</ele><time>2026-03-28T16:51:46Z</time></trkpt><trkpt lat="45.03757726422183" lon="10.64700019715008"><ele>18.0</ele><time>2026-03-28T16:51:47Z</time></trkpt><trkpt lat="45.03756995336695" lon="10.647234031345194"><ele>18.0</ele><time>2026-03-28T16:51:48Z</time></trkpt><trkpt lat="45.0375687981043" lon="10.647459259373246"><ele>18.0</ele><time>2026-03-28T16:51:49Z</time></trkpt><trkpt lat="45.037587898398684" lon="10.647685909840787"><ele>18.0</ele><time>2026-03-28T16:51:50Z</time></trkpt><trkpt lat="45.03762332503485" lon="10.647915009702874"><ele>18.333333333333332</ele><time>2026-03-28T16:51:51Z</time></trkpt><trkpt lat="45.037680497861224" lon="10.648144319291333"><ele>18.666666666666664</ele><time>2026-03-28T16:51:52Z</time></trkpt><trkpt lat="45.03775456481734" lon="10.648369475084968"><ele>19.0</ele><time>2026-03-28T16:51:53Z</time></trkpt><trkpt lat="45.03783828377519" lon="10.648597925339912"><ele>19.0</ele><time>2026-03-28T16:51:54Z</time></trkpt><trkpt lat="45.03792995299078" lon="10.648815782746636"><ele>19.0</ele><time>2026-03-28T16:51:55Z</time></trkpt><trkpt lat="45.03802348902633" lon="10.649028836972631"><ele>19.0</ele><time>2026-03-28T16:51:56Z</time></trkpt><trkpt lat="45.038120687615944" lon="10.64924411258741"><ele>19.0</ele><time>2026-03-28T16:51:57Z</time></trkpt><trkpt lat="45.03821960519653" lon="10.64945668610261"><ele>19.0</ele><time>2026-03-28T16:51:58Z</time></trkpt><trkpt lat="45.038313509726265" lon="10.649657539665982"><ele>19.0</ele><time>2026-03-28T16:51:59Z</time></trkpt><trkpt lat="45.038405674200895" lon="10.649853534820235"><ele>19.0</ele><time>2026-03-28T16:52:00Z</time></trkpt><trkpt lat="45.03849785517781" lon="10.65005040086366"><ele>19.0</ele><time>2026-03-28T16:52:01Z</time></trkpt><trkpt lat="45.038588231312495" lon="10.650249638567955"><ele>19.0</ele><time>2026-03-28T16:52:02Z</time></trkpt><trkpt lat="45.03867820015064" lon="10.650447386502544"><ele>19.0</ele><time>2026-03-28T16:52:03Z</time></trkpt><trkpt lat="45.03876582463164" lon="10.65063851880756"><ele>19.0</ele><time>2026-03-28T16:52:04Z</time></trkpt><trkpt lat="45.038848378210126" lon="10.65081657399248"><ele>19.0</ele><time>2026-03-28T16:52:05Z</time></trkpt><trkpt lat="45.0389231905381" lon="10.650980574552278"><ele>19.0</ele><time>2026-03-28T16:52:06Z</time></trkpt><trkpt lat="45.03899302538196" lon="10.651132906399749"><ele>19.25</ele><time>2026-03-28T16:52:07Z</time></trkpt><trkpt lat="45.03906065800185" lon="10.651264978942777"><ele>19.5</ele><time>2026-03-28T16:52:08Z</time></trkpt><trkpt lat="45.03913896110921" lon="10.651386132835963"><ele>19.75</ele><time>2026-03-28T16:52:09Z</time></trkpt><trkpt lat="45.03923945830194" lon="10.651477301328994"><ele>20.0</ele><time>2026-03-28T16:52:10Z</time></trkpt><trkpt lat="45.039353611021156" lon="10.651540035581819"><ele>20.75</ele><time>2026-03-28T16:52:11Z</time></trkpt><trkpt lat="45.039478346280546" lon="10.651565909046145"><ele>21.5</ele><time>2026-03-28T16:52:12Z</time></trkpt><trkpt lat="45.03961144113315" lon="10.651574975201116"><ele>22.25</ele><time>2026-03-28T16:52:13Z</time></trkpt><trkpt lat="45.03974993500242" lon="10.65158838808288"><ele>23.0</ele><time>2026-03-28T16:52:14Z</time></trkpt><trkpt lat="45.03989039319812" lon="10.65160807126153"><ele>23.2</ele><time>2026-03-28T16:52:15Z</time></trkpt><trkpt lat="45.040011378327264" lon="10.651630626600285"><ele>23.4</ele><time>2026-03-28T16:52:16Z</time></trkpt><trkpt lat="45.04011443368992" lon="10.651649618987475"><ele>23.599999999999998</ele><time>2026-03-28T16:52:17Z</time></trkpt><trkpt lat="45.04019852867901" lon="10.651661607658879"><ele>23.799999999999997</ele><time>2026-03-28T16:52:18Z</time></trkpt><trkpt lat="45.040268596675645" lon="10.651667328012714"><ele>24.0</ele><time>2026-03-28T16:52:19Z</time></trkpt><trkpt lat="45.04036957611602" lon="10.651618716927967"><ele>24.0</ele><time>2026-03-28T16:52:21Z</time></trkpt><trkpt lat="45.04040411126816" lon="10.651533044575949"><ele>24.0</ele><time>2026-03-28T16:52:43Z</time></trkpt><trkpt lat="45.04045737162344" lon="10.651422165634584"><ele>24.0</ele><time>2026-03-28T16:52:46Z</time></trkpt><trkpt lat="45.04050833390528" lon="10.651321212645373"><ele>24.0</ele><time>2026-03-28T16:52:49Z</time></trkpt><trkpt lat="45.04055617342569" lon="10.651207432431674"><ele>24.0</ele><time>2026-03-28T16:52:51Z</time></trkpt><trkpt lat="45.04061545526538" lon="10.651083457030486"><ele>23.333333333333332</ele><time>2026-03-28T16:52:53Z</time></trkpt><trkpt lat="45.040706052017896" lon="10.650930881485266"><ele>22.666666666666668</ele><time>2026-03-28T16:52:55Z</time></trkpt><trkpt lat="45.04073678546529" lon="10.650832109670269"><ele>22.0</ele><time>2026-03-28T16:52:56Z</time></trkpt><trkpt lat="45.040777013536406" lon="10.650759884051578"><ele>21.333333333333336</ele><time>2026-03-28T16:52:57Z</time></trkpt><trkpt lat="45.04081940225168" lon="10.650667743360094"><ele>20.666666666666668</ele><time>2026-03-28T16:52:58Z</time></trkpt><trkpt lat="45.040876010234804" lon="10.650590369163409"><ele>20.0</ele><time>2026-03-28T16:52:59Z</time></trkpt><trkpt lat="45.04091323476248" lon="10.650515758804051"><ele>19.714285714285715</ele><time>2026-03-28T16:53:00Z</time></trkpt><trkpt lat="45.04095305691401" lon="10.650435942023723"><ele>19.42857142857143</ele><time>2026-03-28T16:53:01Z</time></trkpt><trkpt lat="45.04099028090944" lon="10.65036133276755"><ele>19.142857142857146</ele><time>2026-03-28T16:53:02Z</time></trkpt><trkpt lat="45.04101933038528" lon="10.650268147578652"><ele>18.857142857142858</ele><time>2026-03-28T16:53:03Z</time></trkpt><trkpt lat="45.04106094924355" lon="10.650185609454741"><ele>18.571428571428573</ele><time>2026-03-28T16:53:04Z</time></trkpt><trkpt lat="45.04110135101887" lon="10.65010332690761"><ele>18.28571428571429</ele><time>2026-03-28T16:53:05Z</time></trkpt><trkpt lat="45.04115082682614" lon="10.650041900295923"><ele>18.0</ele><time>2026-03-28T16:53:06Z</time></trkpt><trkpt lat="45.041193462252764" lon="10.649959534253217"><ele>18.0</ele><time>2026-03-28T16:53:07Z</time></trkpt><trkpt lat="45.0412223799484" lon="10.649868844010328"><ele>18.0</ele><time>2026-03-28T16:53:08Z</time></trkpt><trkpt lat="45.04126581380641" lon="10.649801943946741"><ele>18.0</ele><time>2026-03-28T16:53:09Z</time></trkpt><trkpt lat="45.041336599017015" lon="10.649737497738753"><ele>18.0</ele><time>2026-03-28T16:53:11Z</time></trkpt><trkpt lat="45.04138741526728" lon="10.649675267256999"><ele>18.0</ele><time>2026-03-28T16:55:17Z</time></trkpt><trkpt lat="45.04147379578728" lon="10.649565953569972"><ele>18.0</ele><time>2026-03-28T16:55:19Z</time></trkpt><trkpt lat="45.04156533971967" lon="10.64950867497579"><ele>18.0</ele><time>2026-03-28T16:55:20Z</time></trkpt><trkpt lat="45.04173060917358" lon="10.649470943255311"><ele>18.0</ele><time>2026-03-28T16:55:22Z</time></trkpt><trkpt lat="45.04182937771297" lon="10.649426304720269"><ele>18.0</ele><time>2026-03-28T16:55:23Z</time></trkpt><trkpt lat="45.04189705089249" lon="10.649355879921192"><ele>18.0</ele><time>2026-03-28T16:55:24Z</time></trkpt><trkpt lat="45.0419553312672" lon="10.649299680695812"><ele>18.0</ele><time>2026-03-28T16:55:25Z</time></trkpt><trkpt lat="45.042000085581655" lon="10.649230868397769"><ele>18.25</ele><time>2026-03-28T16:55:26Z</time></trkpt><trkpt lat="45.04202126314919" lon="10.649088332589393"><ele>18.5</ele><time>2026-03-28T16:55:28Z</time></trkpt><trkpt lat="45.042053102491444" lon="10.649008821369726"><ele>18.75</ele><time>2026-03-28T16:55:29Z</time></trkpt><trkpt lat="45.0419647224454" lon="10.648850985801776"><ele>19.0</ele><time>2026-03-28T16:55:30Z</time></trkpt><trkpt lat="45.04188771545112" lon="10.648664147584032"><ele>18.666666666666664</ele><time>2026-03-28T16:55:31Z</time></trkpt><trkpt lat="45.04182033427527" lon="10.648431119874694"><ele>18.333333333333332</ele><time>2026-03-28T16:55:32Z</time></trkpt><trkpt lat="45.04176188348978" lon="10.648203622903715"><ele>18.0</ele><time>2026-03-28T16:55:33Z</time></trkpt><trkpt lat="45.04171608009903" lon="10.648020499957635"><ele>18.0</ele><time>2026-03-28T16:55:34Z</time></trkpt><trkpt lat="45.04169218511218" lon="10.647875520806402"><ele>18.0</ele><time>2026-03-28T16:55:35Z</time></trkpt><trkpt lat="45.04168382680261" lon="10.64775884638035"><ele>18.0</ele><time>2026-03-28T16:55:36Z</time></trkpt><trkpt lat="45.04176923387368" lon="10.647678537662898"><ele>18.0</ele><time>2026-03-28T16:55:37Z</time></trkpt><trkpt lat="45.04184073340405" lon="10.647591982615095"><ele>18.0</ele><time>2026-03-28T16:55:38Z</time></trkpt><trkpt lat="45.041950345295554" lon="10.647570872063458"><ele>18.25</ele><time>2026-03-28T16:55:39Z</time></trkpt><trkpt lat="45.04207366984485" lon="10.647547175614472"><ele>18.5</ele><time>2026-03-28T16:55:40Z</time></trkpt><trkpt lat="45.04221110624217" lon="10.647540449675883"><ele>18.75</ele><time>2026-03-28T16:55:41Z</time></trkpt><trkpt lat="45.042355778525675" lon="10.647521440357172"><ele>19.0</ele><time>2026-03-28T16:55:42Z</time></trkpt><trkpt lat="45.04250322761539" lon="10.64754127405875"><ele>19.333333333333332</ele><time>2026-03-28T16:55:43Z</time></trkpt><trkpt lat="45.04265233833246" lon="10.647551714421281"><ele>19.666666666666668</ele><time>2026-03-28T16:55:44Z</time></trkpt><trkpt lat="45.042811305271975" lon="10.647558081003503"><ele>20.0</ele><time>2026-03-28T16:55:45Z</time></trkpt><trkpt lat="45.042974343165575" lon="10.647567327310034"><ele>20.0</ele><time>2026-03-28T16:55:46Z</time></trkpt><trkpt lat="45.043141705175884" lon="10.647574822131045"><ele>20.0</ele><time>2026-03-28T16:55:47Z</time></trkpt><trkpt lat="45.04331073123044" lon="10.64757832927036"><ele>20.0</ele><time>2026-03-28T16:55:48Z</time></trkpt><trkpt lat="45.04349042365936" lon="10.64761084617809"><ele>20.0</ele><time>2026-03-28T16:55:49Z</time></trkpt><trkpt lat="45.04367481941482" lon="10.6476231641918"><ele>20.0</ele><time>2026-03-28T16:55:50Z</time></trkpt><trkpt lat="45.04386004867504" lon="10.647613239041535"><ele>20.0</ele><time>2026-03-28T16:55:51Z</time></trkpt><trkpt lat="45.044064069522165" lon="10.647635983861072"><ele>19.666666666666668</ele><time>2026-03-28T16:55:52Z</time></trkpt><trkpt lat="45.044256077503654" lon="10.647647501724714"><ele>19.333333333333332</ele><time>2026-03-28T16:55:53Z</time></trkpt><trkpt lat="45.04445595511457" lon="10.64765863334318"><ele>19.0</ele><time>2026-03-28T16:55:54Z</time></trkpt><trkpt lat="45.0446560322966" lon="10.64767239785514"><ele>19.0</ele><time>2026-03-28T16:55:55Z</time></trkpt><trkpt lat="45.04486158960358" lon="10.647686812774188"><ele>19.0</ele><time>2026-03-28T16:55:56Z</time></trkpt><trkpt lat="45.0450669324017" lon="10.647700953714958"><ele>19.0</ele><time>2026-03-28T16:55:57Z</time></trkpt><trkpt lat="45.04527550504958" lon="10.647717368356442"><ele>19.333333333333332</ele><time>2026-03-28T16:55:58Z</time></trkpt><trkpt lat="45.045484826845296" lon="10.647730029051994"><ele>19.666666666666668</ele><time>2026-03-28T16:55:59Z</time></trkpt><trkpt lat="45.045695746073214" lon="10.647742417737161"><ele>20.0</ele><time>2026-03-28T16:56:00Z</time></trkpt><trkpt lat="45.04590810327204" lon="10.647753409766622"><ele>20.0</ele><time>2026-03-28T16:56:01Z</time></trkpt><trkpt lat="45.04612189198576" lon="10.64776680775512"><ele>20.0</ele><time>2026-03-28T16:56:02Z</time></trkpt><trkpt lat="45.04633691584052" lon="10.647781945563652"><ele>20.0</ele><time>2026-03-28T16:56:03Z</time></trkpt><trkpt lat="45.04655286265401" lon="10.647798235504032"><ele>20.0</ele><time>2026-03-28T16:56:04Z</time></trkpt><trkpt lat="45.04677170050234" lon="10.647813041980879"><ele>20.0</ele><time>2026-03-28T16:56:05Z</time></trkpt><trkpt lat="45.04698993626991" lon="10.647826727548864"><ele>20.0</ele><time>2026-03-28T16:56:06Z</time></trkpt><trkpt lat="45.04720916227861" lon="10.647841503929651"><ele>20.0</ele><time>2026-03-28T16:56:07Z</time></trkpt><trkpt lat="45.047425302980535" lon="10.647849536000438"><ele>20.0</ele><time>2026-03-28T16:56:08Z</time></trkpt><trkpt lat="45.04763720423257" lon="10.647832678301297"><ele>20.0</ele><time>2026-03-28T16:56:09Z</time></trkpt><trkpt lat="45.0478469937738" lon="10.64777425327619"><ele>20.333333333333336</ele><time>2026-03-28T16:56:10Z</time></trkpt><trkpt lat="45.048054885819354" lon="10.647704224323169"><ele>20.666666666666668</ele><time>2026-03-28T16:56:11Z</time></trkpt><trkpt lat="45.048262251627015" lon="10.647645793123726"><ele>21.0</ele><time>2026-03-28T16:56:12Z</time></trkpt><trkpt lat="45.04847378470301" lon="10.647594546145964"><ele>21.0</ele><time>2026-03-28T16:56:13Z</time></trkpt><trkpt lat="45.04868463408805" lon="10.647538935193136"><ele>21.0</ele><time>2026-03-28T16:56:14Z</time></trkpt><trkpt lat="45.04889744212893" lon="10.647476219714312"><ele>21.0</ele><time>2026-03-28T16:56:15Z</time></trkpt><trkpt lat="45.04911109503725" lon="10.64741487907021"><ele>20.666666666666668</ele><time>2026-03-28T16:56:16Z</time></trkpt><trkpt lat="45.04932500440119" lon="10.647354732154156"><ele>20.333333333333336</ele><time>2026-03-28T16:56:17Z</time></trkpt><trkpt lat="45.049538718758306" lon="10.647297441387828"><ele>20.0</ele><time>2026-03-28T16:56:18Z</time></trkpt><trkpt lat="45.049756039266676" lon="10.647232248359987"><ele>19.333333333333336</ele><time>2026-03-28T16:56:19Z</time></trkpt><trkpt lat="45.049972241299045" lon="10.64717071908482"><ele>18.666666666666668</ele><time>2026-03-28T16:56:20Z</time></trkpt><trkpt lat="45.0501885823069" lon="10.647108992275374"><ele>18.0</ele><time>2026-03-28T16:56:21Z</time></trkpt><trkpt lat="45.050405913218356" lon="10.64704737473792"><ele>18.0</ele><time>2026-03-28T16:56:22Z</time></trkpt><trkpt lat="45.05061993390674" lon="10.646985332995484"><ele>18.0</ele><time>2026-03-28T16:56:23Z</time></trkpt><trkpt lat="45.050840556463505" lon="10.646922477314787"><ele>18.0</ele><time>2026-03-28T16:56:24Z</time></trkpt><trkpt lat="45.05106432080153" lon="10.646861361985495"><ele>17.0</ele><time>2026-03-28T16:56:25Z</time></trkpt><trkpt lat="45.05128595562918" lon="10.646800895449601"><ele>16.0</ele><time>2026-03-28T16:56:26Z</time></trkpt><trkpt lat="45.05150996807099" lon="10.646735829718548"><ele>17.5</ele><time>2026-03-28T16:56:27Z</time></trkpt><trkpt lat="45.05173489310112" lon="10.646673107792255"><ele>19.0</ele><time>2026-03-28T16:56:28Z</time></trkpt><trkpt lat="45.05196199319681" lon="10.646616321482224"><ele>19.0</ele><time>2026-03-28T16:56:29Z</time></trkpt><trkpt lat="45.0521868711902" lon="10.646556985768957"><ele>19.0</ele><time>2026-03-28T16:56:30Z</time></trkpt><trkpt lat="45.0524068875051" lon="10.646494714413398"><ele>18.0</ele><time>2026-03-28T16:56:31Z</time></trkpt><trkpt lat="45.05262864182089" lon="10.646432691772395"><ele>17.0</ele><time>2026-03-28T16:56:32Z</time></trkpt><trkpt lat="45.05284799028111" lon="10.64637134447648"><ele>17.0</ele><time>2026-03-28T16:56:33Z</time></trkpt><trkpt lat="45.053066105712695" lon="10.64631086108469"><ele>17.0</ele><time>2026-03-28T16:56:34Z</time></trkpt><trkpt lat="45.05328437940461" lon="10.646244290517231"><ele>17.0</ele><time>2026-03-28T16:56:35Z</time></trkpt><trkpt lat="45.05350045181114" lon="10.646176900583804"><ele>17.0</ele><time>2026-03-28T16:56:36Z</time></trkpt><trkpt lat="45.0537164562791" lon="10.646113063325519"><ele>17.0</ele><time>2026-03-28T16:56:37Z</time></trkpt><trkpt lat="45.05393108146441" lon="10.64605694037085"><ele>17.0</ele><time>2026-03-28T16:56:38Z</time></trkpt><trkpt lat="45.05414345559203" lon="10.646003946782635"><ele>17.666666666666668</ele><time>2026-03-28T16:56:39Z</time></trkpt><trkpt lat="45.054349340818725" lon="10.645949304742116"><ele>18.333333333333332</ele><time>2026-03-28T16:56:40Z</time></trkpt><trkpt lat="45.05454824859601" lon="10.645882369856105"><ele>19.0</ele><time>2026-03-28T16:56:41Z</time></trkpt><trkpt lat="45.054752767669676" lon="10.645824021857061"><ele>19.0</ele><time>2026-03-28T16:56:42Z</time></trkpt><trkpt lat="45.05496023702314" lon="10.645840176785528"><ele>19.0</ele><time>2026-03-28T16:56:43Z</time></trkpt><trkpt lat="45.05516503622899" lon="10.645882209641801"><ele>19.0</ele><time>2026-03-28T16:56:44Z</time></trkpt><trkpt lat="45.05537520633351" lon="10.645926496778527"><ele>19.0</ele><time>2026-03-28T16:56:45Z</time></trkpt><trkpt lat="45.05558401097568" lon="10.645991147676881"><ele>19.0</ele><time>2026-03-28T16:56:46Z</time></trkpt><trkpt lat="45.05579541224326" lon="10.646051246456999"><ele>19.0</ele><time>2026-03-28T16:56:47Z</time></trkpt><trkpt lat="45.05600732946441" lon="10.646113944002511"><ele>18.333333333333332</ele><time>2026-03-28T16:56:48Z</time></trkpt><trkpt lat="45.05622343118831" lon="10.646182020149233"><ele>17.666666666666668</ele><time>2026-03-28T16:56:49Z</time></trkpt><trkpt lat="45.0564390975796" lon="10.646252615806047"><ele>17.0</ele><time>2026-03-28T16:56:50Z</time></trkpt><trkpt lat="45.05665392209052" lon="10.64632956273685"><ele>16.5</ele><time>2026-03-28T16:56:51Z</time></trkpt><trkpt lat="45.05687236638973" lon="10.64641318638853"><ele>16.0</ele><time>2026-03-28T16:56:52Z</time></trkpt><trkpt lat="45.0570902079995" lon="10.64649285353892"><ele>16.0</ele><time>2026-03-28T16:56:53Z</time></trkpt><trkpt lat="45.05730986356292" lon="10.646577534290936"><ele>16.0</ele><time>2026-03-28T16:56:54Z</time></trkpt><trkpt lat="45.05752981441672" lon="10.64666466699175"><ele>17.0</ele><time>2026-03-28T16:56:55Z</time></trkpt><trkpt lat="45.057750286230345" lon="10.646749140613363"><ele>18.0</ele><time>2026-03-28T16:56:56Z</time></trkpt><trkpt lat="45.05797239408057" lon="10.646831641845635"><ele>18.0</ele><time>2026-03-28T16:56:57Z</time></trkpt><trkpt lat="45.05819253566564" lon="10.646915134036574"><ele>18.0</ele><time>2026-03-28T16:56:58Z</time></trkpt><trkpt lat="45.058404943227785" lon="10.64699617374174"><ele>18.0</ele><time>2026-03-28T16:56:59Z</time></trkpt><trkpt lat="45.058614999063515" lon="10.647073792195453"><ele>18.0</ele><time>2026-03-28T16:57:00Z</time></trkpt><trkpt lat="45.05882097876565" lon="10.647146646736068"><ele>18.0</ele><time>2026-03-28T16:57:01Z</time></trkpt><trkpt lat="45.05902417160058" lon="10.64721638268429"><ele>18.0</ele><time>2026-03-28T16:57:02Z</time></trkpt><trkpt lat="45.0592211283261" lon="10.647286916686987"><ele>18.0</ele><time>2026-03-28T16:57:02.999Z</time></trkpt><trkpt lat="45.05941403011902" lon="10.647359169826053"><ele>18.0</ele><time>2026-03-28T16:57:03.999Z</time></trkpt><trkpt lat="45.05960237432969" lon="10.647428906158096"><ele>18.0</ele><time>2026-03-28T16:57:04.999Z</time></trkpt><trkpt lat="45.059787543281566" lon="10.64749401378146"><ele>17.666666666666668</ele><time>2026-03-28T16:57:05.999Z</time></trkpt><trkpt lat="45.05996856562875" lon="10.64755963661234"><ele>17.333333333333336</ele><time>2026-03-28T16:57:06.999Z</time></trkpt><trkpt lat="45.060145010560966" lon="10.647633267245855"><ele>17.0</ele><time>2026-03-28T16:57:07.999Z</time></trkpt><trkpt lat="45.060318748395396" lon="10.647711003084098"><ele>17.0</ele><time>2026-03-28T16:57:08.999Z</time></trkpt><trkpt lat="45.060488955029406" lon="10.647780088233608"><ele>17.0</ele><time>2026-03-28T16:57:09.999Z</time></trkpt><trkpt lat="45.06066473101497" lon="10.64782438858348"><ele>17.0</ele><time>2026-03-28T16:57:10.999Z</time></trkpt><trkpt lat="45.06084196134768" lon="10.64784146871032"><ele>16.666666666666668</ele><time>2026-03-28T16:57:11.999Z</time></trkpt><trkpt lat="45.06102233723258" lon="10.647828727338645"><ele>16.333333333333332</ele><time>2026-03-28T16:57:12.999Z</time></trkpt><trkpt lat="45.06119918056271" lon="10.647804611070738"><ele>16.0</ele><time>2026-03-28T16:57:13.999Z</time></trkpt><trkpt lat="45.061369338549895" lon="10.647784358036462"><ele>16.75</ele><time>2026-03-28T16:57:14.999Z</time></trkpt><trkpt lat="45.06152495293667" lon="10.647772511441477"><ele>17.5</ele><time>2026-03-28T16:57:16Z</time></trkpt><trkpt lat="45.06167078215398" lon="10.647763548010742"><ele>18.25</ele><time>2026-03-28T16:57:16.999Z</time></trkpt><trkpt lat="45.06181301561168" lon="10.647753474827224"><ele>19.0</ele><time>2026-03-28T16:57:18Z</time></trkpt><trkpt lat="45.06194726505308" lon="10.647742549616762"><ele>19.2</ele><time>2026-03-28T16:57:19Z</time></trkpt><trkpt lat="45.06206930610128" lon="10.647734118915254"><ele>19.4</ele><time>2026-03-28T16:57:20Z</time></trkpt><trkpt lat="45.062183242865245" lon="10.647724649213664"><ele>19.6</ele><time>2026-03-28T16:57:21Z</time></trkpt><trkpt lat="45.062291018988724" lon="10.647713093343954"><ele>19.8</ele><time>2026-03-28T16:57:22Z</time></trkpt><trkpt lat="45.062389384704005" lon="10.647701495883137"><ele>20.0</ele><time>2026-03-28T16:57:22.999Z</time></trkpt><trkpt lat="45.0624735787366" lon="10.647691692389888"><ele>20.2</ele><time>2026-03-28T16:57:23.999Z</time></trkpt><trkpt lat="45.06254625528273" lon="10.647678450084712"><ele>20.4</ele><time>2026-03-28T16:57:24.999Z</time></trkpt><trkpt lat="45.062650351507926" lon="10.647663927102686"><ele>20.6</ele><time>2026-03-28T16:57:26.999Z</time></trkpt><trkpt lat="45.062736052375286" lon="10.647746916990462"><ele>20.8</ele><time>2026-03-28T16:57:28.999Z</time></trkpt><trkpt lat="45.062792034583396" lon="10.647825055485129"><ele>21.0</ele><time>2026-03-28T16:57:29.999Z</time></trkpt><trkpt lat="45.06286772353779" lon="10.647923167752708"><ele>21.0</ele><time>2026-03-28T16:57:30.999Z</time></trkpt><trkpt lat="45.0629519575854" lon="10.648034903571423"><ele>21.0</ele><time>2026-03-28T16:57:31.999Z</time></trkpt><trkpt lat="45.063036499212714" lon="10.648157531366643"><ele>21.0</ele><time>2026-03-28T16:57:32.999Z</time></trkpt><trkpt lat="45.06311836096245" lon="10.648289032932485"><ele>21.0</ele><time>2026-03-28T16:57:33.999Z</time></trkpt><trkpt lat="45.06320544004424" lon="10.648413929610825"><ele>21.25</ele><time>2026-03-28T16:57:34.999Z</time></trkpt><trkpt lat="45.0632951978691" lon="10.64853516733641"><ele>21.5</ele><time>2026-03-28T16:57:35.999Z</time></trkpt><trkpt lat="45.063388278965576" lon="10.648653740423283"><ele>21.75</ele><time>2026-03-28T16:57:36.999Z</time></trkpt><trkpt lat="45.06348908375156" lon="10.648774119884658"><ele>22.0</ele><time>2026-03-28T16:57:37.999Z</time></trkpt><trkpt lat="45.06358974478" lon="10.648904044629134"><ele>22.0</ele><time>2026-03-28T16:57:38.999Z</time></trkpt><trkpt lat="45.06368630801216" lon="10.64904551336057"><ele>22.0</ele><time>2026-03-28T16:57:39.999Z</time></trkpt><trkpt lat="45.06377664247886" lon="10.649190785005514"><ele>22.0</ele><time>2026-03-28T16:57:40.999Z</time></trkpt><trkpt lat="45.06385341372278" lon="10.649342837326744"><ele>22.0</ele><time>2026-03-28T16:57:41.999Z</time></trkpt><trkpt lat="45.06391640919758" lon="10.649503979128877"><ele>22.25</ele><time>2026-03-28T16:57:42.999Z</time></trkpt><trkpt lat="45.06397490361756" lon="10.649668187408556"><ele>22.5</ele><time>2026-03-28T16:57:43.999Z</time></trkpt><trkpt lat="45.06403488452117" lon="10.649824656604059"><ele>22.75</ele><time>2026-03-28T16:57:44.999Z</time></trkpt><trkpt lat="45.064095900943926" lon="10.649979394612057"><ele>23.0</ele><time>2026-03-28T16:57:45.999Z</time></trkpt><trkpt lat="45.06415414840756" lon="10.650132262724947"><ele>23.0</ele><time>2026-03-28T16:57:46.999Z</time></trkpt><trkpt lat="45.06421639295422" lon="10.650287102307187"><ele>23.0</ele><time>2026-03-28T16:57:47.999Z</time></trkpt><trkpt lat="45.064281809399866" lon="10.650446297403496"><ele>23.0</ele><time>2026-03-28T16:57:48.999Z</time></trkpt><trkpt lat="45.06434874928264" lon="10.650612118612601"><ele>23.0</ele><time>2026-03-28T16:57:49.999Z</time></trkpt><trkpt lat="45.06441567667278" lon="10.65078949001013"><ele>22.25</ele><time>2026-03-28T16:57:50.999Z</time></trkpt><trkpt lat="45.06448562651672" lon="10.650973576431067"><ele>21.5</ele><time>2026-03-28T16:57:51.999Z</time></trkpt><trkpt lat="45.0645556223472" lon="10.651155218753754"><ele>20.75</ele><time>2026-03-28T16:57:52.999Z</time></trkpt><trkpt lat="45.06462938642945" lon="10.65134355157249"><ele>20.0</ele><time>2026-03-28T16:57:53.999Z</time></trkpt><trkpt lat="45.064705017543425" lon="10.65153804481816"><ele>20.0</ele><time>2026-03-28T16:57:54.999Z</time></trkpt><trkpt lat="45.064781078420246" lon="10.651740702388373"><ele>20.0</ele><time>2026-03-28T16:57:55.999Z</time></trkpt><trkpt lat="45.06485716580072" lon="10.651942785751393"><ele>20.0</ele><time>2026-03-28T16:57:56.999Z</time></trkpt><trkpt lat="45.06493088039452" lon="10.65214680641449"><ele>19.666666666666668</ele><time>2026-03-28T16:57:57.999Z</time></trkpt><trkpt lat="45.06499969701248" lon="10.652352781012732"><ele>19.333333333333332</ele><time>2026-03-28T16:57:58.999Z</time></trkpt><trkpt lat="45.0650694668808" lon="10.652561797785749"><ele>19.0</ele><time>2026-03-28T16:57:59.999Z</time></trkpt><trkpt lat="45.06513533404313" lon="10.652779397692726"><ele>18.666666666666664</ele><time>2026-03-28T16:58:00.999Z</time></trkpt><trkpt lat="45.06519785207993" lon="10.653000485668661"><ele>18.333333333333332</ele><time>2026-03-28T16:58:01.999Z</time></trkpt><trkpt lat="45.06525182308774" lon="10.653216816967124"><ele>18.0</ele><time>2026-03-28T16:58:02.999Z</time></trkpt><trkpt lat="45.0652976045835" lon="10.653422228526454"><ele>18.0</ele><time>2026-03-28T16:58:03.999Z</time></trkpt><trkpt lat="45.06531663597644" lon="10.653630800771106"><ele>18.0</ele><time>2026-03-28T16:58:04.999Z</time></trkpt><trkpt lat="45.06531800169053" lon="10.653839534458303"><ele>18.0</ele><time>2026-03-28T16:58:05.999Z</time></trkpt><trkpt lat="45.06531014983682" lon="10.654047986383945"><ele>18.0</ele><time>2026-03-28T16:58:06.999Z</time></trkpt><trkpt lat="45.06529637336014" lon="10.654251934917264"><ele>18.0</ele><time>2026-03-28T16:58:07.999Z</time></trkpt><trkpt lat="45.06528204658934" lon="10.654437059851462"><ele>18.0</ele><time>2026-03-28T16:58:08.999Z</time></trkpt><trkpt lat="45.065272050594174" lon="10.654608856443675"><ele>18.0</ele><time>2026-03-28T16:58:09.999Z</time></trkpt><trkpt lat="45.065265135148174" lon="10.654766325668717"><ele>18.0</ele><time>2026-03-28T16:58:10.999Z</time></trkpt><trkpt lat="45.0652581039138" lon="10.654917093700144"><ele>17.6</ele><time>2026-03-28T16:58:11.999Z</time></trkpt><trkpt lat="45.0652598202142" lon="10.655051341316193"><ele>17.200000000000003</ele><time>2026-03-28T16:58:12.999Z</time></trkpt><trkpt lat="45.06523681666718" lon="10.655158269610547"><ele>16.8</ele><time>2026-03-28T16:58:13.999Z</time></trkpt><trkpt lat="45.06536540860447" lon="10.655253357832024"><ele>16.400000000000002</ele><time>2026-03-28T16:58:14.999Z</time></trkpt><trkpt lat="45.0654617909568" lon="10.655301831245898"><ele>16.0</ele><time>2026-03-28T16:58:15.999Z</time></trkpt><trkpt lat="45.06557554749053" lon="10.655331968213234"><ele>16.0</ele><time>2026-03-28T16:58:16.999Z</time></trkpt><trkpt lat="45.06570283870931" lon="10.655394447269467"><ele>16.0</ele><time>2026-03-28T16:58:17.999Z</time></trkpt><trkpt lat="45.06583593360931" lon="10.655480594583846"><ele>16.0</ele><time>2026-03-28T16:58:18.999Z</time></trkpt><trkpt lat="45.065977913476786" lon="10.655577516537775"><ele>16.0</ele><time>2026-03-28T16:58:19.999Z</time></trkpt><trkpt lat="45.06612529605045" lon="10.655680906634686"><ele>16.0</ele><time>2026-03-28T16:58:20.999Z</time></trkpt><trkpt lat="45.06628576280588" lon="10.655792878695182"><ele>16.0</ele><time>2026-03-28T16:58:21.999Z</time></trkpt><trkpt lat="45.06645113331418" lon="10.65590898701862"><ele>16.0</ele><time>2026-03-28T16:58:22.999Z</time></trkpt><trkpt lat="45.06662193755554" lon="10.656032949059126"><ele>16.666666666666664</ele><time>2026-03-28T16:58:23.999Z</time></trkpt><trkpt lat="45.06679613963689" lon="10.656157320367779"><ele>17.333333333333332</ele><time>2026-03-28T16:58:24.999Z</time></trkpt><trkpt lat="45.06697350416172" lon="10.656281284242032"><ele>18.0</ele><time>2026-03-28T16:58:25.999Z</time></trkpt><trkpt lat="45.06714802505385" lon="10.6564176151366"><ele>18.0</ele><time>2026-03-28T16:58:26.999Z</time></trkpt><trkpt lat="45.06732434411789" lon="10.656561642765574"><ele>18.0</ele><time>2026-03-28T16:58:27.999Z</time></trkpt><trkpt lat="45.06750152929043" lon="10.656714702525594"><ele>18.0</ele><time>2026-03-28T16:58:28.999Z</time></trkpt><trkpt lat="45.067708537166936" lon="10.656791477717222"><ele>18.0</ele><time>2026-03-28T16:58:29.999Z</time></trkpt><trkpt lat="45.067900073297594" lon="10.656923090231219"><ele>18.0</ele><time>2026-03-28T16:58:30.999Z</time></trkpt><trkpt lat="45.0680935658625" lon="10.65705382015485"><ele>18.0</ele><time>2026-03-28T16:58:31.999Z</time></trkpt><trkpt lat="45.06828849250365" lon="10.657186248592165"><ele>18.333333333333332</ele><time>2026-03-28T16:58:32.999Z</time></trkpt><trkpt lat="45.06848424947276" lon="10.657323107384473"><ele>18.666666666666664</ele><time>2026-03-28T16:58:33.999Z</time></trkpt><trkpt lat="45.068681497849056" lon="10.657463154129063"><ele>19.0</ele><time>2026-03-28T16:58:34.999Z</time></trkpt><trkpt lat="45.06888002098077" lon="10.657601089148868"><ele>19.0</ele><time>2026-03-28T16:58:35.999Z</time></trkpt><trkpt lat="45.06908141028319" lon="10.6577377440455"><ele>19.0</ele><time>2026-03-28T16:58:36.999Z</time></trkpt><trkpt lat="45.06928092203682" lon="10.65787601380738"><ele>19.0</ele><time>2026-03-28T16:58:37.999Z</time></trkpt><trkpt lat="45.069480377473866" lon="10.658015782931736"><ele>20.0</ele><time>2026-03-28T16:58:38.999Z</time></trkpt><trkpt lat="45.069681587462966" lon="10.658155649304366"><ele>21.0</ele><time>2026-03-28T16:58:39.999Z</time></trkpt><trkpt lat="45.06988239401216" lon="10.658300665683663"><ele>20.5</ele><time>2026-03-28T16:58:40.999Z</time></trkpt><trkpt lat="45.07008446268603" lon="10.658440359815271"><ele>20.0</ele><time>2026-03-28T16:58:41.999Z</time></trkpt><trkpt lat="45.07028905960917" lon="10.658581435001691"><ele>20.0</ele><time>2026-03-28T16:58:42.999Z</time></trkpt><trkpt lat="45.07049428972805" lon="10.658724903995857"><ele>20.0</ele><time>2026-03-28T16:58:43.999Z</time></trkpt><trkpt lat="45.07070095497499" lon="10.658869383792185"><ele>20.5</ele><time>2026-03-28T16:58:44.999Z</time></trkpt><trkpt lat="45.07090820400689" lon="10.659012386428122"><ele>21.0</ele><time>2026-03-28T16:58:45.999Z</time></trkpt><trkpt lat="45.07111708628521" lon="10.659158242063466"><ele>21.0</ele><time>2026-03-28T16:58:46.999Z</time></trkpt><trkpt lat="45.071326897314485" lon="10.659304319197203"><ele>21.0</ele><time>2026-03-28T16:58:47.999Z</time></trkpt><trkpt lat="45.071539523555224" lon="10.659450846910996"><ele>20.0</ele><time>2026-03-28T16:58:48.999Z</time></trkpt><trkpt lat="45.07175116680594" lon="10.659601505063202"><ele>19.0</ele><time>2026-03-28T16:58:49.999Z</time></trkpt><trkpt lat="45.07196428759774" lon="10.659750432114876"><ele>19.0</ele><time>2026-03-28T16:58:50.999Z</time></trkpt><trkpt lat="45.07217912252083" lon="10.659904319659665"><ele>19.0</ele><time>2026-03-28T16:58:51.999Z</time></trkpt><trkpt lat="45.07239900606496" lon="10.660057693527252"><ele>19.0</ele><time>2026-03-28T16:58:52.999Z</time></trkpt><trkpt lat="45.07261984064026" lon="10.660195765295363"><ele>19.0</ele><time>2026-03-28T16:58:53.999Z</time></trkpt><trkpt lat="45.07283896355639" lon="10.660347430975525"><ele>19.0</ele><time>2026-03-28T16:58:54.999Z</time></trkpt><trkpt lat="45.07305465982284" lon="10.660511483079688"><ele>19.0</ele><time>2026-03-28T16:58:55.999Z</time></trkpt><trkpt lat="45.073268067313954" lon="10.660662407654943"><ele>20.0</ele><time>2026-03-28T16:58:56.999Z</time></trkpt><trkpt lat="45.07347941073631" lon="10.660816524707633"><ele>21.0</ele><time>2026-03-28T16:58:57.999Z</time></trkpt><trkpt lat="45.073690938342416" lon="10.660976958489224"><ele>20.0</ele><time>2026-03-28T16:58:58.999Z</time></trkpt><trkpt lat="45.07389654509073" lon="10.661132740651357"><ele>19.0</ele><time>2026-03-28T16:58:59.999Z</time></trkpt><trkpt lat="45.074103165577604" lon="10.661286178516004"><ele>18.5</ele><time>2026-03-28T16:59:00.999Z</time></trkpt><trkpt lat="45.07430813946423" lon="10.66144935944714"><ele>18.0</ele><time>2026-03-28T16:59:01.999Z</time></trkpt><trkpt lat="45.07451239100282" lon="10.66161205424854"><ele>18.0</ele><time>2026-03-28T16:59:02.999Z</time></trkpt><trkpt lat="45.07471537037125" lon="10.6617676847492"><ele>18.0</ele><time>2026-03-28T16:59:03.999Z</time></trkpt><trkpt lat="45.07491833577915" lon="10.661927388943743"><ele>18.5</ele><time>2026-03-28T16:59:04.999Z</time></trkpt><trkpt lat="45.075124950400514" lon="10.662088244936117"><ele>19.0</ele><time>2026-03-28T16:59:05.999Z</time></trkpt><trkpt lat="45.075331084168695" lon="10.662255516191877"><ele>19.0</ele><time>2026-03-28T16:59:06.999Z</time></trkpt><trkpt lat="45.07553601025082" lon="10.662414768841627"><ele>19.0</ele><time>2026-03-28T16:59:07.999Z</time></trkpt><trkpt lat="45.075739498210964" lon="10.662571526285603"><ele>19.0</ele><time>2026-03-28T16:59:08.999Z</time></trkpt><trkpt lat="45.075948484958474" lon="10.662734612945243"><ele>19.0</ele><time>2026-03-28T16:59:09.999Z</time></trkpt><trkpt lat="45.07615885255246" lon="10.662896565170168"><ele>19.0</ele><time>2026-03-28T16:59:10.999Z</time></trkpt><trkpt lat="45.0763687229213" lon="10.663057355461657"><ele>19.0</ele><time>2026-03-28T16:59:11.999Z</time></trkpt><trkpt lat="45.07657556361849" lon="10.663224146254171"><ele>19.0</ele><time>2026-03-28T16:59:12.999Z</time></trkpt><trkpt lat="45.07678673934202" lon="10.663394003305504"><ele>19.0</ele><time>2026-03-28T16:59:13.999Z</time></trkpt><trkpt lat="45.07699932047771" lon="10.663560523610926"><ele>20.0</ele><time>2026-03-28T16:59:15Z</time></trkpt><trkpt lat="45.077212380553014" lon="10.66372698929894"><ele>21.0</ele><time>2026-03-28T16:59:16Z</time></trkpt><trkpt lat="45.0774215272725" lon="10.6638935691379"><ele>22.5</ele><time>2026-03-28T16:59:17Z</time></trkpt><trkpt lat="45.07763955937612" lon="10.664056453399695"><ele>24.0</ele><time>2026-03-28T16:59:18Z</time></trkpt><trkpt lat="45.07784861973051" lon="10.664226860268759"><ele>24.0</ele><time>2026-03-28T16:59:19Z</time></trkpt><trkpt lat="45.07805919141869" lon="10.664396133161826"><ele>24.0</ele><time>2026-03-28T16:59:20Z</time></trkpt><trkpt lat="45.078274878606514" lon="10.664561995694498"><ele>22.5</ele><time>2026-03-28T16:59:21Z</time></trkpt><trkpt lat="45.07848747590455" lon="10.664722859662152"><ele>21.0</ele><time>2026-03-28T16:59:22Z</time></trkpt><trkpt lat="45.078692984865" lon="10.66488029725195"><ele>21.0</ele><time>2026-03-28T16:59:23Z</time></trkpt><trkpt lat="45.078887333626746" lon="10.665040154035106"><ele>21.0</ele><time>2026-03-28T16:59:24Z</time></trkpt><trkpt lat="45.07907724525791" lon="10.665191440624339"><ele>21.0</ele><time>2026-03-28T16:59:25Z</time></trkpt><trkpt lat="45.079258945724355" lon="10.665339366802565"><ele>20.0</ele><time>2026-03-28T16:59:26Z</time></trkpt><trkpt lat="45.07943699933465" lon="10.665489657304425"><ele>19.0</ele><time>2026-03-28T16:59:27Z</time></trkpt><trkpt lat="45.07961280742161" lon="10.665647610066557"><ele>18.0</ele><time>2026-03-28T16:59:28Z</time></trkpt><trkpt lat="45.079789514550896" lon="10.665809944522174"><ele>18.0</ele><time>2026-03-28T16:59:29Z</time></trkpt><trkpt lat="45.07996531226483" lon="10.665981642283576"><ele>18.0</ele><time>2026-03-28T16:59:30Z</time></trkpt><trkpt lat="45.080134939281706" lon="10.66615941002179"><ele>18.0</ele><time>2026-03-28T16:59:31Z</time></trkpt><trkpt lat="45.08029402392508" lon="10.666345582431749"><ele>18.0</ele><time>2026-03-28T16:59:32Z</time></trkpt><trkpt lat="45.08045296037484" lon="10.666519727627417"><ele>18.0</ele><time>2026-03-28T16:59:33Z</time></trkpt><trkpt lat="45.08060340167226" lon="10.666693306345039"><ele>18.0</ele><time>2026-03-28T16:59:34Z</time></trkpt><trkpt lat="45.08074329728048" lon="10.666864282786868"><ele>18.0</ele><time>2026-03-28T16:59:35Z</time></trkpt><trkpt lat="45.080868023202925" lon="10.667030955361056"><ele>18.0</ele><time>2026-03-28T16:59:36Z</time></trkpt><trkpt lat="45.08098883189851" lon="10.66719971291193"><ele>18.0</ele><time>2026-03-28T16:59:37Z</time></trkpt><trkpt lat="45.08110942382107" lon="10.667372477408684"><ele>18.0</ele><time>2026-03-28T16:59:38Z</time></trkpt><trkpt lat="45.0812303551595" lon="10.667550932497939"><ele>18.0</ele><time>2026-03-28T16:59:39Z</time></trkpt><trkpt lat="45.08135455802054" lon="10.667735621632916"><ele>18.0</ele><time>2026-03-28T16:59:40Z</time></trkpt><trkpt lat="45.08149516071065" lon="10.667933559610251"><ele>18.0</ele><time>2026-03-28T16:59:41Z</time></trkpt><trkpt lat="45.08165275529444" lon="10.668148247046902"><ele>18.0</ele><time>2026-03-28T16:59:42Z</time></trkpt><trkpt lat="45.081830282649996" lon="10.66840564646732"><ele>18.5</ele><time>2026-03-28T16:59:43Z</time></trkpt><trkpt lat="45.08200200915842" lon="10.668691303177383"><ele>19.0</ele><time>2026-03-28T16:59:43.999Z</time></trkpt><trkpt lat="45.08217450410533" lon="10.668985577095834"><ele>19.0</ele><time>2026-03-28T16:59:44.999Z</time></trkpt><trkpt lat="45.08234958624397" lon="10.669256848543963"><ele>19.0</ele><time>2026-03-28T16:59:45.999Z</time></trkpt><trkpt lat="45.08252813879623" lon="10.66951827596103"><ele>19.5</ele><time>2026-03-28T16:59:46.999Z</time></trkpt><trkpt lat="45.0827022896219" lon="10.669778769856356"><ele>20.0</ele><time>2026-03-28T16:59:47.999Z</time></trkpt><trkpt lat="45.08287946803311" lon="10.670042548697172"><ele>19.5</ele><time>2026-03-28T16:59:48.999Z</time></trkpt><trkpt lat="45.08305677764098" lon="10.670306876058149"><ele>19.0</ele><time>2026-03-28T16:59:49.999Z</time></trkpt><trkpt lat="45.08323238424276" lon="10.670573068189977"><ele>19.0</ele><time>2026-03-28T16:59:50.999Z</time></trkpt><trkpt lat="45.08340980367967" lon="10.670840322813884"><ele>19.0</ele><time>2026-03-28T16:59:51.999Z</time></trkpt><trkpt lat="45.08358708956194" lon="10.671103982916351"><ele>19.5</ele><time>2026-03-28T16:59:52.999Z</time></trkpt><trkpt lat="45.083763906046336" lon="10.671371556489982"><ele>20.0</ele><time>2026-03-28T16:59:53.999Z</time></trkpt><trkpt lat="45.08394004948639" lon="10.671637908471748"><ele>19.5</ele><time>2026-03-28T16:59:54.999Z</time></trkpt><trkpt lat="45.08411654134532" lon="10.67190362208881"><ele>19.0</ele><time>2026-03-28T16:59:55.999Z</time></trkpt><trkpt lat="45.08429046193162" lon="10.672168747335057"><ele>18.5</ele><time>2026-03-28T16:59:56.999Z</time></trkpt><trkpt lat="45.08446613144465" lon="10.672434879594428"><ele>18.0</ele><time>2026-03-28T16:59:57.999Z</time></trkpt><trkpt lat="45.08464136303716" lon="10.67269927078193"><ele>18.5</ele><time>2026-03-28T16:59:58.999Z</time></trkpt><trkpt lat="45.084816531384675" lon="10.672961729247318"><ele>19.0</ele><time>2026-03-28T16:59:59.999Z</time></trkpt><trkpt lat="45.08499045306511" lon="10.67322641572514"><ele>19.0</ele><time>2026-03-28T17:00:00.999Z</time></trkpt><trkpt lat="45.08516458577103" lon="10.673491557561208"><ele>19.0</ele><time>2026-03-28T17:00:01.999Z</time></trkpt><trkpt lat="45.085338997735754" lon="10.673756677554849"><ele>19.5</ele><time>2026-03-28T17:00:02.999Z</time></trkpt><trkpt lat="45.08551227432901" lon="10.674019277450542"><ele>20.0</ele><time>2026-03-28T17:00:03.999Z</time></trkpt><trkpt lat="45.085688332799634" lon="10.674281548636884"><ele>19.5</ele><time>2026-03-28T17:00:04.999Z</time></trkpt><trkpt lat="45.085862987953966" lon="10.674541022647045"><ele>19.0</ele><time>2026-03-28T17:00:05.999Z</time></trkpt><trkpt lat="45.08603779194293" lon="10.674799095218516"><ele>19.0</ele><time>2026-03-28T17:00:06.999Z</time></trkpt><trkpt lat="45.08620926109856" lon="10.67505954286909"><ele>19.0</ele><time>2026-03-28T17:00:07.999Z</time></trkpt><trkpt lat="45.08638008909568" lon="10.675321116011506"><ele>19.0</ele><time>2026-03-28T17:00:08.999Z</time></trkpt><trkpt lat="45.08655249054193" lon="10.675581008234804"><ele>19.0</ele><time>2026-03-28T17:00:09.999Z</time></trkpt><trkpt lat="45.0867240095472" lon="10.675840329064188"><ele>19.5</ele><time>2026-03-28T17:00:10.999Z</time></trkpt><trkpt lat="45.08689694721599" lon="10.676099814718409"><ele>20.0</ele><time>2026-03-28T17:00:11.999Z</time></trkpt><trkpt lat="45.08706830312887" lon="10.676360755076276"><ele>20.0</ele><time>2026-03-28T17:00:12.999Z</time></trkpt><trkpt lat="45.08724077470472" lon="10.676622431668763"><ele>20.0</ele><time>2026-03-28T17:00:13.999Z</time></trkpt><trkpt lat="45.08741645069554" lon="10.676883612803577"><ele>19.5</ele><time>2026-03-28T17:00:14.999Z</time></trkpt><trkpt lat="45.08759105148607" lon="10.677141820573658"><ele>19.0</ele><time>2026-03-28T17:00:15.999Z</time></trkpt><trkpt lat="45.08776377298094" lon="10.67740063598901"><ele>19.0</ele><time>2026-03-28T17:00:16.999Z</time></trkpt><trkpt lat="45.08793676511373" lon="10.677666203794617"><ele>19.0</ele><time>2026-03-28T17:00:17.999Z</time></trkpt><trkpt lat="45.08810664580666" lon="10.677928206271503"><ele>19.0</ele><time>2026-03-28T17:00:18.999Z</time></trkpt><trkpt lat="45.088279768174914" lon="10.678189210976926"><ele>19.0</ele><time>2026-03-28T17:00:19.999Z</time></trkpt><trkpt lat="45.08845535156963" lon="10.678448639363396"><ele>19.0</ele><time>2026-03-28T17:00:20.999Z</time></trkpt><trkpt lat="45.08863077540387" lon="10.678715067623909"><ele>19.0</ele><time>2026-03-28T17:00:21.999Z</time></trkpt><trkpt lat="45.08880133156599" lon="10.678980613757833"><ele>19.0</ele><time>2026-03-28T17:00:22.999Z</time></trkpt><trkpt lat="45.088979700806775" lon="10.679242857076503"><ele>19.0</ele><time>2026-03-28T17:00:23.999Z</time></trkpt><trkpt lat="45.08915494077942" lon="10.679504678069472"><ele>19.5</ele><time>2026-03-28T17:00:24.999Z</time></trkpt><trkpt lat="45.08932367673193" lon="10.679763274036867"><ele>20.0</ele><time>2026-03-28T17:00:25.999Z</time></trkpt><trkpt lat="45.089490902598186" lon="10.68001434301455"><ele>20.0</ele><time>2026-03-28T17:00:26.999Z</time></trkpt><trkpt lat="45.089647322208364" lon="10.680248792375545"><ele>20.0</ele><time>2026-03-28T17:00:27.999Z</time></trkpt><trkpt lat="45.089790070890544" lon="10.680470365656998"><ele>20.0</ele><time>2026-03-28T17:00:28.999Z</time></trkpt><trkpt lat="45.08993219919307" lon="10.680688759237693"><ele>20.0</ele><time>2026-03-28T17:00:29.999Z</time></trkpt><trkpt lat="45.090076670325104" lon="10.680910322792686"><ele>20.0</ele><time>2026-03-28T17:00:30.999Z</time></trkpt><trkpt lat="45.09022454906677" lon="10.681125747603732"><ele>20.0</ele><time>2026-03-28T17:00:31.999Z</time></trkpt><trkpt lat="45.09037491117741" lon="10.681343885387978"><ele>20.0</ele><time>2026-03-28T17:00:32.999Z</time></trkpt><trkpt lat="45.0905233738622" lon="10.681573575469345"><ele>20.0</ele><time>2026-03-28T17:00:33.999Z</time></trkpt><trkpt lat="45.09066358168254" lon="10.681783209448582"><ele>20.0</ele><time>2026-03-28T17:00:34.999Z</time></trkpt><trkpt lat="45.09079307141359" lon="10.681972705041352"><ele>20.0</ele><time>2026-03-28T17:00:35.999Z</time></trkpt><trkpt lat="45.090907106279786" lon="10.68214402726868"><ele>20.0</ele><time>2026-03-28T17:00:36.999Z</time></trkpt><trkpt lat="45.091017670422964" lon="10.682312179528004"><ele>20.0</ele><time>2026-03-28T17:00:37.999Z</time></trkpt><trkpt lat="45.09112110998426" lon="10.68246575840476"><ele>20.0</ele><time>2026-03-28T17:00:38.999Z</time></trkpt><trkpt lat="45.09121845027163" lon="10.682615760997031"><ele>20.0</ele><time>2026-03-28T17:00:39.999Z</time></trkpt><trkpt lat="45.091318902606254" lon="10.682767487184963"><ele>20.0</ele><time>2026-03-28T17:00:40.999Z</time></trkpt><trkpt lat="45.09143250249752" lon="10.682933917057955"><ele>20.0</ele><time>2026-03-28T17:00:41.999Z</time></trkpt><trkpt lat="45.09156941187841" lon="10.683117943085065"><ele>20.0</ele><time>2026-03-28T17:00:42.999Z</time></trkpt><trkpt lat="45.09169747205097" lon="10.683328041647643"><ele>20.0</ele><time>2026-03-28T17:00:43.999Z</time></trkpt><trkpt lat="45.091845989417614" lon="10.68355085697851"><ele>19.333333333333336</ele><time>2026-03-28T17:00:44.999Z</time></trkpt><trkpt lat="45.09199836909357" lon="10.683773111351124"><ele>18.666666666666668</ele><time>2026-03-28T17:00:45.999Z</time></trkpt><trkpt lat="45.092133814601056" lon="10.683996291886443"><ele>18.0</ele><time>2026-03-28T17:00:46.999Z</time></trkpt><trkpt lat="45.092262583619394" lon="10.684191339997659"><ele>18.0</ele><time>2026-03-28T17:00:47.999Z</time></trkpt><trkpt lat="45.09238274676941" lon="10.684367769775315"><ele>18.0</ele><time>2026-03-28T17:00:48.999Z</time></trkpt><trkpt lat="45.092494616173674" lon="10.68453483431979"><ele>18.0</ele><time>2026-03-28T17:00:49.999Z</time></trkpt><trkpt lat="45.092600453460946" lon="10.684697475647653"><ele>18.0</ele><time>2026-03-28T17:00:50.999Z</time></trkpt><trkpt lat="45.09270370983729" lon="10.684853041307186"><ele>18.0</ele><time>2026-03-28T17:00:51.999Z</time></trkpt><trkpt lat="45.092810359701716" lon="10.685011849949912"><ele>18.0</ele><time>2026-03-28T17:00:52.999Z</time></trkpt><trkpt lat="45.09291919762274" lon="10.685175341961646"><ele>18.666666666666668</ele><time>2026-03-28T17:00:53.999Z</time></trkpt><trkpt lat="45.09302869850968" lon="10.685342361200044"><ele>19.333333333333336</ele><time>2026-03-28T17:00:54.999Z</time></trkpt><trkpt lat="45.09313754395796" lon="10.685508184290525"><ele>20.0</ele><time>2026-03-28T17:00:55.999Z</time></trkpt><trkpt lat="45.09324645918271" lon="10.685675194459767"><ele>19.666666666666668</ele><time>2026-03-28T17:00:56.999Z</time></trkpt><trkpt lat="45.09335665595562" lon="10.685840550372442"><ele>19.333333333333332</ele><time>2026-03-28T17:00:57.999Z</time></trkpt><trkpt lat="45.09346804545456" lon="10.686005202030998"><ele>19.0</ele><time>2026-03-28T17:00:58.999Z</time></trkpt><trkpt lat="45.093585502628976" lon="10.686177639897139"><ele>19.0</ele><time>2026-03-28T17:00:59.999Z</time></trkpt><trkpt lat="45.09371782454035" lon="10.686363992073225"><ele>19.0</ele><time>2026-03-28T17:01:00.999Z</time></trkpt><trkpt lat="45.093868387271066" lon="10.68656095008713"><ele>19.0</ele><time>2026-03-28T17:01:01.999Z</time></trkpt><trkpt lat="45.09401693923017" lon="10.686780994628704"><ele>20.0</ele><time>2026-03-28T17:01:02.999Z</time></trkpt><trkpt lat="45.0941620627405" lon="10.687013406730188"><ele>21.0</ele><time>2026-03-28T17:01:03.999Z</time></trkpt><trkpt lat="45.09430758342978" lon="10.687251842955042"><ele>22.0</ele><time>2026-03-28T17:01:04.999Z</time></trkpt><trkpt lat="45.0944506244308" lon="10.687495576954916"><ele>22.0</ele><time>2026-03-28T17:01:05.999Z</time></trkpt><trkpt lat="45.09458985891304" lon="10.687753029755443"><ele>22.0</ele><time>2026-03-28T17:01:06.999Z</time></trkpt><trkpt lat="45.0947261474189" lon="10.688016418516323"><ele>22.0</ele><time>2026-03-28T17:01:07.999Z</time></trkpt><trkpt lat="45.094856065802865" lon="10.688280887645275"><ele>22.0</ele><time>2026-03-28T17:01:08.999Z</time></trkpt><trkpt lat="45.09498300154017" lon="10.688548603714745"><ele>21.666666666666664</ele><time>2026-03-28T17:01:09.999Z</time></trkpt><trkpt lat="45.095108252928775" lon="10.68881373228307"><ele>21.333333333333332</ele><time>2026-03-28T17:01:10.999Z</time></trkpt><trkpt lat="45.09522705243242" lon="10.689073007415365"><ele>21.0</ele><time>2026-03-28T17:01:11.999Z</time></trkpt><trkpt lat="45.095340706088756" lon="10.689332691420745"><ele>20.666666666666668</ele><time>2026-03-28T17:01:12.999Z</time></trkpt><trkpt lat="45.09545170183283" lon="10.68960188284093"><ele>20.333333333333336</ele><time>2026-03-28T17:01:13.999Z</time></trkpt><trkpt lat="45.095557753516296" lon="10.689878224429302"><ele>20.0</ele><time>2026-03-28T17:01:14.999Z</time></trkpt><trkpt lat="45.09565926260874" lon="10.690159982459368"><ele>20.666666666666668</ele><time>2026-03-28T17:01:15.999Z</time></trkpt><trkpt lat="45.095756811371125" lon="10.69044519588586"><ele>21.333333333333332</ele><time>2026-03-28T17:01:16.999Z</time></trkpt><trkpt lat="45.09585391156683" lon="10.690733951126758"><ele>22.0</ele><time>2026-03-28T17:01:17.999Z</time></trkpt><trkpt lat="45.09595445998307" lon="10.69102887309272"><ele>21.5</ele><time>2026-03-28T17:01:18.999Z</time></trkpt><trkpt lat="45.09605385450574" lon="10.691329785651938"><ele>21.0</ele><time>2026-03-28T17:01:19.999Z</time></trkpt><trkpt lat="45.09615350757271" lon="10.69163254652376"><ele>21.0</ele><time>2026-03-28T17:01:21Z</time></trkpt><trkpt lat="45.09625364588991" lon="10.69193764614438"><ele>21.0</ele><time>2026-03-28T17:01:22Z</time></trkpt><trkpt lat="45.096352306563716" lon="10.692244383629454"><ele>21.0</ele><time>2026-03-28T17:01:23Z</time></trkpt><trkpt lat="45.096449037461014" lon="10.69255061290966"><ele>21.0</ele><time>2026-03-28T17:01:24Z</time></trkpt><trkpt lat="45.09654552922799" lon="10.69285477131631"><ele>21.5</ele><time>2026-03-28T17:01:25Z</time></trkpt><trkpt lat="45.09664434571076" lon="10.693156476725136"><ele>22.0</ele><time>2026-03-28T17:01:26Z</time></trkpt><trkpt lat="45.09674348950215" lon="10.693457910664474"><ele>20.5</ele><time>2026-03-28T17:01:27Z</time></trkpt><trkpt lat="45.096841357712705" lon="10.693755351299965"><ele>19.0</ele><time>2026-03-28T17:01:28Z</time></trkpt><trkpt lat="45.09694011445439" lon="10.694051038433843"><ele>19.0</ele><time>2026-03-28T17:01:29Z</time></trkpt><trkpt lat="45.09703528765853" lon="10.694347850886794"><ele>19.0</ele><time>2026-03-28T17:01:30Z</time></trkpt><trkpt lat="45.09712820044581" lon="10.694645084034097"><ele>19.5</ele><time>2026-03-28T17:01:31Z</time></trkpt><trkpt lat="45.09722285359413" lon="10.694940427879017"><ele>20.0</ele><time>2026-03-28T17:01:32Z</time></trkpt><trkpt lat="45.09731777504702" lon="10.695237181771526"><ele>20.0</ele><time>2026-03-28T17:01:33Z</time></trkpt><trkpt lat="45.097412626940645" lon="10.695533087127075"><ele>20.0</ele><time>2026-03-28T17:01:34Z</time></trkpt><trkpt lat="45.097506787345935" lon="10.695827492307801"><ele>20.0</ele><time>2026-03-28T17:01:35Z</time></trkpt><trkpt lat="45.09760306361807" lon="10.696123674423378"><ele>20.0</ele><time>2026-03-28T17:01:36Z</time></trkpt><trkpt lat="45.09769664829891" lon="10.696419388007067"><ele>20.0</ele><time>2026-03-28T17:01:37Z</time></trkpt><trkpt lat="45.09779172810611" lon="10.696716661723462"><ele>20.0</ele><time>2026-03-28T17:01:38Z</time></trkpt><trkpt lat="45.09788700912841" lon="10.69701445163835"><ele>19.5</ele><time>2026-03-28T17:01:39Z</time></trkpt><trkpt lat="45.097983142842324" lon="10.697312264394593"><ele>19.0</ele><time>2026-03-28T17:01:40Z</time></trkpt><trkpt lat="45.09807846026327" lon="10.697605028726157"><ele>19.5</ele><time>2026-03-28T17:01:41Z</time></trkpt><trkpt lat="45.098174854174545" lon="10.697893848386682"><ele>20.0</ele><time>2026-03-28T17:01:42Z</time></trkpt><trkpt lat="45.098271337886246" lon="10.69818577208272"><ele>19.5</ele><time>2026-03-28T17:01:43Z</time></trkpt><trkpt lat="45.09836810622779" lon="10.698479325441896"><ele>19.0</ele><time>2026-03-28T17:01:44Z</time></trkpt><trkpt lat="45.09846432722708" lon="10.69877747595051"><ele>19.0</ele><time>2026-03-28T17:01:45Z</time></trkpt><trkpt lat="45.09855854249207" lon="10.699073479013265"><ele>19.0</ele><time>2026-03-28T17:01:46Z</time></trkpt><trkpt lat="45.09865422473317" lon="10.699372651690384"><ele>20.5</ele><time>2026-03-28T17:01:47Z</time></trkpt><trkpt lat="45.09875220014299" lon="10.699672439537748"><ele>22.0</ele><time>2026-03-28T17:01:48Z</time></trkpt><trkpt lat="45.0988508806152" lon="10.699975972443738"><ele>21.0</ele><time>2026-03-28T17:01:49Z</time></trkpt><trkpt lat="45.098950137180246" lon="10.700281907411792"><ele>20.0</ele><time>2026-03-28T17:01:50Z</time></trkpt><trkpt lat="45.099049743079874" lon="10.700590085797653"><ele>19.5</ele><time>2026-03-28T17:01:51Z</time></trkpt><trkpt lat="45.09914861655097" lon="10.700899981639536"><ele>19.0</ele><time>2026-03-28T17:01:52Z</time></trkpt><trkpt lat="45.0992458704805" lon="10.701208421703141"><ele>19.0</ele><time>2026-03-28T17:01:53Z</time></trkpt><trkpt lat="45.099345605749114" lon="10.70151423748817"><ele>19.0</ele><time>2026-03-28T17:01:54Z</time></trkpt><trkpt lat="45.09944701099189" lon="10.701821090138473"><ele>18.5</ele><time>2026-03-28T17:01:55Z</time></trkpt><trkpt lat="45.099546110133645" lon="10.702126053550959"><ele>18.0</ele><time>2026-03-28T17:01:56Z</time></trkpt><trkpt lat="45.099646212405354" lon="10.702433150047051"><ele>18.0</ele><time>2026-03-28T17:01:57Z</time></trkpt><trkpt lat="45.099745488100154" lon="10.70274208181619"><ele>18.0</ele><time>2026-03-28T17:01:58Z</time></trkpt><trkpt lat="45.099843706164606" lon="10.703049987294582"><ele>17.666666666666668</ele><time>2026-03-28T17:01:59Z</time></trkpt><trkpt lat="45.0999378771687" lon="10.70334361925123"><ele>17.333333333333336</ele><time>2026-03-28T17:02:00Z</time></trkpt><trkpt lat="45.10002740826383" lon="10.70361966817356"><ele>17.0</ele><time>2026-03-28T17:02:01Z</time></trkpt><trkpt lat="45.1001134918225" lon="10.70388239033868"><ele>17.0</ele><time>2026-03-28T17:02:02Z</time></trkpt><trkpt lat="45.10019546212933" lon="10.704139100756477"><ele>17.0</ele><time>2026-03-28T17:02:03Z</time></trkpt><trkpt lat="45.10027327467283" lon="10.70438211900632"><ele>17.0</ele><time>2026-03-28T17:02:04Z</time></trkpt><trkpt lat="45.10034731588724" lon="10.704609471212216"><ele>17.0</ele><time>2026-03-28T17:02:04.999Z</time></trkpt><trkpt lat="45.100416274888936" lon="10.70482288139874"><ele>17.0</ele><time>2026-03-28T17:02:05.999Z</time></trkpt><trkpt lat="45.10048093080417" lon="10.705022555255916"><ele>17.0</ele><time>2026-03-28T17:02:06.999Z</time></trkpt><trkpt lat="45.100540727853996" lon="10.705209887623791"><ele>17.75</ele><time>2026-03-28T17:02:07.999Z</time></trkpt><trkpt lat="45.100596494033375" lon="10.705382921617748"><ele>18.5</ele><time>2026-03-28T17:02:08.999Z</time></trkpt><trkpt lat="45.10064969581979" lon="10.705545207705223"><ele>19.25</ele><time>2026-03-28T17:02:09.999Z</time></trkpt><trkpt lat="45.10069816507934" lon="10.705697218500001"><ele>20.0</ele><time>2026-03-28T17:02:10.999Z</time></trkpt><trkpt lat="45.100744302675736" lon="10.705844038692549"><ele>20.0</ele><time>2026-03-28T17:02:11.999Z</time></trkpt><trkpt lat="45.100794864554615" lon="10.70600088045065"><ele>20.0</ele><time>2026-03-28T17:02:12.999Z</time></trkpt><trkpt lat="45.100849854498605" lon="10.706166607975508"><ele>20.0</ele><time>2026-03-28T17:02:13.999Z</time></trkpt><trkpt lat="45.10090672983923" lon="10.706338805003433"><ele>20.0</ele><time>2026-03-28T17:02:14.999Z</time></trkpt><trkpt lat="45.10096258342844" lon="10.706513501890726"><ele>20.0</ele><time>2026-03-28T17:02:15.999Z</time></trkpt><trkpt lat="45.10101672869193" lon="10.706688771246618"><ele>20.0</ele><time>2026-03-28T17:02:16.999Z</time></trkpt><trkpt lat="45.10107537444914" lon="10.706865024690714"><ele>20.0</ele><time>2026-03-28T17:02:17.999Z</time></trkpt><trkpt lat="45.10113585908321" lon="10.707050320473883"><ele>20.0</ele><time>2026-03-28T17:02:18.999Z</time></trkpt><trkpt lat="45.101197836771725" lon="10.707240160158117"><ele>20.0</ele><time>2026-03-28T17:02:19.999Z</time></trkpt><trkpt lat="45.10126246773516" lon="10.70743310634651"><ele>20.0</ele><time>2026-03-28T17:02:20.999Z</time></trkpt><trkpt lat="45.10132755999268" lon="10.707634441341447"><ele>20.0</ele><time>2026-03-28T17:02:21.999Z</time></trkpt><trkpt lat="45.10139626008041" lon="10.707851944083869"><ele>20.0</ele><time>2026-03-28T17:02:22.999Z</time></trkpt><trkpt lat="45.101476137488326" lon="10.708089231007017"><ele>20.0</ele><time>2026-03-28T17:02:23.999Z</time></trkpt><trkpt lat="45.101558542452516" lon="10.708341570567857"><ele>20.0</ele><time>2026-03-28T17:02:24.999Z</time></trkpt><trkpt lat="45.10164292967283" lon="10.708611971538861"><ele>21.0</ele><time>2026-03-28T17:02:25.999Z</time></trkpt><trkpt lat="45.10173190795347" lon="10.708892110498732"><ele>22.0</ele><time>2026-03-28T17:02:26.999Z</time></trkpt><trkpt lat="45.101826056540595" lon="10.70918301539362"><ele>23.0</ele><time>2026-03-28T17:02:27.999Z</time></trkpt><trkpt lat="45.101921610557895" lon="10.70947549646725"><ele>23.0</ele><time>2026-03-28T17:02:28.999Z</time></trkpt><trkpt lat="45.10201794936248" lon="10.709775708426562"><ele>23.0</ele><time>2026-03-28T17:02:29.999Z</time></trkpt><trkpt lat="45.10211314408527" lon="10.710076835005877"><ele>23.0</ele><time>2026-03-28T17:02:30.999Z</time></trkpt><trkpt lat="45.1022100253388" lon="10.710377143712915"><ele>23.0</ele><time>2026-03-28T17:02:31.999Z</time></trkpt><trkpt lat="45.10230798507833" lon="10.710674249353504"><ele>23.0</ele><time>2026-03-28T17:02:32.999Z</time></trkpt><trkpt lat="45.102404836079266" lon="10.710968865453589"><ele>23.0</ele><time>2026-03-28T17:02:33.999Z</time></trkpt><trkpt lat="45.102500735188286" lon="10.711264761006037"><ele>22.5</ele><time>2026-03-28T17:02:34.999Z</time></trkpt><trkpt lat="45.10259568993353" lon="10.711556426300891"><ele>22.0</ele><time>2026-03-28T17:02:35.999Z</time></trkpt><trkpt lat="45.10269088633294" lon="10.711848166987668"><ele>22.333333333333332</ele><time>2026-03-28T17:02:36.999Z</time></trkpt><trkpt lat="45.10278566749333" lon="10.712135970253547"><ele>22.666666666666668</ele><time>2026-03-28T17:02:37.999Z</time></trkpt><trkpt lat="45.10287935960892" lon="10.712422821003537"><ele>23.0</ele><time>2026-03-28T17:02:38.999Z</time></trkpt><trkpt lat="45.102970233982994" lon="10.71270889030182"><ele>21.666666666666668</ele><time>2026-03-28T17:02:39.999Z</time></trkpt><trkpt lat="45.103061042397044" lon="10.712994197931595"><ele>20.333333333333332</ele><time>2026-03-28T17:02:40.999Z</time></trkpt><trkpt lat="45.103152528213606" lon="10.713277835337477"><ele>19.0</ele><time>2026-03-28T17:02:41.999Z</time></trkpt><trkpt lat="45.103244884906026" lon="10.713560289204965"><ele>20.0</ele><time>2026-03-28T17:02:42.999Z</time></trkpt><trkpt lat="45.103338856246836" lon="10.7138378156968"><ele>21.0</ele><time>2026-03-28T17:02:43.999Z</time></trkpt><trkpt lat="45.103434403361106" lon="10.714111272039236"><ele>22.0</ele><time>2026-03-28T17:02:44.999Z</time></trkpt><trkpt lat="45.103535821155866" lon="10.714380965766223"><ele>23.0</ele><time>2026-03-28T17:02:45.999Z</time></trkpt><trkpt lat="45.10364267717339" lon="10.714643474729575"><ele>24.0</ele><time>2026-03-28T17:02:46.999Z</time></trkpt><trkpt lat="45.103757007842674" lon="10.71490124315494"><ele>25.0</ele><time>2026-03-28T17:02:47.999Z</time></trkpt><trkpt lat="45.10388273034973" lon="10.715153925278212"><ele>24.333333333333336</ele><time>2026-03-28T17:02:48.999Z</time></trkpt><trkpt lat="45.10401712387561" lon="10.715399051295888"><ele>23.666666666666668</ele><time>2026-03-28T17:02:49.999Z</time></trkpt><trkpt lat="45.104163345474966" lon="10.715641483963607"><ele>23.0</ele><time>2026-03-28T17:02:50.999Z</time></trkpt><trkpt lat="45.104318934801626" lon="10.715877155721753"><ele>23.0</ele><time>2026-03-28T17:02:51.999Z</time></trkpt><trkpt lat="45.10448553426224" lon="10.71610592843273"><ele>23.0</ele><time>2026-03-28T17:02:52.999Z</time></trkpt><trkpt lat="45.104658059197725" lon="10.716328357099217"><ele>23.0</ele><time>2026-03-28T17:02:53.999Z</time></trkpt><trkpt lat="45.10483701761022" lon="10.716546372804173"><ele>23.0</ele><time>2026-03-28T17:02:54.999Z</time></trkpt><trkpt lat="45.105023438977376" lon="10.716750167703252"><ele>23.0</ele><time>2026-03-28T17:02:55.999Z</time></trkpt><trkpt lat="45.10521992584144" lon="10.716945809961775"><ele>23.0</ele><time>2026-03-28T17:02:56.999Z</time></trkpt><trkpt lat="45.105419740299524" lon="10.717138379550248"><ele>23.0</ele><time>2026-03-28T17:02:57.999Z</time></trkpt><trkpt lat="45.105627598582984" lon="10.717313198410471"><ele>23.0</ele><time>2026-03-28T17:02:58.999Z</time></trkpt><trkpt lat="45.105846837263115" lon="10.717461536257405"><ele>23.0</ele><time>2026-03-28T17:02:59.999Z</time></trkpt><trkpt lat="45.10606994543207" lon="10.71759428822028"><ele>23.0</ele><time>2026-03-28T17:03:00.999Z</time></trkpt><trkpt lat="45.106295878012446" lon="10.71772584141492"><ele>22.5</ele><time>2026-03-28T17:03:01.999Z</time></trkpt><trkpt lat="45.106523442962" lon="10.71785691358876"><ele>22.0</ele><time>2026-03-28T17:03:02.999Z</time></trkpt><trkpt lat="45.106756355970205" lon="10.717988581710735"><ele>21.5</ele><time>2026-03-28T17:03:03.999Z</time></trkpt><trkpt lat="45.106985278140066" lon="10.718118789085976"><ele>21.0</ele><time>2026-03-28T17:03:04.999Z</time></trkpt><trkpt lat="45.10721680956437" lon="10.718250751185959"><ele>21.5</ele><time>2026-03-28T17:03:05.999Z</time></trkpt><trkpt lat="45.10744834230758" lon="10.718382031367186"><ele>22.0</ele><time>2026-03-28T17:03:06.999Z</time></trkpt><trkpt lat="45.107683055907664" lon="10.718513836540357"><ele>21.5</ele><time>2026-03-28T17:03:07.999Z</time></trkpt><trkpt lat="45.10791644852534" lon="10.7186437155919"><ele>21.0</ele><time>2026-03-28T17:03:08.999Z</time></trkpt><trkpt lat="45.10815060110156" lon="10.718776149025908"><ele>21.0</ele><time>2026-03-28T17:03:09.999Z</time></trkpt><trkpt lat="45.108384143802496" lon="10.718910568298616"><ele>21.0</ele><time>2026-03-28T17:03:10.999Z</time></trkpt><trkpt lat="45.10861297840092" lon="10.719046277254034"><ele>21.0</ele><time>2026-03-28T17:03:11.999Z</time></trkpt><trkpt lat="45.10884185107693" lon="10.719179977604641"><ele>21.0</ele><time>2026-03-28T17:03:12.999Z</time></trkpt><trkpt lat="45.10907094163665" lon="10.719311798835632"><ele>21.0</ele><time>2026-03-28T17:03:13.999Z</time></trkpt><trkpt lat="45.10930196798592" lon="10.71944551587617"><ele>21.0</ele><time>2026-03-28T17:03:14.999Z</time></trkpt><trkpt lat="45.1095303866461" lon="10.719578673499187"><ele>21.0</ele><time>2026-03-28T17:03:15.999Z</time></trkpt><trkpt lat="45.109760302161035" lon="10.719712624874077"><ele>21.0</ele><time>2026-03-28T17:03:16.999Z</time></trkpt><trkpt lat="45.10998858830086" lon="10.719849150658575"><ele>22.5</ele><time>2026-03-28T17:03:17.999Z</time></trkpt><trkpt lat="45.11022067945343" lon="10.719987563042746"><ele>24.0</ele><time>2026-03-28T17:03:18.999Z</time></trkpt><trkpt lat="45.110450575518094" lon="10.720122994303946"><ele>24.0</ele><time>2026-03-28T17:03:19.999Z</time></trkpt><trkpt lat="45.11068227024131" lon="10.720258286178455"><ele>24.0</ele><time>2026-03-28T17:03:20.999Z</time></trkpt><trkpt lat="45.110911745499465" lon="10.720388208277182"><ele>23.0</ele><time>2026-03-28T17:03:21.999Z</time></trkpt><trkpt lat="45.11114510378071" lon="10.720527214180928"><ele>22.0</ele><time>2026-03-28T17:03:22.999Z</time></trkpt><trkpt lat="45.11138054567947" lon="10.720669162777915"><ele>22.5</ele><time>2026-03-28T17:03:23.999Z</time></trkpt><trkpt lat="45.111615734556786" lon="10.72080497561435"><ele>23.0</ele><time>2026-03-28T17:03:24.999Z</time></trkpt><trkpt lat="45.11185489717065" lon="10.72094101062685"><ele>22.0</ele><time>2026-03-28T17:03:25.999Z</time></trkpt><trkpt lat="45.112093011221575" lon="10.721081344637973"><ele>21.0</ele><time>2026-03-28T17:03:27Z</time></trkpt><trkpt lat="45.112327187788075" lon="10.721218589152793"><ele>21.0</ele><time>2026-03-28T17:03:28Z</time></trkpt><trkpt lat="45.11255822484228" lon="10.72135507063169"><ele>21.0</ele><time>2026-03-28T17:03:29Z</time></trkpt><trkpt lat="45.11279072053471" lon="10.721494843941947"><ele>21.0</ele><time>2026-03-28T17:03:30Z</time></trkpt><trkpt lat="45.11302327587539" lon="10.721629735216887"><ele>21.0</ele><time>2026-03-28T17:03:31Z</time></trkpt><trkpt lat="45.113254577087694" lon="10.721765005768695"><ele>21.5</ele><time>2026-03-28T17:03:32Z</time></trkpt><trkpt lat="45.113487034591316" lon="10.721900451993378"><ele>22.0</ele><time>2026-03-28T17:03:33Z</time></trkpt><trkpt lat="45.113719054821985" lon="10.722038029873206"><ele>22.0</ele><time>2026-03-28T17:03:34Z</time></trkpt><trkpt lat="45.11394938712447" lon="10.722171315683068"><ele>22.0</ele><time>2026-03-28T17:03:35Z</time></trkpt><trkpt lat="45.11417865483117" lon="10.722301901640252"><ele>21.5</ele><time>2026-03-28T17:03:36Z</time></trkpt><trkpt lat="45.114404637819824" lon="10.722432081293787"><ele>21.0</ele><time>2026-03-28T17:03:37Z</time></trkpt><trkpt lat="45.114625216295806" lon="10.722561427540086"><ele>21.0</ele><time>2026-03-28T17:03:38Z</time></trkpt><trkpt lat="45.11484396609468" lon="10.72269062910019"><ele>21.0</ele><time>2026-03-28T17:03:39Z</time></trkpt><trkpt lat="45.11506020374166" lon="10.72282066855212"><ele>21.5</ele><time>2026-03-28T17:03:40Z</time></trkpt><trkpt lat="45.115272976691045" lon="10.722955050673852"><ele>22.0</ele><time>2026-03-28T17:03:41Z</time></trkpt><trkpt lat="45.11548307216035" lon="10.723098049254572"><ele>22.0</ele><time>2026-03-28T17:03:42Z</time></trkpt><trkpt lat="45.11569236350594" lon="10.72325005153185"><ele>22.0</ele><time>2026-03-28T17:03:43Z</time></trkpt><trkpt lat="45.115896110380646" lon="10.723413300191243"><ele>22.0</ele><time>2026-03-28T17:03:44Z</time></trkpt><trkpt lat="45.116098761943995" lon="10.72358368914279"><ele>22.0</ele><time>2026-03-28T17:03:45Z</time></trkpt><trkpt lat="45.116295237098676" lon="10.723761426567759"><ele>22.0</ele><time>2026-03-28T17:03:46Z</time></trkpt><trkpt lat="45.116488654076264" lon="10.723950752349905"><ele>22.0</ele><time>2026-03-28T17:03:47Z</time></trkpt><trkpt lat="45.11667581478628" lon="10.724158338249012"><ele>22.5</ele><time>2026-03-28T17:03:48Z</time></trkpt><trkpt lat="45.11686176568658" lon="10.724366210221998"><ele>23.0</ele><time>2026-03-28T17:03:49Z</time></trkpt><trkpt lat="45.11704203288499" lon="10.724588601058446"><ele>23.0</ele><time>2026-03-28T17:03:50Z</time></trkpt><trkpt lat="45.1172167796987" lon="10.724819682754793"><ele>23.0</ele><time>2026-03-28T17:03:51Z</time></trkpt><trkpt lat="45.117387610266164" lon="10.725061762968773"><ele>24.0</ele><time>2026-03-28T17:03:52Z</time></trkpt><trkpt lat="45.117551848970045" lon="10.725305332373791"><ele>25.0</ele><time>2026-03-28T17:03:53Z</time></trkpt><trkpt lat="45.11770964367684" lon="10.725556875980706"><ele>25.0</ele><time>2026-03-28T17:03:54Z</time></trkpt><trkpt lat="45.11786160075839" lon="10.725809841396199"><ele>25.0</ele><time>2026-03-28T17:03:55Z</time></trkpt><trkpt lat="45.11800728908807" lon="10.72607375514182"><ele>25.0</ele><time>2026-03-28T17:03:56Z</time></trkpt><trkpt lat="45.118150030815855" lon="10.726341803198308"><ele>25.0</ele><time>2026-03-28T17:03:57Z</time></trkpt><trkpt lat="45.118288874144994" lon="10.726608202330542"><ele>24.0</ele><time>2026-03-28T17:03:58Z</time></trkpt><trkpt lat="45.118424998024956" lon="10.726879257098215"><ele>23.0</ele><time>2026-03-28T17:03:59Z</time></trkpt><trkpt lat="45.11855849186412" lon="10.727150267272933"><ele>22.5</ele><time>2026-03-28T17:04:00Z</time></trkpt><trkpt lat="45.11869351967574" lon="10.72742135111971"><ele>22.0</ele><time>2026-03-28T17:04:01Z</time></trkpt><trkpt lat="45.11883034172093" lon="10.727691066212394"><ele>21.5</ele><time>2026-03-28T17:04:02Z</time></trkpt><trkpt lat="45.11897124636176" lon="10.72795625617415"><ele>21.0</ele><time>2026-03-28T17:04:03Z</time></trkpt><trkpt lat="45.11910582587967" lon="10.728228408375294"><ele>22.0</ele><time>2026-03-28T17:04:04Z</time></trkpt><trkpt lat="45.1192438136811" lon="10.728495614893237"><ele>23.0</ele><time>2026-03-28T17:04:05Z</time></trkpt><trkpt lat="45.11946742671405" lon="10.728672899430869"><ele>24.0</ele><time>2026-03-28T17:04:06Z</time></trkpt><trkpt lat="45.119652073276754" lon="10.728883145191984"><ele>25.0</ele><time>2026-03-28T17:04:07Z</time></trkpt><trkpt lat="45.11983751533132" lon="10.729082006183557"><ele>24.5</ele><time>2026-03-28T17:04:08Z</time></trkpt><trkpt lat="45.12002120515103" lon="10.729289909325155"><ele>24.0</ele><time>2026-03-28T17:04:09Z</time></trkpt><trkpt lat="45.12020004494151" lon="10.729502737005095"><ele>24.0</ele><time>2026-03-28T17:04:10Z</time></trkpt><trkpt lat="45.12037322088495" lon="10.7297248068049"><ele>24.0</ele><time>2026-03-28T17:04:11Z</time></trkpt><trkpt lat="45.1205367192251" lon="10.729964357795456"><ele>24.0</ele><time>2026-03-28T17:04:12Z</time></trkpt><trkpt lat="45.1206850907289" lon="10.730215395874643"><ele>24.0</ele><time>2026-03-28T17:04:13Z</time></trkpt><trkpt lat="45.120818548161004" lon="10.73047687567485"><ele>23.5</ele><time>2026-03-28T17:04:14Z</time></trkpt><trkpt lat="45.12094862819897" lon="10.73074129095778"><ele>23.0</ele><time>2026-03-28T17:04:15Z</time></trkpt><trkpt lat="45.121079779593174" lon="10.731003248395556"><ele>22.5</ele><time>2026-03-28T17:04:15.999Z</time></trkpt><trkpt lat="45.121215143453995" lon="10.731263669130882"><ele>22.0</ele><time>2026-03-28T17:04:16.999Z</time></trkpt><trkpt lat="45.12135316830958" lon="10.731510217312616"><ele>22.0</ele><time>2026-03-28T17:04:17.999Z</time></trkpt><trkpt lat="45.12150012601914" lon="10.731738140207561"><ele>22.0</ele><time>2026-03-28T17:04:18.999Z</time></trkpt><trkpt lat="45.121656130801924" lon="10.731947413298775"><ele>22.0</ele><time>2026-03-28T17:04:19.999Z</time></trkpt><trkpt lat="45.121808986704615" lon="10.732168043147569"><ele>22.0</ele><time>2026-03-28T17:04:20.999Z</time></trkpt><trkpt lat="45.12196340043554" lon="10.732352658186214"><ele>22.0</ele><time>2026-03-28T17:04:21.999Z</time></trkpt><trkpt lat="45.122105828486234" lon="10.73251983721359"><ele>22.0</ele><time>2026-03-28T17:04:22.999Z</time></trkpt><trkpt lat="45.12223995413924" lon="10.73267131536398"><ele>21.333333333333332</ele><time>2026-03-28T17:04:23.999Z</time></trkpt><trkpt lat="45.12237016830931" lon="10.732814176899652"><ele>20.666666666666668</ele><time>2026-03-28T17:04:24.999Z</time></trkpt><trkpt lat="45.12249649307518" lon="10.732957809017437"><ele>20.0</ele><time>2026-03-28T17:04:25.999Z</time></trkpt><trkpt lat="45.1226077190625" lon="10.73309981003788"><ele>20.0</ele><time>2026-03-28T17:04:26.999Z</time></trkpt><trkpt lat="45.12270632883854" lon="10.733242448470513"><ele>20.0</ele><time>2026-03-28T17:04:27.999Z</time></trkpt><trkpt lat="45.122795499393455" lon="10.733398096705702"><ele>20.0</ele><time>2026-03-28T17:04:28.999Z</time></trkpt><trkpt lat="45.12286915031085" lon="10.733560164285395"><ele>20.0</ele><time>2026-03-28T17:04:29.999Z</time></trkpt><trkpt lat="45.12293031870414" lon="10.733734559898908"><ele>20.0</ele><time>2026-03-28T17:04:30.999Z</time></trkpt><trkpt lat="45.122987482435455" lon="10.733913683073688"><ele>20.0</ele><time>2026-03-28T17:04:31.999Z</time></trkpt><trkpt lat="45.12305410044023" lon="10.734081831671926"><ele>20.0</ele><time>2026-03-28T17:04:32.999Z</time></trkpt><trkpt lat="45.12314228144922" lon="10.734219009748417"><ele>20.0</ele><time>2026-03-28T17:04:33.999Z</time></trkpt><trkpt lat="45.12325338749727" lon="10.734300863494989"><ele>20.5</ele><time>2026-03-28T17:04:34.999Z</time></trkpt><trkpt lat="45.123388252005334" lon="10.734336591851553"><ele>21.0</ele><time>2026-03-28T17:04:35.999Z</time></trkpt><trkpt lat="45.1235350539965" lon="10.734366878072771"><ele>21.5</ele><time>2026-03-28T17:04:36.999Z</time></trkpt><trkpt lat="45.123687002699484" lon="10.734440478716381"><ele>22.0</ele><time>2026-03-28T17:04:37.999Z</time></trkpt><trkpt lat="45.123844733498444" lon="10.734572138890602"><ele>23.0</ele><time>2026-03-28T17:04:38.999Z</time></trkpt><trkpt lat="45.12400028781121" lon="10.734739685039003"><ele>24.0</ele><time>2026-03-28T17:04:39.999Z</time></trkpt><trkpt lat="45.12415190952795" lon="10.73492752047422"><ele>25.0</ele><time>2026-03-28T17:04:40.999Z</time></trkpt><trkpt lat="45.12430551175102" lon="10.735124450429408"><ele>24.333333333333336</ele><time>2026-03-28T17:04:41.999Z</time></trkpt><trkpt lat="45.12445909039835" lon="10.735323709371375"><ele>23.666666666666668</ele><time>2026-03-28T17:04:42.999Z</time></trkpt><trkpt lat="45.124615225744314" lon="10.735559826688903"><ele>23.0</ele><time>2026-03-28T17:04:43.999Z</time></trkpt><trkpt lat="45.124773418153026" lon="10.735786177288748"><ele>22.5</ele><time>2026-03-28T17:04:44.999Z</time></trkpt><trkpt lat="45.12493822061075" lon="10.736019909956248"><ele>22.0</ele><time>2026-03-28T17:04:45.999Z</time></trkpt><trkpt lat="45.12510087750082" lon="10.736252282504685"><ele>21.5</ele><time>2026-03-28T17:04:46.999Z</time></trkpt><trkpt lat="45.125263496595274" lon="10.736483307305734"><ele>21.0</ele><time>2026-03-28T17:04:47.999Z</time></trkpt><trkpt lat="45.125428042886675" lon="10.736712217672682"><ele>21.0</ele><time>2026-03-28T17:04:48.999Z</time></trkpt><trkpt lat="45.12559372381421" lon="10.736944734902194"><ele>21.0</ele><time>2026-03-28T17:04:49.999Z</time></trkpt><trkpt lat="45.12575535896867" lon="10.73718151659536"><ele>21.5</ele><time>2026-03-28T17:04:50.999Z</time></trkpt><trkpt lat="45.125918194219864" lon="10.737418758391058"><ele>22.0</ele><time>2026-03-28T17:04:51.999Z</time></trkpt><trkpt lat="45.12608215030331" lon="10.737652630108537"><ele>22.0</ele><time>2026-03-28T17:04:52.999Z</time></trkpt><trkpt lat="45.12624714851001" lon="10.737884915094844"><ele>22.0</ele><time>2026-03-28T17:04:53.999Z</time></trkpt><trkpt lat="45.12641086405523" lon="10.73811984703443"><ele>20.0</ele><time>2026-03-28T17:04:54.999Z</time></trkpt><trkpt lat="45.12657240159054" lon="10.738352600322077"><ele>18.0</ele><time>2026-03-28T17:04:55.999Z</time></trkpt><trkpt lat="45.12673451530809" lon="10.738585064358274"><ele>18.0</ele><time>2026-03-28T17:04:56.999Z</time></trkpt><trkpt lat="45.12689774719126" lon="10.738820516299317"><ele>18.0</ele><time>2026-03-28T17:04:57.999Z</time></trkpt><trkpt lat="45.127061888043755" lon="10.739052694742606"><ele>18.0</ele><time>2026-03-28T17:04:58.999Z</time></trkpt><trkpt lat="45.12722909595963" lon="10.739289101811313"><ele>18.0</ele><time>2026-03-28T17:04:59.999Z</time></trkpt><trkpt lat="45.127396294635034" lon="10.739523683494022"><ele>17.5</ele><time>2026-03-28T17:05:00.999Z</time></trkpt><trkpt lat="45.127565468153605" lon="10.73976182953574"><ele>17.0</ele><time>2026-03-28T17:05:01.999Z</time></trkpt><trkpt lat="45.127736212179315" lon="10.740003161110222"><ele>19.0</ele><time>2026-03-28T17:05:02.999Z</time></trkpt><trkpt lat="45.12790771369127" lon="10.740244273662583"><ele>21.0</ele><time>2026-03-28T17:05:03.999Z</time></trkpt><trkpt lat="45.12807778980833" lon="10.740485622924444"><ele>20.0</ele><time>2026-03-28T17:05:04.999Z</time></trkpt><trkpt lat="45.12824651942696" lon="10.740726739988881"><ele>19.0</ele><time>2026-03-28T17:05:05.999Z</time></trkpt><trkpt lat="45.12841196607628" lon="10.740964603293184"><ele>20.5</ele><time>2026-03-28T17:05:06.999Z</time></trkpt><trkpt lat="45.12857493249888" lon="10.74119919883703"><ele>22.0</ele><time>2026-03-28T17:05:07.999Z</time></trkpt><trkpt lat="45.12873600499236" lon="10.741427020286665"><ele>22.0</ele><time>2026-03-28T17:05:08.999Z</time></trkpt><trkpt lat="45.1288915344625" lon="10.741648138979013"><ele>22.0</ele><time>2026-03-28T17:05:09.999Z</time></trkpt><trkpt lat="45.12903605882521" lon="10.741854788292951"><ele>22.0</ele><time>2026-03-28T17:05:10.999Z</time></trkpt><trkpt lat="45.12916853617218" lon="10.742044232810748"><ele>21.666666666666664</ele><time>2026-03-28T17:05:11.999Z</time></trkpt><trkpt lat="45.12929578711003" lon="10.74222851558716"><ele>21.333333333333332</ele><time>2026-03-28T17:05:12.999Z</time></trkpt><trkpt lat="45.1294173472953" lon="10.74240431272178"><ele>21.0</ele><time>2026-03-28T17:05:13.999Z</time></trkpt><trkpt lat="45.12953704411873" lon="10.742568609509329"><ele>21.25</ele><time>2026-03-28T17:05:14.999Z</time></trkpt><trkpt lat="45.129648830960704" lon="10.742727405356007"><ele>21.5</ele><time>2026-03-28T17:05:15.999Z</time></trkpt><trkpt lat="45.129755017038754" lon="10.74287585854451"><ele>21.75</ele><time>2026-03-28T17:05:16.999Z</time></trkpt><trkpt lat="45.129850838239385" lon="10.743017560605589"><ele>22.0</ele><time>2026-03-28T17:05:17.999Z</time></trkpt><trkpt lat="45.12993765979705" lon="10.743152068917185"><ele>22.0</ele><time>2026-03-28T17:05:18.999Z</time></trkpt><trkpt lat="45.130015692574524" lon="10.743281912339018"><ele>22.0</ele><time>2026-03-28T17:05:19.999Z</time></trkpt><trkpt lat="45.13008452866331" lon="10.743426491407044"><ele>22.0</ele><time>2026-03-28T17:05:20.999Z</time></trkpt><trkpt lat="45.13013626207139" lon="10.743565804707016"><ele>22.0</ele><time>2026-03-28T17:05:21.999Z</time></trkpt><trkpt lat="45.130170387130086" lon="10.743689025961439"><ele>22.0</ele><time>2026-03-28T17:05:22.999Z</time></trkpt><trkpt lat="45.13020092822232" lon="10.743787197345979"><ele>22.0</ele><time>2026-03-28T17:05:23.999Z</time></trkpt><trkpt lat="45.13024078560044" lon="10.743881298411642"><ele>22.0</ele><time>2026-03-28T17:05:24.999Z</time></trkpt><trkpt lat="45.130325659300766" lon="10.743947626492414"><ele>22.0</ele><time>2026-03-28T17:05:25.999Z</time></trkpt><trkpt lat="45.13037723591192" lon="10.744101645661326"><ele>22.0</ele><time>2026-03-28T17:05:26.999Z</time></trkpt><trkpt lat="45.13047545358836" lon="10.744207944618676"><ele>22.0</ele><time>2026-03-28T17:05:27.999Z</time></trkpt><trkpt lat="45.1305866105765" lon="10.744300226474866"><ele>22.666666666666664</ele><time>2026-03-28T17:05:28.999Z</time></trkpt><trkpt lat="45.130719730529265" lon="10.74438510951443"><ele>23.333333333333332</ele><time>2026-03-28T17:05:29.999Z</time></trkpt><trkpt lat="45.13086301800852" lon="10.744448586631071"><ele>24.0</ele><time>2026-03-28T17:05:30.999Z</time></trkpt><trkpt lat="45.13098067434643" lon="10.744641649425109"><ele>24.0</ele><time>2026-03-28T17:05:31.999Z</time></trkpt><trkpt lat="45.131108103789785" lon="10.744814394407156"><ele>24.0</ele><time>2026-03-28T17:05:33Z</time></trkpt><trkpt lat="45.131231684169805" lon="10.744998999293767"><ele>24.0</ele><time>2026-03-28T17:05:34Z</time></trkpt><trkpt lat="45.13136004861327" lon="10.745185947799351"><ele>24.0</ele><time>2026-03-28T17:05:35Z</time></trkpt><trkpt lat="45.131497997056925" lon="10.745370017077708"><ele>24.0</ele><time>2026-03-28T17:05:36Z</time></trkpt><trkpt lat="45.13163580902546" lon="10.74556259790464"><ele>24.0</ele><time>2026-03-28T17:05:37Z</time></trkpt><trkpt lat="45.13176977375293" lon="10.74576764404387"><ele>24.0</ele><time>2026-03-28T17:05:38Z</time></trkpt><trkpt lat="45.13189975694123" lon="10.745987144239336"><ele>24.0</ele><time>2026-03-28T17:05:39Z</time></trkpt><trkpt lat="45.132024465149804" lon="10.746214158384777"><ele>24.0</ele><time>2026-03-28T17:05:40Z</time></trkpt><trkpt lat="45.13214078251544" lon="10.746455465157453"><ele>24.0</ele><time>2026-03-28T17:05:41Z</time></trkpt><trkpt lat="45.13224564388731" lon="10.746712138480843"><ele>24.0</ele><time>2026-03-28T17:05:42Z</time></trkpt><trkpt lat="45.132347034610994" lon="10.746973809953412"><ele>24.0</ele><time>2026-03-28T17:05:43Z</time></trkpt><trkpt lat="45.13243906352062" lon="10.747251047004829"><ele>23.666666666666668</ele><time>2026-03-28T17:05:44Z</time></trkpt><trkpt lat="45.132523726143596" lon="10.747524085615641"><ele>23.333333333333336</ele><time>2026-03-28T17:05:45Z</time></trkpt><trkpt lat="45.13261043972392" lon="10.747801769432881"><ele>23.0</ele><time>2026-03-28T17:05:46Z</time></trkpt><trkpt lat="45.13269675082764" lon="10.748092260186812"><ele>23.0</ele><time>2026-03-28T17:05:47Z</time></trkpt><trkpt lat="45.13278534865835" lon="10.748382503545042"><ele>23.0</ele><time>2026-03-28T17:05:48Z</time></trkpt><trkpt lat="45.13287662902352" lon="10.748676072765365"><ele>23.0</ele><time>2026-03-28T17:05:49Z</time></trkpt><trkpt lat="45.13296489409084" lon="10.748972468439728"><ele>23.0</ele><time>2026-03-28T17:05:50Z</time></trkpt><trkpt lat="45.133053192037856" lon="10.74926306258771"><ele>23.0</ele><time>2026-03-28T17:05:51Z</time></trkpt><trkpt lat="45.13314182025057" lon="10.749555711227801"><ele>23.0</ele><time>2026-03-28T17:05:52Z</time></trkpt><trkpt lat="45.133229674414906" lon="10.749843554975573"><ele>22.666666666666668</ele><time>2026-03-28T17:05:53Z</time></trkpt><trkpt lat="45.133324060146975" lon="10.750127971358094"><ele>22.333333333333332</ele><time>2026-03-28T17:05:54Z</time></trkpt><trkpt lat="45.1334240778689" lon="10.750406980598463"><ele>22.0</ele><time>2026-03-28T17:05:55Z</time></trkpt><trkpt lat="45.13353295978607" lon="10.750672587970513"><ele>22.0</ele><time>2026-03-28T17:05:56Z</time></trkpt><trkpt lat="45.13365301539499" lon="10.750938556763003"><ele>22.0</ele><time>2026-03-28T17:05:57Z</time></trkpt><trkpt lat="45.133786738914274" lon="10.751185681510167"><ele>22.0</ele><time>2026-03-28T17:05:58Z</time></trkpt><trkpt lat="45.133933490684214" lon="10.751423434192057"><ele>22.0</ele><time>2026-03-28T17:05:59Z</time></trkpt><trkpt lat="45.1340915762515" lon="10.751653298246067"><ele>22.0</ele><time>2026-03-28T17:06:00Z</time></trkpt><trkpt lat="45.134260967415216" lon="10.751865154573228"><ele>23.5</ele><time>2026-03-28T17:06:01Z</time></trkpt><trkpt lat="45.134438999068166" lon="10.75206797704962"><ele>25.0</ele><time>2026-03-28T17:06:02Z</time></trkpt><trkpt lat="45.13462412678653" lon="10.752251215581527"><ele>25.0</ele><time>2026-03-28T17:06:03Z</time></trkpt><trkpt lat="45.13481810508349" lon="10.752419774407986"><ele>25.0</ele><time>2026-03-28T17:06:04Z</time></trkpt><trkpt lat="45.13501333864208" lon="10.752562398752989"><ele>25.0</ele><time>2026-03-28T17:06:05Z</time></trkpt><trkpt lat="45.135201150571085" lon="10.752679674927405"><ele>24.666666666666668</ele><time>2026-03-28T17:06:06Z</time></trkpt><trkpt lat="45.13537142480935" lon="10.752777430502794"><ele>24.333333333333336</ele><time>2026-03-28T17:06:07Z</time></trkpt><trkpt lat="45.13552920857839" lon="10.752863771559717"><ele>24.0</ele><time>2026-03-28T17:06:08Z</time></trkpt><trkpt lat="45.1356700431337" lon="10.752945878945685"><ele>24.0</ele><time>2026-03-28T17:06:09Z</time></trkpt><trkpt lat="45.13579148002526" lon="10.753027383403948"><ele>24.0</ele><time>2026-03-28T17:06:10Z</time></trkpt><trkpt lat="45.135897513227164" lon="10.75312419377552"><ele>24.0</ele><time>2026-03-28T17:06:11Z</time></trkpt><trkpt lat="45.135979331448" lon="10.753240654833586"><ele>24.0</ele><time>2026-03-28T17:06:12Z</time></trkpt><trkpt lat="45.136049382245304" lon="10.75335965442738"><ele>24.0</ele><time>2026-03-28T17:06:13Z</time></trkpt><trkpt lat="45.136139192447615" lon="10.753458939290486"><ele>24.0</ele><time>2026-03-28T17:06:14Z</time></trkpt><trkpt lat="45.13619979491377" lon="10.753588409933387"><ele>24.0</ele><time>2026-03-28T17:06:15Z</time></trkpt><trkpt lat="45.13640598218281" lon="10.753545501660033"><ele>24.0</ele><time>2026-03-28T17:06:16Z</time></trkpt><trkpt lat="45.136564559071026" lon="10.753554592283214"><ele>23.333333333333332</ele><time>2026-03-28T17:06:17Z</time></trkpt><trkpt lat="45.13672614150575" lon="10.7535872912104"><ele>22.666666666666664</ele><time>2026-03-28T17:06:18Z</time></trkpt><trkpt lat="45.13688776806066" lon="10.753663471134415"><ele>22.0</ele><time>2026-03-28T17:06:19Z</time></trkpt><trkpt lat="45.13705898741436" lon="10.753784085615374"><ele>22.0</ele><time>2026-03-28T17:06:20Z</time></trkpt><trkpt lat="45.13723172224274" lon="10.753914802547612"><ele>22.0</ele><time>2026-03-28T17:06:21Z</time></trkpt><trkpt lat="45.13740987889467" lon="10.754044493551715"><ele>22.0</ele><time>2026-03-28T17:06:22Z</time></trkpt><trkpt lat="45.1375905417651" lon="10.754181803118858"><ele>22.0</ele><time>2026-03-28T17:06:23Z</time></trkpt><trkpt lat="45.137763923258575" lon="10.754335430767005"><ele>22.0</ele><time>2026-03-28T17:06:24Z</time></trkpt><trkpt lat="45.137934068873804" lon="10.754510341561442"><ele>22.0</ele><time>2026-03-28T17:06:25Z</time></trkpt><trkpt lat="45.13810305273815" lon="10.754694782313708"><ele>22.0</ele><time>2026-03-28T17:06:26Z</time></trkpt><trkpt lat="45.13826627244863" lon="10.754890528463399"><ele>22.0</ele><time>2026-03-28T17:06:27Z</time></trkpt><trkpt lat="45.13842502294368" lon="10.75509930764118"><ele>22.0</ele><time>2026-03-28T17:06:28Z</time></trkpt><trkpt lat="45.13857662044003" lon="10.755315968822895"><ele>21.666666666666664</ele><time>2026-03-28T17:06:29Z</time></trkpt><trkpt lat="45.138727889278634" lon="10.755538753380709"><ele>21.333333333333332</ele><time>2026-03-28T17:06:30Z</time></trkpt><trkpt lat="45.138875901205175" lon="10.755760821678685"><ele>21.0</ele><time>2026-03-28T17:06:31Z</time></trkpt><trkpt lat="45.13902670445964" lon="10.755984795980737"><ele>23.0</ele><time>2026-03-28T17:06:32Z</time></trkpt><trkpt lat="45.139177041310376" lon="10.756208705073062"><ele>25.0</ele><time>2026-03-28T17:06:33Z</time></trkpt><trkpt lat="45.13933089025515" lon="10.756431060314306"><ele>27.0</ele><time>2026-03-28T17:06:34Z</time></trkpt><trkpt lat="45.13948680572332" lon="10.756651589569802"><ele>26.333333333333336</ele><time>2026-03-28T17:06:35Z</time></trkpt><trkpt lat="45.13963969011488" lon="10.756871945168966"><ele>25.666666666666668</ele><time>2026-03-28T17:06:35.999Z</time></trkpt><trkpt lat="45.13979329527152" lon="10.757090693716703"><ele>25.0</ele><time>2026-03-28T17:06:36.999Z</time></trkpt><trkpt lat="45.13995113697791" lon="10.757305819565344"><ele>24.666666666666668</ele><time>2026-03-28T17:06:37.999Z</time></trkpt><trkpt lat="45.14011164475538" lon="10.757508140987701"><ele>24.333333333333336</ele><time>2026-03-28T17:06:38.999Z</time></trkpt><trkpt lat="45.14027347352808" lon="10.75770498946327"><ele>24.0</ele><time>2026-03-28T17:06:39.999Z</time></trkpt><trkpt lat="45.14043550379877" lon="10.757903153089961"><ele>24.0</ele><time>2026-03-28T17:06:40.999Z</time></trkpt><trkpt lat="45.14060004618299" lon="10.758102768544909"><ele>24.0</ele><time>2026-03-28T17:06:41.999Z</time></trkpt><trkpt lat="45.14076072350255" lon="10.758299411524986"><ele>24.0</ele><time>2026-03-28T17:06:42.999Z</time></trkpt><trkpt lat="45.140926085834025" lon="10.75849555502203"><ele>23.666666666666668</ele><time>2026-03-28T17:06:43.999Z</time></trkpt><trkpt lat="45.14108891997887" lon="10.758690385751663"><ele>23.333333333333336</ele><time>2026-03-28T17:06:44.999Z</time></trkpt><trkpt lat="45.141245602216706" lon="10.758884781421012"><ele>23.0</ele><time>2026-03-28T17:06:45.999Z</time></trkpt><trkpt lat="45.141400286800526" lon="10.759072313674046"><ele>22.0</ele><time>2026-03-28T17:06:46.999Z</time></trkpt><trkpt lat="45.14155294300255" lon="10.75925673928157"><ele>21.0</ele><time>2026-03-28T17:06:47.999Z</time></trkpt><trkpt lat="45.14170449732626" lon="10.759437044662972"><ele>20.0</ele><time>2026-03-28T17:06:48.999Z</time></trkpt><trkpt lat="45.14184957009935" lon="10.75961236213591"><ele>20.0</ele><time>2026-03-28T17:06:49.999Z</time></trkpt><trkpt lat="45.1419931720027" lon="10.759780375189683"><ele>20.0</ele><time>2026-03-28T17:06:50.999Z</time></trkpt><trkpt lat="45.14213467779626" lon="10.759951707920152"><ele>20.0</ele><time>2026-03-28T17:06:51.999Z</time></trkpt><trkpt lat="45.14227466390485" lon="10.760129717028674"><ele>19.333333333333336</ele><time>2026-03-28T17:06:52.999Z</time></trkpt><trkpt lat="45.142418194348416" lon="10.760303502483108"><ele>18.666666666666668</ele><time>2026-03-28T17:06:53.999Z</time></trkpt><trkpt lat="45.14256360571119" lon="10.760461525792048"><ele>18.0</ele><time>2026-03-28T17:06:54.999Z</time></trkpt><trkpt lat="45.14268666871162" lon="10.760614702660787"><ele>18.0</ele><time>2026-03-28T17:06:55.999Z</time></trkpt><trkpt lat="45.1428031430423" lon="10.760755303412198"><ele>18.0</ele><time>2026-03-28T17:06:56.999Z</time></trkpt><trkpt lat="45.14291608831157" lon="10.760880066778588"><ele>18.0</ele><time>2026-03-28T17:06:57.999Z</time></trkpt><trkpt lat="45.143016708102486" lon="10.76099687803699"><ele>18.0</ele><time>2026-03-28T17:06:58.999Z</time></trkpt><trkpt lat="45.143108083215644" lon="10.761110444906896"><ele>18.0</ele><time>2026-03-28T17:06:59.999Z</time></trkpt><trkpt lat="45.143182056109765" lon="10.761218382846032"><ele>18.0</ele><time>2026-03-28T17:07:00.999Z</time></trkpt><trkpt lat="45.14324887900309" lon="10.761316906140868"><ele>18.0</ele><time>2026-03-28T17:07:01.999Z</time></trkpt><trkpt lat="45.143309177862704" lon="10.761408801379343"><ele>18.0</ele><time>2026-03-28T17:07:02.999Z</time></trkpt><trkpt lat="45.14335750163989" lon="10.761490924267715"><ele>18.0</ele><time>2026-03-28T17:07:03.999Z</time></trkpt><trkpt lat="45.143395598576866" lon="10.76156661711995"><ele>18.0</ele><time>2026-03-28T17:07:04.999Z</time></trkpt><trkpt lat="45.14345127396533" lon="10.76168294551987"><ele>19.0</ele><time>2026-03-28T17:07:06.999Z</time></trkpt><trkpt lat="45.143490381862634" lon="10.76177604313653"><ele>20.0</ele><time>2026-03-28T17:07:08.999Z</time></trkpt><trkpt lat="45.14353366960956" lon="10.761911874181369"><ele>21.0</ele><time>2026-03-28T17:07:10.999Z</time></trkpt><trkpt lat="45.143537791061625" lon="10.762027187039521"><ele>22.0</ele><time>2026-03-28T17:07:11.999Z</time></trkpt><trkpt lat="45.143530597046606" lon="10.762160554478639"><ele>23.0</ele><time>2026-03-28T17:07:12.999Z</time></trkpt><trkpt lat="45.14352533898812" lon="10.762303993574571"><ele>23.25</ele><time>2026-03-28T17:07:13.999Z</time></trkpt><trkpt lat="45.143557865946136" lon="10.762455923855697"><ele>23.5</ele><time>2026-03-28T17:07:14.999Z</time></trkpt><trkpt lat="45.14360305615107" lon="10.762623710546036"><ele>23.75</ele><time>2026-03-28T17:07:15.999Z</time></trkpt><trkpt lat="45.14361793113432" lon="10.762807238415064"><ele>24.0</ele><time>2026-03-28T17:07:16.999Z</time></trkpt><trkpt lat="45.14359560695096" lon="10.762971641319258"><ele>24.2</ele><time>2026-03-28T17:07:17.999Z</time></trkpt><trkpt lat="45.143563781623556" lon="10.763115359088726"><ele>24.4</ele><time>2026-03-28T17:07:18.999Z</time></trkpt><trkpt lat="45.14352802397573" lon="10.763243315801196"><ele>24.6</ele><time>2026-03-28T17:07:19.999Z</time></trkpt><trkpt lat="45.14349362458352" lon="10.76336254330722"><ele>24.8</ele><time>2026-03-28T17:07:20.999Z</time></trkpt><trkpt lat="45.14346246796847" lon="10.763471353595156"><ele>25.0</ele><time>2026-03-28T17:07:21.999Z</time></trkpt><trkpt lat="45.143435161624815" lon="10.763573618860613"><ele>25.166666666666668</ele><time>2026-03-28T17:07:22.999Z</time></trkpt><trkpt lat="45.143405923701536" lon="10.763670264056632"><ele>25.333333333333336</ele><time>2026-03-28T17:07:23.999Z</time></trkpt><trkpt lat="45.14337788654057" lon="10.763777201953234"><ele>25.5</ele><time>2026-03-28T17:07:24.999Z</time></trkpt><trkpt lat="45.143351242165004" lon="10.763897135677569"><ele>25.666666666666664</ele><time>2026-03-28T17:07:25.999Z</time></trkpt><trkpt lat="45.143317668989866" lon="10.76402638227517"><ele>25.833333333333332</ele><time>2026-03-28T17:07:26.999Z</time></trkpt><trkpt lat="45.14328214556907" lon="10.764156131210518"><ele>26.0</ele><time>2026-03-28T17:07:27.999Z</time></trkpt><trkpt lat="45.143249079725734" lon="10.764290952831194"><ele>26.0</ele><time>2026-03-28T17:07:28.999Z</time></trkpt><trkpt lat="45.14321828327786" lon="10.764425989331873"><ele>26.0</ele><time>2026-03-28T17:07:29.999Z</time></trkpt><trkpt lat="45.1431858547128" lon="10.764556337073659"><ele>26.0</ele><time>2026-03-28T17:07:30.999Z</time></trkpt><trkpt lat="45.14315524076815" lon="10.764681354010744"><ele>26.0</ele><time>2026-03-28T17:07:31.999Z</time></trkpt><trkpt lat="45.14312737500838" lon="10.764799178834862"><ele>26.0</ele><time>2026-03-28T17:07:32.999Z</time></trkpt><trkpt lat="45.143105092173165" lon="10.764919155220584"><ele>25.833333333333332</ele><time>2026-03-28T17:07:33.999Z</time></trkpt><trkpt lat="45.14308512430884" lon="10.765036574014477"><ele>25.666666666666664</ele><time>2026-03-28T17:07:34.999Z</time></trkpt><trkpt lat="45.14306793158142" lon="10.765150938868542"><ele>25.5</ele><time>2026-03-28T17:07:35.999Z</time></trkpt><trkpt lat="45.1430502383379" lon="10.765266781114446"><ele>25.333333333333336</ele><time>2026-03-28T17:07:36.999Z</time></trkpt><trkpt lat="45.1430174855018" lon="10.765377714534665"><ele>25.166666666666668</ele><time>2026-03-28T17:07:37.999Z</time></trkpt><trkpt lat="45.143013706801455" lon="10.765502177731197"><ele>25.0</ele><time>2026-03-28T17:07:39Z</time></trkpt><trkpt lat="45.14298951438477" lon="10.765624664038414"><ele>24.833333333333336</ele><time>2026-03-28T17:07:40Z</time></trkpt><trkpt lat="45.1429653863294" lon="10.765747645897276"><ele>24.666666666666668</ele><time>2026-03-28T17:07:41Z</time></trkpt><trkpt lat="45.1429429754041" lon="10.765869201161996"><ele>24.5</ele><time>2026-03-28T17:07:42Z</time></trkpt><trkpt lat="45.14292019320702" lon="10.765986199006061"><ele>24.333333333333336</ele><time>2026-03-28T17:07:43Z</time></trkpt><trkpt lat="45.142894988007015" lon="10.76609420610909"><ele>24.166666666666668</ele><time>2026-03-28T17:07:44Z</time></trkpt><trkpt lat="45.14286590858461" lon="10.766191823948375"><ele>24.0</ele><time>2026-03-28T17:07:45Z</time></trkpt><trkpt lat="45.14283850400115" lon="10.766284842884614"><ele>24.333333333333332</ele><time>2026-03-28T17:07:46Z</time></trkpt><trkpt lat="45.14280993699785" lon="10.766379281198937"><ele>24.666666666666664</ele><time>2026-03-28T17:07:47Z</time></trkpt><trkpt lat="45.14278159477917" lon="10.766470968821869"><ele>25.0</ele><time>2026-03-28T17:07:48Z</time></trkpt><trkpt lat="45.142756554978895" lon="10.766553445582865"><ele>25.333333333333332</ele><time>2026-03-28T17:07:49Z</time></trkpt><trkpt lat="45.1426986736575" lon="10.766720188798889"><ele>25.666666666666664</ele><time>2026-03-28T17:07:51Z</time></trkpt><trkpt lat="45.14266475217085" lon="10.766814389481523"><ele>26.0</ele><time>2026-03-28T17:07:52Z</time></trkpt><trkpt lat="45.1426256668171" lon="10.7669209322017"><ele>26.0</ele><time>2026-03-28T17:07:53Z</time></trkpt><trkpt lat="45.14258063961239" lon="10.767032349921825"><ele>26.0</ele><time>2026-03-28T17:07:54Z</time></trkpt><trkpt lat="45.14253063630423" lon="10.767146384790795"><ele>26.0</ele><time>2026-03-28T17:07:55Z</time></trkpt><trkpt lat="45.14247746106263" lon="10.767254514874775"><ele>26.0</ele><time>2026-03-28T17:07:56Z</time></trkpt><trkpt lat="45.14242464289271" lon="10.767353706053555"><ele>26.0</ele><time>2026-03-28T17:07:57Z</time></trkpt><trkpt lat="45.14237079876086" lon="10.767449245986532"><ele>25.499999999999996</ele><time>2026-03-28T17:07:58Z</time></trkpt><trkpt lat="45.142313905193596" lon="10.767548638276374"><ele>25.0</ele><time>2026-03-28T17:07:59Z</time></trkpt><trkpt lat="45.142259260250945" lon="10.767644761569978"><ele>24.5</ele><time>2026-03-28T17:08:00Z</time></trkpt><trkpt lat="45.14220501035371" lon="10.767738898695397"><ele>24.0</ele><time>2026-03-28T17:08:01Z</time></trkpt><trkpt lat="45.142155928956086" lon="10.767828705846334"><ele>23.5</ele><time>2026-03-28T17:08:02Z</time></trkpt><trkpt lat="45.14210968540498" lon="10.76791239206373"><ele>23.0</ele><time>2026-03-28T17:08:03Z</time></trkpt><trkpt lat="45.142069090173884" lon="10.767988186007475"><ele>23.0</ele><time>2026-03-28T17:08:04Z</time></trkpt><trkpt lat="45.142030708191115" lon="10.768067130695067"><ele>23.0</ele><time>2026-03-28T17:08:05Z</time></trkpt><trkpt lat="45.14197354676736" lon="10.768132906079355"><ele>23.0</ele><time>2026-03-28T17:08:06Z</time></trkpt><trkpt lat="45.14192356439161" lon="10.768220566147003"><ele>23.0</ele><time>2026-03-28T17:08:07Z</time></trkpt><trkpt lat="45.14186836961836" lon="10.768317469821566"><ele>23.0</ele><time>2026-03-28T17:08:08Z</time></trkpt><trkpt lat="45.141809956220335" lon="10.768420024336901"><ele>23.0</ele><time>2026-03-28T17:08:09Z</time></trkpt><trkpt lat="45.141754741727226" lon="10.76851800692214"><ele>23.2</ele><time>2026-03-28T17:08:10Z</time></trkpt><trkpt lat="45.14170385059927" lon="10.768607460508312"><ele>23.4</ele><time>2026-03-28T17:08:11Z</time></trkpt><trkpt lat="45.14165965199388" lon="10.768685150353303"><ele>23.599999999999998</ele><time>2026-03-28T17:08:12Z</time></trkpt><trkpt lat="45.14179396944277" lon="10.768925323440136"><ele>23.799999999999997</ele><time>2026-03-28T17:08:14Z</time></trkpt><trkpt lat="45.14185854291988" lon="10.768967903200254"><ele>24.0</ele><time>2026-03-28T17:08:15Z</time></trkpt><trkpt lat="45.141926335758484" lon="10.769004229308365"><ele>24.0</ele><time>2026-03-28T17:08:16Z</time></trkpt><trkpt lat="45.14200214101497" lon="10.769046378974211"><ele>24.0</ele><time>2026-03-28T17:08:17Z</time></trkpt><trkpt lat="45.142084441143794" lon="10.769096665744788"><ele>24.0</ele><time>2026-03-28T17:08:18Z</time></trkpt><trkpt lat="45.14216855249297" lon="10.769143508796242"><ele>24.0</ele><time>2026-03-28T17:08:19Z</time></trkpt><trkpt lat="45.14224706022516" lon="10.769178045877743"><ele>24.0</ele><time>2026-03-28T17:08:20Z</time></trkpt><trkpt lat="45.1423177980466" lon="10.769206657925993"><ele>24.0</ele><time>2026-03-28T17:08:21Z</time></trkpt><trkpt lat="45.14243386455065" lon="10.769259057543858"><ele>23.833333333333332</ele><time>2026-03-28T17:08:23Z</time></trkpt><trkpt lat="45.14249626912395" lon="10.769280476246328"><ele>23.666666666666668</ele><time>2026-03-28T17:08:24Z</time></trkpt><trkpt lat="45.14256424727984" lon="10.769302623999383"><ele>23.5</ele><time>2026-03-28T17:08:25Z</time></trkpt><trkpt lat="45.142638592724566" lon="10.769328832599225"><ele>23.333333333333336</ele><time>2026-03-28T17:08:26Z</time></trkpt><trkpt lat="45.14272340856273" lon="10.76934974127785"><ele>23.166666666666668</ele><time>2026-03-28T17:08:27Z</time></trkpt><trkpt lat="45.142817780449704" lon="10.769370772531667"><ele>23.0</ele><time>2026-03-28T17:08:28Z</time></trkpt><trkpt lat="45.142918015034695" lon="10.769395900707902"><ele>23.0</ele><time>2026-03-28T17:08:29Z</time></trkpt><trkpt lat="45.143025276705885" lon="10.769422451845287"><ele>23.0</ele><time>2026-03-28T17:08:30Z</time></trkpt><trkpt lat="45.14313810792675" lon="10.769451516475904"><ele>23.0</ele><time>2026-03-28T17:08:31Z</time></trkpt><trkpt lat="45.14325157540191" lon="10.7694834887201"><ele>23.0</ele><time>2026-03-28T17:08:32Z</time></trkpt><trkpt lat="45.14336835913798" lon="10.76951458963595"><ele>23.75</ele><time>2026-03-28T17:08:33Z</time></trkpt><trkpt lat="45.143487780798374" lon="10.769546644990186"><ele>24.5</ele><time>2026-03-28T17:08:34Z</time></trkpt><trkpt lat="45.14360927128523" lon="10.769583078768816"><ele>25.25</ele><time>2026-03-28T17:08:35Z</time></trkpt><trkpt lat="45.14373398973389" lon="10.7696213424997"><ele>26.0</ele><time>2026-03-28T17:08:36Z</time></trkpt><trkpt lat="45.14385908386744" lon="10.769660984799266"><ele>26.0</ele><time>2026-03-28T17:08:37Z</time></trkpt><trkpt lat="45.143982404685204" lon="10.769706205923672"><ele>26.0</ele><time>2026-03-28T17:08:38Z</time></trkpt><trkpt lat="45.14410513512322" lon="10.769755059692837"><ele>26.0</ele><time>2026-03-28T17:08:39Z</time></trkpt><trkpt lat="45.14422275487161" lon="10.769816130561827"><ele>26.0</ele><time>2026-03-28T17:08:40Z</time></trkpt><trkpt lat="45.14433589972705" lon="10.769879604605947"><ele>26.5</ele><time>2026-03-28T17:08:41Z</time></trkpt><trkpt lat="45.144446665660084" lon="10.769939695286114"><ele>27.0</ele><time>2026-03-28T17:08:42Z</time></trkpt><trkpt lat="45.144553581404466" lon="10.77000099533536"><ele>27.5</ele><time>2026-03-28T17:08:43Z</time></trkpt><trkpt lat="45.14465781726478" lon="10.770063640259913"><ele>28.0</ele><time>2026-03-28T17:08:44Z</time></trkpt><trkpt lat="45.14475994568301" lon="10.770124302187844"><ele>28.0</ele><time>2026-03-28T17:08:45Z</time></trkpt><trkpt lat="45.14486462288346" lon="10.770180693407061"><ele>27.999999999999996</ele><time>2026-03-28T17:08:46Z</time></trkpt><trkpt lat="45.14497070823785" lon="10.77023235861619"><ele>27.999999999999996</ele><time>2026-03-28T17:08:47Z</time></trkpt><trkpt lat="45.14507537670967" lon="10.770283664844573"><ele>28.0</ele><time>2026-03-28T17:08:48Z</time></trkpt><trkpt lat="45.145170849581106" lon="10.770340409029265"><ele>28.0</ele><time>2026-03-28T17:08:49Z</time></trkpt><trkpt lat="45.145262308927364" lon="10.770401936128945"><ele>27.799999999999997</ele><time>2026-03-28T17:08:50Z</time></trkpt><trkpt lat="45.145352468885086" lon="10.77046539821729"><ele>27.599999999999998</ele><time>2026-03-28T17:08:51Z</time></trkpt><trkpt lat="45.145444893029406" lon="10.770522112446644"><ele>27.400000000000002</ele><time>2026-03-28T17:08:52Z</time></trkpt><trkpt lat="45.145543454547706" lon="10.770569777045777"><ele>27.200000000000003</ele><time>2026-03-28T17:08:52.999Z</time></trkpt><trkpt lat="45.14564363924742" lon="10.77061467133176"><ele>27.0</ele><time>2026-03-28T17:08:53.999Z</time></trkpt><trkpt lat="45.14574236154282" lon="10.770669821249014"><ele>26.8</ele><time>2026-03-28T17:08:54.999Z</time></trkpt><trkpt lat="45.145840335999" lon="10.770728055244362"><ele>26.6</ele><time>2026-03-28T17:08:55.999Z</time></trkpt><trkpt lat="45.145938262399916" lon="10.770791654251356"><ele>26.400000000000002</ele><time>2026-03-28T17:08:56.999Z</time></trkpt><trkpt lat="45.14603580846363" lon="10.770856677109697"><ele>26.200000000000003</ele><time>2026-03-28T17:08:57.999Z</time></trkpt><trkpt lat="45.14613669893005" lon="10.770919138800815"><ele>26.0</ele><time>2026-03-28T17:08:58.999Z</time></trkpt><trkpt lat="45.14624059950412" lon="10.770978193028258"><ele>26.200000000000003</ele><time>2026-03-28T17:08:59.999Z</time></trkpt><trkpt lat="45.14634910651101" lon="10.771034059174376"><ele>26.400000000000002</ele><time>2026-03-28T17:09:00.999Z</time></trkpt><trkpt lat="45.14645634373052" lon="10.771087699638766"><ele>26.6</ele><time>2026-03-28T17:09:01.999Z</time></trkpt><trkpt lat="45.1465599513459" lon="10.771142808595506"><ele>26.8</ele><time>2026-03-28T17:09:02.999Z</time></trkpt><trkpt lat="45.14665982464138" lon="10.771199795122977"><ele>27.0</ele><time>2026-03-28T17:09:03.999Z</time></trkpt><trkpt lat="45.14675371219968" lon="10.771256400488836"><ele>27.0</ele><time>2026-03-28T17:09:04.999Z</time></trkpt><trkpt lat="45.14684284572678" lon="10.771313451261065"><ele>27.000000000000004</ele><time>2026-03-28T17:09:05.999Z</time></trkpt><trkpt lat="45.14693106863642" lon="10.771372329118309"><ele>27.000000000000004</ele><time>2026-03-28T17:09:06.999Z</time></trkpt><trkpt lat="45.14702065583243" lon="10.771431906504008"><ele>27.0</ele><time>2026-03-28T17:09:07.999Z</time></trkpt><trkpt lat="45.14711265431124" lon="10.771488997016942"><ele>27.0</ele><time>2026-03-28T17:09:08.999Z</time></trkpt><trkpt lat="45.14720687614808" lon="10.771543109298277"><ele>27.0</ele><time>2026-03-28T17:09:09.999Z</time></trkpt><trkpt lat="45.147303327402334" lon="10.771594141769445"><ele>27.000000000000004</ele><time>2026-03-28T17:09:10.999Z</time></trkpt><trkpt lat="45.14739637278294" lon="10.771647572063127"><ele>27.000000000000004</ele><time>2026-03-28T17:09:11.999Z</time></trkpt><trkpt lat="45.147489108600425" lon="10.7716995552694"><ele>27.0</ele><time>2026-03-28T17:09:12.999Z</time></trkpt><trkpt lat="45.147583422953254" lon="10.771751650775755"><ele>27.0</ele><time>2026-03-28T17:09:13.999Z</time></trkpt><trkpt lat="45.14768054488014" lon="10.771799837498172"><ele>26.8</ele><time>2026-03-28T17:09:14.999Z</time></trkpt><trkpt lat="45.14777810412997" lon="10.771848678916271"><ele>26.6</ele><time>2026-03-28T17:09:15.999Z</time></trkpt><trkpt lat="45.1478740934196" lon="10.77189975206239"><ele>26.400000000000002</ele><time>2026-03-28T17:09:16.999Z</time></trkpt><trkpt lat="45.14796733166331" lon="10.771953004462544"><ele>26.200000000000003</ele><time>2026-03-28T17:09:17.999Z</time></trkpt><trkpt lat="45.14805844231279" lon="10.77200864498565"><ele>26.0</ele><time>2026-03-28T17:09:18.999Z</time></trkpt><trkpt lat="45.148152097642736" lon="10.77206718574618"><ele>26.25</ele><time>2026-03-28T17:09:19.999Z</time></trkpt><trkpt lat="45.14825300721194" lon="10.772128954241007"><ele>26.5</ele><time>2026-03-28T17:09:20.999Z</time></trkpt><trkpt lat="45.148366343746105" lon="10.77219551275122"><ele>26.75</ele><time>2026-03-28T17:09:21.999Z</time></trkpt><trkpt lat="45.14847890491323" lon="10.772262899925128"><ele>27.0</ele><time>2026-03-28T17:09:22.999Z</time></trkpt><trkpt lat="45.14859058895965" lon="10.772329504305175"><ele>27.0</ele><time>2026-03-28T17:09:23.999Z</time></trkpt><trkpt lat="45.14870167153928" lon="10.772404493263911"><ele>27.000000000000004</ele><time>2026-03-28T17:09:24.999Z</time></trkpt><trkpt lat="45.14880193409535" lon="10.772473779372767"><ele>27.000000000000004</ele><time>2026-03-28T17:09:25.999Z</time></trkpt><trkpt lat="45.14889347726507" lon="10.772532649584251"><ele>27.0</ele><time>2026-03-28T17:09:26.999Z</time></trkpt><trkpt lat="45.14897748957439" lon="10.77257700716412"><ele>27.0</ele><time>2026-03-28T17:09:27.999Z</time></trkpt><trkpt lat="45.14904564905518" lon="10.772626016680201"><ele>27.0</ele><time>2026-03-28T17:09:28.999Z</time></trkpt><trkpt lat="45.14911830572293" lon="10.77270508939587"><ele>27.000000000000004</ele><time>2026-03-28T17:09:30.999Z</time></trkpt><trkpt lat="45.14908171524585" lon="10.772899251188743"><ele>27.000000000000004</ele><time>2026-03-28T17:09:31.999Z</time></trkpt><trkpt lat="45.149042223913" lon="10.773019373329864"><ele>27.0</ele><time>2026-03-28T17:09:32.999Z</time></trkpt><trkpt lat="45.14896383348565" lon="10.773140240757684"><ele>27.0</ele><time>2026-03-28T17:09:33.999Z</time></trkpt><trkpt lat="45.148879368731976" lon="10.77327191353738"><ele>27.0</ele><time>2026-03-28T17:09:34.999Z</time></trkpt><trkpt lat="45.148797615448366" lon="10.773422995290678"><ele>27.0</ele><time>2026-03-28T17:09:35.999Z</time></trkpt><trkpt lat="45.14872613387031" lon="10.773574931298281"><ele>27.0</ele><time>2026-03-28T17:09:36.999Z</time></trkpt><trkpt lat="45.148659642964596" lon="10.773712235876623"><ele>27.0</ele><time>2026-03-28T17:09:37.999Z</time></trkpt><trkpt lat="45.1485943826133" lon="10.773842529626116"><ele>26.5</ele><time>2026-03-28T17:09:38.999Z</time></trkpt><trkpt lat="45.14853441166846" lon="10.773968022957982"><ele>26.0</ele><time>2026-03-28T17:09:39.999Z</time></trkpt><trkpt lat="45.148481654012414" lon="10.774084757202044"><ele>25.5</ele><time>2026-03-28T17:09:40.999Z</time></trkpt><trkpt lat="45.148431524760554" lon="10.774189235531528"><ele>25.0</ele><time>2026-03-28T17:09:41.999Z</time></trkpt><trkpt lat="45.14838918111586" lon="10.77427531381274"><ele>24.5</ele><time>2026-03-28T17:09:42.999Z</time></trkpt><trkpt lat="45.148360908538834" lon="10.774367520613582"><ele>24.0</ele><time>2026-03-28T17:09:43.999Z</time></trkpt><trkpt lat="45.148296695241775" lon="10.774438195019195"><ele>23.5</ele><time>2026-03-28T17:09:45Z</time></trkpt><trkpt lat="45.148268290986124" lon="10.774531218104766"><ele>23.0</ele><time>2026-03-28T17:09:46Z</time></trkpt><trkpt lat="45.14826954444174" lon="10.774626287603951"><ele>22.5</ele><time>2026-03-28T17:09:47Z</time></trkpt><trkpt lat="45.14827106940009" lon="10.7747179255187"><ele>22.0</ele><time>2026-03-28T17:09:48Z</time></trkpt><trkpt lat="45.14834176365354" lon="10.774768897649528"><ele>21.5</ele><time>2026-03-28T17:09:49Z</time></trkpt><trkpt lat="45.14843608785152" lon="10.77475834417912"><ele>21.0</ele><time>2026-03-28T17:09:50Z</time></trkpt><trkpt lat="45.148526534611236" lon="10.774754781394728"><ele>21.0</ele><time>2026-03-28T17:09:51Z</time></trkpt><trkpt lat="45.148611619780205" lon="10.774816012608156"><ele>21.0</ele><time>2026-03-28T17:09:52Z</time></trkpt><trkpt lat="45.14871826201356" lon="10.774868333052732"><ele>21.0</ele><time>2026-03-28T17:09:53Z</time></trkpt><trkpt lat="45.14878265192768" lon="10.774982164655478"><ele>21.0</ele><time>2026-03-28T17:09:54Z</time></trkpt><trkpt lat="45.14884923292941" lon="10.775044293313455"><ele>21.0</ele><time>2026-03-28T17:09:55Z</time></trkpt><trkpt lat="45.148904444047595" lon="10.775100397406517"><ele>21.0</ele><time>2026-03-28T17:09:56Z</time></trkpt><trkpt lat="45.148981566263195" lon="10.775173004516532"><ele>21.0</ele><time>2026-03-28T17:09:58Z</time></trkpt><trkpt lat="45.14904310275551" lon="10.77523513865936"><ele>21.0</ele><time>2026-03-28T17:10:00Z</time></trkpt><trkpt lat="45.1491459058849" lon="10.775343150858603"><ele>21.0</ele><time>2026-03-28T17:10:02Z</time></trkpt><trkpt lat="45.14923315030769" lon="10.775441374845734"><ele>21.0</ele><time>2026-03-28T17:10:03Z</time></trkpt><trkpt lat="45.14932244124104" lon="10.775541408874536"><ele>21.4</ele><time>2026-03-28T17:10:04Z</time></trkpt><trkpt lat="45.14940504546729" lon="10.775623396551955"><ele>21.8</ele><time>2026-03-28T17:10:05Z</time></trkpt><trkpt lat="45.149477588861245" lon="10.775686348252309"><ele>22.2</ele><time>2026-03-28T17:10:06Z</time></trkpt><trkpt lat="45.14955441083182" lon="10.775757930926863"><ele>22.599999999999998</ele><time>2026-03-28T17:10:07Z</time></trkpt><trkpt lat="45.14963763707943" lon="10.775836825291531"><ele>23.0</ele><time>2026-03-28T17:10:08Z</time></trkpt><trkpt lat="45.14972233213618" lon="10.775930469868353"><ele>22.799999999999997</ele><time>2026-03-28T17:10:09Z</time></trkpt><trkpt lat="45.149809921637065" lon="10.776026199327967"><ele>22.6</ele><time>2026-03-28T17:10:10Z</time></trkpt><trkpt lat="45.14989775849122" lon="10.776125645485854"><ele>22.4</ele><time>2026-03-28T17:10:11Z</time></trkpt><trkpt lat="45.14998260998955" lon="10.776212488092726"><ele>22.200000000000003</ele><time>2026-03-28T17:10:12Z</time></trkpt><trkpt lat="45.15006267391769" lon="10.776295743068275"><ele>22.0</ele><time>2026-03-28T17:10:13Z</time></trkpt><trkpt lat="45.15013631294565" lon="10.776365521474878"><ele>21.833333333333332</ele><time>2026-03-28T17:10:14Z</time></trkpt><trkpt lat="45.15020497378193" lon="10.776428271308815"><ele>21.666666666666664</ele><time>2026-03-28T17:10:15Z</time></trkpt><trkpt lat="45.15027300196363" lon="10.776500070767199"><ele>21.5</ele><time>2026-03-28T17:10:16Z</time></trkpt><trkpt lat="45.15034232704878" lon="10.776574964344563"><ele>21.333333333333332</ele><time>2026-03-28T17:10:17Z</time></trkpt><trkpt lat="45.15041370445378" lon="10.776653957295093"><ele>21.166666666666668</ele><time>2026-03-28T17:10:18Z</time></trkpt><trkpt lat="45.15048749662253" lon="10.77672789889267"><ele>21.0</ele><time>2026-03-28T17:10:19Z</time></trkpt><trkpt lat="45.1505677094684" lon="10.776798543400025"><ele>21.166666666666668</ele><time>2026-03-28T17:10:20Z</time></trkpt><trkpt lat="45.150626204111184" lon="10.776876662192038"><ele>21.333333333333332</ele><time>2026-03-28T17:10:21Z</time></trkpt><trkpt lat="45.15066629901996" lon="10.776951647578754"><ele>21.5</ele><time>2026-03-28T17:10:22Z</time></trkpt><trkpt lat="45.150722942498994" lon="10.777102142908861"><ele>21.666666666666664</ele><time>2026-03-28T17:10:24Z</time></trkpt><trkpt lat="45.150740477083374" lon="10.777201944725563"><ele>21.833333333333332</ele><time>2026-03-28T17:10:25Z</time></trkpt><trkpt lat="45.15075934805334" lon="10.77731852695268"><ele>22.0</ele><time>2026-03-28T17:10:26Z</time></trkpt><trkpt lat="45.15078008668183" lon="10.777445651323887"><ele>22.0</ele><time>2026-03-28T17:10:27Z</time></trkpt><trkpt lat="45.15080224505023" lon="10.7775763131834"><ele>22.0</ele><time>2026-03-28T17:10:28Z</time></trkpt><trkpt lat="45.150827653821054" lon="10.777712292714085"><ele>22.0</ele><time>2026-03-28T17:10:29Z</time></trkpt><trkpt lat="45.15085020375835" lon="10.777843000330884"><ele>22.0</ele><time>2026-03-28T17:10:30Z</time></trkpt><trkpt lat="45.15087226665183" lon="10.777976657391715"><ele>22.0</ele><time>2026-03-28T17:10:31Z</time></trkpt><trkpt lat="45.1508955182616" lon="10.778112618772777"><ele>22.0</ele><time>2026-03-28T17:10:32Z</time></trkpt><trkpt lat="45.15092063538446" lon="10.778256829198627"><ele>22.0</ele><time>2026-03-28T17:10:33Z</time></trkpt><trkpt lat="45.15094435658162" lon="10.778403191161853"><ele>22.0</ele><time>2026-03-28T17:10:34Z</time></trkpt><trkpt lat="45.15096960870607" lon="10.778553264327805"><ele>22.0</ele><time>2026-03-28T17:10:35Z</time></trkpt><trkpt lat="45.150997878007196" lon="10.77870300662418"><ele>22.0</ele><time>2026-03-28T17:10:36Z</time></trkpt><trkpt lat="45.151024488483465" lon="10.778855278285965"><ele>22.0</ele><time>2026-03-28T17:10:37Z</time></trkpt><trkpt lat="45.151048293473956" lon="10.779008511850153"><ele>22.0</ele><time>2026-03-28T17:10:38Z</time></trkpt><trkpt lat="45.151070056638275" lon="10.779156118545407"><ele>22.0</ele><time>2026-03-28T17:10:39Z</time></trkpt><trkpt lat="45.15109152094379" lon="10.779296939514598"><ele>22.0</ele><time>2026-03-28T17:10:40Z</time></trkpt><trkpt lat="45.151112226967584" lon="10.779436031508629"><ele>22.0</ele><time>2026-03-28T17:10:41Z</time></trkpt><trkpt lat="45.15113716563734" lon="10.77957471202814"><ele>22.200000000000003</ele><time>2026-03-28T17:10:42Z</time></trkpt><trkpt lat="45.151162666102834" lon="10.779717950566614"><ele>22.4</ele><time>2026-03-28T17:10:43Z</time></trkpt><trkpt lat="45.1511859697372" lon="10.779859904202501"><ele>22.6</ele><time>2026-03-28T17:10:44Z</time></trkpt><trkpt lat="45.15120771784977" lon="10.779999433389053"><ele>22.799999999999997</ele><time>2026-03-28T17:10:45Z</time></trkpt><trkpt lat="45.15123129271474" lon="10.780137116214874"><ele>23.0</ele><time>2026-03-28T17:10:46Z</time></trkpt><trkpt lat="45.15125452112343" lon="10.780278776447755"><ele>23.0</ele><time>2026-03-28T17:10:47Z</time></trkpt><trkpt lat="45.151277020272" lon="10.780425755395985"><ele>23.0</ele><time>2026-03-28T17:10:48Z</time></trkpt><trkpt lat="45.15130063750495" lon="10.780567699071403"><ele>23.0</ele><time>2026-03-28T17:10:49Z</time></trkpt><trkpt lat="45.15132408396764" lon="10.78070556118968"><ele>23.0</ele><time>2026-03-28T17:10:50Z</time></trkpt><trkpt lat="45.151346266620166" lon="10.780837422141547"><ele>23.0</ele><time>2026-03-28T17:10:51Z</time></trkpt><trkpt lat="45.151368090182444" lon="10.780959648737168"><ele>22.833333333333336</ele><time>2026-03-28T17:10:52Z</time></trkpt><trkpt lat="45.15138875800129" lon="10.781084081936251"><ele>22.666666666666668</ele><time>2026-03-28T17:10:53Z</time></trkpt><trkpt lat="45.15140828932369" lon="10.781201251299837"><ele>22.5</ele><time>2026-03-28T17:10:54Z</time></trkpt><trkpt lat="45.151424569308666" lon="10.781306337795202"><ele>22.333333333333332</ele><time>2026-03-28T17:10:55Z</time></trkpt><trkpt lat="45.151440058606035" lon="10.781409605784761"><ele>22.166666666666664</ele><time>2026-03-28T17:10:56Z</time></trkpt><trkpt lat="45.15145343400063" lon="10.781505075412136"><ele>22.0</ele><time>2026-03-28T17:10:57Z</time></trkpt><trkpt lat="45.15146602494387" lon="10.781658306006523"><ele>22.0</ele><time>2026-03-28T17:10:59Z</time></trkpt><trkpt lat="45.151467030644405" lon="10.781801744310359"><ele>22.0</ele><time>2026-03-28T17:11:01Z</time></trkpt><trkpt lat="45.151463660749585" lon="10.781909523882916"><ele>22.0</ele><time>2026-03-28T17:11:03Z</time></trkpt><trkpt lat="45.15144950012263" lon="10.781999964412455"><ele>22.0</ele><time>2026-03-28T17:11:11.999Z</time></trkpt><trkpt lat="45.151430688604194" lon="10.78212486272495"><ele>22.0</ele><time>2026-03-28T17:11:14.999Z</time></trkpt><trkpt lat="45.151417645447616" lon="10.78226592542081"><ele>22.0</ele><time>2026-03-28T17:11:16.999Z</time></trkpt><trkpt lat="45.15140656441052" lon="10.782420806957804"><ele>22.0</ele><time>2026-03-28T17:11:18.999Z</time></trkpt><trkpt lat="45.15144757603171" lon="10.782554679991522"><ele>22.0</ele><time>2026-03-28T17:11:20.999Z</time></trkpt><trkpt lat="45.15154324768727" lon="10.782661677194291"><ele>22.0</ele><time>2026-03-28T17:11:22.999Z</time></trkpt><trkpt lat="45.151616623124234" lon="10.782685654981968"><ele>22.0</ele><time>2026-03-28T17:11:23.999Z</time></trkpt><trkpt lat="45.151694660695405" lon="10.782673054814849"><ele>22.0</ele><time>2026-03-28T17:11:24.999Z</time></trkpt><trkpt lat="45.15176748726532" lon="10.782624395920308"><ele>21.5</ele><time>2026-03-28T17:11:25.999Z</time></trkpt><trkpt lat="45.151831791456125" lon="10.782546413223217"><ele>21.0</ele><time>2026-03-28T17:11:26.999Z</time></trkpt><trkpt lat="45.151894192967156" lon="10.782474626467787"><ele>20.5</ele><time>2026-03-28T17:11:27.999Z</time></trkpt><trkpt lat="45.15195828440278" lon="10.782416262886104"><ele>20.0</ele><time>2026-03-28T17:11:28.999Z</time></trkpt><trkpt lat="45.15202088377899" lon="10.782370190382386"><ele>19.5</ele><time>2026-03-28T17:11:29.999Z</time></trkpt><trkpt lat="45.152084065054574" lon="10.782325283359691"><ele>19.0</ele><time>2026-03-28T17:11:30.999Z</time></trkpt><trkpt lat="45.15214945548849" lon="10.782286017954567"><ele>19.0</ele><time>2026-03-28T17:11:31.999Z</time></trkpt><trkpt lat="45.15221171940208" lon="10.78225489182703"><ele>19.0</ele><time>2026-03-28T17:11:32.999Z</time></trkpt><trkpt lat="45.15231097574147" lon="10.782222875943136"><ele>19.0</ele><time>2026-03-28T17:11:34.999Z</time></trkpt><trkpt lat="45.1523749221473" lon="10.782195606911047"><ele>19.0</ele><time>2026-03-28T17:11:36.999Z</time></trkpt><trkpt lat="45.15245181386267" lon="10.782169197256449"><ele>19.0</ele><time>2026-03-28T17:11:40.999Z</time></trkpt><trkpt lat="45.15253699761721" lon="10.782143689934635"><ele>19.0</ele><time>2026-03-28T17:11:42.999Z</time></trkpt><trkpt lat="45.15265141061072" lon="10.782102235288743"><ele>19.166666666666664</ele><time>2026-03-28T17:11:44.999Z</time></trkpt><trkpt lat="45.152768864381116" lon="10.782075826372727"><ele>19.333333333333332</ele><time>2026-03-28T17:11:46.999Z</time></trkpt><trkpt lat="45.152883121248465" lon="10.782036041617944"><ele>19.5</ele><time>2026-03-28T17:11:48.999Z</time></trkpt><trkpt lat="45.15294605381026" lon="10.782011337857734"><ele>19.666666666666668</ele><time>2026-03-28T17:11:49.999Z</time></trkpt><trkpt lat="45.153010116939925" lon="10.781986318624329"><ele>19.833333333333336</ele><time>2026-03-28T17:11:51Z</time></trkpt><trkpt lat="45.15307618439001" lon="10.781965570407214"><ele>20.0</ele><time>2026-03-28T17:11:52Z</time></trkpt><trkpt lat="45.15318761171844" lon="10.78193312377122"><ele>20.0</ele><time>2026-03-28T17:11:54Z</time></trkpt><trkpt lat="45.15327288784667" lon="10.781889366745858"><ele>20.0</ele><time>2026-03-28T17:11:56Z</time></trkpt><trkpt lat="45.15335167197438" lon="10.781865853128746"><ele>20.0</ele><time>2026-03-28T17:11:58Z</time></trkpt><trkpt lat="45.15344332386192" lon="10.781833230048624"><ele>20.0</ele><time>2026-03-28T17:12:00Z</time></trkpt><trkpt lat="45.153572260942035" lon="10.781792706690949"><ele>20.0</ele><time>2026-03-28T17:12:02Z</time></trkpt><trkpt lat="45.153642841734865" lon="10.781769810723313"><ele>20.142857142857142</ele><time>2026-03-28T17:12:03Z</time></trkpt><trkpt lat="45.1537091178537" lon="10.781746468905954"><ele>20.285714285714285</ele><time>2026-03-28T17:12:04Z</time></trkpt><trkpt lat="45.15377345928698" lon="10.781722129216321"><ele>20.42857142857143</ele><time>2026-03-28T17:12:05Z</time></trkpt><trkpt lat="45.15383562907872" lon="10.781699374939464"><ele>20.57142857142857</ele><time>2026-03-28T17:12:06Z</time></trkpt><trkpt lat="45.153903668229255" lon="10.781682628443804"><ele>20.714285714285715</ele><time>2026-03-28T17:12:07Z</time></trkpt><trkpt lat="45.15397236736367" lon="10.781661121219047"><ele>20.857142857142858</ele><time>2026-03-28T17:12:08Z</time></trkpt><trkpt lat="45.1540454853477" lon="10.781635789781285"><ele>21.0</ele><time>2026-03-28T17:12:09Z</time></trkpt><trkpt lat="45.1541131302173" lon="10.781609347998103"><ele>21.833333333333332</ele><time>2026-03-28T17:12:10Z</time></trkpt><trkpt lat="45.15417895153556" lon="10.781588693895374"><ele>22.666666666666664</ele><time>2026-03-28T17:12:11Z</time></trkpt><trkpt lat="45.154302829767026" lon="10.781543290310141"><ele>23.5</ele><time>2026-03-28T17:12:12.999Z</time></trkpt><trkpt lat="45.15436709755346" lon="10.781521555005105"><ele>24.333333333333332</ele><time>2026-03-28T17:12:13.999Z</time></trkpt><trkpt lat="45.15442911893634" lon="10.78150305744715"><ele>25.166666666666664</ele><time>2026-03-28T17:12:14.999Z</time></trkpt><trkpt lat="45.15450308323807" lon="10.781482912735052"><ele>26.0</ele><time>2026-03-28T17:12:16.999Z</time></trkpt><trkpt lat="45.154595480070405" lon="10.78144590854991"><ele>25.999999999999996</ele><time>2026-03-28T17:12:23.999Z</time></trkpt><trkpt lat="45.154685476256866" lon="10.781434455127503"><ele>26.0</ele><time>2026-03-28T17:12:26.999Z</time></trkpt><trkpt lat="45.154753637641704" lon="10.781410561404979"><ele>26.0</ele><time>2026-03-28T17:12:29.999Z</time></trkpt><trkpt lat="45.15481246840036" lon="10.781367274193064"><ele>26.0</ele><time>2026-03-28T17:12:32.999Z</time></trkpt><trkpt lat="45.15489601653396" lon="10.781362593565195"><ele>25.999999999999996</ele><time>2026-03-28T17:12:34.999Z</time></trkpt><trkpt lat="45.154979275184424" lon="10.781314560067328"><ele>26.0</ele><time>2026-03-28T17:12:36.999Z</time></trkpt><trkpt lat="45.155065952795695" lon="10.781285359936083"><ele>25.8</ele><time>2026-03-28T17:12:38.999Z</time></trkpt><trkpt lat="45.15517991806606" lon="10.781271547531604"><ele>25.6</ele><time>2026-03-28T17:12:40.999Z</time></trkpt><trkpt lat="45.15530641109177" lon="10.781311483960534"><ele>25.4</ele><time>2026-03-28T17:12:42.999Z</time></trkpt><trkpt lat="45.15537580440136" lon="10.781287357759759"><ele>25.2</ele><time>2026-03-28T17:12:43.999Z</time></trkpt><trkpt lat="45.15543915085027" lon="10.781234615296308"><ele>25.0</ele><time>2026-03-28T17:12:44.999Z</time></trkpt><trkpt lat="45.155495328416336" lon="10.781172478664187"><ele>25.000000000000004</ele><time>2026-03-28T17:12:45.999Z</time></trkpt><trkpt lat="45.15557464862156" lon="10.781146968226865"><ele>25.0</ele><time>2026-03-28T17:12:46.999Z</time></trkpt><trkpt lat="45.15564438499518" lon="10.78112057887492"><ele>25.0</ele><time>2026-03-28T17:12:47.999Z</time></trkpt><trkpt lat="45.155714234708036" lon="10.781094358483434"><ele>25.0</ele><time>2026-03-28T17:12:48.999Z</time></trkpt><trkpt lat="45.15577604687046" lon="10.78104492225242"><ele>25.0</ele><time>2026-03-28T17:12:49.999Z</time></trkpt><trkpt lat="45.15583737961311" lon="10.780994900462009"><ele>25.000000000000004</ele><time>2026-03-28T17:12:50.999Z</time></trkpt><trkpt lat="45.155877816028664" lon="10.780897243754655"><ele>25.0</ele><time>2026-03-28T17:12:51.999Z</time></trkpt><trkpt lat="45.155928596594485" lon="10.780836032408539"><ele>24.666666666666668</ele><time>2026-03-28T17:12:52.999Z</time></trkpt><trkpt lat="45.15594285663405" lon="10.78073005608487"><ele>24.333333333333336</ele><time>2026-03-28T17:12:53.999Z</time></trkpt><trkpt lat="45.15598296216389" lon="10.780639105549367"><ele>24.0</ele><time>2026-03-28T17:12:54.999Z</time></trkpt><trkpt lat="45.15601347330341" lon="10.780529797842966"><ele>23.666666666666668</ele><time>2026-03-28T17:12:55.999Z</time></trkpt><trkpt lat="45.15604403145027" lon="10.780408430010654"><ele>23.333333333333336</ele><time>2026-03-28T17:12:56.999Z</time></trkpt><trkpt lat="45.156073439235925" lon="10.780279492312319"><ele>23.0</ele><time>2026-03-28T17:12:57.999Z</time></trkpt><trkpt lat="45.156100470151785" lon="10.780152107593675"><ele>23.0</ele><time>2026-03-28T17:12:58.999Z</time></trkpt><trkpt lat="45.156124640914804" lon="10.780038201509324"><ele>23.0</ele><time>2026-03-28T17:12:59.999Z</time></trkpt><trkpt lat="45.156143505925" lon="10.779949299134113"><ele>23.0</ele><time>2026-03-28T17:13:00.999Z</time></trkpt><trkpt lat="45.156150495726024" lon="10.779856212101949"><ele>23.0</ele><time>2026-03-28T17:13:01.999Z</time></trkpt><trkpt lat="45.156192462220815" lon="10.779739173859205"><ele>23.0</ele><time>2026-03-28T17:13:03.999Z</time></trkpt><trkpt lat="45.15623624166737" lon="10.779674990794692"><ele>23.0</ele><time>2026-03-28T17:13:05.999Z</time></trkpt><trkpt lat="45.15627210591644" lon="10.779596952886397"><ele>23.0</ele><time>2026-03-28T17:13:08.999Z</time></trkpt><trkpt lat="45.15633518318687" lon="10.779589238939343"><ele>23.0</ele><time>2026-03-28T17:13:09.999Z</time></trkpt><trkpt lat="45.15641227273844" lon="10.779615341294848"><ele>23.0</ele><time>2026-03-28T17:13:11.999Z</time></trkpt><trkpt lat="45.156516948316444" lon="10.7795853524698"><ele>23.0</ele><time>2026-03-28T17:13:13.999Z</time></trkpt><trkpt lat="45.15661359555087" lon="10.779521036006187"><ele>23.0</ele><time>2026-03-28T17:13:15.999Z</time></trkpt><trkpt lat="45.156732725343986" lon="10.779566253236721"><ele>23.0</ele><time>2026-03-28T17:13:17.999Z</time></trkpt><trkpt lat="45.156835881320426" lon="10.779659902503958"><ele>23.0</ele><time>2026-03-28T17:13:19.999Z</time></trkpt><trkpt lat="45.15687963312954" lon="10.7797375723726"><ele>23.0</ele><time>2026-03-28T17:13:20.999Z</time></trkpt><trkpt lat="45.15692064956546" lon="10.779819369986797"><ele>23.0</ele><time>2026-03-28T17:13:21.999Z</time></trkpt><trkpt lat="45.156961464477746" lon="10.779906731001068"><ele>23.0</ele><time>2026-03-28T17:13:22.999Z</time></trkpt><trkpt lat="45.157002858237824" lon="10.779997395551474"><ele>23.0</ele><time>2026-03-28T17:13:23.999Z</time></trkpt><trkpt lat="45.157041617837095" lon="10.78008582707303"><ele>23.0</ele><time>2026-03-28T17:13:24.999Z</time></trkpt><trkpt lat="45.15707394372341" lon="10.78017288242391"><ele>23.0</ele><time>2026-03-28T17:13:25.999Z</time></trkpt><trkpt lat="45.15710009870777" lon="10.78025648916464"><ele>23.0</ele><time>2026-03-28T17:13:26.999Z</time></trkpt><trkpt lat="45.15713958139504" lon="10.780415449520403"><ele>23.0</ele><time>2026-03-28T17:13:28.999Z</time></trkpt><trkpt lat="45.157161318881684" lon="10.780560936511085"><ele>23.0</ele><time>2026-03-28T17:13:30.999Z</time></trkpt><trkpt lat="45.157151081745816" lon="10.780734835945307"><ele>23.0</ele><time>2026-03-28T17:13:32.999Z</time></trkpt><trkpt lat="45.157137062789026" lon="10.780830249664733"><ele>23.0</ele><time>2026-03-28T17:13:33.999Z</time></trkpt><trkpt lat="45.157114938707714" lon="10.780943184408144"><ele>23.0</ele><time>2026-03-28T17:13:34.999Z</time></trkpt><trkpt lat="45.15709530004647" lon="10.781067373558917"><ele>23.0</ele><time>2026-03-28T17:13:35.999Z</time></trkpt><trkpt lat="45.157105847549296" lon="10.781188886511735"><ele>23.0</ele><time>2026-03-28T17:13:36.999Z</time></trkpt><trkpt lat="45.157154589415015" lon="10.781288971349188"><ele>23.0</ele><time>2026-03-28T17:13:37.999Z</time></trkpt><trkpt lat="45.157225499172014" lon="10.781354151867726"><ele>23.0</ele><time>2026-03-28T17:13:38.999Z</time></trkpt><trkpt lat="45.157310236084676" lon="10.781372745216705"><ele>23.0</ele><time>2026-03-28T17:13:39.999Z</time></trkpt><trkpt lat="45.15738952253622" lon="10.781385116654358"><ele>23.0</ele><time>2026-03-28T17:13:40.999Z</time></trkpt><trkpt lat="45.15746181943976" lon="10.781403065843447"><ele>23.0</ele><time>2026-03-28T17:13:41.999Z</time></trkpt><trkpt lat="45.15752303360728" lon="10.78143122544692"><ele>23.0</ele><time>2026-03-28T17:13:42.999Z</time></trkpt><trkpt lat="45.15760753696409" lon="10.78152596630441"><ele>23.0</ele><time>2026-03-28T17:13:44.999Z</time></trkpt><trkpt lat="45.15765356560205" lon="10.781632128871461"><ele>23.0</ele><time>2026-03-28T17:13:46.999Z</time></trkpt><trkpt lat="45.15769502802237" lon="10.781749652587493"><ele>23.0</ele><time>2026-03-28T17:13:48.999Z</time></trkpt><trkpt lat="45.15773735278592" lon="10.781851631688163"><ele>23.0</ele><time>2026-03-28T17:13:50.999Z</time></trkpt><trkpt lat="45.15777162070045" lon="10.781926589365348"><ele>23.0</ele><time>2026-03-28T17:13:52.998Z</time></trkpt><trkpt lat="45.157803581102" lon="10.782028712030447"><ele>23.0</ele><time>2026-03-28T17:13:54.998Z</time></trkpt><trkpt lat="45.15783278924939" lon="10.782121730638837"><ele>23.0</ele><time>2026-03-28T17:13:57.999Z</time></trkpt><trkpt lat="45.157868250732456" lon="10.78223023959844"><ele>23.0</ele><time>2026-03-28T17:14:00.999Z</time></trkpt><trkpt lat="45.157911465400595" lon="10.782346574938874"><ele>23.0</ele><time>2026-03-28T17:14:02.999Z</time></trkpt><trkpt lat="45.15794472284085" lon="10.78244685443411"><ele>23.0</ele><time>2026-03-28T17:14:04.999Z</time></trkpt><trkpt lat="45.157976529813865" lon="10.78253928374237"><ele>23.0</ele><time>2026-03-28T17:14:06.999Z</time></trkpt><trkpt lat="45.15802224735323" lon="10.782628361124772"><ele>23.0</ele><time>2026-03-28T17:14:09Z</time></trkpt><trkpt lat="45.158078370210525" lon="10.782725213534688"><ele>23.0</ele><time>2026-03-28T17:14:11Z</time></trkpt><trkpt lat="45.15811763153236" lon="10.782834548428394"><ele>23.0</ele><time>2026-03-28T17:14:14Z</time></trkpt><trkpt lat="45.15815490403165" lon="10.782913371297548"><ele>23.0</ele><time>2026-03-28T17:14:16Z</time></trkpt><trkpt lat="45.15819768899735" lon="10.783006654892642"><ele>23.0</ele><time>2026-03-28T17:14:18Z</time></trkpt><trkpt lat="45.1582486726871" lon="10.78311855031955"><ele>23.0</ele><time>2026-03-28T17:14:21Z</time></trkpt><trkpt lat="45.1582940886592" lon="10.783231968805698"><ele>23.0</ele><time>2026-03-28T17:14:23Z</time></trkpt><trkpt lat="45.158349476147876" lon="10.783376062293227"><ele>23.0</ele><time>2026-03-28T17:14:25Z</time></trkpt><trkpt lat="45.15839925489741" lon="10.783519267695402"><ele>23.0</ele><time>2026-03-28T17:14:27Z</time></trkpt><trkpt lat="45.158429148004394" lon="10.783606823049812"><ele>23.166666666666668</ele><time>2026-03-28T17:14:28Z</time></trkpt><trkpt lat="45.15846069303573" lon="10.783699219995233"><ele>23.333333333333336</ele><time>2026-03-28T17:14:29Z</time></trkpt><trkpt lat="45.15848316469582" lon="10.783794153943138"><ele>23.5</ele><time>2026-03-28T17:14:30Z</time></trkpt><trkpt lat="45.15854215872905" lon="10.783901313434859"><ele>23.666666666666668</ele><time>2026-03-28T17:14:31Z</time></trkpt><trkpt lat="45.15857013856534" lon="10.784018280429068"><ele>23.833333333333332</ele><time>2026-03-28T17:14:32Z</time></trkpt><trkpt lat="45.158601385573995" lon="10.78413942265759"><ele>24.0</ele><time>2026-03-28T17:14:33Z</time></trkpt><trkpt lat="45.158638685245684" lon="10.784261512384214"><ele>24.166666666666668</ele><time>2026-03-28T17:14:34Z</time></trkpt><trkpt lat="45.158686040368934" lon="10.784366019091673"><ele>24.333333333333336</ele><time>2026-03-28T17:14:35Z</time></trkpt><trkpt lat="45.158724563513125" lon="10.784449847335397"><ele>24.5</ele><time>2026-03-28T17:14:36Z</time></trkpt><trkpt lat="45.15878550236291" lon="10.78458093888203"><ele>24.666666666666668</ele><time>2026-03-28T17:14:38Z</time></trkpt><trkpt lat="45.15883832978019" lon="10.784707495701385"><ele>24.833333333333336</ele><time>2026-03-28T17:14:40Z</time></trkpt><trkpt lat="45.1588753697003" lon="10.784793898998199"><ele>25.0</ele><time>2026-03-28T17:14:41Z</time></trkpt><trkpt lat="45.15891627650732" lon="10.784888161896797"><ele>25.0</ele><time>2026-03-28T17:14:42Z</time></trkpt><trkpt lat="45.158959357872156" lon="10.784989451645664"><ele>25.0</ele><time>2026-03-28T17:14:43Z</time></trkpt><trkpt lat="45.15900768988809" lon="10.785095549758754"><ele>25.0</ele><time>2026-03-28T17:14:44Z</time></trkpt><trkpt lat="45.15905675593486" lon="10.785210756866324"><ele>25.0</ele><time>2026-03-28T17:14:45Z</time></trkpt><trkpt lat="45.159112867607995" lon="10.785324613233373"><ele>25.0</ele><time>2026-03-28T17:14:46Z</time></trkpt><trkpt lat="45.159176106696606" lon="10.78544237932019"><ele>24.4</ele><time>2026-03-28T17:14:47Z</time></trkpt><trkpt lat="45.15924443577512" lon="10.785564606523282"><ele>23.8</ele><time>2026-03-28T17:14:48Z</time></trkpt><trkpt lat="45.15931619008758" lon="10.785685602460761"><ele>23.200000000000003</ele><time>2026-03-28T17:14:49Z</time></trkpt><trkpt lat="45.15938812511667" lon="10.785799600666744"><ele>22.6</ele><time>2026-03-28T17:14:50Z</time></trkpt><trkpt lat="45.15945938741646" lon="10.785905931470399"><ele>22.0</ele><time>2026-03-28T17:14:51Z</time></trkpt><trkpt lat="45.159532217410806" lon="10.786010766026608"><ele>22.0</ele><time>2026-03-28T17:14:52Z</time></trkpt><trkpt lat="45.159608340146114" lon="10.786122118340504"><ele>22.0</ele><time>2026-03-28T17:14:53Z</time></trkpt><trkpt lat="45.15968634000682" lon="10.786239337686657"><ele>22.0</ele><time>2026-03-28T17:14:54Z</time></trkpt><trkpt lat="45.15976439478096" lon="10.786352428817379"><ele>22.0</ele><time>2026-03-28T17:14:55Z</time></trkpt><trkpt lat="45.159842784596144" lon="10.786460976465015"><ele>22.0</ele><time>2026-03-28T17:14:56Z</time></trkpt><trkpt lat="45.15991734919301" lon="10.786565327865523"><ele>22.0</ele><time>2026-03-28T17:14:57Z</time></trkpt><trkpt lat="45.15999475964905" lon="10.786666099929333"><ele>22.0</ele><time>2026-03-28T17:14:58Z</time></trkpt><trkpt lat="45.160075479142996" lon="10.786768513235158"><ele>22.0</ele><time>2026-03-28T17:14:59Z</time></trkpt><trkpt lat="45.160165053710976" lon="10.786877802355598"><ele>22.0</ele><time>2026-03-28T17:15:00Z</time></trkpt><trkpt lat="45.16025739372706" lon="10.78699200093106"><ele>22.0</ele><time>2026-03-28T17:15:01Z</time></trkpt><trkpt lat="45.16035532817869" lon="10.787111388264176"><ele>22.0</ele><time>2026-03-28T17:15:02Z</time></trkpt><trkpt lat="45.16045812057564" lon="10.787239724784062"><ele>22.0</ele><time>2026-03-28T17:15:03Z</time></trkpt><trkpt lat="45.160563922275884" lon="10.787367672277535"><ele>22.0</ele><time>2026-03-28T17:15:04Z</time></trkpt><trkpt lat="45.160669447797176" lon="10.787488340843488"><ele>21.8</ele><time>2026-03-28T17:15:05Z</time></trkpt><trkpt lat="45.1607688200775" lon="10.787591436440403"><ele>21.6</ele><time>2026-03-28T17:15:06Z</time></trkpt><trkpt lat="45.160862320581735" lon="10.787683554438566"><ele>21.400000000000002</ele><time>2026-03-28T17:15:07Z</time></trkpt><trkpt lat="45.160948565208976" lon="10.787763667294186"><ele>21.200000000000003</ele><time>2026-03-28T17:15:08Z</time></trkpt><trkpt lat="45.161032180531706" lon="10.787836981580826"><ele>21.0</ele><time>2026-03-28T17:15:09Z</time></trkpt><trkpt lat="45.161116975042226" lon="10.7879070205531"><ele>21.333333333333332</ele><time>2026-03-28T17:15:10Z</time></trkpt><trkpt lat="45.16119841467846" lon="10.787972250781836"><ele>21.666666666666668</ele><time>2026-03-28T17:15:11Z</time></trkpt><trkpt lat="45.16126756614123" lon="10.788027285914522"><ele>22.0</ele><time>2026-03-28T17:15:12Z</time></trkpt><trkpt lat="45.16132859323469" lon="10.788072836078996"><ele>22.333333333333336</ele><time>2026-03-28T17:15:13Z</time></trkpt><trkpt lat="45.16138959253186" lon="10.788114526486709"><ele>22.666666666666668</ele><time>2026-03-28T17:15:14Z</time></trkpt><trkpt lat="45.16145919751546" lon="10.788160901124295"><ele>23.0</ele><time>2026-03-28T17:15:15Z</time></trkpt><trkpt lat="45.16153154034081" lon="10.78821292009504"><ele>22.833333333333336</ele><time>2026-03-28T17:15:16Z</time></trkpt><trkpt lat="45.16160533689206" lon="10.788268048751247"><ele>22.666666666666668</ele><time>2026-03-28T17:15:17Z</time></trkpt><trkpt lat="45.16168460650668" lon="10.788319567916723"><ele>22.5</ele><time>2026-03-28T17:15:18Z</time></trkpt><trkpt lat="45.16176543494184" lon="10.78836257412182"><ele>22.333333333333332</ele><time>2026-03-28T17:15:19Z</time></trkpt><trkpt lat="45.16184973721339" lon="10.788404921862918"><ele>22.166666666666664</ele><time>2026-03-28T17:15:20Z</time></trkpt><trkpt lat="45.1619376135985" lon="10.78844585423646"><ele>22.0</ele><time>2026-03-28T17:15:21Z</time></trkpt><trkpt lat="45.16203285383963" lon="10.78848680873073"><ele>22.200000000000003</ele><time>2026-03-28T17:15:22Z</time></trkpt><trkpt lat="45.16213386725868" lon="10.788526850176574"><ele>22.4</ele><time>2026-03-28T17:15:23Z</time></trkpt><trkpt lat="45.16224110368022" lon="10.788567600768182"><ele>22.6</ele><time>2026-03-28T17:15:24Z</time></trkpt><trkpt lat="45.16235364327271" lon="10.788601373196665"><ele>22.799999999999997</ele><time>2026-03-28T17:15:25Z</time></trkpt><trkpt lat="45.162467867374865" lon="10.788625236444108"><ele>23.0</ele><time>2026-03-28T17:15:26Z</time></trkpt><trkpt lat="45.16258250589061" lon="10.78864347386532"><ele>23.0</ele><time>2026-03-28T17:15:27Z</time></trkpt><trkpt lat="45.16269728786102" lon="10.788658299711608"><ele>23.0</ele><time>2026-03-28T17:15:28Z</time></trkpt><trkpt lat="45.162813105611015" lon="10.788668729061811"><ele>23.0</ele><time>2026-03-28T17:15:29Z</time></trkpt><trkpt lat="45.162928739614465" lon="10.788672654857855"><ele>23.0</ele><time>2026-03-28T17:15:30Z</time></trkpt><trkpt lat="45.16304698119085" lon="10.78866972012044"><ele>23.0</ele><time>2026-03-28T17:15:31Z</time></trkpt><trkpt lat="45.16316335149185" lon="10.788666077953863"><ele>23.0</ele><time>2026-03-28T17:15:32Z</time></trkpt><trkpt lat="45.16327511095656" lon="10.78866528368766"><ele>23.0</ele><time>2026-03-28T17:15:33Z</time></trkpt><trkpt lat="45.16337906408763" lon="10.788665829813175"><ele>23.0</ele><time>2026-03-28T17:15:34Z</time></trkpt><trkpt lat="45.163478536140104" lon="10.788667080557683"><ele>23.0</ele><time>2026-03-28T17:15:35Z</time></trkpt><trkpt lat="45.16357590122634" lon="10.788672591368615"><ele>23.0</ele><time>2026-03-28T17:15:36Z</time></trkpt><trkpt lat="45.1636672429162" lon="10.788677517893587"><ele>23.0</ele><time>2026-03-28T17:15:37Z</time></trkpt><trkpt lat="45.16374776543671" lon="10.788683980987082"><ele>23.0</ele><time>2026-03-28T17:15:38Z</time></trkpt><trkpt lat="45.163820120691526" lon="10.788688672103625"><ele>23.0</ele><time>2026-03-28T17:15:39Z</time></trkpt><trkpt lat="45.16388419325519" lon="10.78869465226573"><ele>23.0</ele><time>2026-03-28T17:15:40Z</time></trkpt><trkpt lat="45.16400456560017" lon="10.788701151380527"><ele>23.0</ele><time>2026-03-28T17:15:42Z</time></trkpt><trkpt lat="45.16409904264024" lon="10.788692120364436"><ele>22.5</ele><time>2026-03-28T17:15:44Z</time></trkpt><trkpt lat="45.16416635537974" lon="10.788685420391412"><ele>22.0</ele><time>2026-03-28T17:15:46Z</time></trkpt><trkpt lat="45.164247635591195" lon="10.788666884405108"><ele>21.5</ele><time>2026-03-28T17:15:59.999Z</time></trkpt><trkpt lat="45.164351143172624" lon="10.788660520153563"><ele>21.0</ele><time>2026-03-28T17:16:01.999Z</time></trkpt><trkpt lat="45.164440672280705" lon="10.788655814599723"><ele>20.5</ele><time>2026-03-28T17:16:04Z</time></trkpt><trkpt lat="45.16450442053159" lon="10.788655480975727"><ele>20.0</ele><time>2026-03-28T17:16:06Z</time></trkpt><trkpt lat="45.16456803811686" lon="10.788661808633536"><ele>20.0</ele><time>2026-03-28T17:16:10Z</time></trkpt><trkpt lat="45.16467402184705" lon="10.788703217581249"><ele>20.0</ele><time>2026-03-28T17:16:21Z</time></trkpt><trkpt lat="45.164744387872915" lon="10.788844789316773"><ele>20.0</ele><time>2026-03-28T17:16:23Z</time></trkpt><trkpt lat="45.16481837422704" lon="10.789006747814867"><ele>20.0</ele><time>2026-03-28T17:16:25Z</time></trkpt><trkpt lat="45.16485294427623" lon="10.789116562808234"><ele>20.0</ele><time>2026-03-28T17:16:26Z</time></trkpt><trkpt lat="45.16485800540402" lon="10.789252727891187"><ele>20.0</ele><time>2026-03-28T17:16:27Z</time></trkpt><trkpt lat="45.16482639632381" lon="10.789401825955037"><ele>20.0</ele><time>2026-03-28T17:16:28Z</time></trkpt><trkpt lat="45.16477139768229" lon="10.789549479879195"><ele>20.0</ele><time>2026-03-28T17:16:29Z</time></trkpt><trkpt lat="45.16470518360151" lon="10.789694336664228"><ele>20.0</ele><time>2026-03-28T17:16:30Z</time></trkpt><trkpt lat="45.16465091435701" lon="10.789847731504116"><ele>21.0</ele><time>2026-03-28T17:16:31Z</time></trkpt><trkpt lat="45.164613324948775" lon="10.790008564213728"><ele>22.0</ele><time>2026-03-28T17:16:32Z</time></trkpt><trkpt lat="45.164589397208275" lon="10.790164875697553"><ele>23.0</ele><time>2026-03-28T17:16:33Z</time></trkpt><trkpt lat="45.16457763825526" lon="10.790324079269455"><ele>24.0</ele><time>2026-03-28T17:16:34Z</time></trkpt><trkpt lat="45.16458887350706" lon="10.790483427407857"><ele>24.2</ele><time>2026-03-28T17:16:35Z</time></trkpt><trkpt lat="45.164618738259996" lon="10.790634770402939"><ele>24.4</ele><time>2026-03-28T17:16:36Z</time></trkpt><trkpt lat="45.1646527065103" lon="10.7907808319444"><ele>24.6</ele><time>2026-03-28T17:16:37Z</time></trkpt><trkpt lat="45.16469602106007" lon="10.790920785508023"><ele>24.8</ele><time>2026-03-28T17:16:38Z</time></trkpt><trkpt lat="45.164749207217284" lon="10.791046089293772"><ele>25.0</ele><time>2026-03-28T17:16:39Z</time></trkpt><trkpt lat="45.164812157484036" lon="10.791162988495419"><ele>25.25</ele><time>2026-03-28T17:16:40Z</time></trkpt><trkpt lat="45.16489185201603" lon="10.791271178350407"><ele>25.5</ele><time>2026-03-28T17:16:41Z</time></trkpt><trkpt lat="45.16498688722443" lon="10.791376721908328"><ele>25.75</ele><time>2026-03-28T17:16:42Z</time></trkpt><trkpt lat="45.165084457800404" lon="10.791487601882885"><ele>26.0</ele><time>2026-03-28T17:16:43Z</time></trkpt><trkpt lat="45.16518764886843" lon="10.791605296899439"><ele>26.0</ele><time>2026-03-28T17:16:44Z</time></trkpt><trkpt lat="45.16527884605109" lon="10.791742530397588"><ele>26.0</ele><time>2026-03-28T17:16:45Z</time></trkpt><trkpt lat="45.165343395500706" lon="10.791904400590326"><ele>26.0</ele><time>2026-03-28T17:16:46Z</time></trkpt><trkpt lat="45.16538710528413" lon="10.79208586795558"><ele>26.0</ele><time>2026-03-28T17:16:47Z</time></trkpt><trkpt lat="45.16540496657146" lon="10.792280442132551"><ele>26.0</ele><time>2026-03-28T17:16:48Z</time></trkpt><trkpt lat="45.16539151319615" lon="10.79247841189839"><ele>26.0</ele><time>2026-03-28T17:16:49Z</time></trkpt><trkpt lat="45.16536251527983" lon="10.79267806914327"><ele>26.0</ele><time>2026-03-28T17:16:50Z</time></trkpt><trkpt lat="45.16534163428348" lon="10.792882090006328"><ele>26.0</ele><time>2026-03-28T17:16:51Z</time></trkpt><trkpt lat="45.16532389849907" lon="10.793089217584015"><ele>25.333333333333332</ele><time>2026-03-28T17:16:52Z</time></trkpt><trkpt lat="45.165301516900236" lon="10.793299424522832"><ele>24.666666666666664</ele><time>2026-03-28T17:16:53Z</time></trkpt><trkpt lat="45.165270442325976" lon="10.793509897901979"><ele>24.0</ele><time>2026-03-28T17:16:54Z</time></trkpt><trkpt lat="45.165221105105765" lon="10.793715789784784"><ele>23.25</ele><time>2026-03-28T17:16:55Z</time></trkpt><trkpt lat="45.16516426596434" lon="10.793914658951975"><ele>22.5</ele><time>2026-03-28T17:16:56Z</time></trkpt><trkpt lat="45.16511104221731" lon="10.794109085006797"><ele>21.75</ele><time>2026-03-28T17:16:57Z</time></trkpt><trkpt lat="45.1650619622852" lon="10.79429848931321"><ele>21.0</ele><time>2026-03-28T17:16:58Z</time></trkpt><trkpt lat="45.16500435448475" lon="10.79447807610793"><ele>21.25</ele><time>2026-03-28T17:16:59Z</time></trkpt><trkpt lat="45.164927662785395" lon="10.79463405905575"><ele>21.5</ele><time>2026-03-28T17:17:00Z</time></trkpt><trkpt lat="45.164829257398075" lon="10.79475902184759"><ele>21.75</ele><time>2026-03-28T17:17:01Z</time></trkpt><trkpt lat="45.16471628972328" lon="10.794856360757402"><ele>22.0</ele><time>2026-03-28T17:17:02Z</time></trkpt><trkpt lat="45.164587865099804" lon="10.794910994428097"><ele>22.0</ele><time>2026-03-28T17:17:03Z</time></trkpt><trkpt lat="45.16446439584364" lon="10.795008898317183"><ele>22.0</ele><time>2026-03-28T17:17:04Z</time></trkpt><trkpt lat="45.164333934224615" lon="10.795101777572237"><ele>22.0</ele><time>2026-03-28T17:17:05Z</time></trkpt><trkpt lat="45.16422028337111" lon="10.795226774258882"><ele>22.0</ele><time>2026-03-28T17:17:06Z</time></trkpt><trkpt lat="45.164121857444705" lon="10.795360397665092"><ele>21.75</ele><time>2026-03-28T17:17:07Z</time></trkpt><trkpt lat="45.16403851343856" lon="10.795492694722071"><ele>21.5</ele><time>2026-03-28T17:17:08Z</time></trkpt><trkpt lat="45.16396616225523" lon="10.795626924336892"><ele>21.25</ele><time>2026-03-28T17:17:09Z</time></trkpt><trkpt lat="45.16389950209869" lon="10.795758066639248"><ele>21.0</ele><time>2026-03-28T17:17:10Z</time></trkpt><trkpt lat="45.16383746032617" lon="10.795880535820771"><ele>21.0</ele><time>2026-03-28T17:17:11Z</time></trkpt><trkpt lat="45.16377540138363" lon="10.796000820767976"><ele>21.0</ele><time>2026-03-28T17:17:12Z</time></trkpt><trkpt lat="45.16371581575746" lon="10.796114166483806"><ele>21.0</ele><time>2026-03-28T17:17:13Z</time></trkpt><trkpt lat="45.163658750366004" lon="10.796225622847494"><ele>21.0</ele><time>2026-03-28T17:17:14Z</time></trkpt><trkpt lat="45.16360666898869" lon="10.796329959996434"><ele>21.0</ele><time>2026-03-28T17:17:15Z</time></trkpt><trkpt lat="45.16355470545895" lon="10.796435860979681"><ele>20.833333333333332</ele><time>2026-03-28T17:17:17Z</time></trkpt><trkpt lat="45.16351033233397" lon="10.79652092412718"><ele>20.666666666666668</ele><time>2026-03-28T17:17:21Z</time></trkpt><trkpt lat="45.16346698133874" lon="10.79661435834898"><ele>20.5</ele><time>2026-03-28T17:17:24Z</time></trkpt><trkpt lat="45.16342797965327" lon="10.796688346408127"><ele>20.333333333333336</ele><time>2026-03-28T17:17:27Z</time></trkpt><trkpt lat="45.16338064032942" lon="10.79678662038386"><ele>20.166666666666668</ele><time>2026-03-28T17:17:32Z</time></trkpt><trkpt lat="45.163335479360484" lon="10.796885109436326"><ele>20.0</ele><time>2026-03-28T17:17:34Z</time></trkpt><trkpt lat="45.16327911157279" lon="10.79698964888609"><ele>20.2</ele><time>2026-03-28T17:17:36Z</time></trkpt><trkpt lat="45.16321618777475" lon="10.79711491148569"><ele>20.4</ele><time>2026-03-28T17:17:38Z</time></trkpt><trkpt lat="45.16316541720901" lon="10.797219402166284"><ele>20.6</ele><time>2026-03-28T17:17:40Z</time></trkpt><trkpt lat="45.163097380875875" lon="10.797354661280034"><ele>20.8</ele><time>2026-03-28T17:17:42Z</time></trkpt><trkpt lat="45.16305466248618" lon="10.797437087757755"><ele>21.0</ele><time>2026-03-28T17:17:43Z</time></trkpt><trkpt lat="45.16300922613907" lon="10.797525470173452"><ele>21.0</ele><time>2026-03-28T17:17:44Z</time></trkpt><trkpt lat="45.16296447689059" lon="10.797620457444294"><ele>21.0</ele><time>2026-03-28T17:17:45Z</time></trkpt><trkpt lat="45.16292247158008" lon="10.797712470190833"><ele>21.0</ele><time>2026-03-28T17:17:46Z</time></trkpt><trkpt lat="45.162883619075195" lon="10.797802266770697"><ele>21.0</ele><time>2026-03-28T17:17:47Z</time></trkpt><trkpt lat="45.162845416359275" lon="10.797890284034416"><ele>21.0</ele><time>2026-03-28T17:17:48Z</time></trkpt><trkpt lat="45.16280158880963" lon="10.797984833083497"><ele>21.0</ele><time>2026-03-28T17:17:49Z</time></trkpt><trkpt lat="45.16274914182059" lon="10.798093664439435"><ele>21.4</ele><time>2026-03-28T17:17:50Z</time></trkpt><trkpt lat="45.162683774019065" lon="10.798220922705077"><ele>21.8</ele><time>2026-03-28T17:17:50.999Z</time></trkpt><trkpt lat="45.16261519924805" lon="10.79836222201031"><ele>22.2</ele><time>2026-03-28T17:17:51.999Z</time></trkpt><trkpt lat="45.162550658247596" lon="10.798495966271833"><ele>22.599999999999998</ele><time>2026-03-28T17:17:52.999Z</time></trkpt><trkpt lat="45.16249375509842" lon="10.798613627540721"><ele>23.0</ele><time>2026-03-28T17:17:53.999Z</time></trkpt><trkpt lat="45.16245017241062" lon="10.798703541171989"><ele>23.166666666666668</ele><time>2026-03-28T17:17:54.999Z</time></trkpt><trkpt lat="45.16241432862594" lon="10.798780057596247"><ele>23.333333333333336</ele><time>2026-03-28T17:17:55.999Z</time></trkpt><trkpt lat="45.162366296443764" lon="10.798875795438287"><ele>23.5</ele><time>2026-03-28T17:17:57.999Z</time></trkpt><trkpt lat="45.16232219976098" lon="10.798949123292273"><ele>23.666666666666668</ele><time>2026-03-28T17:17:59.999Z</time></trkpt><trkpt lat="45.162228843684524" lon="10.799086332198614"><ele>23.833333333333332</ele><time>2026-03-28T17:18:01.999Z</time></trkpt><trkpt lat="45.16217950901667" lon="10.799158115973848"><ele>24.0</ele><time>2026-03-28T17:18:02.999Z</time></trkpt><trkpt lat="45.162120428509404" lon="10.799241886316308"><ele>23.4</ele><time>2026-03-28T17:18:03.999Z</time></trkpt><trkpt lat="45.1620518724239" lon="10.79933852238264"><ele>22.799999999999997</ele><time>2026-03-28T17:18:04.999Z</time></trkpt><trkpt lat="45.1619821288762" lon="10.799448534957662"><ele>22.200000000000003</ele><time>2026-03-28T17:18:05.999Z</time></trkpt><trkpt lat="45.161916914690146" lon="10.799558010063182"><ele>21.6</ele><time>2026-03-28T17:18:06.999Z</time></trkpt><trkpt lat="45.161861141310524" lon="10.799654054004645"><ele>21.0</ele><time>2026-03-28T17:18:07.999Z</time></trkpt><trkpt lat="45.16181128297842" lon="10.799739572231722"><ele>21.0</ele><time>2026-03-28T17:18:09Z</time></trkpt><trkpt lat="45.161755825518284" lon="10.799827516576501"><ele>21.0</ele><time>2026-03-28T17:18:10Z</time></trkpt><trkpt lat="45.161696310692776" lon="10.79991614588086"><ele>21.0</ele><time>2026-03-28T17:18:11Z</time></trkpt><trkpt lat="45.161630801874495" lon="10.80002494184245"><ele>21.0</ele><time>2026-03-28T17:18:12Z</time></trkpt><trkpt lat="45.16155888633809" lon="10.800138548834996"><ele>21.0</ele><time>2026-03-28T17:18:13Z</time></trkpt><trkpt lat="45.16148680513102" lon="10.800257479516064"><ele>21.4</ele><time>2026-03-28T17:18:14Z</time></trkpt><trkpt lat="45.16142252435189" lon="10.800379763263242"><ele>21.8</ele><time>2026-03-28T17:18:15Z</time></trkpt><trkpt lat="45.1613754989348" lon="10.800498474395487"><ele>22.2</ele><time>2026-03-28T17:18:16Z</time></trkpt><trkpt lat="45.161335970081815" lon="10.80061501467071"><ele>22.599999999999998</ele><time>2026-03-28T17:18:17Z</time></trkpt><trkpt lat="45.16130242329627" lon="10.800722013317854"><ele>23.0</ele><time>2026-03-28T17:18:18Z</time></trkpt><trkpt lat="45.16126886275094" lon="10.800812725645004"><ele>23.0</ele><time>2026-03-28T17:18:19Z</time></trkpt><trkpt lat="45.161239887024855" lon="10.80089211860694"><ele>23.0</ele><time>2026-03-28T17:18:20Z</time></trkpt><trkpt lat="45.161192291767314" lon="10.801020206618487"><ele>23.0</ele><time>2026-03-28T17:18:22Z</time></trkpt><trkpt lat="45.161157411847526" lon="10.801105109553285"><ele>23.0</ele><time>2026-03-28T17:18:24Z</time></trkpt><trkpt lat="45.16111269788986" lon="10.80118961778573"><ele>23.0</ele><time>2026-03-28T17:18:27Z</time></trkpt><trkpt lat="45.16103640703108" lon="10.801272993280394"><ele>23.0</ele><time>2026-03-28T17:18:30Z</time></trkpt><trkpt lat="45.16092781092087" lon="10.801340605238002"><ele>22.2</ele><time>2026-03-28T17:18:32Z</time></trkpt><trkpt lat="45.160860731414836" lon="10.801340328665274"><ele>21.4</ele><time>2026-03-28T17:18:33Z</time></trkpt><trkpt lat="45.16080106104732" lon="10.801379983972618"><ele>20.599999999999998</ele><time>2026-03-28T17:18:34Z</time></trkpt><trkpt lat="45.16079995529059" lon="10.801626978312553"><ele>19.799999999999997</ele><time>2026-03-28T17:18:36Z</time></trkpt><trkpt lat="45.160840719328306" lon="10.801732182119977"><ele>19.0</ele><time>2026-03-28T17:18:37Z</time></trkpt><trkpt lat="45.160885964141805" lon="10.80182977731542"><ele>18.4</ele><time>2026-03-28T17:18:38Z</time></trkpt><trkpt lat="45.160927012646276" lon="10.801941597559132"><ele>17.799999999999997</ele><time>2026-03-28T17:18:39Z</time></trkpt><trkpt lat="45.160962751309775" lon="10.80206786328453"><ele>17.200000000000003</ele><time>2026-03-28T17:18:40Z</time></trkpt><trkpt lat="45.160994321912696" lon="10.802207115507573"><ele>16.6</ele><time>2026-03-28T17:18:41Z</time></trkpt><trkpt lat="45.16102145129977" lon="10.802351141803078"><ele>16.0</ele><time>2026-03-28T17:18:42Z</time></trkpt><trkpt lat="45.16105227412783" lon="10.802492178545855"><ele>16.0</ele><time>2026-03-28T17:18:43Z</time></trkpt><trkpt lat="45.1610861882738" lon="10.802635217642095"><ele>16.0</ele><time>2026-03-28T17:18:44Z</time></trkpt><trkpt lat="45.161119808047616" lon="10.802769978374515"><ele>16.0</ele><time>2026-03-28T17:18:45Z</time></trkpt><trkpt lat="45.16115541405258" lon="10.802908888077374"><ele>16.0</ele><time>2026-03-28T17:18:46Z</time></trkpt><trkpt lat="45.161188058970005" lon="10.80304871688341"><ele>16.0</ele><time>2026-03-28T17:18:47Z</time></trkpt><trkpt lat="45.16122339922551" lon="10.803190512258702"><ele>15.8</ele><time>2026-03-28T17:18:48Z</time></trkpt><trkpt lat="45.16125893454142" lon="10.803335347461998"><ele>15.600000000000001</ele><time>2026-03-28T17:18:49Z</time></trkpt><trkpt lat="45.16129546031073" lon="10.803478087562212"><ele>15.4</ele><time>2026-03-28T17:18:50Z</time></trkpt><trkpt lat="45.16133189208144" lon="10.803629590056522"><ele>15.2</ele><time>2026-03-28T17:18:51Z</time></trkpt><trkpt lat="45.16136895886049" lon="10.803791275193374"><ele>15.0</ele><time>2026-03-28T17:18:52Z</time></trkpt><trkpt lat="45.16140893278886" lon="10.803955845644309"><ele>15.0</ele><time>2026-03-28T17:18:53Z</time></trkpt><trkpt lat="45.16145217611703" lon="10.804125481808157"><ele>15.0</ele><time>2026-03-28T17:18:54Z</time></trkpt><trkpt lat="45.16149827401912" lon="10.804294508468045"><ele>15.0</ele><time>2026-03-28T17:18:55Z</time></trkpt><trkpt lat="45.161540249621154" lon="10.8044593025714"><ele>15.0</ele><time>2026-03-28T17:18:56Z</time></trkpt><trkpt lat="45.16157938512005" lon="10.804620709431056"><ele>15.0</ele><time>2026-03-28T17:18:57Z</time></trkpt><trkpt lat="45.161618593001066" lon="10.804782458511653"><ele>15.0</ele><time>2026-03-28T17:18:58Z</time></trkpt><trkpt lat="45.16165809704957" lon="10.804948479247004"><ele>15.0</ele><time>2026-03-28T17:18:59Z</time></trkpt><trkpt lat="45.161696237730766" lon="10.805117292526903"><ele>15.0</ele><time>2026-03-28T17:19:00Z</time></trkpt><trkpt lat="45.16173712587389" lon="10.805287412693026"><ele>15.0</ele><time>2026-03-28T17:19:01Z</time></trkpt><trkpt lat="45.16177997308414" lon="10.80545761648805"><ele>15.0</ele><time>2026-03-28T17:19:02Z</time></trkpt><trkpt lat="45.16182350265281" lon="10.805622658860663"><ele>15.0</ele><time>2026-03-28T17:19:03Z</time></trkpt><trkpt lat="45.161865030082296" lon="10.805782572200025"><ele>15.0</ele><time>2026-03-28T17:19:04Z</time></trkpt><trkpt lat="45.16190271472557" lon="10.805938386873759"><ele>15.0</ele><time>2026-03-28T17:19:05Z</time></trkpt><trkpt lat="45.16194114140553" lon="10.806095394727766"><ele>15.0</ele><time>2026-03-28T17:19:06Z</time></trkpt><trkpt lat="45.161980855419905" lon="10.806250941597252"><ele>15.0</ele><time>2026-03-28T17:19:07Z</time></trkpt><trkpt lat="45.16201892724932" lon="10.806404465931339"><ele>15.0</ele><time>2026-03-28T17:19:08Z</time></trkpt><trkpt lat="45.16205304838804" lon="10.806553417258923"><ele>15.0</ele><time>2026-03-28T17:19:09Z</time></trkpt><trkpt lat="45.16208937445748" lon="10.806702120966598"><ele>15.0</ele><time>2026-03-28T17:19:10Z</time></trkpt><trkpt lat="45.16212846542882" lon="10.806848028032979"><ele>15.0</ele><time>2026-03-28T17:19:11Z</time></trkpt><trkpt lat="45.162166648137706" lon="10.80699365486397"><ele>15.0</ele><time>2026-03-28T17:19:12Z</time></trkpt><trkpt lat="45.162201916867204" lon="10.807140977483886"><ele>15.0</ele><time>2026-03-28T17:19:13Z</time></trkpt><trkpt lat="45.16223633163752" lon="10.807290815639684"><ele>15.0</ele><time>2026-03-28T17:19:14Z</time></trkpt><trkpt lat="45.162271505284025" lon="10.8074415618135"><ele>15.0</ele><time>2026-03-28T17:19:15Z</time></trkpt><trkpt lat="45.16230901684869" lon="10.80759524571468"><ele>15.0</ele><time>2026-03-28T17:19:16Z</time></trkpt><trkpt lat="45.16234683364509" lon="10.807748751124487"><ele>15.0</ele><time>2026-03-28T17:19:17Z</time></trkpt><trkpt lat="45.162384182857885" lon="10.807904249468082"><ele>15.4</ele><time>2026-03-28T17:19:18Z</time></trkpt><trkpt lat="45.16242277785307" lon="10.808060444422303"><ele>15.8</ele><time>2026-03-28T17:19:19Z</time></trkpt><trkpt lat="45.162461441979204" lon="10.808209016884865"><ele>16.2</ele><time>2026-03-28T17:19:20Z</time></trkpt><trkpt lat="45.162497126137445" lon="10.808342161994569"><ele>16.6</ele><time>2026-03-28T17:19:21Z</time></trkpt><trkpt lat="45.16252782610937" lon="10.80846601455216"><ele>17.0</ele><time>2026-03-28T17:19:22Z</time></trkpt><trkpt lat="45.16255978098077" lon="10.808596348134836"><ele>17.4</ele><time>2026-03-28T17:19:23Z</time></trkpt><trkpt lat="45.16259549968932" lon="10.80874329601565"><ele>17.799999999999997</ele><time>2026-03-28T17:19:24Z</time></trkpt><trkpt lat="45.16262950219695" lon="10.808883388504372"><ele>18.2</ele><time>2026-03-28T17:19:25Z</time></trkpt><trkpt lat="45.16266366304657" lon="10.809018035784558"><ele>18.599999999999998</ele><time>2026-03-28T17:19:26Z</time></trkpt><trkpt lat="45.1626952371726" lon="10.809150642434423"><ele>19.0</ele><time>2026-03-28T17:19:27Z</time></trkpt><trkpt lat="45.162733265875886" lon="10.809315880747397"><ele>18.599999999999998</ele><time>2026-03-28T17:19:28Z</time></trkpt><trkpt lat="45.16276399926248" lon="10.809472785678064"><ele>18.2</ele><time>2026-03-28T17:19:29Z</time></trkpt><trkpt lat="45.16278928256075" lon="10.80961282535537"><ele>17.799999999999997</ele><time>2026-03-28T17:19:30Z</time></trkpt><trkpt lat="45.16281413460527" lon="10.809758436040527"><ele>17.4</ele><time>2026-03-28T17:19:31Z</time></trkpt><trkpt lat="45.16283333655016" lon="10.809912237325968"><ele>17.0</ele><time>2026-03-28T17:19:32Z</time></trkpt><trkpt lat="45.16285336166836" lon="10.810074521492757"><ele>17.5</ele><time>2026-03-28T17:19:33Z</time></trkpt><trkpt lat="45.16287070540039" lon="10.810247236940091"><ele>18.0</ele><time>2026-03-28T17:19:34Z</time></trkpt><trkpt lat="45.16288511475441" lon="10.810431415726947"><ele>18.5</ele><time>2026-03-28T17:19:35Z</time></trkpt><trkpt lat="45.162892610539096" lon="10.810626016873123"><ele>19.0</ele><time>2026-03-28T17:19:36Z</time></trkpt><trkpt lat="45.162895947591174" lon="10.810829318319314"><ele>19.0</ele><time>2026-03-28T17:19:37Z</time></trkpt><trkpt lat="45.16290422557206" lon="10.811033320343084"><ele>19.0</ele><time>2026-03-28T17:19:38Z</time></trkpt><trkpt lat="45.16292514477782" lon="10.811232129428989"><ele>19.0</ele><time>2026-03-28T17:19:39Z</time></trkpt><trkpt lat="45.16296415986907" lon="10.811420603231976"><ele>19.0</ele><time>2026-03-28T17:19:40Z</time></trkpt><trkpt lat="45.16301702791372" lon="10.811598079482206"><ele>19.0</ele><time>2026-03-28T17:19:41Z</time></trkpt><trkpt lat="45.16307630255852" lon="10.811753374782281"><ele>19.0</ele><time>2026-03-28T17:19:42Z</time></trkpt><trkpt lat="45.16313450837491" lon="10.811896383711153"><ele>19.0</ele><time>2026-03-28T17:19:43Z</time></trkpt><trkpt lat="45.16318848489084" lon="10.812031241299506"><ele>19.0</ele><time>2026-03-28T17:19:44Z</time></trkpt><trkpt lat="45.16323841067202" lon="10.812156291152375"><ele>19.6</ele><time>2026-03-28T17:19:45Z</time></trkpt><trkpt lat="45.16328360044749" lon="10.812275154401163"><ele>20.2</ele><time>2026-03-28T17:19:46Z</time></trkpt><trkpt lat="45.16333153679192" lon="10.812394315911403"><ele>20.8</ele><time>2026-03-28T17:19:47Z</time></trkpt><trkpt lat="45.16337953031199" lon="10.81251749848355"><ele>21.400000000000002</ele><time>2026-03-28T17:19:48Z</time></trkpt><trkpt lat="45.163423993865926" lon="10.812643464755276"><ele>22.0</ele><time>2026-03-28T17:19:49Z</time></trkpt><trkpt lat="45.16346347294511" lon="10.812775647114305"><ele>22.0</ele><time>2026-03-28T17:19:50Z</time></trkpt><trkpt lat="45.163498463859014" lon="10.812911689362519"><ele>22.0</ele><time>2026-03-28T17:19:51Z</time></trkpt><trkpt lat="45.16353074419955" lon="10.813052271502128"><ele>22.0</ele><time>2026-03-28T17:19:52Z</time></trkpt><trkpt lat="45.16355945116609" lon="10.813191378026247"><ele>22.0</ele><time>2026-03-28T17:19:53Z</time></trkpt><trkpt lat="45.16358535643627" lon="10.813331798491893"><ele>22.0</ele><time>2026-03-28T17:19:54Z</time></trkpt><trkpt lat="45.16360799268849" lon="10.813465226881425"><ele>21.833333333333332</ele><time>2026-03-28T17:19:55Z</time></trkpt><trkpt lat="45.163628844637465" lon="10.813597720962447"><ele>21.666666666666664</ele><time>2026-03-28T17:19:56Z</time></trkpt><trkpt lat="45.16364588898702" lon="10.813724217738521"><ele>21.5</ele><time>2026-03-28T17:19:57Z</time></trkpt><trkpt lat="45.16366125619634" lon="10.813844355828394"><ele>21.333333333333332</ele><time>2026-03-28T17:19:58Z</time></trkpt><trkpt lat="45.16367388768723" lon="10.813964770149335"><ele>21.166666666666668</ele><time>2026-03-28T17:19:59Z</time></trkpt><trkpt lat="45.16368596976966" lon="10.81408861689213"><ele>21.0</ele><time>2026-03-28T17:20:00Z</time></trkpt><trkpt lat="45.16369737437537" lon="10.814214849762186"><ele>21.8</ele><time>2026-03-28T17:20:01Z</time></trkpt><trkpt lat="45.16370826575788" lon="10.814350813986158"><ele>22.6</ele><time>2026-03-28T17:20:02Z</time></trkpt><trkpt lat="45.16371956371306" lon="10.81449456375537"><ele>23.4</ele><time>2026-03-28T17:20:03Z</time></trkpt><trkpt lat="45.163730487226296" lon="10.814643562330046"><ele>24.2</ele><time>2026-03-28T17:20:04Z</time></trkpt><trkpt lat="45.16373993211706" lon="10.814795802139047"><ele>25.0</ele><time>2026-03-28T17:20:05Z</time></trkpt><trkpt lat="45.163747341263964" lon="10.814947705670214"><ele>25.0</ele><time>2026-03-28T17:20:06Z</time></trkpt><trkpt lat="45.16375543132278" lon="10.81509906503011"><ele>25.0</ele><time>2026-03-28T17:20:07Z</time></trkpt><trkpt lat="45.16376174699669" lon="10.815254043943472"><ele>25.0</ele><time>2026-03-28T17:20:08Z</time></trkpt><trkpt lat="45.163766727535055" lon="10.815403059285291"><ele>25.0</ele><time>2026-03-28T17:20:09Z</time></trkpt><trkpt lat="45.163771106514204" lon="10.81554585061879"><ele>25.0</ele><time>2026-03-28T17:20:10Z</time></trkpt><trkpt lat="45.16377439500212" lon="10.815694775165491"><ele>24.75</ele><time>2026-03-28T17:20:11Z</time></trkpt><trkpt lat="45.16377659310364" lon="10.81585237258775"><ele>24.5</ele><time>2026-03-28T17:20:12Z</time></trkpt><trkpt lat="45.16377898762756" lon="10.816019892596607"><ele>24.25</ele><time>2026-03-28T17:20:13Z</time></trkpt><trkpt lat="45.16378177058578" lon="10.816190613347683"><ele>24.0</ele><time>2026-03-28T17:20:14Z</time></trkpt><trkpt lat="45.1637814711177" lon="10.816356885177193"><ele>24.0</ele><time>2026-03-28T17:20:15Z</time></trkpt><trkpt lat="45.16377927417452" lon="10.816514822547722"><ele>24.0</ele><time>2026-03-28T17:20:16Z</time></trkpt><trkpt lat="45.1637767695235" lon="10.816664811948662"><ele>24.0</ele><time>2026-03-28T17:20:17Z</time></trkpt><trkpt lat="45.16377565749098" lon="10.816810304791405"><ele>24.0</ele><time>2026-03-28T17:20:18Z</time></trkpt><trkpt lat="45.16377468664271" lon="10.816957827493336"><ele>24.0</ele><time>2026-03-28T17:20:19Z</time></trkpt><trkpt lat="45.163772926595904" lon="10.8171115618188"><ele>23.75</ele><time>2026-03-28T17:20:20Z</time></trkpt><trkpt lat="45.1637719024342" lon="10.817273268955377"><ele>23.5</ele><time>2026-03-28T17:20:21Z</time></trkpt><trkpt lat="45.16377190063527" lon="10.81744076029368"><ele>23.25</ele><time>2026-03-28T17:20:22Z</time></trkpt><trkpt lat="45.16377345560253" lon="10.817613004974731"><ele>23.0</ele><time>2026-03-28T17:20:23Z</time></trkpt><trkpt lat="45.163781776160654" lon="10.817788531649942"><ele>23.75</ele><time>2026-03-28T17:20:24Z</time></trkpt><trkpt lat="45.16379101693432" lon="10.817966799170907"><ele>24.5</ele><time>2026-03-28T17:20:25Z</time></trkpt><trkpt lat="45.16380013913055" lon="10.818149316862723"><ele>25.25</ele><time>2026-03-28T17:20:26Z</time></trkpt><trkpt lat="45.163808255178516" lon="10.818327778708664"><ele>26.0</ele><time>2026-03-28T17:20:27Z</time></trkpt><trkpt lat="45.16381696415461" lon="10.818507705141377"><ele>26.25</ele><time>2026-03-28T17:20:28Z</time></trkpt><trkpt lat="45.16382517644446" lon="10.818678345139972"><ele>26.5</ele><time>2026-03-28T17:20:29Z</time></trkpt><trkpt lat="45.163830980079254" lon="10.818841875114558"><ele>26.75</ele><time>2026-03-28T17:20:30Z</time></trkpt><trkpt lat="45.16383449333475" lon="10.81901063969396"><ele>27.0</ele><time>2026-03-28T17:20:31Z</time></trkpt><trkpt lat="45.16383949565737" lon="10.819183936412333"><ele>26.75</ele><time>2026-03-28T17:20:32Z</time></trkpt><trkpt lat="45.16384388459687" lon="10.819363898507552"><ele>26.5</ele><time>2026-03-28T17:20:33Z</time></trkpt><trkpt lat="45.163845613534825" lon="10.819547127868377"><ele>26.25</ele><time>2026-03-28T17:20:34Z</time></trkpt><trkpt lat="45.16384818139049" lon="10.819727118463486"><ele>26.0</ele><time>2026-03-28T17:20:35Z</time></trkpt><trkpt lat="45.16385066540741" lon="10.819900343376144"><ele>26.0</ele><time>2026-03-28T17:20:36Z</time></trkpt><trkpt lat="45.163853038483886" lon="10.820071352754788"><ele>26.0</ele><time>2026-03-28T17:20:37Z</time></trkpt><trkpt lat="45.16385623658619" lon="10.820240756212012"><ele>26.0</ele><time>2026-03-28T17:20:38Z</time></trkpt><trkpt lat="45.16386077624992" lon="10.820413577947638"><ele>26.0</ele><time>2026-03-28T17:20:39Z</time></trkpt><trkpt lat="45.16386139343538" lon="10.82058368133375"><ele>26.0</ele><time>2026-03-28T17:20:40Z</time></trkpt><trkpt lat="45.16386272429326" lon="10.82075069993341"><ele>26.0</ele><time>2026-03-28T17:20:41Z</time></trkpt><trkpt lat="45.16386545465027" lon="10.820921706045697"><ele>26.0</ele><time>2026-03-28T17:20:42Z</time></trkpt><trkpt lat="45.163868322671654" lon="10.821096785985842"><ele>26.0</ele><time>2026-03-28T17:20:43Z</time></trkpt><trkpt lat="45.16387025001347" lon="10.82127193216744"><ele>26.0</ele><time>2026-03-28T17:20:44Z</time></trkpt><trkpt lat="45.16387126401777" lon="10.8214476988615"><ele>26.0</ele><time>2026-03-28T17:20:45Z</time></trkpt><trkpt lat="45.163875880978715" lon="10.821618694002042"><ele>26.0</ele><time>2026-03-28T17:20:46Z</time></trkpt><trkpt lat="45.16387909786239" lon="10.821786783710154"><ele>26.0</ele><time>2026-03-28T17:20:47Z</time></trkpt><trkpt lat="45.16388246204164" lon="10.821955676420608"><ele>26.0</ele><time>2026-03-28T17:20:48Z</time></trkpt><trkpt lat="45.163889073604494" lon="10.82212215015199"><ele>26.0</ele><time>2026-03-28T17:20:49Z</time></trkpt><trkpt lat="45.163896690250844" lon="10.822290108303049"><ele>26.0</ele><time>2026-03-28T17:20:50Z</time></trkpt><trkpt lat="45.163905975553284" lon="10.82246013779745"><ele>26.0</ele><time>2026-03-28T17:20:51Z</time></trkpt><trkpt lat="45.16391644204176" lon="10.82262689126102"><ele>26.4</ele><time>2026-03-28T17:20:52Z</time></trkpt><trkpt lat="45.16392706638775" lon="10.822783014356588"><ele>26.8</ele><time>2026-03-28T17:20:53Z</time></trkpt><trkpt lat="45.16394054707582" lon="10.82294045026618"><ele>27.199999999999996</ele><time>2026-03-28T17:20:54Z</time></trkpt><trkpt lat="45.16395503868495" lon="10.823094562180927"><ele>27.599999999999998</ele><time>2026-03-28T17:20:55Z</time></trkpt><trkpt lat="45.16396983010256" lon="10.823259464618868"><ele>28.0</ele><time>2026-03-28T17:20:56Z</time></trkpt><trkpt lat="45.16398528817353" lon="10.82343451756432"><ele>27.799999999999997</ele><time>2026-03-28T17:20:57Z</time></trkpt><trkpt lat="45.16400365571879" lon="10.823601539051774"><ele>27.599999999999998</ele><time>2026-03-28T17:20:58Z</time></trkpt><trkpt lat="45.16402013764976" lon="10.823748983121446"><ele>27.400000000000002</ele><time>2026-03-28T17:20:59Z</time></trkpt><trkpt lat="45.164031802575806" lon="10.823884398345971"><ele>27.200000000000003</ele><time>2026-03-28T17:21:00Z</time></trkpt><trkpt lat="45.16404586383009" lon="10.824007148253397"><ele>27.0</ele><time>2026-03-28T17:21:01Z</time></trkpt><trkpt lat="45.16406160722047" lon="10.824126848387507"><ele>26.166666666666668</ele><time>2026-03-28T17:21:02Z</time></trkpt><trkpt lat="45.164079038651764" lon="10.824246242685156"><ele>25.333333333333332</ele><time>2026-03-28T17:21:03Z</time></trkpt><trkpt lat="45.164097895768464" lon="10.82436594991788"><ele>24.5</ele><time>2026-03-28T17:21:04Z</time></trkpt><trkpt lat="45.164114223725" lon="10.824471300278834"><ele>23.666666666666664</ele><time>2026-03-28T17:21:05Z</time></trkpt><trkpt lat="45.164131217834935" lon="10.824572189584739"><ele>22.833333333333332</ele><time>2026-03-28T17:21:06Z</time></trkpt><trkpt lat="45.16414755186513" lon="10.82466972176185"><ele>22.0</ele><time>2026-03-28T17:21:07Z</time></trkpt><trkpt lat="45.164162649546036" lon="10.824763080343686"><ele>22.0</ele><time>2026-03-28T17:21:08Z</time></trkpt><trkpt lat="45.164178463176285" lon="10.824853474142207"><ele>22.0</ele><time>2026-03-28T17:21:09Z</time></trkpt><trkpt lat="45.164195394184915" lon="10.824941463281114"><ele>22.0</ele><time>2026-03-28T17:21:10Z</time></trkpt><trkpt lat="45.16421747897872" lon="10.825027650737036"><ele>22.0</ele><time>2026-03-28T17:21:11Z</time></trkpt><trkpt lat="45.164246058080685" lon="10.82517322219627"><ele>22.0</ele><time>2026-03-28T17:21:13Z</time></trkpt><trkpt lat="45.16426433680384" lon="10.825268286889422"><ele>22.0</ele><time>2026-03-28T17:21:16Z</time></trkpt><trkpt lat="45.16428587246231" lon="10.82540488364968"><ele>22.200000000000003</ele><time>2026-03-28T17:21:24Z</time></trkpt><trkpt lat="45.16429071664363" lon="10.825506346135757"><ele>22.4</ele><time>2026-03-28T17:21:26Z</time></trkpt><trkpt lat="45.1642882424747" lon="10.825684259566021"><ele>22.6</ele><time>2026-03-28T17:21:28Z</time></trkpt><trkpt lat="45.16427173780296" lon="10.825812026525007"><ele>22.799999999999997</ele><time>2026-03-28T17:21:29Z</time></trkpt><trkpt lat="45.164240488571814" lon="10.825949289197945"><ele>23.0</ele><time>2026-03-28T17:21:30Z</time></trkpt><trkpt lat="45.164181652335685" lon="10.826117332213576"><ele>23.0</ele><time>2026-03-28T17:21:31Z</time></trkpt><trkpt lat="45.164078060380845" lon="10.826342105035003"><ele>23.0</ele><time>2026-03-28T17:21:32Z</time></trkpt><trkpt lat="45.1639188209916" lon="10.826583283752194"><ele>23.0</ele><time>2026-03-28T17:21:33Z</time></trkpt><trkpt lat="45.163749934108" lon="10.826867699129478"><ele>23.0</ele><time>2026-03-28T17:21:34Z</time></trkpt><trkpt lat="45.16356376071886" lon="10.82717394761053"><ele>23.0</ele><time>2026-03-28T17:21:35Z</time></trkpt><trkpt lat="45.16339462304689" lon="10.827456079044355"><ele>22.0</ele><time>2026-03-28T17:21:36Z</time></trkpt><trkpt lat="45.163188554856006" lon="10.827799923057093"><ele>21.0</ele><time>2026-03-28T17:21:37Z</time></trkpt><trkpt lat="45.16300583844959" lon="10.828101550186526"><ele>21.0</ele><time>2026-03-28T17:21:38Z</time></trkpt><trkpt lat="45.16284887389437" lon="10.828394923392036"><ele>21.0</ele><time>2026-03-28T17:21:39Z</time></trkpt><trkpt lat="45.1626839404864" lon="10.828647060469825"><ele>22.0</ele><time>2026-03-28T17:21:40Z</time></trkpt><trkpt lat="45.162534990205884" lon="10.828897738209822"><ele>23.0</ele><time>2026-03-28T17:21:41Z</time></trkpt><trkpt lat="45.16239540536247" lon="10.82913355044707"><ele>24.0</ele><time>2026-03-28T17:21:42Z</time></trkpt><trkpt lat="45.16225550829881" lon="10.829362007655346"><ele>24.333333333333336</ele><time>2026-03-28T17:21:43Z</time></trkpt><trkpt lat="45.162121001397544" lon="10.829581304959518"><ele>24.666666666666668</ele><time>2026-03-28T17:21:44Z</time></trkpt><trkpt lat="45.16197685856702" lon="10.82979966143063"><ele>25.0</ele><time>2026-03-28T17:21:45Z</time></trkpt><trkpt lat="45.16185171743465" lon="10.83000674336207"><ele>25.666666666666668</ele><time>2026-03-28T17:21:46Z</time></trkpt><trkpt lat="45.16172791621151" lon="10.830214485885188"><ele>26.333333333333336</ele><time>2026-03-28T17:21:47Z</time></trkpt><trkpt lat="45.16160653744942" lon="10.830422708138752"><ele>27.0</ele><time>2026-03-28T17:21:48Z</time></trkpt><trkpt lat="45.16148597403819" lon="10.830633266825977"><ele>25.666666666666668</ele><time>2026-03-28T17:21:49Z</time></trkpt><trkpt lat="45.16136144931658" lon="10.830847253837366"><ele>24.333333333333336</ele><time>2026-03-28T17:21:50Z</time></trkpt><trkpt lat="45.16123235693039" lon="10.831060819176443"><ele>23.0</ele><time>2026-03-28T17:21:51Z</time></trkpt><trkpt lat="45.1610984276032" lon="10.83126923176292"><ele>23.0</ele><time>2026-03-28T17:21:52Z</time></trkpt><trkpt lat="45.16094911523438" lon="10.831475174468112"><ele>23.0</ele><time>2026-03-28T17:21:53Z</time></trkpt><trkpt lat="45.160765310600574" lon="10.83164803206345"><ele>23.0</ele><time>2026-03-28T17:21:54Z</time></trkpt><trkpt lat="45.160594717398986" lon="10.831857863248302"><ele>24.0</ele><time>2026-03-28T17:21:55Z</time></trkpt><trkpt lat="45.16041173478615" lon="10.832057802152839"><ele>25.0</ele><time>2026-03-28T17:21:56Z</time></trkpt><trkpt lat="45.16023799467531" lon="10.832263819706712"><ele>25.0</ele><time>2026-03-28T17:21:57Z</time></trkpt><trkpt lat="45.16007482101022" lon="10.832463511621878"><ele>25.0</ele><time>2026-03-28T17:21:58Z</time></trkpt><trkpt lat="45.159914597139654" lon="10.83264902771318"><ele>25.0</ele><time>2026-03-28T17:21:59Z</time></trkpt><trkpt lat="45.15976067491421" lon="10.83282008832728"><ele>26.0</ele><time>2026-03-28T17:22:00Z</time></trkpt><trkpt lat="45.15960904033276" lon="10.83298271476557"><ele>27.0</ele><time>2026-03-28T17:22:01Z</time></trkpt><trkpt lat="45.15945857419488" lon="10.833133017741304"><ele>28.0</ele><time>2026-03-28T17:22:02Z</time></trkpt><trkpt lat="45.15930448421503" lon="10.833269862164654"><ele>28.0</ele><time>2026-03-28T17:22:03Z</time></trkpt><trkpt lat="45.159151320881264" lon="10.833402055648582"><ele>28.0</ele><time>2026-03-28T17:22:04Z</time></trkpt><trkpt lat="45.159005924727346" lon="10.833535819690752"><ele>28.0</ele><time>2026-03-28T17:22:05Z</time></trkpt><trkpt lat="45.15886066946333" lon="10.83366317885473"><ele>26.333333333333336</ele><time>2026-03-28T17:22:06Z</time></trkpt><trkpt lat="45.158717333193366" lon="10.833789762355746"><ele>24.666666666666668</ele><time>2026-03-28T17:22:07Z</time></trkpt><trkpt lat="45.158573887947554" lon="10.83391969953266"><ele>23.0</ele><time>2026-03-28T17:22:08Z</time></trkpt><trkpt lat="45.15844108301588" lon="10.834041424956458"><ele>23.0</ele><time>2026-03-28T17:22:09Z</time></trkpt><trkpt lat="45.15831755609517" lon="10.83416019250232"><ele>23.0</ele><time>2026-03-28T17:22:10Z</time></trkpt><trkpt lat="45.15820500355105" lon="10.83427583657988"><ele>23.0</ele><time>2026-03-28T17:22:11Z</time></trkpt><trkpt lat="45.15810250773564" lon="10.834390641187348"><ele>23.0</ele><time>2026-03-28T17:22:12Z</time></trkpt><trkpt lat="45.1580011617814" lon="10.834505789306299"><ele>23.0</ele><time>2026-03-28T17:22:13Z</time></trkpt><trkpt lat="45.157900738112446" lon="10.834623026973068"><ele>23.0</ele><time>2026-03-28T17:22:14Z</time></trkpt><trkpt lat="45.15779550101031" lon="10.834736352002615"><ele>23.0</ele><time>2026-03-28T17:22:15Z</time></trkpt><trkpt lat="45.157683398986606" lon="10.834841081462105"><ele>23.0</ele><time>2026-03-28T17:22:16Z</time></trkpt><trkpt lat="45.15757042300445" lon="10.834944463381973"><ele>23.0</ele><time>2026-03-28T17:22:17Z</time></trkpt><trkpt lat="45.15746138015195" lon="10.83504536995748"><ele>23.0</ele><time>2026-03-28T17:22:18Z</time></trkpt><trkpt lat="45.15735316729362" lon="10.835145925333215"><ele>23.0</ele><time>2026-03-28T17:22:19Z</time></trkpt><trkpt lat="45.15724179590435" lon="10.835242835993704"><ele>23.0</ele><time>2026-03-28T17:22:20Z</time></trkpt><trkpt lat="45.157130612296676" lon="10.835340384646955"><ele>23.5</ele><time>2026-03-28T17:22:21Z</time></trkpt><trkpt lat="45.15701916475954" lon="10.835436433795776"><ele>24.0</ele><time>2026-03-28T17:22:22Z</time></trkpt><trkpt lat="45.15690788788278" lon="10.83553851636337"><ele>24.5</ele><time>2026-03-28T17:22:23Z</time></trkpt><trkpt lat="45.15679578125957" lon="10.835641833764432"><ele>25.0</ele><time>2026-03-28T17:22:24Z</time></trkpt><trkpt lat="45.15668930566216" lon="10.835739102606112"><ele>25.0</ele><time>2026-03-28T17:22:25Z</time></trkpt><trkpt lat="45.156592282641846" lon="10.83582616471332"><ele>25.0</ele><time>2026-03-28T17:22:26Z</time></trkpt><trkpt lat="45.15650134881186" lon="10.835907638052259"><ele>25.0</ele><time>2026-03-28T17:22:27Z</time></trkpt><trkpt lat="45.15641657551733" lon="10.835975664536564"><ele>25.0</ele><time>2026-03-28T17:22:28Z</time></trkpt><trkpt lat="45.1563302594891" lon="10.836034442490083"><ele>25.0</ele><time>2026-03-28T17:22:29Z</time></trkpt><trkpt lat="45.156230155111665" lon="10.83608343137549"><ele>25.2</ele><time>2026-03-28T17:22:30Z</time></trkpt><trkpt lat="45.15612020053306" lon="10.836116253103363"><ele>25.4</ele><time>2026-03-28T17:22:31Z</time></trkpt><trkpt lat="45.1560108258571" lon="10.836134840488212"><ele>25.6</ele><time>2026-03-28T17:22:32Z</time></trkpt><trkpt lat="45.155906373246815" lon="10.836148690867077"><ele>25.8</ele><time>2026-03-28T17:22:33Z</time></trkpt><trkpt lat="45.15581448905454" lon="10.836199935558467"><ele>26.0</ele><time>2026-03-28T17:22:34Z</time></trkpt><trkpt lat="45.15575607372832" lon="10.836313718105766"><ele>26.0</ele><time>2026-03-28T17:22:35Z</time></trkpt><trkpt lat="45.15573928481937" lon="10.836455628196205"><ele>26.0</ele><time>2026-03-28T17:22:36Z</time></trkpt><trkpt lat="45.155762212025216" lon="10.836607153257352"><ele>26.0</ele><time>2026-03-28T17:22:37Z</time></trkpt><trkpt lat="45.155823895836456" lon="10.836736483263943"><ele>26.0</ele><time>2026-03-28T17:22:38Z</time></trkpt><trkpt lat="45.15591005590118" lon="10.836843956014382"><ele>26.0</ele><time>2026-03-28T17:22:39Z</time></trkpt><trkpt lat="45.155974618160116" lon="10.83696185045541"><ele>25.5</ele><time>2026-03-28T17:22:40Z</time></trkpt><trkpt lat="45.15599333618566" lon="10.837128380132855"><ele>25.0</ele><time>2026-03-28T17:22:41Z</time></trkpt><trkpt lat="45.15596925865902" lon="10.837298879702956"><ele>24.5</ele><time>2026-03-28T17:22:42Z</time></trkpt><trkpt lat="45.15592626557049" lon="10.837474334574551"><ele>24.0</ele><time>2026-03-28T17:22:43Z</time></trkpt><trkpt lat="45.15588827421633" lon="10.837653122384795"><ele>24.0</ele><time>2026-03-28T17:22:44Z</time></trkpt><trkpt lat="45.155852191871496" lon="10.837833736041112"><ele>24.0</ele><time>2026-03-28T17:22:45Z</time></trkpt><trkpt lat="45.155814507999466" lon="10.838008390789508"><ele>24.0</ele><time>2026-03-28T17:22:46Z</time></trkpt><trkpt lat="45.155778657557875" lon="10.838160548475917"><ele>24.0</ele><time>2026-03-28T17:22:47Z</time></trkpt><trkpt lat="45.1557438382053" lon="10.838309489482715"><ele>24.0</ele><time>2026-03-28T17:22:48Z</time></trkpt><trkpt lat="45.155708970445524" lon="10.838457559021577"><ele>24.0</ele><time>2026-03-28T17:22:49Z</time></trkpt><trkpt lat="45.15567264371033" lon="10.838606155314153"><ele>24.0</ele><time>2026-03-28T17:22:50Z</time></trkpt><trkpt lat="45.15563858198334" lon="10.83875498463388"><ele>24.0</ele><time>2026-03-28T17:22:51Z</time></trkpt><trkpt lat="45.15560416688556" lon="10.83890457624359"><ele>24.0</ele><time>2026-03-28T17:22:52Z</time></trkpt><trkpt lat="45.15556896193065" lon="10.839036263985482"><ele>24.0</ele><time>2026-03-28T17:22:53Z</time></trkpt><trkpt lat="45.155533992643974" lon="10.839147166630436"><ele>24.0</ele><time>2026-03-28T17:22:54Z</time></trkpt><trkpt lat="45.15550235409039" lon="10.83923629091818"><ele>24.0</ele><time>2026-03-28T17:22:55Z</time></trkpt><trkpt lat="45.15546282454392" lon="10.83930830289788"><ele>24.0</ele><time>2026-03-28T17:22:57Z</time></trkpt><trkpt lat="45.15542099861146" lon="10.839382920515417"><ele>24.0</ele><time>2026-03-28T17:23:03Z</time></trkpt><trkpt lat="45.15536858209847" lon="10.839432733887444"><ele>24.0</ele><time>2026-03-28T17:23:09Z</time></trkpt><trkpt lat="45.155252039584504" lon="10.839500863217841"><ele>24.0</ele><time>2026-03-28T17:23:11Z</time></trkpt><trkpt lat="45.15517392273533" lon="10.83955912107596"><ele>24.0</ele><time>2026-03-28T17:23:12Z</time></trkpt><trkpt lat="45.155105460875134" lon="10.839644240461434"><ele>24.0</ele><time>2026-03-28T17:23:13Z</time></trkpt><trkpt lat="45.1550594568292" lon="10.83975103126518"><ele>24.0</ele><time>2026-03-28T17:23:14Z</time></trkpt><trkpt lat="45.155058266693175" lon="10.839890688379645"><ele>24.0</ele><time>2026-03-28T17:23:15Z</time></trkpt><trkpt lat="45.15509644047305" lon="10.840027880541587"><ele>24.25</ele><time>2026-03-28T17:23:16Z</time></trkpt><trkpt lat="45.155156963536236" lon="10.840157448700145"><ele>24.5</ele><time>2026-03-28T17:23:17Z</time></trkpt><trkpt lat="45.15521243670696" lon="10.840287814967274"><ele>24.75</ele><time>2026-03-28T17:23:18Z</time></trkpt><trkpt lat="45.15526023476196" lon="10.840442065379476"><ele>25.0</ele><time>2026-03-28T17:23:19Z</time></trkpt><trkpt lat="45.155297075994284" lon="10.840620690838959"><ele>25.0</ele><time>2026-03-28T17:23:20Z</time></trkpt><trkpt lat="45.155300663816135" lon="10.840828116750377"><ele>25.0</ele><time>2026-03-28T17:23:21Z</time></trkpt><trkpt lat="45.155283314812934" lon="10.841041998079666"><ele>25.0</ele><time>2026-03-28T17:23:22Z</time></trkpt><trkpt lat="45.15527180500698" lon="10.841267745824268"><ele>25.333333333333336</ele><time>2026-03-28T17:23:23Z</time></trkpt><trkpt lat="45.15527474664537" lon="10.841513232210476"><ele>25.666666666666664</ele><time>2026-03-28T17:23:24Z</time></trkpt><trkpt lat="45.15528705904376" lon="10.841772583469115"><ele>26.0</ele><time>2026-03-28T17:23:25Z</time></trkpt><trkpt lat="45.15530267905846" lon="10.842040683059876"><ele>26.333333333333332</ele><time>2026-03-28T17:23:26Z</time></trkpt><trkpt lat="45.15531955690637" lon="10.842322921393972"><ele>26.666666666666664</ele><time>2026-03-28T17:23:27Z</time></trkpt><trkpt lat="45.15534759996543" lon="10.84261076904823"><ele>27.0</ele><time>2026-03-28T17:23:28Z</time></trkpt><trkpt lat="45.15539073051932" lon="10.842901697001038"><ele>27.0</ele><time>2026-03-28T17:23:29Z</time></trkpt><trkpt lat="45.15545607367512" lon="10.843195916302774"><ele>27.0</ele><time>2026-03-28T17:23:30Z</time></trkpt><trkpt lat="45.15552548982633" lon="10.84350325037328"><ele>27.0</ele><time>2026-03-28T17:23:31Z</time></trkpt><trkpt lat="45.15558403222862" lon="10.843823710920455"><ele>25.0</ele><time>2026-03-28T17:23:32Z</time></trkpt><trkpt lat="45.1556410904283" lon="10.844142479335444"><ele>23.0</ele><time>2026-03-28T17:23:33Z</time></trkpt><trkpt lat="45.155697786611896" lon="10.844462029652135"><ele>23.333333333333336</ele><time>2026-03-28T17:23:34Z</time></trkpt><trkpt lat="45.15576195887453" lon="10.844766791697435"><ele>23.666666666666668</ele><time>2026-03-28T17:23:35Z</time></trkpt><trkpt lat="45.155825601989996" lon="10.845057101550703"><ele>24.0</ele><time>2026-03-28T17:23:36Z</time></trkpt><trkpt lat="45.155871924689954" lon="10.845346180959737"><ele>23.666666666666668</ele><time>2026-03-28T17:23:37Z</time></trkpt><trkpt lat="45.1558846867718" lon="10.845633726953102"><ele>23.333333333333336</ele><time>2026-03-28T17:23:38Z</time></trkpt><trkpt lat="45.155825300268866" lon="10.845909855159366"><ele>23.0</ele><time>2026-03-28T17:23:39Z</time></trkpt><trkpt lat="45.15579639206971" lon="10.846199177572705"><ele>23.0</ele><time>2026-03-28T17:23:40Z</time></trkpt><trkpt lat="45.155743908432086" lon="10.846482234251866"><ele>23.0</ele><time>2026-03-28T17:23:41Z</time></trkpt><trkpt lat="45.15570355650211" lon="10.846780411997985"><ele>23.0</ele><time>2026-03-28T17:23:42Z</time></trkpt><trkpt lat="45.15566143805293" lon="10.847084733515663"><ele>23.0</ele><time>2026-03-28T17:23:43Z</time></trkpt><trkpt lat="45.15561599681412" lon="10.847398614845263"><ele>23.0</ele><time>2026-03-28T17:23:44Z</time></trkpt><trkpt lat="45.1555701620501" lon="10.847716863898004"><ele>23.0</ele><time>2026-03-28T17:23:45Z</time></trkpt><trkpt lat="45.15552507920662" lon="10.848042355042272"><ele>23.0</ele><time>2026-03-28T17:23:46Z</time></trkpt><trkpt lat="45.155482432466194" lon="10.848372474716864"><ele>24.0</ele><time>2026-03-28T17:23:47Z</time></trkpt><trkpt lat="45.15543700173493" lon="10.848710470890554"><ele>25.0</ele><time>2026-03-28T17:23:48Z</time></trkpt><trkpt lat="45.1553875888068" lon="10.849049026303103"><ele>25.0</ele><time>2026-03-28T17:23:49Z</time></trkpt><trkpt lat="45.15534053091449" lon="10.849393340740772"><ele>25.0</ele><time>2026-03-28T17:23:50Z</time></trkpt><trkpt lat="45.15529175151029" lon="10.849741364195353"><ele>25.0</ele><time>2026-03-28T17:23:51Z</time></trkpt><trkpt lat="45.155244395937" lon="10.850089504398808"><ele>25.0</ele><time>2026-03-28T17:23:52Z</time></trkpt><trkpt lat="45.155194617362774" lon="10.850435583171624"><ele>25.0</ele><time>2026-03-28T17:23:53Z</time></trkpt><trkpt lat="45.15514642105334" lon="10.850780593862034"><ele>25.0</ele><time>2026-03-28T17:23:54Z</time></trkpt><trkpt lat="45.155099547034204" lon="10.85112196184701"><ele>23.5</ele><time>2026-03-28T17:23:55Z</time></trkpt><trkpt lat="45.155055196263596" lon="10.851460402162692"><ele>22.0</ele><time>2026-03-28T17:23:56Z</time></trkpt><trkpt lat="45.15501026153641" lon="10.85179594998585"><ele>21.0</ele><time>2026-03-28T17:23:57Z</time></trkpt><trkpt lat="45.1549632292177" lon="10.852128757308705"><ele>20.0</ele><time>2026-03-28T17:23:58Z</time></trkpt><trkpt lat="45.15491820742552" lon="10.852441217404165"><ele>20.0</ele><time>2026-03-28T17:23:59Z</time></trkpt><trkpt lat="45.1548777816988" lon="10.852727643692322"><ele>20.0</ele><time>2026-03-28T17:24:00Z</time></trkpt><trkpt lat="45.15483750568062" lon="10.853007825861022"><ele>20.0</ele><time>2026-03-28T17:24:01Z</time></trkpt><trkpt lat="45.154798190163945" lon="10.85327919016457"><ele>21.0</ele><time>2026-03-28T17:24:02Z</time></trkpt><trkpt lat="45.1547592856594" lon="10.85353390581348"><ele>22.0</ele><time>2026-03-28T17:24:03Z</time></trkpt><trkpt lat="45.15472539839952" lon="10.853774450651915"><ele>23.0</ele><time>2026-03-28T17:24:04Z</time></trkpt><trkpt lat="45.154696059190506" lon="10.853996506458323"><ele>23.0</ele><time>2026-03-28T17:24:05Z</time></trkpt><trkpt lat="45.154670358567216" lon="10.854198221605937"><ele>23.0</ele><time>2026-03-28T17:24:06Z</time></trkpt><trkpt lat="45.15464279584357" lon="10.854386965386766"><ele>23.0</ele><time>2026-03-28T17:24:07Z</time></trkpt><trkpt lat="45.15461588401092" lon="10.854552583141219"><ele>23.0</ele><time>2026-03-28T17:24:08Z</time></trkpt><trkpt lat="45.15458400893223" lon="10.854670484310311"><ele>22.5</ele><time>2026-03-28T17:24:09Z</time></trkpt><trkpt lat="45.154521486709754" lon="10.854788443513796"><ele>22.0</ele><time>2026-03-28T17:24:11Z</time></trkpt><trkpt lat="45.15440994157697" lon="10.854882583366672"><ele>21.5</ele><time>2026-03-28T17:24:13Z</time></trkpt><trkpt lat="45.15430405812268" lon="10.854939010196178"><ele>21.0</ele><time>2026-03-28T17:24:14Z</time></trkpt><trkpt lat="45.154177375508276" lon="10.855005505495196"><ele>21.0</ele><time>2026-03-28T17:24:15Z</time></trkpt><trkpt lat="45.15404873319142" lon="10.855101362190801"><ele>21.0</ele><time>2026-03-28T17:24:16Z</time></trkpt><trkpt lat="45.15394385184275" lon="10.85523754270294"><ele>21.0</ele><time>2026-03-28T17:24:17Z</time></trkpt><trkpt lat="45.15387439315544" lon="10.855407795112333"><ele>21.0</ele><time>2026-03-28T17:24:18Z</time></trkpt><trkpt lat="45.15384560085646" lon="10.855594002631499"><ele>20.5</ele><time>2026-03-28T17:24:19Z</time></trkpt><trkpt lat="45.153837854736345" lon="10.855780154722542"><ele>20.0</ele><time>2026-03-28T17:24:20Z</time></trkpt><trkpt lat="45.15386244533961" lon="10.855960572077668"><ele>19.5</ele><time>2026-03-28T17:24:21Z</time></trkpt><trkpt lat="45.15391439432584" lon="10.856125584126557"><ele>19.0</ele><time>2026-03-28T17:24:22Z</time></trkpt><trkpt lat="45.15398091682211" lon="10.856270425471562"><ele>19.2</ele><time>2026-03-28T17:24:23Z</time></trkpt><trkpt lat="45.154059679450185" lon="10.856376707287712"><ele>19.4</ele><time>2026-03-28T17:24:24Z</time></trkpt><trkpt lat="45.15414306247772" lon="10.856461857171952"><ele>19.6</ele><time>2026-03-28T17:24:25Z</time></trkpt><trkpt lat="45.154226548946035" lon="10.856560981516871"><ele>19.8</ele><time>2026-03-28T17:24:26Z</time></trkpt><trkpt lat="45.15428534425582" lon="10.856705388859762"><ele>20.0</ele><time>2026-03-28T17:24:27Z</time></trkpt><trkpt lat="45.15430420083817" lon="10.856882117391445"><ele>21.0</ele><time>2026-03-28T17:24:28Z</time></trkpt><trkpt lat="45.1542717644851" lon="10.85708538095833"><ele>22.0</ele><time>2026-03-28T17:24:29Z</time></trkpt><trkpt lat="45.1542321475395" lon="10.857310919175525"><ele>23.0</ele><time>2026-03-28T17:24:30Z</time></trkpt><trkpt lat="45.15419280092827" lon="10.8575606720663"><ele>23.0</ele><time>2026-03-28T17:24:31Z</time></trkpt><trkpt lat="45.154160968081875" lon="10.857821951444837"><ele>23.0</ele><time>2026-03-28T17:24:32Z</time></trkpt><trkpt lat="45.1541225118133" lon="10.858088924336103"><ele>23.0</ele><time>2026-03-28T17:24:33Z</time></trkpt><trkpt lat="45.15408185218161" lon="10.858369858090267"><ele>22.333333333333336</ele><time>2026-03-28T17:24:34Z</time></trkpt><trkpt lat="45.154037647773386" lon="10.858662130376118"><ele>21.666666666666668</ele><time>2026-03-28T17:24:35Z</time></trkpt><trkpt lat="45.15398421045942" lon="10.858964903051268"><ele>21.0</ele><time>2026-03-28T17:24:36Z</time></trkpt><trkpt lat="45.15392356036159" lon="10.859258770220299"><ele>21.333333333333332</ele><time>2026-03-28T17:24:37Z</time></trkpt><trkpt lat="45.15385754906727" lon="10.859534368215645"><ele>21.666666666666664</ele><time>2026-03-28T17:24:38Z</time></trkpt><trkpt lat="45.15378658878993" lon="10.859798963266636"><ele>22.0</ele><time>2026-03-28T17:24:39Z</time></trkpt><trkpt lat="45.153710253593225" lon="10.860050311607747"><ele>22.666666666666664</ele><time>2026-03-28T17:24:40Z</time></trkpt><trkpt lat="45.15362833970094" lon="10.860301519400995"><ele>23.333333333333332</ele><time>2026-03-28T17:24:41Z</time></trkpt><trkpt lat="45.153546356840316" lon="10.86055173598856"><ele>24.0</ele><time>2026-03-28T17:24:42Z</time></trkpt><trkpt lat="45.15346620374398" lon="10.860797570131846"><ele>23.333333333333332</ele><time>2026-03-28T17:24:43Z</time></trkpt><trkpt lat="45.15338761057873" lon="10.86104262826417"><ele>22.666666666666664</ele><time>2026-03-28T17:24:44Z</time></trkpt><trkpt lat="45.153308681766866" lon="10.861288500448302"><ele>22.0</ele><time>2026-03-28T17:24:45Z</time></trkpt><trkpt lat="45.15323806293702" lon="10.861521369343446"><ele>21.333333333333332</ele><time>2026-03-28T17:24:46Z</time></trkpt><trkpt lat="45.1531700866197" lon="10.861753211296817"><ele>20.666666666666668</ele><time>2026-03-28T17:24:47Z</time></trkpt><trkpt lat="45.153113737553056" lon="10.86198398486835"><ele>20.0</ele><time>2026-03-28T17:24:48Z</time></trkpt><trkpt lat="45.153070686976754" lon="10.862215777924156"><ele>20.0</ele><time>2026-03-28T17:24:49Z</time></trkpt><trkpt lat="45.15304302436695" lon="10.862444084534218"><ele>20.0</ele><time>2026-03-28T17:24:50Z</time></trkpt><trkpt lat="45.15302531977137" lon="10.862664532840235"><ele>20.0</ele><time>2026-03-28T17:24:51Z</time></trkpt><trkpt lat="45.153013043117355" lon="10.862879765372279"><ele>20.333333333333336</ele><time>2026-03-28T17:24:52Z</time></trkpt><trkpt lat="45.153011111102884" lon="10.86309612277359"><ele>20.666666666666668</ele><time>2026-03-28T17:24:53Z</time></trkpt><trkpt lat="45.153018546028036" lon="10.86331195704037"><ele>21.0</ele><time>2026-03-28T17:24:54Z</time></trkpt><trkpt lat="45.15303560299655" lon="10.86352742265744"><ele>21.0</ele><time>2026-03-28T17:24:55Z</time></trkpt><trkpt lat="45.15305974078895" lon="10.863741423930101"><ele>21.0</ele><time>2026-03-28T17:24:56Z</time></trkpt><trkpt lat="45.15309150290312" lon="10.86394834617356"><ele>21.0</ele><time>2026-03-28T17:24:57Z</time></trkpt><trkpt lat="45.153131158286236" lon="10.864146919731864"><ele>21.0</ele><time>2026-03-28T17:24:58Z</time></trkpt><trkpt lat="45.15316923941363" lon="10.864327621564358"><ele>21.0</ele><time>2026-03-28T17:24:59Z</time></trkpt><trkpt lat="45.15320531261571" lon="10.864511113253556"><ele>21.0</ele><time>2026-03-28T17:25:00Z</time></trkpt><trkpt lat="45.153246292507276" lon="10.864703337260794"><ele>21.0</ele><time>2026-03-28T17:25:01Z</time></trkpt><trkpt lat="45.1532883408656" lon="10.86489998518944"><ele>21.0</ele><time>2026-03-28T17:25:02Z</time></trkpt><trkpt lat="45.15332945091934" lon="10.865103338318411"><ele>20.333333333333332</ele><time>2026-03-28T17:25:03Z</time></trkpt><trkpt lat="45.15336913745286" lon="10.865316973835773"><ele>19.666666666666664</ele><time>2026-03-28T17:25:04Z</time></trkpt><trkpt lat="45.153404187594816" lon="10.865538715939529"><ele>19.0</ele><time>2026-03-28T17:25:05Z</time></trkpt><trkpt lat="45.153432117187286" lon="10.865760401738715"><ele>20.666666666666664</ele><time>2026-03-28T17:25:06Z</time></trkpt><trkpt lat="45.1534529961018" lon="10.865974907417437"><ele>22.333333333333332</ele><time>2026-03-28T17:25:07Z</time></trkpt><trkpt lat="45.15346748034739" lon="10.866184708513583"><ele>24.0</ele><time>2026-03-28T17:25:08Z</time></trkpt><trkpt lat="45.15347525715987" lon="10.866396913050572"><ele>24.0</ele><time>2026-03-28T17:25:09Z</time></trkpt><trkpt lat="45.15347594232682" lon="10.866610321687284"><ele>24.0</ele><time>2026-03-28T17:25:10Z</time></trkpt><trkpt lat="45.153472545359385" lon="10.866817290276918"><ele>24.0</ele><time>2026-03-28T17:25:11Z</time></trkpt><trkpt lat="45.1534654750794" lon="10.867024227510838"><ele>24.0</ele><time>2026-03-28T17:25:12Z</time></trkpt><trkpt lat="45.15345783872957" lon="10.867231042501615"><ele>24.5</ele><time>2026-03-28T17:25:13Z</time></trkpt><trkpt lat="45.15344902157415" lon="10.867434622738196"><ele>25.0</ele><time>2026-03-28T17:25:14Z</time></trkpt><trkpt lat="45.153441931898065" lon="10.86762567935039"><ele>25.5</ele><time>2026-03-28T17:25:15Z</time></trkpt><trkpt lat="45.153432347376565" lon="10.867811012053467"><ele>26.0</ele><time>2026-03-28T17:25:16Z</time></trkpt><trkpt lat="45.153422317464795" lon="10.867994709043833"><ele>24.5</ele><time>2026-03-28T17:25:17Z</time></trkpt><trkpt lat="45.15341128607123" lon="10.868179421887037"><ele>23.0</ele><time>2026-03-28T17:25:18Z</time></trkpt><trkpt lat="45.1533994048963" lon="10.86836124306681"><ele>21.5</ele><time>2026-03-28T17:25:19Z</time></trkpt><trkpt lat="45.15338784235748" lon="10.868541815040807"><ele>20.0</ele><time>2026-03-28T17:25:20Z</time></trkpt><trkpt lat="45.15337864104525" lon="10.86871831459705"><ele>19.75</ele><time>2026-03-28T17:25:21Z</time></trkpt><trkpt lat="45.1533701854683" lon="10.868895664963944"><ele>19.5</ele><time>2026-03-28T17:25:22Z</time></trkpt><trkpt lat="45.153344623029895" lon="10.869070151487675"><ele>19.25</ele><time>2026-03-28T17:25:23Z</time></trkpt><trkpt lat="45.15333478590456" lon="10.86924934773848"><ele>19.0</ele><time>2026-03-28T17:25:24Z</time></trkpt><trkpt lat="45.15334009987962" lon="10.869432429017388"><ele>18.75</ele><time>2026-03-28T17:25:25Z</time></trkpt><trkpt lat="45.153327666883" lon="10.869616828731763"><ele>18.5</ele><time>2026-03-28T17:25:26Z</time></trkpt><trkpt lat="45.15331713411812" lon="10.869795441157539"><ele>18.25</ele><time>2026-03-28T17:25:27Z</time></trkpt><trkpt lat="45.15330685663613" lon="10.869966103742195"><ele>18.0</ele><time>2026-03-28T17:25:28Z</time></trkpt><trkpt lat="45.15329638657503" lon="10.870132595542014"><ele>18.5</ele><time>2026-03-28T17:25:29Z</time></trkpt><trkpt lat="45.153287549472246" lon="10.87029457056738"><ele>19.0</ele><time>2026-03-28T17:25:30Z</time></trkpt><trkpt lat="45.15327937971559" lon="10.870456044134182"><ele>19.5</ele><time>2026-03-28T17:25:31Z</time></trkpt><trkpt lat="45.15326981867909" lon="10.870618024663607"><ele>20.0</ele><time>2026-03-28T17:25:32Z</time></trkpt><trkpt lat="45.15325979134078" lon="10.870782269372901"><ele>20.25</ele><time>2026-03-28T17:25:33Z</time></trkpt><trkpt lat="45.1532497150864" lon="10.87094907239611"><ele>20.5</ele><time>2026-03-28T17:25:34Z</time></trkpt><trkpt lat="45.153240859597744" lon="10.87111753157836"><ele>20.75</ele><time>2026-03-28T17:25:35Z</time></trkpt><trkpt lat="45.15323051055421" lon="10.871289854707218"><ele>21.0</ele><time>2026-03-28T17:25:36Z</time></trkpt><trkpt lat="45.15322020326558" lon="10.871465662741082"><ele>21.0</ele><time>2026-03-28T17:25:37Z</time></trkpt><trkpt lat="45.1532112657536" lon="10.871649396073238"><ele>21.0</ele><time>2026-03-28T17:25:38Z</time></trkpt><trkpt lat="45.15319910234909" lon="10.871838120557566"><ele>21.0</ele><time>2026-03-28T17:25:39Z</time></trkpt><trkpt lat="45.15318698647651" lon="10.872029499050642"><ele>21.0</ele><time>2026-03-28T17:25:40Z</time></trkpt><trkpt lat="45.153175525199785" lon="10.872218210963894"><ele>21.5</ele><time>2026-03-28T17:25:41Z</time></trkpt><trkpt lat="45.15316479435491" lon="10.872403543784156"><ele>22.0</ele><time>2026-03-28T17:25:42Z</time></trkpt><trkpt lat="45.153153608593136" lon="10.87258308256524"><ele>22.5</ele><time>2026-03-28T17:25:43Z</time></trkpt><trkpt lat="45.153146857869764" lon="10.872758596650872"><ele>23.0</ele><time>2026-03-28T17:25:44Z</time></trkpt><trkpt lat="45.15313878079206" lon="10.872932287313915"><ele>23.0</ele><time>2026-03-28T17:25:45Z</time></trkpt><trkpt lat="45.15313085618006" lon="10.873106763550942"><ele>23.0</ele><time>2026-03-28T17:25:46Z</time></trkpt><trkpt lat="45.153123513869055" lon="10.873279158671286"><ele>23.0</ele><time>2026-03-28T17:25:47Z</time></trkpt><trkpt lat="45.15311637405987" lon="10.873447351353255"><ele>23.0</ele><time>2026-03-28T17:25:48Z</time></trkpt><trkpt lat="45.15311169520754" lon="10.873613044017697"><ele>23.2</ele><time>2026-03-28T17:25:49Z</time></trkpt><trkpt lat="45.15310404974875" lon="10.873767950530684"><ele>23.4</ele><time>2026-03-28T17:25:50Z</time></trkpt><trkpt lat="45.15309806621844" lon="10.873912648038512"><ele>23.599999999999998</ele><time>2026-03-28T17:25:51Z</time></trkpt><trkpt lat="45.153093037706434" lon="10.87404525452233"><ele>23.799999999999997</ele><time>2026-03-28T17:25:52Z</time></trkpt><trkpt lat="45.15308788516357" lon="10.874167208898808"><ele>24.0</ele><time>2026-03-28T17:25:53Z</time></trkpt><trkpt lat="45.15308329474878" lon="10.87427244223574"><ele>24.0</ele><time>2026-03-28T17:25:54Z</time></trkpt><trkpt lat="45.153079580770964" lon="10.874372933613222"><ele>24.0</ele><time>2026-03-28T17:25:55Z</time></trkpt><trkpt lat="45.1530779556919" lon="10.874495853107694"><ele>24.0</ele><time>2026-03-28T17:25:56Z</time></trkpt><trkpt lat="45.15307848950736" lon="10.874637046694394"><ele>24.0</ele><time>2026-03-28T17:25:57Z</time></trkpt><trkpt lat="45.1530822020329" lon="10.874801811227577"><ele>24.0</ele><time>2026-03-28T17:25:58Z</time></trkpt><trkpt lat="45.15308483457611" lon="10.874983952878026"><ele>23.5</ele><time>2026-03-28T17:25:59Z</time></trkpt><trkpt lat="45.15307282304865" lon="10.875175948009712"><ele>23.0</ele><time>2026-03-28T17:26:00Z</time></trkpt><trkpt lat="45.153080507781105" lon="10.875379145883137"><ele>22.5</ele><time>2026-03-28T17:26:01Z</time></trkpt><trkpt lat="45.15310625754696" lon="10.875587947909274"><ele>22.0</ele><time>2026-03-28T17:26:02Z</time></trkpt><trkpt lat="45.15311122378795" lon="10.875800256860488"><ele>22.0</ele><time>2026-03-28T17:26:03Z</time></trkpt><trkpt lat="45.15311997334946" lon="10.876003627759218"><ele>22.0</ele><time>2026-03-28T17:26:04Z</time></trkpt><trkpt lat="45.153135165821716" lon="10.87619895351509"><ele>22.0</ele><time>2026-03-28T17:26:05Z</time></trkpt><trkpt lat="45.153128594825844" lon="10.876390884854162"><ele>22.0</ele><time>2026-03-28T17:26:06Z</time></trkpt><trkpt lat="45.15313562030621" lon="10.876578869850626"><ele>22.0</ele><time>2026-03-28T17:26:07Z</time></trkpt><trkpt lat="45.15315098959093" lon="10.876763207274402"><ele>22.0</ele><time>2026-03-28T17:26:08Z</time></trkpt><trkpt lat="45.15312876282224" lon="10.876941622781253"><ele>22.0</ele><time>2026-03-28T17:26:09Z</time></trkpt><trkpt lat="45.15308600498782" lon="10.877110832945148"><ele>22.0</ele><time>2026-03-28T17:26:10Z</time></trkpt><trkpt lat="45.15303069831319" lon="10.877272352700363"><ele>22.0</ele><time>2026-03-28T17:26:11Z</time></trkpt><trkpt lat="45.15297801905179" lon="10.877433886486074"><ele>22.0</ele><time>2026-03-28T17:26:12Z</time></trkpt><trkpt lat="45.15293722062877" lon="10.87760410154458"><ele>22.0</ele><time>2026-03-28T17:26:13Z</time></trkpt><trkpt lat="45.15290564950694" lon="10.877775305327198"><ele>22.0</ele><time>2026-03-28T17:26:14Z</time></trkpt><trkpt lat="45.15293806075214" lon="10.877955175270033"><ele>21.666666666666664</ele><time>2026-03-28T17:26:15Z</time></trkpt><trkpt lat="45.153037862181755" lon="10.878109374611828"><ele>21.333333333333332</ele><time>2026-03-28T17:26:16Z</time></trkpt><trkpt lat="45.153141633065324" lon="10.878261035330288"><ele>21.0</ele><time>2026-03-28T17:26:17Z</time></trkpt><trkpt lat="45.153259439362245" lon="10.87840388453431"><ele>21.0</ele><time>2026-03-28T17:26:18Z</time></trkpt><trkpt lat="45.15337615463588" lon="10.878572099460989"><ele>21.0</ele><time>2026-03-28T17:26:19Z</time></trkpt><trkpt lat="45.153495998618546" lon="10.878748989493799"><ele>21.0</ele><time>2026-03-28T17:26:20Z</time></trkpt><trkpt lat="45.15362020639616" lon="10.878940034495194"><ele>21.0</ele><time>2026-03-28T17:26:21Z</time></trkpt><trkpt lat="45.153740773873295" lon="10.879128544355787"><ele>21.0</ele><time>2026-03-28T17:26:22Z</time></trkpt><trkpt lat="45.15385329903635" lon="10.8793056328872"><ele>21.0</ele><time>2026-03-28T17:26:23Z</time></trkpt><trkpt lat="45.1539645207555" lon="10.879477931867866"><ele>20.333333333333332</ele><time>2026-03-28T17:26:24Z</time></trkpt><trkpt lat="45.15407370973608" lon="10.879675260663486"><ele>19.666666666666664</ele><time>2026-03-28T17:26:25Z</time></trkpt><trkpt lat="45.154195790336516" lon="10.879866635642648"><ele>19.0</ele><time>2026-03-28T17:26:26Z</time></trkpt><trkpt lat="45.15431550931965" lon="10.880054308590008"><ele>19.666666666666664</ele><time>2026-03-28T17:26:27Z</time></trkpt><trkpt lat="45.154431780657774" lon="10.880236014024748"><ele>20.333333333333332</ele><time>2026-03-28T17:26:28Z</time></trkpt><trkpt lat="45.15454914774197" lon="10.880419125310377"><ele>21.0</ele><time>2026-03-28T17:26:29Z</time></trkpt><trkpt lat="45.15466719778874" lon="10.880604015981676"><ele>21.0</ele><time>2026-03-28T17:26:30Z</time></trkpt><trkpt lat="45.15478965102785" lon="10.880769428474402"><ele>21.0</ele><time>2026-03-28T17:26:31Z</time></trkpt><trkpt lat="45.15488510807985" lon="10.880979839224038"><ele>21.0</ele><time>2026-03-28T17:26:32Z</time></trkpt><trkpt lat="45.154975619961185" lon="10.881202627116533"><ele>21.0</ele><time>2026-03-28T17:26:33Z</time></trkpt><trkpt lat="45.15505073483384" lon="10.881452766865845"><ele>21.0</ele><time>2026-03-28T17:26:34Z</time></trkpt><trkpt lat="45.15513840622547" lon="10.881780275593194"><ele>21.0</ele><time>2026-03-28T17:26:35Z</time></trkpt><trkpt lat="45.155252582705" lon="10.882151796351181"><ele>21.0</ele><time>2026-03-28T17:26:36Z</time></trkpt><trkpt lat="45.15539087927474" lon="10.882551219965942"><ele>21.0</ele><time>2026-03-28T17:26:37Z</time></trkpt><trkpt lat="45.15554385125176" lon="10.882976574923415"><ele>20.5</ele><time>2026-03-28T17:26:38Z</time></trkpt><trkpt lat="45.155655120471195" lon="10.88327254790726"><ele>20.0</ele><time>2026-03-28T17:26:39Z</time></trkpt><trkpt lat="45.15577412900886" lon="10.88361773202039"><ele>20.0</ele><time>2026-03-28T17:26:40Z</time></trkpt><trkpt lat="45.15588529881234" lon="10.883906465223276"><ele>20.0</ele><time>2026-03-28T17:26:41Z</time></trkpt><trkpt lat="45.15598936293925" lon="10.884175748290826"><ele>20.0</ele><time>2026-03-28T17:26:42Z</time></trkpt><trkpt lat="45.15609862100323" lon="10.884451052593148"><ele>20.0</ele><time>2026-03-28T17:26:43Z</time></trkpt><trkpt lat="45.15623204008675" lon="10.884710455757807"><ele>20.0</ele><time>2026-03-28T17:26:44Z</time></trkpt><trkpt lat="45.156397304990236" lon="10.884941560204501"><ele>20.0</ele><time>2026-03-28T17:26:45Z</time></trkpt><trkpt lat="45.156572959996424" lon="10.885176519749486"><ele>20.0</ele><time>2026-03-28T17:26:46Z</time></trkpt><trkpt lat="45.15673197478921" lon="10.885443118699394"><ele>20.0</ele><time>2026-03-28T17:26:47Z</time></trkpt><trkpt lat="45.15687415217441" lon="10.885721067451476"><ele>20.0</ele><time>2026-03-28T17:26:48Z</time></trkpt><trkpt lat="45.15701913577338" lon="10.8859918319284"><ele>20.5</ele><time>2026-03-28T17:26:49Z</time></trkpt><trkpt lat="45.15716241714491" lon="10.886245982212017"><ele>21.0</ele><time>2026-03-28T17:26:50Z</time></trkpt><trkpt lat="45.15731660138655" lon="10.886489627628437"><ele>20.5</ele><time>2026-03-28T17:26:51Z</time></trkpt><trkpt lat="45.157511451668036" lon="10.886688654846761"><ele>20.0</ele><time>2026-03-28T17:26:52Z</time></trkpt><trkpt lat="45.15773123096676" lon="10.886860810592289"><ele>20.0</ele><time>2026-03-28T17:26:53Z</time></trkpt><trkpt lat="45.157918776334064" lon="10.887081062497966"><ele>20.0</ele><time>2026-03-28T17:26:54Z</time></trkpt><trkpt lat="45.1580502548358" lon="10.887362676146934"><ele>20.5</ele><time>2026-03-28T17:26:55Z</time></trkpt><trkpt lat="45.15813736603777" lon="10.887668921255745"><ele>21.0</ele><time>2026-03-28T17:26:56Z</time></trkpt><trkpt lat="45.158107873717476" lon="10.888010595233673"><ele>21.0</ele><time>2026-03-28T17:26:57Z</time></trkpt><trkpt lat="45.15814816384641" lon="10.888348374209915"><ele>21.0</ele><time>2026-03-28T17:26:58Z</time></trkpt><trkpt lat="45.15819237648554" lon="10.888699622880917"><ele>21.0</ele><time>2026-03-28T17:26:59Z</time></trkpt><trkpt lat="45.15823826780839" lon="10.889058004186358"><ele>21.0</ele><time>2026-03-28T17:27:00Z</time></trkpt><trkpt lat="45.15828152027871" lon="10.88940917575703"><ele>21.0</ele><time>2026-03-28T17:27:01Z</time></trkpt><trkpt lat="45.15833665090687" lon="10.889732651906025"><ele>21.0</ele><time>2026-03-28T17:27:02Z</time></trkpt><trkpt lat="45.15835832211437" lon="10.890034039179167"><ele>21.0</ele><time>2026-03-28T17:27:03Z</time></trkpt><trkpt lat="45.158409339849506" lon="10.89031876304791"><ele>21.0</ele><time>2026-03-28T17:27:04Z</time></trkpt><trkpt lat="45.15843744826104" lon="10.890603317008537"><ele>21.0</ele><time>2026-03-28T17:27:05Z</time></trkpt><trkpt lat="45.15847587503157" lon="10.890881748671816"><ele>21.0</ele><time>2026-03-28T17:27:06Z</time></trkpt><trkpt lat="45.15850842583958" lon="10.891148557697734"><ele>21.0</ele><time>2026-03-28T17:27:07Z</time></trkpt><trkpt lat="45.158541770983476" lon="10.891401628358947"><ele>21.0</ele><time>2026-03-28T17:27:08Z</time></trkpt><trkpt lat="45.15858535211998" lon="10.891641558656477"><ele>21.0</ele><time>2026-03-28T17:27:09Z</time></trkpt><trkpt lat="45.15864998579886" lon="10.891869668976208"><ele>21.0</ele><time>2026-03-28T17:27:10Z</time></trkpt><trkpt lat="45.158745839821165" lon="10.892072213160777"><ele>21.0</ele><time>2026-03-28T17:27:11Z</time></trkpt><trkpt lat="45.15885323902853" lon="10.892264741070099"><ele>21.0</ele><time>2026-03-28T17:27:12Z</time></trkpt><trkpt lat="45.15897242721065" lon="10.892442827356705"><ele>21.666666666666668</ele><time>2026-03-28T17:27:13Z</time></trkpt><trkpt lat="45.15909484996038" lon="10.892609702048244"><ele>22.333333333333336</ele><time>2026-03-28T17:27:14Z</time></trkpt><trkpt lat="45.15921558723163" lon="10.89275992349265"><ele>23.0</ele><time>2026-03-28T17:27:15Z</time></trkpt><trkpt lat="45.15932596418193" lon="10.892900850333692"><ele>23.0</ele><time>2026-03-28T17:27:16Z</time></trkpt><trkpt lat="45.159427566367405" lon="10.893036892799778"><ele>23.0</ele><time>2026-03-28T17:27:17Z</time></trkpt><trkpt lat="45.15953024637736" lon="10.89315894243043"><ele>23.0</ele><time>2026-03-28T17:27:18Z</time></trkpt><trkpt lat="45.159641744821435" lon="10.893267244034753"><ele>23.0</ele><time>2026-03-28T17:27:19Z</time></trkpt><trkpt lat="45.159754315022134" lon="10.893351935985946"><ele>23.0</ele><time>2026-03-28T17:27:20Z</time></trkpt><trkpt lat="45.159858220191026" lon="10.893419531895793"><ele>23.0</ele><time>2026-03-28T17:27:21Z</time></trkpt><trkpt lat="45.15995315301034" lon="10.893486230106518"><ele>23.0</ele><time>2026-03-28T17:27:22Z</time></trkpt><trkpt lat="45.16004146326285" lon="10.893562373067077"><ele>23.0</ele><time>2026-03-28T17:27:23Z</time></trkpt><trkpt lat="45.160115588391356" lon="10.89365764359429"><ele>23.0</ele><time>2026-03-28T17:27:24Z</time></trkpt><trkpt lat="45.16016851591889" lon="10.89375997167634"><ele>22.799999999999997</ele><time>2026-03-28T17:27:25Z</time></trkpt><trkpt lat="45.1601948605231" lon="10.893858521425805"><ele>22.6</ele><time>2026-03-28T17:27:26Z</time></trkpt><trkpt lat="45.1602075365596" lon="10.89396641256306"><ele>22.4</ele><time>2026-03-28T17:27:27Z</time></trkpt><trkpt lat="45.16019137921758" lon="10.894085324473556"><ele>22.200000000000003</ele><time>2026-03-28T17:27:28Z</time></trkpt><trkpt lat="45.160156279123385" lon="10.894221931562038"><ele>22.0</ele><time>2026-03-28T17:27:29Z</time></trkpt><trkpt lat="45.16009545620875" lon="10.894364668625304"><ele>21.75</ele><time>2026-03-28T17:27:30Z</time></trkpt><trkpt lat="45.160030978489544" lon="10.894517876032097"><ele>21.5</ele><time>2026-03-28T17:27:31Z</time></trkpt><trkpt lat="45.1599592679352" lon="10.894676741945394"><ele>21.25</ele><time>2026-03-28T17:27:32Z</time></trkpt><trkpt lat="45.15988400964217" lon="10.89484382606051"><ele>21.0</ele><time>2026-03-28T17:27:33Z</time></trkpt><trkpt lat="45.15980460820195" lon="10.895019399964209"><ele>20.666666666666668</ele><time>2026-03-28T17:27:34Z</time></trkpt><trkpt lat="45.159722976710746" lon="10.895205289975063"><ele>20.333333333333336</ele><time>2026-03-28T17:27:35Z</time></trkpt><trkpt lat="45.15963794317962" lon="10.895401309423976"><ele>20.0</ele><time>2026-03-28T17:27:36Z</time></trkpt><trkpt lat="45.159553956736204" lon="10.89560829789425"><ele>20.0</ele><time>2026-03-28T17:27:37Z</time></trkpt><trkpt lat="45.15945662031841" lon="10.895816226036255"><ele>20.0</ele><time>2026-03-28T17:27:38Z</time></trkpt><trkpt lat="45.15937359835251" lon="10.896040296501326"><ele>20.0</ele><time>2026-03-28T17:27:39Z</time></trkpt><trkpt lat="45.159296106782776" lon="10.896279303473776"><ele>19.666666666666668</ele><time>2026-03-28T17:27:40Z</time></trkpt><trkpt lat="45.159239973209914" lon="10.896536073061757"><ele>19.333333333333332</ele><time>2026-03-28T17:27:41Z</time></trkpt><trkpt lat="45.15917399024548" lon="10.896792907613605"><ele>19.0</ele><time>2026-03-28T17:27:42Z</time></trkpt><trkpt lat="45.159112099116264" lon="10.897058827756997"><ele>19.0</ele><time>2026-03-28T17:27:43Z</time></trkpt><trkpt lat="45.15904657334774" lon="10.897327634508464"><ele>19.0</ele><time>2026-03-28T17:27:44Z</time></trkpt><trkpt lat="45.15898124587093" lon="10.897598356088274"><ele>19.0</ele><time>2026-03-28T17:27:45Z</time></trkpt><trkpt lat="45.15891198925592" lon="10.89787376461974"><ele>19.0</ele><time>2026-03-28T17:27:46Z</time></trkpt><trkpt lat="45.15884510801847" lon="10.898150781188445"><ele>19.0</ele><time>2026-03-28T17:27:47Z</time></trkpt><trkpt lat="45.158777610069706" lon="10.898430856454075"><ele>19.0</ele><time>2026-03-28T17:27:48Z</time></trkpt><trkpt lat="45.15871057930818" lon="10.898712353152176"><ele>19.333333333333332</ele><time>2026-03-28T17:27:49Z</time></trkpt><trkpt lat="45.15864345130001" lon="10.898999632012652"><ele>19.666666666666668</ele><time>2026-03-28T17:27:50Z</time></trkpt><trkpt lat="45.15857322426653" lon="10.899288120269102"><ele>20.0</ele><time>2026-03-28T17:27:51Z</time></trkpt><trkpt lat="45.15850185083463" lon="10.899578969362874"><ele>20.333333333333336</ele><time>2026-03-28T17:27:52Z</time></trkpt><trkpt lat="45.15843175937462" lon="10.899870318604114"><ele>20.666666666666668</ele><time>2026-03-28T17:27:53Z</time></trkpt><trkpt lat="45.15836339593241" lon="10.900157556621268"><ele>21.0</ele><time>2026-03-28T17:27:54Z</time></trkpt><trkpt lat="45.15830365824443" lon="10.900453042805132"><ele>21.0</ele><time>2026-03-28T17:27:55Z</time></trkpt><trkpt lat="45.15825408824973" lon="10.900752041869778"><ele>21.0</ele><time>2026-03-28T17:27:56Z</time></trkpt><trkpt lat="45.15821457282435" lon="10.901048870769687"><ele>21.0</ele><time>2026-03-28T17:27:57Z</time></trkpt><trkpt lat="45.15818172311442" lon="10.901347224773332"><ele>20.666666666666668</ele><time>2026-03-28T17:27:58Z</time></trkpt><trkpt lat="45.158151037665505" lon="10.901639610240256"><ele>20.333333333333336</ele><time>2026-03-28T17:27:59Z</time></trkpt><trkpt lat="45.15811719861579" lon="10.901915773135919"><ele>20.0</ele><time>2026-03-28T17:28:00Z</time></trkpt><trkpt lat="45.158080972532574" lon="10.902191263577643"><ele>20.0</ele><time>2026-03-28T17:28:01Z</time></trkpt><trkpt lat="45.15803137165409" lon="10.902457800404806"><ele>20.0</ele><time>2026-03-28T17:28:02Z</time></trkpt><trkpt lat="45.15796786580567" lon="10.902709177105512"><ele>20.0</ele><time>2026-03-28T17:28:03Z</time></trkpt><trkpt lat="45.157884831239606" lon="10.902943988708527"><ele>20.0</ele><time>2026-03-28T17:28:04Z</time></trkpt><trkpt lat="45.15778677900308" lon="10.903161102673542"><ele>20.0</ele><time>2026-03-28T17:28:05Z</time></trkpt><trkpt lat="45.15768039292773" lon="10.90336972977017"><ele>20.0</ele><time>2026-03-28T17:28:06Z</time></trkpt><trkpt lat="45.15756366965105" lon="10.903581071376284"><ele>19.666666666666668</ele><time>2026-03-28T17:28:07Z</time></trkpt><trkpt lat="45.157439133333924" lon="10.90378294614387"><ele>19.333333333333332</ele><time>2026-03-28T17:28:08Z</time></trkpt><trkpt lat="45.15732026300451" lon="10.903987205664624"><ele>19.0</ele><time>2026-03-28T17:28:09Z</time></trkpt><trkpt lat="45.15720095535032" lon="10.90419870393794"><ele>19.666666666666664</ele><time>2026-03-28T17:28:10Z</time></trkpt><trkpt lat="45.1570767551396" lon="10.904413893848059"><ele>20.333333333333332</ele><time>2026-03-28T17:28:11Z</time></trkpt><trkpt lat="45.15694880028935" lon="10.904629606027157"><ele>21.0</ele><time>2026-03-28T17:28:12Z</time></trkpt><trkpt lat="45.15682185833957" lon="10.904846571302565"><ele>21.0</ele><time>2026-03-28T17:28:13Z</time></trkpt><trkpt lat="45.15669324739765" lon="10.905069102416226"><ele>21.0</ele><time>2026-03-28T17:28:14Z</time></trkpt><trkpt lat="45.1565640710899" lon="10.905306019407108"><ele>21.0</ele><time>2026-03-28T17:28:15Z</time></trkpt><trkpt lat="45.156431766659004" lon="10.9055503668575"><ele>20.0</ele><time>2026-03-28T17:28:16Z</time></trkpt><trkpt lat="45.156293102943444" lon="10.905797704103447"><ele>19.0</ele><time>2026-03-28T17:28:17Z</time></trkpt><trkpt lat="45.156164083275485" lon="10.906067958894651"><ele>19.0</ele><time>2026-03-28T17:28:18Z</time></trkpt><trkpt lat="45.156034723602346" lon="10.906348104904252"><ele>19.0</ele><time>2026-03-28T17:28:19Z</time></trkpt><trkpt lat="45.15590276529132" lon="10.906646260844312"><ele>19.5</ele><time>2026-03-28T17:28:20Z</time></trkpt><trkpt lat="45.15577328472987" lon="10.906947659665096"><ele>20.0</ele><time>2026-03-28T17:28:21Z</time></trkpt><trkpt lat="45.15564223977326" lon="10.90725289173488"><ele>19.5</ele><time>2026-03-28T17:28:22Z</time></trkpt><trkpt lat="45.15550959696629" lon="10.907559202442819"><ele>19.0</ele><time>2026-03-28T17:28:23Z</time></trkpt><trkpt lat="45.15537428359973" lon="10.907871526461383"><ele>19.0</ele><time>2026-03-28T17:28:24Z</time></trkpt><trkpt lat="45.15523941152091" lon="10.908182832006501"><ele>19.0</ele><time>2026-03-28T17:28:25Z</time></trkpt><trkpt lat="45.15511569536975" lon="10.908506027255406"><ele>19.0</ele><time>2026-03-28T17:28:26Z</time></trkpt><trkpt lat="45.15497812778982" lon="10.908817386059045"><ele>19.0</ele><time>2026-03-28T17:28:27Z</time></trkpt><trkpt lat="45.15484282577137" lon="10.909133231924015"><ele>19.0</ele><time>2026-03-28T17:28:28Z</time></trkpt><trkpt lat="45.154706314863866" lon="10.909451061641846"><ele>19.0</ele><time>2026-03-28T17:28:29Z</time></trkpt><trkpt lat="45.154568872295236" lon="10.909765865734212"><ele>19.0</ele><time>2026-03-28T17:28:30Z</time></trkpt><trkpt lat="45.15442902282464" lon="10.910081051068083"><ele>19.0</ele><time>2026-03-28T17:28:31Z</time></trkpt><trkpt lat="45.154290085925915" lon="10.910394253290816"><ele>19.0</ele><time>2026-03-28T17:28:32Z</time></trkpt><trkpt lat="45.15415162263465" lon="10.910708951566317"><ele>19.0</ele><time>2026-03-28T17:28:33Z</time></trkpt><trkpt lat="45.15401342545802" lon="10.911023681850592"><ele>19.5</ele><time>2026-03-28T17:28:34Z</time></trkpt><trkpt lat="45.15387641356738" lon="10.91133723204334"><ele>20.0</ele><time>2026-03-28T17:28:35Z</time></trkpt><trkpt lat="45.15373853524648" lon="10.911650641124222"><ele>19.5</ele><time>2026-03-28T17:28:36Z</time></trkpt><trkpt lat="45.15360123616974" lon="10.91196095740143"><ele>19.0</ele><time>2026-03-28T17:28:37Z</time></trkpt><trkpt lat="45.15346368489197" lon="10.91226537982765"><ele>19.0</ele><time>2026-03-28T17:28:38Z</time></trkpt><trkpt lat="45.153325015737586" lon="10.912565682501905"><ele>19.0</ele><time>2026-03-28T17:28:39Z</time></trkpt><trkpt lat="45.15318410798654" lon="10.912864504392255"><ele>19.0</ele><time>2026-03-28T17:28:40Z</time></trkpt><trkpt lat="45.153041195536176" lon="10.913156522948416"><ele>19.0</ele><time>2026-03-28T17:28:41Z</time></trkpt><trkpt lat="45.152895444059304" lon="10.91344697297907"><ele>18.5</ele><time>2026-03-28T17:28:42Z</time></trkpt><trkpt lat="45.15275067220919" lon="10.913733548119652"><ele>18.0</ele><time>2026-03-28T17:28:43Z</time></trkpt><trkpt lat="45.1526050264273" lon="10.914020221426542"><ele>18.0</ele><time>2026-03-28T17:28:44Z</time></trkpt><trkpt lat="45.15246101239164" lon="10.914306623269798"><ele>18.0</ele><time>2026-03-28T17:28:45Z</time></trkpt><trkpt lat="45.15231944331908" lon="10.914595275929132"><ele>18.0</ele><time>2026-03-28T17:28:46Z</time></trkpt><trkpt lat="45.1521789011197" lon="10.914883662259147"><ele>18.0</ele><time>2026-03-28T17:28:47Z</time></trkpt><trkpt lat="45.15203560522958" lon="10.915167962822755"><ele>18.0</ele><time>2026-03-28T17:28:48Z</time></trkpt><trkpt lat="45.1518915658628" lon="10.91545047389632"><ele>18.0</ele><time>2026-03-28T17:28:49Z</time></trkpt><trkpt lat="45.1517488801152" lon="10.91573298534452"><ele>18.5</ele><time>2026-03-28T17:28:50Z</time></trkpt><trkpt lat="45.151607783145366" lon="10.916014127819587"><ele>19.0</ele><time>2026-03-28T17:28:51Z</time></trkpt><trkpt lat="45.15146726309971" lon="10.916295790373798"><ele>19.0</ele><time>2026-03-28T17:28:52Z</time></trkpt><trkpt lat="45.15132556768515" lon="10.916573641807961"><ele>19.0</ele><time>2026-03-28T17:28:53Z</time></trkpt><trkpt lat="45.15118504407818" lon="10.916844202793555"><ele>18.5</ele><time>2026-03-28T17:28:54Z</time></trkpt><trkpt lat="45.15104713409715" lon="10.917111219551545"><ele>18.0</ele><time>2026-03-28T17:28:55Z</time></trkpt><trkpt lat="45.15090848921438" lon="10.917368950391191"><ele>18.333333333333332</ele><time>2026-03-28T17:28:56Z</time></trkpt><trkpt lat="45.15076345961118" lon="10.917614119774333"><ele>18.666666666666664</ele><time>2026-03-28T17:28:57Z</time></trkpt><trkpt lat="45.15060925141576" lon="10.9178414335005"><ele>19.0</ele><time>2026-03-28T17:28:58Z</time></trkpt><trkpt lat="45.15044696943423" lon="10.918061653408989"><ele>19.0</ele><time>2026-03-28T17:28:59Z</time></trkpt><trkpt lat="45.15027643640385" lon="10.918271276904605"><ele>19.0</ele><time>2026-03-28T17:29:00Z</time></trkpt><trkpt lat="45.15009653592366" lon="10.918465503817815"><ele>19.0</ele><time>2026-03-28T17:29:01Z</time></trkpt><trkpt lat="45.14991199561482" lon="10.918645350643304"><ele>19.0</ele><time>2026-03-28T17:29:02Z</time></trkpt><trkpt lat="45.14972858171184" lon="10.918810803011242"><ele>19.0</ele><time>2026-03-28T17:29:03Z</time></trkpt><trkpt lat="45.14954659337571" lon="10.918963851201822"><ele>19.0</ele><time>2026-03-28T17:29:04Z</time></trkpt><trkpt lat="45.14937156458511" lon="10.919111912192303"><ele>19.0</ele><time>2026-03-28T17:29:05Z</time></trkpt><trkpt lat="45.14921626083569" lon="10.919255446394939"><ele>19.0</ele><time>2026-03-28T17:29:06Z</time></trkpt><trkpt lat="45.14905407828796" lon="10.919399758897045"><ele>19.333333333333332</ele><time>2026-03-28T17:29:07Z</time></trkpt><trkpt lat="45.14890095951081" lon="10.919533530862509"><ele>19.666666666666668</ele><time>2026-03-28T17:29:08Z</time></trkpt><trkpt lat="45.14875571759862" lon="10.919663244470902"><ele>20.0</ele><time>2026-03-28T17:29:09Z</time></trkpt><trkpt lat="45.14861503932629" lon="10.919785317118766"><ele>20.0</ele><time>2026-03-28T17:29:10Z</time></trkpt><trkpt lat="45.14847746731484" lon="10.919904311886095"><ele>20.0</ele><time>2026-03-28T17:29:11Z</time></trkpt><trkpt lat="45.14835255217184" lon="10.920020436822679"><ele>20.0</ele><time>2026-03-28T17:29:12Z</time></trkpt><trkpt lat="45.14824067268434" lon="10.920141885453567"><ele>20.2</ele><time>2026-03-28T17:29:13Z</time></trkpt><trkpt lat="45.14814779300223" lon="10.920261640007789"><ele>20.4</ele><time>2026-03-28T17:29:14Z</time></trkpt><trkpt lat="45.14807531083233" lon="10.920389558896762"><ele>20.6</ele><time>2026-03-28T17:29:15Z</time></trkpt><trkpt lat="45.14801302357496" lon="10.92051595336222"><ele>20.8</ele><time>2026-03-28T17:29:16Z</time></trkpt><trkpt lat="45.14796263871088" lon="10.920632668197417"><ele>21.0</ele><time>2026-03-28T17:29:17Z</time></trkpt><trkpt lat="45.1479177333786" lon="10.920742253383663"><ele>21.0</ele><time>2026-03-28T17:29:18Z</time></trkpt><trkpt lat="45.1478747810609" lon="10.920843778763098"><ele>21.0</ele><time>2026-03-28T17:29:19Z</time></trkpt><trkpt lat="45.147835485475724" lon="10.920934298065049"><ele>21.0</ele><time>2026-03-28T17:29:20Z</time></trkpt><trkpt lat="45.14780143906341" lon="10.921021326554131"><ele>21.0</ele><time>2026-03-28T17:29:21Z</time></trkpt><trkpt lat="45.14774755678514" lon="10.921160937818668"><ele>21.0</ele><time>2026-03-28T17:29:23Z</time></trkpt><trkpt lat="45.14770484897713" lon="10.921276537452313"><ele>21.0</ele><time>2026-03-28T17:29:25Z</time></trkpt><trkpt lat="45.14766671716156" lon="10.921380974336115"><ele>21.0</ele><time>2026-03-28T17:29:27Z</time></trkpt><trkpt lat="45.14763007492751" lon="10.921472708746721"><ele>21.0</ele><time>2026-03-28T17:29:29Z</time></trkpt><trkpt lat="45.14758859880674" lon="10.921577999981253"><ele>21.0</ele><time>2026-03-28T17:29:31Z</time></trkpt><trkpt lat="45.14754460090498" lon="10.921693718360707"><ele>21.0</ele><time>2026-03-28T17:29:33Z</time></trkpt><trkpt lat="45.14749231073288" lon="10.921824626451562"><ele>21.0</ele><time>2026-03-28T17:29:35Z</time></trkpt><trkpt lat="45.147455687542134" lon="10.92191189085541"><ele>21.0</ele><time>2026-03-28T17:29:36Z</time></trkpt><trkpt lat="45.14741567550352" lon="10.922011901224408"><ele>21.0</ele><time>2026-03-28T17:29:37Z</time></trkpt><trkpt lat="45.147367430068456" lon="10.922128071479666"><ele>21.0</ele><time>2026-03-28T17:29:38Z</time></trkpt><trkpt lat="45.14731753402948" lon="10.92225829879998"><ele>21.0</ele><time>2026-03-28T17:29:39Z</time></trkpt><trkpt lat="45.147250807494025" lon="10.922377387975912"><ele>21.0</ele><time>2026-03-28T17:29:40Z</time></trkpt><trkpt lat="45.147202969464956" lon="10.92249313715897"><ele>21.0</ele><time>2026-03-28T17:29:41Z</time></trkpt><trkpt lat="45.14711569087658" lon="10.922531695850335"><ele>21.0</ele><time>2026-03-28T17:29:42Z</time></trkpt><trkpt lat="45.14701796081811" lon="10.922494117415965"><ele>21.0</ele><time>2026-03-28T17:29:43Z</time></trkpt><trkpt lat="45.14687462941044" lon="10.92242314042974"><ele>21.0</ele><time>2026-03-28T17:29:44Z</time></trkpt><trkpt lat="45.14667440722934" lon="10.922350454403086"><ele>21.0</ele><time>2026-03-28T17:29:45Z</time></trkpt><trkpt lat="45.1464452129859" lon="10.922239701224575"><ele>21.0</ele><time>2026-03-28T17:29:46Z</time></trkpt><trkpt lat="45.14618883006688" lon="10.922111748381173"><ele>21.0</ele><time>2026-03-28T17:29:47Z</time></trkpt><trkpt lat="45.14592648574109" lon="10.921914220832"><ele>21.0</ele><time>2026-03-28T17:29:48Z</time></trkpt><trkpt lat="45.14563733947457" lon="10.921720808124501"><ele>20.5</ele><time>2026-03-28T17:29:49Z</time></trkpt><trkpt lat="45.145328108407774" lon="10.921530267849846"><ele>20.0</ele><time>2026-03-28T17:29:50Z</time></trkpt><trkpt lat="45.14502309487906" lon="10.921350460986641"><ele>19.5</ele><time>2026-03-28T17:29:51Z</time></trkpt><trkpt lat="45.14472970772244" lon="10.921179923912346"><ele>19.0</ele><time>2026-03-28T17:29:52Z</time></trkpt><trkpt lat="45.14443752510206" lon="10.921009822308726"><ele>19.0</ele><time>2026-03-28T17:29:53Z</time></trkpt><trkpt lat="45.144143571680964" lon="10.920839813484724"><ele>19.0</ele><time>2026-03-28T17:29:54Z</time></trkpt><trkpt lat="45.14385717953816" lon="10.9206981908149"><ele>19.0</ele><time>2026-03-28T17:29:55Z</time></trkpt><trkpt lat="45.14359178742004" lon="10.920515777325905"><ele>19.0</ele><time>2026-03-28T17:29:56Z</time></trkpt><trkpt lat="45.143298546553254" lon="10.92035468699868"><ele>18.5</ele><time>2026-03-28T17:29:57Z</time></trkpt><trkpt lat="45.142996704186395" lon="10.920186282312521"><ele>18.0</ele><time>2026-03-28T17:29:58Z</time></trkpt><trkpt lat="45.142683634110206" lon="10.920005276959861"><ele>19.0</ele><time>2026-03-28T17:29:59Z</time></trkpt><trkpt lat="45.14235339015677" lon="10.919836095661871"><ele>20.0</ele><time>2026-03-28T17:30:00Z</time></trkpt><trkpt lat="45.142045096141956" lon="10.919654682785422"><ele>20.0</ele><time>2026-03-28T17:30:01Z</time></trkpt><trkpt lat="45.14176529920003" lon="10.919488616348898"><ele>20.0</ele><time>2026-03-28T17:30:02Z</time></trkpt><trkpt lat="45.141508251339445" lon="10.91931701551596"><ele>19.0</ele><time>2026-03-28T17:30:03Z</time></trkpt><trkpt lat="45.14124853008811" lon="10.919163830548246"><ele>18.0</ele><time>2026-03-28T17:30:04Z</time></trkpt><trkpt lat="45.14098336919063" lon="10.919007972345508"><ele>18.5</ele><time>2026-03-28T17:30:05Z</time></trkpt><trkpt lat="45.14071064851586" lon="10.918847670601316"><ele>19.0</ele><time>2026-03-28T17:30:06Z</time></trkpt><trkpt lat="45.14043816182893" lon="10.918690367903979"><ele>19.0</ele><time>2026-03-28T17:30:07Z</time></trkpt><trkpt lat="45.140165497856835" lon="10.918534747821427"><ele>19.0</ele><time>2026-03-28T17:30:08Z</time></trkpt><trkpt lat="45.13988622761302" lon="10.918379959857944"><ele>19.0</ele><time>2026-03-28T17:30:09Z</time></trkpt><trkpt lat="45.139598621179225" lon="10.918247482924151"><ele>19.0</ele><time>2026-03-28T17:30:10Z</time></trkpt><trkpt lat="45.139320630235545" lon="10.918089259475547"><ele>18.5</ele><time>2026-03-28T17:30:11Z</time></trkpt><trkpt lat="45.139042545366706" lon="10.91793357984293"><ele>18.0</ele><time>2026-03-28T17:30:12Z</time></trkpt><trkpt lat="45.13876370214611" lon="10.917776145170423"><ele>18.0</ele><time>2026-03-28T17:30:13Z</time></trkpt><trkpt lat="45.13848991445098" lon="10.91759507837363"><ele>18.0</ele><time>2026-03-28T17:30:14Z</time></trkpt><trkpt lat="45.13820866915887" lon="10.917436117936994"><ele>18.5</ele><time>2026-03-28T17:30:15Z</time></trkpt><trkpt lat="45.137926421272375" lon="10.917278146045364"><ele>19.0</ele><time>2026-03-28T17:30:16Z</time></trkpt><trkpt lat="45.137640396687345" lon="10.917143182336371"><ele>19.0</ele><time>2026-03-28T17:30:17Z</time></trkpt><trkpt lat="45.13736033451284" lon="10.916981162235276"><ele>19.0</ele><time>2026-03-28T17:30:18Z</time></trkpt><trkpt lat="45.13707957107803" lon="10.9168175945167"><ele>19.0</ele><time>2026-03-28T17:30:19Z</time></trkpt><trkpt lat="45.13679941864421" lon="10.91665365014221"><ele>19.0</ele><time>2026-03-28T17:30:20Z</time></trkpt><trkpt lat="45.136525413081095" lon="10.91645833689474"><ele>19.0</ele><time>2026-03-28T17:30:21Z</time></trkpt><trkpt lat="45.13623893045992" lon="10.916291405103173"><ele>19.0</ele><time>2026-03-28T17:30:22Z</time></trkpt><trkpt lat="45.13594410953219" lon="10.916157230250185"><ele>18.5</ele><time>2026-03-28T17:30:23Z</time></trkpt><trkpt lat="45.13565507829572" lon="10.915990892062123"><ele>18.0</ele><time>2026-03-28T17:30:24Z</time></trkpt><trkpt lat="45.13536279049653" lon="10.915820234852305"><ele>18.0</ele><time>2026-03-28T17:30:25Z</time></trkpt><trkpt lat="45.135069353130426" lon="10.915653892005931"><ele>18.0</ele><time>2026-03-28T17:30:26Z</time></trkpt><trkpt lat="45.13477633541023" lon="10.915456335727198"><ele>17.5</ele><time>2026-03-28T17:30:27Z</time></trkpt><trkpt lat="45.13446148790443" lon="10.915280485710353"><ele>17.0</ele><time>2026-03-28T17:30:28Z</time></trkpt><trkpt lat="45.13418549320315" lon="10.915126336011923"><ele>17.5</ele><time>2026-03-28T17:30:29Z</time></trkpt><trkpt lat="45.133900067387934" lon="10.914962219444757"><ele>18.0</ele><time>2026-03-28T17:30:30Z</time></trkpt><trkpt lat="45.133602548058256" lon="10.914789960895408"><ele>18.0</ele><time>2026-03-28T17:30:31Z</time></trkpt><trkpt lat="45.13328630172455" lon="10.91461847545039"><ele>18.0</ele><time>2026-03-28T17:30:32Z</time></trkpt><trkpt lat="45.132983498581005" lon="10.914447055088061"><ele>18.0</ele><time>2026-03-28T17:30:33Z</time></trkpt><trkpt lat="45.13268106081678" lon="10.914272366785656"><ele>18.0</ele><time>2026-03-28T17:30:34Z</time></trkpt><trkpt lat="45.132376757210814" lon="10.914101722153866"><ele>18.0</ele><time>2026-03-28T17:30:35Z</time></trkpt><trkpt lat="45.13207944506773" lon="10.91392842249996"><ele>18.0</ele><time>2026-03-28T17:30:36Z</time></trkpt><trkpt lat="45.13178146699643" lon="10.913757124587475"><ele>18.0</ele><time>2026-03-28T17:30:37Z</time></trkpt><trkpt lat="45.13148226969811" lon="10.913587897370542"><ele>18.0</ele><time>2026-03-28T17:30:38Z</time></trkpt><trkpt lat="45.13117988792737" lon="10.913415999721138"><ele>18.0</ele><time>2026-03-28T17:30:39Z</time></trkpt><trkpt lat="45.13087721582669" lon="10.913245534864794"><ele>18.0</ele><time>2026-03-28T17:30:40Z</time></trkpt><trkpt lat="45.13057616493163" lon="10.913074734311532"><ele>18.0</ele><time>2026-03-28T17:30:41Z</time></trkpt><trkpt lat="45.130274470762714" lon="10.912901282164999"><ele>18.0</ele><time>2026-03-28T17:30:42Z</time></trkpt><trkpt lat="45.12997288308257" lon="10.91272792745842"><ele>18.5</ele><time>2026-03-28T17:30:43Z</time></trkpt><trkpt lat="45.129672007151925" lon="10.912557135718433"><ele>19.0</ele><time>2026-03-28T17:30:44Z</time></trkpt><trkpt lat="45.12937734368283" lon="10.912389225745148"><ele>19.0</ele><time>2026-03-28T17:30:45Z</time></trkpt><trkpt lat="45.12909004700375" lon="10.912223970921684"><ele>19.0</ele><time>2026-03-28T17:30:46Z</time></trkpt><trkpt lat="45.12881416878911" lon="10.912066495497402"><ele>19.0</ele><time>2026-03-28T17:30:47Z</time></trkpt><trkpt lat="45.128547947373995" lon="10.91191293379022"><ele>19.0</ele><time>2026-03-28T17:30:48Z</time></trkpt><trkpt lat="45.128283437611934" lon="10.911760359235785"><ele>18.0</ele><time>2026-03-28T17:30:49Z</time></trkpt><trkpt lat="45.12800984488558" lon="10.911602545558498"><ele>17.0</ele><time>2026-03-28T17:30:50Z</time></trkpt><trkpt lat="45.127744299764956" lon="10.911448826571352"><ele>17.0</ele><time>2026-03-28T17:30:51Z</time></trkpt><trkpt lat="45.12747978486159" lon="10.911294073322281"><ele>17.0</ele><time>2026-03-28T17:30:52Z</time></trkpt><trkpt lat="45.12720677320669" lon="10.911134349168897"><ele>17.0</ele><time>2026-03-28T17:30:53Z</time></trkpt><trkpt lat="45.126935025444865" lon="10.910975364267278"><ele>17.0</ele><time>2026-03-28T17:30:54Z</time></trkpt><trkpt lat="45.12666645065169" lon="10.910818237576324"><ele>16.5</ele><time>2026-03-28T17:30:55Z</time></trkpt><trkpt lat="45.12640598647596" lon="10.910667112827811"><ele>16.0</ele><time>2026-03-28T17:30:56Z</time></trkpt><trkpt lat="45.12614623155456" lon="10.91051722038688"><ele>16.0</ele><time>2026-03-28T17:30:57Z</time></trkpt><trkpt lat="45.12589933956796" lon="10.910375106282965"><ele>16.0</ele><time>2026-03-28T17:30:58Z</time></trkpt><trkpt lat="45.12564931097376" lon="10.910228225485"><ele>17.0</ele><time>2026-03-28T17:30:59Z</time></trkpt><trkpt lat="45.12539524945138" lon="10.910081847647266"><ele>18.0</ele><time>2026-03-28T17:31:00Z</time></trkpt><trkpt lat="45.12513490643741" lon="10.909927798425029"><ele>18.0</ele><time>2026-03-28T17:31:01Z</time></trkpt><trkpt lat="45.1248710485928" lon="10.909777904546997"><ele>18.0</ele><time>2026-03-28T17:31:02Z</time></trkpt><trkpt lat="45.12460178784128" lon="10.909621725401893"><ele>18.0</ele><time>2026-03-28T17:31:03Z</time></trkpt><trkpt lat="45.12430638472145" lon="10.909487254949195"><ele>18.0</ele><time>2026-03-28T17:31:04Z</time></trkpt><trkpt lat="45.1240219023968" lon="10.909322538536781"><ele>18.5</ele><time>2026-03-28T17:31:05Z</time></trkpt><trkpt lat="45.123788201748916" lon="10.909192126733899"><ele>19.0</ele><time>2026-03-28T17:31:06Z</time></trkpt><trkpt lat="45.12359642856307" lon="10.909070418835942"><ele>19.0</ele><time>2026-03-28T17:31:07Z</time></trkpt><trkpt lat="45.12340132019252" lon="10.908946594465485"><ele>19.0</ele><time>2026-03-28T17:31:08Z</time></trkpt><trkpt lat="45.123204173519056" lon="10.908809094403926"><ele>19.0</ele><time>2026-03-28T17:31:09Z</time></trkpt><trkpt lat="45.12297942912107" lon="10.908679715666223"><ele>18.666666666666664</ele><time>2026-03-28T17:31:10Z</time></trkpt><trkpt lat="45.12277193863844" lon="10.908560269469502"><ele>18.333333333333332</ele><time>2026-03-28T17:31:11Z</time></trkpt><trkpt lat="45.12257534462721" lon="10.908447417689645"><ele>18.0</ele><time>2026-03-28T17:31:12Z</time></trkpt><trkpt lat="45.12239317202968" lon="10.908343116666433"><ele>19.0</ele><time>2026-03-28T17:31:13Z</time></trkpt><trkpt lat="45.12222812069365" lon="10.908248991340168"><ele>20.0</ele><time>2026-03-28T17:31:14Z</time></trkpt><trkpt lat="45.12207879998484" lon="10.90816377238933"><ele>21.0</ele><time>2026-03-28T17:31:15Z</time></trkpt><trkpt lat="45.12193699004422" lon="10.908106789460419"><ele>21.0</ele><time>2026-03-28T17:31:16Z</time></trkpt><trkpt lat="45.121811865480765" lon="10.90803495759424"><ele>21.0</ele><time>2026-03-28T17:31:17Z</time></trkpt><trkpt lat="45.12170548191256" lon="10.907946188582287"><ele>21.0</ele><time>2026-03-28T17:31:18Z</time></trkpt><trkpt lat="45.12160500104919" lon="10.907886119856183"><ele>21.0</ele><time>2026-03-28T17:31:19Z</time></trkpt><trkpt lat="45.12152345859827" lon="10.907837372754143"><ele>20.6</ele><time>2026-03-28T17:31:20Z</time></trkpt><trkpt lat="45.12145723428086" lon="10.90779778302698"><ele>20.200000000000003</ele><time>2026-03-28T17:31:21Z</time></trkpt><trkpt lat="45.12137037512591" lon="10.907745857637368"><ele>19.799999999999997</ele><time>2026-03-28T17:31:23Z</time></trkpt><trkpt lat="45.12144222741763" lon="10.907642025493752"><ele>19.4</ele><time>2026-03-28T17:31:25Z</time></trkpt><trkpt lat="45.121486977901135" lon="10.9075330558478"><ele>19.0</ele><time>2026-03-28T17:31:26Z</time></trkpt><trkpt lat="45.12154592106273" lon="10.90738560638561"><ele>19.0</ele><time>2026-03-28T17:31:27Z</time></trkpt><trkpt lat="45.12161926644335" lon="10.90715292244254"><ele>19.0</ele><time>2026-03-28T17:31:28Z</time></trkpt><trkpt lat="45.12168402125498" lon="10.906982238282325"><ele>19.0</ele><time>2026-03-28T17:31:29Z</time></trkpt><trkpt lat="45.12173377786321" lon="10.906836697519871"><ele>19.0</ele><time>2026-03-28T17:31:30Z</time></trkpt><trkpt lat="45.12176904798923" lon="10.906718551054208"><ele>19.0</ele><time>2026-03-28T17:31:31Z</time></trkpt><trkpt lat="45.12180830877177" lon="10.906609831758809"><ele>19.0</ele><time>2026-03-28T17:31:32Z</time></trkpt><trkpt lat="45.12184138568334" lon="10.906500175668405"><ele>19.0</ele><time>2026-03-28T17:31:33Z</time></trkpt><trkpt lat="45.12189292514957" lon="10.906397115747913"><ele>19.0</ele><time>2026-03-28T17:31:34Z</time></trkpt><trkpt lat="45.121932597524555" lon="10.906277656438528"><ele>19.0</ele><time>2026-03-28T17:31:35Z</time></trkpt><trkpt lat="45.121965946817575" lon="10.90617723678455"><ele>19.0</ele><time>2026-03-28T17:31:36Z</time></trkpt><trkpt lat="45.12200688491531" lon="10.906051190897287"><ele>19.0</ele><time>2026-03-28T17:31:38Z</time></trkpt><trkpt lat="45.122059657342625" lon="10.905977944577755"><ele>19.0</ele><time>2026-03-28T17:31:42Z</time></trkpt><trkpt lat="45.12217639817506" lon="10.906085532693044"><ele>19.0</ele><time>2026-03-28T17:31:44Z</time></trkpt><trkpt lat="45.122241213017205" lon="10.906137542645444"><ele>19.0</ele><time>2026-03-28T17:31:45Z</time></trkpt><trkpt lat="45.122345049628414" lon="10.906192516274432"><ele>19.0</ele><time>2026-03-28T17:31:47Z</time></trkpt><trkpt lat="45.12241092304942" lon="10.906231234679897"><ele>19.0</ele><time>2026-03-28T17:31:48Z</time></trkpt><trkpt lat="45.12247592260187" lon="10.906277210409462"><ele>19.0</ele><time>2026-03-28T17:31:49Z</time></trkpt><trkpt lat="45.1225333386228" lon="10.906317005512774"><ele>19.0</ele><time>2026-03-28T17:31:50Z</time></trkpt><trkpt lat="45.12260062675244" lon="10.906355183353837"><ele>19.0</ele><time>2026-03-28T17:31:51Z</time></trkpt><trkpt lat="45.122682217219484" lon="10.906404307655771"><ele>19.0</ele><time>2026-03-28T17:31:52Z</time></trkpt><trkpt lat="45.12276453003677" lon="10.906460394246286"><ele>19.0</ele><time>2026-03-28T17:31:53Z</time></trkpt><trkpt lat="45.12284713517889" lon="10.906515026969098"><ele>19.0</ele><time>2026-03-28T17:31:54Z</time></trkpt><trkpt lat="45.122936393215404" lon="10.906568068216853"><ele>19.0</ele><time>2026-03-28T17:31:55Z</time></trkpt><trkpt lat="45.12302150703382" lon="10.906585707152182"><ele>19.0</ele><time>2026-03-28T17:31:56Z</time></trkpt><trkpt lat="45.12309794738778" lon="10.906567372529125"><ele>19.0</ele><time>2026-03-28T17:31:57Z</time></trkpt><trkpt lat="45.12315178010115" lon="10.906461629423633"><ele>19.0</ele><time>2026-03-28T17:31:58Z</time></trkpt><trkpt lat="45.12318520518974" lon="10.90632342529476"><ele>18.599999999999998</ele><time>2026-03-28T17:31:59Z</time></trkpt><trkpt lat="45.12323521002206" lon="10.906165933426587"><ele>18.2</ele><time>2026-03-28T17:32:00Z</time></trkpt><trkpt lat="45.1232865864177" lon="10.906010646486642"><ele>17.799999999999997</ele><time>2026-03-28T17:32:01Z</time></trkpt><trkpt lat="45.12333321573042" lon="10.905879929235567"><ele>17.4</ele><time>2026-03-28T17:32:02Z</time></trkpt><trkpt lat="45.1233610309486" lon="10.90576601687689"><ele>17.0</ele><time>2026-03-28T17:32:03Z</time></trkpt><trkpt lat="45.123375813778395" lon="10.905665821135779"><ele>17.0</ele><time>2026-03-28T17:32:04Z</time></trkpt><trkpt lat="45.123342792846714" lon="10.90557370098303"><ele>17.0</ele><time>2026-03-28T17:32:05Z</time></trkpt><trkpt lat="45.12328081122717" lon="10.905492907508844"><ele>17.0</ele><time>2026-03-28T17:32:06Z</time></trkpt><trkpt lat="45.123205892659634" lon="10.905436847335565"><ele>17.0</ele><time>2026-03-28T17:32:07Z</time></trkpt><trkpt lat="45.12313235964448" lon="10.905392388846382"><ele>17.0</ele><time>2026-03-28T17:32:08Z</time></trkpt><trkpt lat="45.12307155392659" lon="10.905353317822135"><ele>17.0</ele><time>2026-03-28T17:32:09Z</time></trkpt><trkpt lat="45.123006609881664" lon="10.905308364987453"><ele>18.0</ele><time>2026-03-28T17:32:10Z</time></trkpt><trkpt lat="45.122907984735924" lon="10.905240930345878"><ele>18.0</ele><time>2026-03-28T17:32:12Z</time></trkpt><trkpt lat="45.122813091333704" lon="10.905408018209977"><ele>18.0</ele><time>2026-03-28T17:33:05Z</time></trkpt><trkpt lat="45.12276988924046" lon="10.905498040783455"><ele>18.0</ele><time>2026-03-28T17:33:08Z</time></trkpt><trkpt lat="45.12284179104932" lon="10.905523400175069"><ele>18.0</ele><time>2026-03-28T17:33:41Z</time></trkpt></trkseg></trk></gpx>